<?xml version="1.0" encoding="UTF-8" standalone="no" ?>
<gpx xmlns="http://www.topografix.com/GPX/1/1" xmlns:xsi="http://www.w3.org/2001/XMLSchema-instance" xsi:schemaLocation="http://www.topografix.com/GPX/1/1 http://www.topografix.com/GPX/1/1/gpx.xsd" version="1.1" creator="VisuGPX - https://www.visugpx.com">
  <metadata>
    <name>la houssière</name>
    <desc><![CDATA[jogging du dimanche]]></desc>
  </metadata>
  <trk>
    <name><![CDATA[la houssière_1]]></name>
    <trkseg>
      <trkpt lat="50.60915" lon="4.17434">
        <ele>127.1</ele>
        <time>2015-01-11T09:32:59.000Z</time>
      </trkpt>
      <trkpt lat="50.60917" lon="4.17436">
        <ele>127</ele>
        <time>2015-01-11T09:33:00.000Z</time>
      </trkpt>
      <trkpt lat="50.60917" lon="4.17436">
        <ele>127</ele>
        <time>2015-01-11T09:33:01.000Z</time>
      </trkpt>
      <trkpt lat="50.60917" lon="4.17436">
        <ele>127</ele>
        <time>2015-01-11T09:33:02.000Z</time>
      </trkpt>
      <trkpt lat="50.60917" lon="4.17436">
        <ele>126.9</ele>
        <time>2015-01-11T09:33:03.000Z</time>
      </trkpt>
      <trkpt lat="50.60918" lon="4.17437">
        <ele>126.9</ele>
        <time>2015-01-11T09:33:04.000Z</time>
      </trkpt>
      <trkpt lat="50.60919" lon="4.17437">
        <ele>126.9</ele>
        <time>2015-01-11T09:33:05.000Z</time>
      </trkpt>
      <trkpt lat="50.60919" lon="4.17438">
        <ele>126.8</ele>
        <time>2015-01-11T09:33:06.000Z</time>
      </trkpt>
      <trkpt lat="50.6092" lon="4.17439">
        <ele>126.7</ele>
        <time>2015-01-11T09:33:07.000Z</time>
      </trkpt>
      <trkpt lat="50.60921" lon="4.1744">
        <ele>126.7</ele>
        <time>2015-01-11T09:33:08.000Z</time>
      </trkpt>
      <trkpt lat="50.60922" lon="4.17442">
        <ele>126.6</ele>
        <time>2015-01-11T09:33:09.000Z</time>
      </trkpt>
      <trkpt lat="50.60924" lon="4.17443">
        <ele>126.5</ele>
        <time>2015-01-11T09:33:10.000Z</time>
      </trkpt>
      <trkpt lat="50.60925" lon="4.17444">
        <ele>126.4</ele>
        <time>2015-01-11T09:33:11.000Z</time>
      </trkpt>
      <trkpt lat="50.60926" lon="4.17446">
        <ele>126.4</ele>
        <time>2015-01-11T09:33:12.000Z</time>
      </trkpt>
      <trkpt lat="50.60928" lon="4.17447">
        <ele>126.3</ele>
        <time>2015-01-11T09:33:13.000Z</time>
      </trkpt>
      <trkpt lat="50.60929" lon="4.17448">
        <ele>126.3</ele>
        <time>2015-01-11T09:33:14.000Z</time>
      </trkpt>
      <trkpt lat="50.6093" lon="4.1745">
        <ele>126.2</ele>
        <time>2015-01-11T09:33:15.000Z</time>
      </trkpt>
      <trkpt lat="50.60932" lon="4.17451">
        <ele>126.1</ele>
        <time>2015-01-11T09:33:16.000Z</time>
      </trkpt>
      <trkpt lat="50.60933" lon="4.17452">
        <ele>126.1</ele>
        <time>2015-01-11T09:33:17.000Z</time>
      </trkpt>
      <trkpt lat="50.60935" lon="4.17454">
        <ele>126</ele>
        <time>2015-01-11T09:33:18.000Z</time>
      </trkpt>
      <trkpt lat="50.60936" lon="4.17455">
        <ele>126</ele>
        <time>2015-01-11T09:33:19.000Z</time>
      </trkpt>
      <trkpt lat="50.60938" lon="4.17456">
        <ele>125.9</ele>
        <time>2015-01-11T09:33:20.000Z</time>
      </trkpt>
      <trkpt lat="50.60939" lon="4.17458">
        <ele>125.9</ele>
        <time>2015-01-11T09:33:21.000Z</time>
      </trkpt>
      <trkpt lat="50.60941" lon="4.17459">
        <ele>125.8</ele>
        <time>2015-01-11T09:33:22.000Z</time>
      </trkpt>
      <trkpt lat="50.60942" lon="4.17461">
        <ele>125.8</ele>
        <time>2015-01-11T09:33:23.000Z</time>
      </trkpt>
      <trkpt lat="50.60943" lon="4.17462">
        <ele>125.7</ele>
        <time>2015-01-11T09:33:24.000Z</time>
      </trkpt>
      <trkpt lat="50.60945" lon="4.17463">
        <ele>125.7</ele>
        <time>2015-01-11T09:33:25.000Z</time>
      </trkpt>
      <trkpt lat="50.60946" lon="4.17465">
        <ele>125.7</ele>
        <time>2015-01-11T09:33:26.000Z</time>
      </trkpt>
      <trkpt lat="50.60947" lon="4.17466">
        <ele>125.7</ele>
        <time>2015-01-11T09:33:27.000Z</time>
      </trkpt>
      <trkpt lat="50.60949" lon="4.17468">
        <ele>125.7</ele>
        <time>2015-01-11T09:33:28.000Z</time>
      </trkpt>
      <trkpt lat="50.6095" lon="4.17469">
        <ele>125.7</ele>
        <time>2015-01-11T09:33:29.000Z</time>
      </trkpt>
      <trkpt lat="50.60951" lon="4.1747">
        <ele>125.7</ele>
        <time>2015-01-11T09:33:30.000Z</time>
      </trkpt>
      <trkpt lat="50.60953" lon="4.17471">
        <ele>125.7</ele>
        <time>2015-01-11T09:33:31.000Z</time>
      </trkpt>
      <trkpt lat="50.60954" lon="4.17473">
        <ele>125.7</ele>
        <time>2015-01-11T09:33:32.000Z</time>
      </trkpt>
      <trkpt lat="50.60956" lon="4.17474">
        <ele>125.6</ele>
        <time>2015-01-11T09:33:33.000Z</time>
      </trkpt>
      <trkpt lat="50.60957" lon="4.17475">
        <ele>125.6</ele>
        <time>2015-01-11T09:33:34.000Z</time>
      </trkpt>
      <trkpt lat="50.60958" lon="4.17477">
        <ele>125.6</ele>
        <time>2015-01-11T09:33:35.000Z</time>
      </trkpt>
      <trkpt lat="50.6096" lon="4.17478">
        <ele>125.5</ele>
        <time>2015-01-11T09:33:36.000Z</time>
      </trkpt>
      <trkpt lat="50.60961" lon="4.17479">
        <ele>125.5</ele>
        <time>2015-01-11T09:33:37.000Z</time>
      </trkpt>
      <trkpt lat="50.60963" lon="4.17481">
        <ele>125.4</ele>
        <time>2015-01-11T09:33:38.000Z</time>
      </trkpt>
      <trkpt lat="50.60965" lon="4.17483">
        <ele>125.4</ele>
        <time>2015-01-11T09:33:39.000Z</time>
      </trkpt>
      <trkpt lat="50.60967" lon="4.17484">
        <ele>125.3</ele>
        <time>2015-01-11T09:33:40.000Z</time>
      </trkpt>
      <trkpt lat="50.60968" lon="4.17486">
        <ele>125.2</ele>
        <time>2015-01-11T09:33:41.000Z</time>
      </trkpt>
      <trkpt lat="50.6097" lon="4.17488">
        <ele>125.1</ele>
        <time>2015-01-11T09:33:42.000Z</time>
      </trkpt>
      <trkpt lat="50.60971" lon="4.1749">
        <ele>125.1</ele>
        <time>2015-01-11T09:33:43.000Z</time>
      </trkpt>
      <trkpt lat="50.60973" lon="4.17491">
        <ele>125</ele>
        <time>2015-01-11T09:33:44.000Z</time>
      </trkpt>
      <trkpt lat="50.60974" lon="4.17493">
        <ele>124.9</ele>
        <time>2015-01-11T09:33:45.000Z</time>
      </trkpt>
      <trkpt lat="50.60976" lon="4.17495">
        <ele>124.8</ele>
        <time>2015-01-11T09:33:46.000Z</time>
      </trkpt>
      <trkpt lat="50.60977" lon="4.17497">
        <ele>124.6</ele>
        <time>2015-01-11T09:33:47.000Z</time>
      </trkpt>
      <trkpt lat="50.60979" lon="4.17499">
        <ele>124.5</ele>
        <time>2015-01-11T09:33:48.000Z</time>
      </trkpt>
      <trkpt lat="50.6098" lon="4.17501">
        <ele>124.5</ele>
        <time>2015-01-11T09:33:49.000Z</time>
      </trkpt>
      <trkpt lat="50.60981" lon="4.17503">
        <ele>124.5</ele>
        <time>2015-01-11T09:33:50.000Z</time>
      </trkpt>
      <trkpt lat="50.60983" lon="4.17505">
        <ele>124.5</ele>
        <time>2015-01-11T09:33:51.000Z</time>
      </trkpt>
      <trkpt lat="50.60984" lon="4.17507">
        <ele>124.5</ele>
        <time>2015-01-11T09:33:52.000Z</time>
      </trkpt>
      <trkpt lat="50.60985" lon="4.17508">
        <ele>124.5</ele>
        <time>2015-01-11T09:33:53.000Z</time>
      </trkpt>
      <trkpt lat="50.60986" lon="4.1751">
        <ele>124.5</ele>
        <time>2015-01-11T09:33:54.000Z</time>
      </trkpt>
      <trkpt lat="50.60988" lon="4.17512">
        <ele>124.5</ele>
        <time>2015-01-11T09:33:55.000Z</time>
      </trkpt>
      <trkpt lat="50.6099" lon="4.17513">
        <ele>124.5</ele>
        <time>2015-01-11T09:33:56.000Z</time>
      </trkpt>
      <trkpt lat="50.60991" lon="4.17515">
        <ele>124.5</ele>
        <time>2015-01-11T09:33:57.000Z</time>
      </trkpt>
      <trkpt lat="50.60993" lon="4.17516">
        <ele>124.5</ele>
        <time>2015-01-11T09:33:58.000Z</time>
      </trkpt>
      <trkpt lat="50.60994" lon="4.17518">
        <ele>124.6</ele>
        <time>2015-01-11T09:33:59.000Z</time>
      </trkpt>
      <trkpt lat="50.60996" lon="4.17519">
        <ele>124.6</ele>
        <time>2015-01-11T09:34:00.000Z</time>
      </trkpt>
      <trkpt lat="50.60998" lon="4.17521">
        <ele>124.6</ele>
        <time>2015-01-11T09:34:01.000Z</time>
      </trkpt>
      <trkpt lat="50.60999" lon="4.17522">
        <ele>124.6</ele>
        <time>2015-01-11T09:34:02.000Z</time>
      </trkpt>
      <trkpt lat="50.61001" lon="4.17523">
        <ele>124.6</ele>
        <time>2015-01-11T09:34:03.000Z</time>
      </trkpt>
      <trkpt lat="50.61002" lon="4.17525">
        <ele>124.5</ele>
        <time>2015-01-11T09:34:04.000Z</time>
      </trkpt>
      <trkpt lat="50.61004" lon="4.17526">
        <ele>124.5</ele>
        <time>2015-01-11T09:34:05.000Z</time>
      </trkpt>
      <trkpt lat="50.61005" lon="4.17528">
        <ele>124.4</ele>
        <time>2015-01-11T09:34:06.000Z</time>
      </trkpt>
      <trkpt lat="50.61007" lon="4.17529">
        <ele>124.3</ele>
        <time>2015-01-11T09:34:07.000Z</time>
      </trkpt>
      <trkpt lat="50.61009" lon="4.17531">
        <ele>124.2</ele>
        <time>2015-01-11T09:34:08.000Z</time>
      </trkpt>
      <trkpt lat="50.6101" lon="4.17532">
        <ele>124.1</ele>
        <time>2015-01-11T09:34:09.000Z</time>
      </trkpt>
      <trkpt lat="50.61012" lon="4.17534">
        <ele>124</ele>
        <time>2015-01-11T09:34:10.000Z</time>
      </trkpt>
      <trkpt lat="50.61014" lon="4.17536">
        <ele>123.9</ele>
        <time>2015-01-11T09:34:11.000Z</time>
      </trkpt>
      <trkpt lat="50.61015" lon="4.17537">
        <ele>123.9</ele>
        <time>2015-01-11T09:34:12.000Z</time>
      </trkpt>
      <trkpt lat="50.61017" lon="4.17539">
        <ele>123.9</ele>
        <time>2015-01-11T09:34:13.000Z</time>
      </trkpt>
      <trkpt lat="50.61019" lon="4.1754">
        <ele>123.9</ele>
        <time>2015-01-11T09:34:14.000Z</time>
      </trkpt>
      <trkpt lat="50.6102" lon="4.17542">
        <ele>123.9</ele>
        <time>2015-01-11T09:34:15.000Z</time>
      </trkpt>
      <trkpt lat="50.61022" lon="4.17543">
        <ele>124</ele>
        <time>2015-01-11T09:34:16.000Z</time>
      </trkpt>
      <trkpt lat="50.61024" lon="4.17545">
        <ele>124</ele>
        <time>2015-01-11T09:34:17.000Z</time>
      </trkpt>
      <trkpt lat="50.61025" lon="4.17547">
        <ele>124.1</ele>
        <time>2015-01-11T09:34:18.000Z</time>
      </trkpt>
      <trkpt lat="50.61027" lon="4.17548">
        <ele>124.2</ele>
        <time>2015-01-11T09:34:19.000Z</time>
      </trkpt>
      <trkpt lat="50.61028" lon="4.1755">
        <ele>124.3</ele>
        <time>2015-01-11T09:34:20.000Z</time>
      </trkpt>
      <trkpt lat="50.6103" lon="4.17551">
        <ele>124.4</ele>
        <time>2015-01-11T09:34:21.000Z</time>
      </trkpt>
      <trkpt lat="50.61031" lon="4.17552">
        <ele>124.4</ele>
        <time>2015-01-11T09:34:22.000Z</time>
      </trkpt>
      <trkpt lat="50.61032" lon="4.17554">
        <ele>124.5</ele>
        <time>2015-01-11T09:34:23.000Z</time>
      </trkpt>
      <trkpt lat="50.61033" lon="4.17555">
        <ele>124.5</ele>
        <time>2015-01-11T09:34:24.000Z</time>
      </trkpt>
      <trkpt lat="50.61035" lon="4.17556">
        <ele>124.5</ele>
        <time>2015-01-11T09:34:25.000Z</time>
      </trkpt>
      <trkpt lat="50.61036" lon="4.17558">
        <ele>124.4</ele>
        <time>2015-01-11T09:34:26.000Z</time>
      </trkpt>
      <trkpt lat="50.61038" lon="4.17559">
        <ele>124.3</ele>
        <time>2015-01-11T09:34:27.000Z</time>
      </trkpt>
      <trkpt lat="50.61039" lon="4.17561">
        <ele>124.3</ele>
        <time>2015-01-11T09:34:28.000Z</time>
      </trkpt>
      <trkpt lat="50.6104" lon="4.17562">
        <ele>124.2</ele>
        <time>2015-01-11T09:34:29.000Z</time>
      </trkpt>
      <trkpt lat="50.61041" lon="4.17563">
        <ele>124.2</ele>
        <time>2015-01-11T09:34:30.000Z</time>
      </trkpt>
      <trkpt lat="50.61042" lon="4.17564">
        <ele>124.1</ele>
        <time>2015-01-11T09:34:31.000Z</time>
      </trkpt>
      <trkpt lat="50.61043" lon="4.17565">
        <ele>124.1</ele>
        <time>2015-01-11T09:34:32.000Z</time>
      </trkpt>
      <trkpt lat="50.61044" lon="4.17566">
        <ele>124.1</ele>
        <time>2015-01-11T09:34:33.000Z</time>
      </trkpt>
      <trkpt lat="50.61045" lon="4.17568">
        <ele>124</ele>
        <time>2015-01-11T09:34:34.000Z</time>
      </trkpt>
      <trkpt lat="50.61046" lon="4.17569">
        <ele>124</ele>
        <time>2015-01-11T09:34:35.000Z</time>
      </trkpt>
      <trkpt lat="50.61048" lon="4.1757">
        <ele>123.9</ele>
        <time>2015-01-11T09:34:36.000Z</time>
      </trkpt>
      <trkpt lat="50.61049" lon="4.17571">
        <ele>123.9</ele>
        <time>2015-01-11T09:34:37.000Z</time>
      </trkpt>
      <trkpt lat="50.6105" lon="4.17572">
        <ele>123.8</ele>
        <time>2015-01-11T09:34:38.000Z</time>
      </trkpt>
      <trkpt lat="50.61052" lon="4.17573">
        <ele>123.8</ele>
        <time>2015-01-11T09:34:39.000Z</time>
      </trkpt>
      <trkpt lat="50.61054" lon="4.17574">
        <ele>123.8</ele>
        <time>2015-01-11T09:34:40.000Z</time>
      </trkpt>
      <trkpt lat="50.61055" lon="4.17575">
        <ele>123.7</ele>
        <time>2015-01-11T09:34:41.000Z</time>
      </trkpt>
      <trkpt lat="50.61057" lon="4.17576">
        <ele>123.7</ele>
        <time>2015-01-11T09:34:42.000Z</time>
      </trkpt>
      <trkpt lat="50.61058" lon="4.17578">
        <ele>123.7</ele>
        <time>2015-01-11T09:34:43.000Z</time>
      </trkpt>
      <trkpt lat="50.6106" lon="4.17579">
        <ele>123.7</ele>
        <time>2015-01-11T09:34:44.000Z</time>
      </trkpt>
      <trkpt lat="50.61061" lon="4.1758">
        <ele>123.7</ele>
        <time>2015-01-11T09:34:45.000Z</time>
      </trkpt>
      <trkpt lat="50.61063" lon="4.17581">
        <ele>123.7</ele>
        <time>2015-01-11T09:34:46.000Z</time>
      </trkpt>
      <trkpt lat="50.61064" lon="4.17582">
        <ele>123.7</ele>
        <time>2015-01-11T09:34:47.000Z</time>
      </trkpt>
      <trkpt lat="50.61066" lon="4.17584">
        <ele>123.7</ele>
        <time>2015-01-11T09:34:48.000Z</time>
      </trkpt>
      <trkpt lat="50.61067" lon="4.17585">
        <ele>123.7</ele>
        <time>2015-01-11T09:34:49.000Z</time>
      </trkpt>
      <trkpt lat="50.61069" lon="4.17587">
        <ele>123.7</ele>
        <time>2015-01-11T09:34:50.000Z</time>
      </trkpt>
      <trkpt lat="50.61071" lon="4.17588">
        <ele>123.7</ele>
        <time>2015-01-11T09:34:51.000Z</time>
      </trkpt>
      <trkpt lat="50.61073" lon="4.1759">
        <ele>123.7</ele>
        <time>2015-01-11T09:34:52.000Z</time>
      </trkpt>
      <trkpt lat="50.61075" lon="4.17592">
        <ele>123.7</ele>
        <time>2015-01-11T09:34:53.000Z</time>
      </trkpt>
      <trkpt lat="50.61077" lon="4.17593">
        <ele>123.7</ele>
        <time>2015-01-11T09:34:54.000Z</time>
      </trkpt>
      <trkpt lat="50.61078" lon="4.17595">
        <ele>123.7</ele>
        <time>2015-01-11T09:34:55.000Z</time>
      </trkpt>
      <trkpt lat="50.6108" lon="4.17596">
        <ele>123.6</ele>
        <time>2015-01-11T09:34:56.000Z</time>
      </trkpt>
      <trkpt lat="50.61082" lon="4.17598">
        <ele>123.6</ele>
        <time>2015-01-11T09:34:57.000Z</time>
      </trkpt>
      <trkpt lat="50.61083" lon="4.17599">
        <ele>123.6</ele>
        <time>2015-01-11T09:34:58.000Z</time>
      </trkpt>
      <trkpt lat="50.61085" lon="4.176">
        <ele>123.5</ele>
        <time>2015-01-11T09:34:59.000Z</time>
      </trkpt>
      <trkpt lat="50.61086" lon="4.17601">
        <ele>123.5</ele>
        <time>2015-01-11T09:35:00.000Z</time>
      </trkpt>
      <trkpt lat="50.61087" lon="4.17602">
        <ele>123.5</ele>
        <time>2015-01-11T09:35:01.000Z</time>
      </trkpt>
      <trkpt lat="50.61089" lon="4.17603">
        <ele>123.5</ele>
        <time>2015-01-11T09:35:02.000Z</time>
      </trkpt>
      <trkpt lat="50.6109" lon="4.17605">
        <ele>123.5</ele>
        <time>2015-01-11T09:35:03.000Z</time>
      </trkpt>
      <trkpt lat="50.61091" lon="4.17606">
        <ele>123.5</ele>
        <time>2015-01-11T09:35:04.000Z</time>
      </trkpt>
      <trkpt lat="50.61093" lon="4.17608">
        <ele>123.5</ele>
        <time>2015-01-11T09:35:05.000Z</time>
      </trkpt>
      <trkpt lat="50.61095" lon="4.1761">
        <ele>123.5</ele>
        <time>2015-01-11T09:35:06.000Z</time>
      </trkpt>
      <trkpt lat="50.61096" lon="4.17611">
        <ele>123.5</ele>
        <time>2015-01-11T09:35:07.000Z</time>
      </trkpt>
      <trkpt lat="50.61098" lon="4.17613">
        <ele>123.6</ele>
        <time>2015-01-11T09:35:08.000Z</time>
      </trkpt>
      <trkpt lat="50.61099" lon="4.17615">
        <ele>123.6</ele>
        <time>2015-01-11T09:35:09.000Z</time>
      </trkpt>
      <trkpt lat="50.611" lon="4.17616">
        <ele>123.7</ele>
        <time>2015-01-11T09:35:10.000Z</time>
      </trkpt>
      <trkpt lat="50.61101" lon="4.17618">
        <ele>123.7</ele>
        <time>2015-01-11T09:35:11.000Z</time>
      </trkpt>
      <trkpt lat="50.61102" lon="4.17619">
        <ele>123.7</ele>
        <time>2015-01-11T09:35:12.000Z</time>
      </trkpt>
      <trkpt lat="50.61103" lon="4.17621">
        <ele>123.7</ele>
        <time>2015-01-11T09:35:13.000Z</time>
      </trkpt>
      <trkpt lat="50.61104" lon="4.17622">
        <ele>123.7</ele>
        <time>2015-01-11T09:35:14.000Z</time>
      </trkpt>
      <trkpt lat="50.61106" lon="4.17623">
        <ele>123.7</ele>
        <time>2015-01-11T09:35:15.000Z</time>
      </trkpt>
      <trkpt lat="50.61107" lon="4.17625">
        <ele>123.7</ele>
        <time>2015-01-11T09:35:16.000Z</time>
      </trkpt>
      <trkpt lat="50.61108" lon="4.17627">
        <ele>123.7</ele>
        <time>2015-01-11T09:35:17.000Z</time>
      </trkpt>
      <trkpt lat="50.61109" lon="4.17629">
        <ele>123.7</ele>
        <time>2015-01-11T09:35:18.000Z</time>
      </trkpt>
      <trkpt lat="50.61111" lon="4.1763">
        <ele>123.7</ele>
        <time>2015-01-11T09:35:19.000Z</time>
      </trkpt>
      <trkpt lat="50.61112" lon="4.17632">
        <ele>123.7</ele>
        <time>2015-01-11T09:35:20.000Z</time>
      </trkpt>
      <trkpt lat="50.61114" lon="4.17634">
        <ele>123.7</ele>
        <time>2015-01-11T09:35:21.000Z</time>
      </trkpt>
      <trkpt lat="50.61116" lon="4.17635">
        <ele>123.7</ele>
        <time>2015-01-11T09:35:22.000Z</time>
      </trkpt>
      <trkpt lat="50.61117" lon="4.17637">
        <ele>123.7</ele>
        <time>2015-01-11T09:35:23.000Z</time>
      </trkpt>
      <trkpt lat="50.61119" lon="4.17638">
        <ele>123.6</ele>
        <time>2015-01-11T09:35:24.000Z</time>
      </trkpt>
      <trkpt lat="50.61121" lon="4.17638">
        <ele>123.6</ele>
        <time>2015-01-11T09:35:25.000Z</time>
      </trkpt>
      <trkpt lat="50.61123" lon="4.17639">
        <ele>123.6</ele>
        <time>2015-01-11T09:35:26.000Z</time>
      </trkpt>
      <trkpt lat="50.61125" lon="4.17639">
        <ele>123.5</ele>
        <time>2015-01-11T09:35:27.000Z</time>
      </trkpt>
      <trkpt lat="50.61127" lon="4.1764">
        <ele>123.5</ele>
        <time>2015-01-11T09:35:28.000Z</time>
      </trkpt>
      <trkpt lat="50.61129" lon="4.1764">
        <ele>123.4</ele>
        <time>2015-01-11T09:35:29.000Z</time>
      </trkpt>
      <trkpt lat="50.61131" lon="4.1764">
        <ele>123.3</ele>
        <time>2015-01-11T09:35:30.000Z</time>
      </trkpt>
      <trkpt lat="50.61133" lon="4.1764">
        <ele>123.2</ele>
        <time>2015-01-11T09:35:31.000Z</time>
      </trkpt>
      <trkpt lat="50.61135" lon="4.17641">
        <ele>123.2</ele>
        <time>2015-01-11T09:35:32.000Z</time>
      </trkpt>
      <trkpt lat="50.61137" lon="4.17641">
        <ele>123.1</ele>
        <time>2015-01-11T09:35:33.000Z</time>
      </trkpt>
      <trkpt lat="50.61139" lon="4.17642">
        <ele>123</ele>
        <time>2015-01-11T09:35:34.000Z</time>
      </trkpt>
      <trkpt lat="50.61141" lon="4.17642">
        <ele>123</ele>
        <time>2015-01-11T09:35:35.000Z</time>
      </trkpt>
      <trkpt lat="50.61143" lon="4.17643">
        <ele>123</ele>
        <time>2015-01-11T09:35:36.000Z</time>
      </trkpt>
      <trkpt lat="50.61145" lon="4.17644">
        <ele>123.1</ele>
        <time>2015-01-11T09:35:37.000Z</time>
      </trkpt>
      <trkpt lat="50.61146" lon="4.17644">
        <ele>123.1</ele>
        <time>2015-01-11T09:35:38.000Z</time>
      </trkpt>
      <trkpt lat="50.61148" lon="4.17645">
        <ele>123.2</ele>
        <time>2015-01-11T09:35:39.000Z</time>
      </trkpt>
      <trkpt lat="50.6115" lon="4.17646">
        <ele>123.2</ele>
        <time>2015-01-11T09:35:40.000Z</time>
      </trkpt>
      <trkpt lat="50.61152" lon="4.17647">
        <ele>123.3</ele>
        <time>2015-01-11T09:35:41.000Z</time>
      </trkpt>
      <trkpt lat="50.61154" lon="4.17647">
        <ele>123.3</ele>
        <time>2015-01-11T09:35:42.000Z</time>
      </trkpt>
      <trkpt lat="50.61156" lon="4.17648">
        <ele>123.4</ele>
        <time>2015-01-11T09:35:43.000Z</time>
      </trkpt>
      <trkpt lat="50.61157" lon="4.1765">
        <ele>123.5</ele>
        <time>2015-01-11T09:35:44.000Z</time>
      </trkpt>
      <trkpt lat="50.61159" lon="4.17651">
        <ele>123.7</ele>
        <time>2015-01-11T09:35:45.000Z</time>
      </trkpt>
      <trkpt lat="50.61161" lon="4.17653">
        <ele>123.8</ele>
        <time>2015-01-11T09:35:46.000Z</time>
      </trkpt>
      <trkpt lat="50.61163" lon="4.17654">
        <ele>123.9</ele>
        <time>2015-01-11T09:35:47.000Z</time>
      </trkpt>
      <trkpt lat="50.61165" lon="4.17655">
        <ele>124.1</ele>
        <time>2015-01-11T09:35:48.000Z</time>
      </trkpt>
      <trkpt lat="50.61166" lon="4.17657">
        <ele>124.3</ele>
        <time>2015-01-11T09:35:49.000Z</time>
      </trkpt>
      <trkpt lat="50.61168" lon="4.17658">
        <ele>124.4</ele>
        <time>2015-01-11T09:35:50.000Z</time>
      </trkpt>
      <trkpt lat="50.6117" lon="4.17659">
        <ele>124.5</ele>
        <time>2015-01-11T09:35:51.000Z</time>
      </trkpt>
      <trkpt lat="50.61171" lon="4.1766">
        <ele>124.6</ele>
        <time>2015-01-11T09:35:52.000Z</time>
      </trkpt>
      <trkpt lat="50.61177" lon="4.17665">
        <ele>124.8</ele>
        <time>2015-01-11T09:35:53.000Z</time>
      </trkpt>
      <trkpt lat="50.61177" lon="4.17665">
        <ele>124.9</ele>
        <time>2015-01-11T09:35:54.000Z</time>
      </trkpt>
      <trkpt lat="50.61178" lon="4.17665">
        <ele>124.9</ele>
        <time>2015-01-11T09:35:55.000Z</time>
      </trkpt>
      <trkpt lat="50.61179" lon="4.17665">
        <ele>124.9</ele>
        <time>2015-01-11T09:35:56.000Z</time>
      </trkpt>
      <trkpt lat="50.6118" lon="4.17666">
        <ele>125</ele>
        <time>2015-01-11T09:35:57.000Z</time>
      </trkpt>
      <trkpt lat="50.61181" lon="4.17667">
        <ele>125</ele>
        <time>2015-01-11T09:35:58.000Z</time>
      </trkpt>
      <trkpt lat="50.61183" lon="4.17668">
        <ele>125.1</ele>
        <time>2015-01-11T09:35:59.000Z</time>
      </trkpt>
      <trkpt lat="50.61185" lon="4.17669">
        <ele>125.2</ele>
        <time>2015-01-11T09:36:00.000Z</time>
      </trkpt>
      <trkpt lat="50.61186" lon="4.17671">
        <ele>125.3</ele>
        <time>2015-01-11T09:36:01.000Z</time>
      </trkpt>
      <trkpt lat="50.61188" lon="4.17672">
        <ele>125.4</ele>
        <time>2015-01-11T09:36:02.000Z</time>
      </trkpt>
      <trkpt lat="50.61191" lon="4.17674">
        <ele>125.6</ele>
        <time>2015-01-11T09:36:03.000Z</time>
      </trkpt>
      <trkpt lat="50.61192" lon="4.17676">
        <ele>125.7</ele>
        <time>2015-01-11T09:36:04.000Z</time>
      </trkpt>
      <trkpt lat="50.61194" lon="4.17678">
        <ele>125.8</ele>
        <time>2015-01-11T09:36:05.000Z</time>
      </trkpt>
      <trkpt lat="50.61196" lon="4.17679">
        <ele>125.7</ele>
        <time>2015-01-11T09:36:06.000Z</time>
      </trkpt>
      <trkpt lat="50.61198" lon="4.1768">
        <ele>125.6</ele>
        <time>2015-01-11T09:36:07.000Z</time>
      </trkpt>
      <trkpt lat="50.61203" lon="4.17684">
        <ele>125.3</ele>
        <time>2015-01-11T09:36:08.000Z</time>
      </trkpt>
      <trkpt lat="50.61203" lon="4.17684">
        <ele>125.3</ele>
        <time>2015-01-11T09:36:09.000Z</time>
      </trkpt>
      <trkpt lat="50.61204" lon="4.17685">
        <ele>125.2</ele>
        <time>2015-01-11T09:36:10.000Z</time>
      </trkpt>
      <trkpt lat="50.61204" lon="4.17685">
        <ele>125.1</ele>
        <time>2015-01-11T09:36:11.000Z</time>
      </trkpt>
      <trkpt lat="50.61205" lon="4.17685">
        <ele>125</ele>
        <time>2015-01-11T09:36:12.000Z</time>
      </trkpt>
      <trkpt lat="50.61206" lon="4.17686">
        <ele>124.9</ele>
        <time>2015-01-11T09:36:13.000Z</time>
      </trkpt>
      <trkpt lat="50.61207" lon="4.17686">
        <ele>124.8</ele>
        <time>2015-01-11T09:36:14.000Z</time>
      </trkpt>
      <trkpt lat="50.61209" lon="4.17687">
        <ele>124.7</ele>
        <time>2015-01-11T09:36:15.000Z</time>
      </trkpt>
      <trkpt lat="50.6121" lon="4.17687">
        <ele>124.5</ele>
        <time>2015-01-11T09:36:16.000Z</time>
      </trkpt>
      <trkpt lat="50.61212" lon="4.17688">
        <ele>124.4</ele>
        <time>2015-01-11T09:36:17.000Z</time>
      </trkpt>
      <trkpt lat="50.61213" lon="4.17689">
        <ele>124.2</ele>
        <time>2015-01-11T09:36:18.000Z</time>
      </trkpt>
      <trkpt lat="50.61214" lon="4.1769">
        <ele>124.1</ele>
        <time>2015-01-11T09:36:19.000Z</time>
      </trkpt>
      <trkpt lat="50.61216" lon="4.17692">
        <ele>123.9</ele>
        <time>2015-01-11T09:36:20.000Z</time>
      </trkpt>
      <trkpt lat="50.61217" lon="4.17693">
        <ele>123.7</ele>
        <time>2015-01-11T09:36:21.000Z</time>
      </trkpt>
      <trkpt lat="50.61219" lon="4.17693">
        <ele>123.5</ele>
        <time>2015-01-11T09:36:22.000Z</time>
      </trkpt>
      <trkpt lat="50.6122" lon="4.17694">
        <ele>123.4</ele>
        <time>2015-01-11T09:36:23.000Z</time>
      </trkpt>
      <trkpt lat="50.61221" lon="4.17695">
        <ele>123.2</ele>
        <time>2015-01-11T09:36:24.000Z</time>
      </trkpt>
      <trkpt lat="50.61222" lon="4.17696">
        <ele>123.1</ele>
        <time>2015-01-11T09:36:25.000Z</time>
      </trkpt>
      <trkpt lat="50.61224" lon="4.17697">
        <ele>123.1</ele>
        <time>2015-01-11T09:36:26.000Z</time>
      </trkpt>
      <trkpt lat="50.61225" lon="4.17698">
        <ele>123.1</ele>
        <time>2015-01-11T09:36:27.000Z</time>
      </trkpt>
      <trkpt lat="50.61226" lon="4.177">
        <ele>123</ele>
        <time>2015-01-11T09:36:28.000Z</time>
      </trkpt>
      <trkpt lat="50.61228" lon="4.17701">
        <ele>123</ele>
        <time>2015-01-11T09:36:29.000Z</time>
      </trkpt>
      <trkpt lat="50.61229" lon="4.17702">
        <ele>123</ele>
        <time>2015-01-11T09:36:30.000Z</time>
      </trkpt>
      <trkpt lat="50.6123" lon="4.17703">
        <ele>122.9</ele>
        <time>2015-01-11T09:36:31.000Z</time>
      </trkpt>
      <trkpt lat="50.61232" lon="4.17704">
        <ele>122.9</ele>
        <time>2015-01-11T09:36:32.000Z</time>
      </trkpt>
      <trkpt lat="50.61233" lon="4.17705">
        <ele>122.8</ele>
        <time>2015-01-11T09:36:33.000Z</time>
      </trkpt>
      <trkpt lat="50.61235" lon="4.17706">
        <ele>122.7</ele>
        <time>2015-01-11T09:36:34.000Z</time>
      </trkpt>
      <trkpt lat="50.61236" lon="4.17707">
        <ele>122.7</ele>
        <time>2015-01-11T09:36:35.000Z</time>
      </trkpt>
      <trkpt lat="50.61237" lon="4.17708">
        <ele>122.6</ele>
        <time>2015-01-11T09:36:36.000Z</time>
      </trkpt>
      <trkpt lat="50.61239" lon="4.17709">
        <ele>122.6</ele>
        <time>2015-01-11T09:36:37.000Z</time>
      </trkpt>
      <trkpt lat="50.6124" lon="4.17711">
        <ele>122.5</ele>
        <time>2015-01-11T09:36:38.000Z</time>
      </trkpt>
      <trkpt lat="50.61242" lon="4.17712">
        <ele>122.4</ele>
        <time>2015-01-11T09:36:39.000Z</time>
      </trkpt>
      <trkpt lat="50.61243" lon="4.17714">
        <ele>122.4</ele>
        <time>2015-01-11T09:36:40.000Z</time>
      </trkpt>
      <trkpt lat="50.61244" lon="4.17715">
        <ele>122.3</ele>
        <time>2015-01-11T09:36:41.000Z</time>
      </trkpt>
      <trkpt lat="50.61246" lon="4.17716">
        <ele>122.2</ele>
        <time>2015-01-11T09:36:42.000Z</time>
      </trkpt>
      <trkpt lat="50.61247" lon="4.17718">
        <ele>122.1</ele>
        <time>2015-01-11T09:36:43.000Z</time>
      </trkpt>
      <trkpt lat="50.61249" lon="4.17719">
        <ele>122</ele>
        <time>2015-01-11T09:36:44.000Z</time>
      </trkpt>
      <trkpt lat="50.6125" lon="4.1772">
        <ele>121.9</ele>
        <time>2015-01-11T09:36:45.000Z</time>
      </trkpt>
      <trkpt lat="50.61252" lon="4.17721">
        <ele>121.9</ele>
        <time>2015-01-11T09:36:46.000Z</time>
      </trkpt>
      <trkpt lat="50.61254" lon="4.17722">
        <ele>121.8</ele>
        <time>2015-01-11T09:36:47.000Z</time>
      </trkpt>
      <trkpt lat="50.61256" lon="4.17722">
        <ele>121.8</ele>
        <time>2015-01-11T09:36:48.000Z</time>
      </trkpt>
      <trkpt lat="50.61258" lon="4.17723">
        <ele>121.8</ele>
        <time>2015-01-11T09:36:49.000Z</time>
      </trkpt>
      <trkpt lat="50.6126" lon="4.17724">
        <ele>121.9</ele>
        <time>2015-01-11T09:36:50.000Z</time>
      </trkpt>
      <trkpt lat="50.61261" lon="4.17725">
        <ele>121.9</ele>
        <time>2015-01-11T09:36:51.000Z</time>
      </trkpt>
      <trkpt lat="50.61263" lon="4.17726">
        <ele>121.9</ele>
        <time>2015-01-11T09:36:52.000Z</time>
      </trkpt>
      <trkpt lat="50.61264" lon="4.17727">
        <ele>121.9</ele>
        <time>2015-01-11T09:36:53.000Z</time>
      </trkpt>
      <trkpt lat="50.61266" lon="4.17728">
        <ele>122</ele>
        <time>2015-01-11T09:36:54.000Z</time>
      </trkpt>
      <trkpt lat="50.61267" lon="4.17729">
        <ele>122</ele>
        <time>2015-01-11T09:36:55.000Z</time>
      </trkpt>
      <trkpt lat="50.61269" lon="4.1773">
        <ele>122</ele>
        <time>2015-01-11T09:36:56.000Z</time>
      </trkpt>
      <trkpt lat="50.61271" lon="4.17731">
        <ele>122</ele>
        <time>2015-01-11T09:36:57.000Z</time>
      </trkpt>
      <trkpt lat="50.61273" lon="4.17733">
        <ele>122</ele>
        <time>2015-01-11T09:36:58.000Z</time>
      </trkpt>
      <trkpt lat="50.61274" lon="4.17734">
        <ele>122</ele>
        <time>2015-01-11T09:36:59.000Z</time>
      </trkpt>
      <trkpt lat="50.61276" lon="4.17735">
        <ele>122</ele>
        <time>2015-01-11T09:37:00.000Z</time>
      </trkpt>
      <trkpt lat="50.61277" lon="4.17737">
        <ele>122.1</ele>
        <time>2015-01-11T09:37:01.000Z</time>
      </trkpt>
      <trkpt lat="50.61279" lon="4.17738">
        <ele>122</ele>
        <time>2015-01-11T09:37:02.000Z</time>
      </trkpt>
      <trkpt lat="50.61281" lon="4.17739">
        <ele>122</ele>
        <time>2015-01-11T09:37:03.000Z</time>
      </trkpt>
      <trkpt lat="50.61283" lon="4.1774">
        <ele>121.9</ele>
        <time>2015-01-11T09:37:04.000Z</time>
      </trkpt>
      <trkpt lat="50.61285" lon="4.17741">
        <ele>121.7</ele>
        <time>2015-01-11T09:37:05.000Z</time>
      </trkpt>
      <trkpt lat="50.61287" lon="4.17742">
        <ele>121.6</ele>
        <time>2015-01-11T09:37:06.000Z</time>
      </trkpt>
      <trkpt lat="50.61288" lon="4.17743">
        <ele>121.5</ele>
        <time>2015-01-11T09:37:07.000Z</time>
      </trkpt>
      <trkpt lat="50.6129" lon="4.17744">
        <ele>121.4</ele>
        <time>2015-01-11T09:37:08.000Z</time>
      </trkpt>
      <trkpt lat="50.61292" lon="4.17745">
        <ele>121.3</ele>
        <time>2015-01-11T09:37:09.000Z</time>
      </trkpt>
      <trkpt lat="50.61293" lon="4.17746">
        <ele>121.2</ele>
        <time>2015-01-11T09:37:10.000Z</time>
      </trkpt>
      <trkpt lat="50.61295" lon="4.17747">
        <ele>121</ele>
        <time>2015-01-11T09:37:11.000Z</time>
      </trkpt>
      <trkpt lat="50.61297" lon="4.17748">
        <ele>120.9</ele>
        <time>2015-01-11T09:37:12.000Z</time>
      </trkpt>
      <trkpt lat="50.61298" lon="4.17749">
        <ele>120.8</ele>
        <time>2015-01-11T09:37:13.000Z</time>
      </trkpt>
      <trkpt lat="50.613" lon="4.1775">
        <ele>120.6</ele>
        <time>2015-01-11T09:37:14.000Z</time>
      </trkpt>
      <trkpt lat="50.61302" lon="4.17751">
        <ele>120.6</ele>
        <time>2015-01-11T09:37:15.000Z</time>
      </trkpt>
      <trkpt lat="50.61304" lon="4.17753">
        <ele>120.5</ele>
        <time>2015-01-11T09:37:16.000Z</time>
      </trkpt>
      <trkpt lat="50.61306" lon="4.17754">
        <ele>120.6</ele>
        <time>2015-01-11T09:37:17.000Z</time>
      </trkpt>
      <trkpt lat="50.61308" lon="4.17755">
        <ele>120.7</ele>
        <time>2015-01-11T09:37:18.000Z</time>
      </trkpt>
      <trkpt lat="50.6131" lon="4.17756">
        <ele>120.8</ele>
        <time>2015-01-11T09:37:19.000Z</time>
      </trkpt>
      <trkpt lat="50.61311" lon="4.17757">
        <ele>120.8</ele>
        <time>2015-01-11T09:37:20.000Z</time>
      </trkpt>
      <trkpt lat="50.61313" lon="4.17758">
        <ele>120.8</ele>
        <time>2015-01-11T09:37:21.000Z</time>
      </trkpt>
      <trkpt lat="50.61314" lon="4.17759">
        <ele>120.8</ele>
        <time>2015-01-11T09:37:22.000Z</time>
      </trkpt>
      <trkpt lat="50.61316" lon="4.1776">
        <ele>120.8</ele>
        <time>2015-01-11T09:37:23.000Z</time>
      </trkpt>
      <trkpt lat="50.61318" lon="4.17761">
        <ele>120.7</ele>
        <time>2015-01-11T09:37:24.000Z</time>
      </trkpt>
      <trkpt lat="50.6132" lon="4.17762">
        <ele>120.6</ele>
        <time>2015-01-11T09:37:25.000Z</time>
      </trkpt>
      <trkpt lat="50.61322" lon="4.17763">
        <ele>120.5</ele>
        <time>2015-01-11T09:37:26.000Z</time>
      </trkpt>
      <trkpt lat="50.61324" lon="4.17765">
        <ele>120.4</ele>
        <time>2015-01-11T09:37:27.000Z</time>
      </trkpt>
      <trkpt lat="50.61326" lon="4.17766">
        <ele>120.2</ele>
        <time>2015-01-11T09:37:28.000Z</time>
      </trkpt>
      <trkpt lat="50.61328" lon="4.17767">
        <ele>120</ele>
        <time>2015-01-11T09:37:29.000Z</time>
      </trkpt>
      <trkpt lat="50.6133" lon="4.17767">
        <ele>119.7</ele>
        <time>2015-01-11T09:37:30.000Z</time>
      </trkpt>
      <trkpt lat="50.61332" lon="4.17768">
        <ele>119.5</ele>
        <time>2015-01-11T09:37:31.000Z</time>
      </trkpt>
      <trkpt lat="50.61334" lon="4.17769">
        <ele>119.3</ele>
        <time>2015-01-11T09:37:32.000Z</time>
      </trkpt>
      <trkpt lat="50.61335" lon="4.1777">
        <ele>119</ele>
        <time>2015-01-11T09:37:33.000Z</time>
      </trkpt>
      <trkpt lat="50.61337" lon="4.17772">
        <ele>118.8</ele>
        <time>2015-01-11T09:37:34.000Z</time>
      </trkpt>
      <trkpt lat="50.61339" lon="4.17773">
        <ele>118.6</ele>
        <time>2015-01-11T09:37:35.000Z</time>
      </trkpt>
      <trkpt lat="50.61341" lon="4.17774">
        <ele>118.3</ele>
        <time>2015-01-11T09:37:36.000Z</time>
      </trkpt>
      <trkpt lat="50.61342" lon="4.17775">
        <ele>118.1</ele>
        <time>2015-01-11T09:37:37.000Z</time>
      </trkpt>
      <trkpt lat="50.61344" lon="4.17776">
        <ele>117.9</ele>
        <time>2015-01-11T09:37:38.000Z</time>
      </trkpt>
      <trkpt lat="50.61345" lon="4.17777">
        <ele>117.7</ele>
        <time>2015-01-11T09:37:39.000Z</time>
      </trkpt>
      <trkpt lat="50.61347" lon="4.17778">
        <ele>117.5</ele>
        <time>2015-01-11T09:37:40.000Z</time>
      </trkpt>
      <trkpt lat="50.61349" lon="4.1778">
        <ele>117.4</ele>
        <time>2015-01-11T09:37:41.000Z</time>
      </trkpt>
      <trkpt lat="50.61354" lon="4.17783">
        <ele>117</ele>
        <time>2015-01-11T09:37:42.000Z</time>
      </trkpt>
      <trkpt lat="50.61354" lon="4.17783">
        <ele>116.9</ele>
        <time>2015-01-11T09:37:43.000Z</time>
      </trkpt>
      <trkpt lat="50.61355" lon="4.17783">
        <ele>116.9</ele>
        <time>2015-01-11T09:37:44.000Z</time>
      </trkpt>
      <trkpt lat="50.61355" lon="4.17783">
        <ele>116.8</ele>
        <time>2015-01-11T09:37:45.000Z</time>
      </trkpt>
      <trkpt lat="50.6136" lon="4.17785">
        <ele>116.4</ele>
        <time>2015-01-11T09:37:46.000Z</time>
      </trkpt>
      <trkpt lat="50.6136" lon="4.17785">
        <ele>116.4</ele>
        <time>2015-01-11T09:37:47.000Z</time>
      </trkpt>
      <trkpt lat="50.61361" lon="4.17786">
        <ele>116.4</ele>
        <time>2015-01-11T09:37:48.000Z</time>
      </trkpt>
      <trkpt lat="50.61362" lon="4.17786">
        <ele>116.3</ele>
        <time>2015-01-11T09:37:49.000Z</time>
      </trkpt>
      <trkpt lat="50.61363" lon="4.17787">
        <ele>116.3</ele>
        <time>2015-01-11T09:37:50.000Z</time>
      </trkpt>
      <trkpt lat="50.61364" lon="4.17788">
        <ele>116.3</ele>
        <time>2015-01-11T09:37:51.000Z</time>
      </trkpt>
      <trkpt lat="50.61366" lon="4.17788">
        <ele>116.3</ele>
        <time>2015-01-11T09:37:52.000Z</time>
      </trkpt>
      <trkpt lat="50.61367" lon="4.17789">
        <ele>116.3</ele>
        <time>2015-01-11T09:37:53.000Z</time>
      </trkpt>
      <trkpt lat="50.61369" lon="4.1779">
        <ele>116.3</ele>
        <time>2015-01-11T09:37:54.000Z</time>
      </trkpt>
      <trkpt lat="50.6137" lon="4.17791">
        <ele>116.3</ele>
        <time>2015-01-11T09:37:55.000Z</time>
      </trkpt>
      <trkpt lat="50.61376" lon="4.17793">
        <ele>116.3</ele>
        <time>2015-01-11T09:37:56.000Z</time>
      </trkpt>
      <trkpt lat="50.61377" lon="4.17793">
        <ele>116.3</ele>
        <time>2015-01-11T09:37:57.000Z</time>
      </trkpt>
      <trkpt lat="50.61377" lon="4.17793">
        <ele>116.3</ele>
        <time>2015-01-11T09:37:58.000Z</time>
      </trkpt>
      <trkpt lat="50.61378" lon="4.17793">
        <ele>116.3</ele>
        <time>2015-01-11T09:37:59.000Z</time>
      </trkpt>
      <trkpt lat="50.61379" lon="4.17793">
        <ele>116.3</ele>
        <time>2015-01-11T09:38:00.000Z</time>
      </trkpt>
      <trkpt lat="50.6138" lon="4.17793">
        <ele>116.3</ele>
        <time>2015-01-11T09:38:01.000Z</time>
      </trkpt>
      <trkpt lat="50.61381" lon="4.17794">
        <ele>116.3</ele>
        <time>2015-01-11T09:38:02.000Z</time>
      </trkpt>
      <trkpt lat="50.61383" lon="4.17794">
        <ele>116.2</ele>
        <time>2015-01-11T09:38:03.000Z</time>
      </trkpt>
      <trkpt lat="50.61384" lon="4.17794">
        <ele>116.2</ele>
        <time>2015-01-11T09:38:04.000Z</time>
      </trkpt>
      <trkpt lat="50.61386" lon="4.17794">
        <ele>116.2</ele>
        <time>2015-01-11T09:38:05.000Z</time>
      </trkpt>
      <trkpt lat="50.61388" lon="4.17794">
        <ele>116.2</ele>
        <time>2015-01-11T09:38:06.000Z</time>
      </trkpt>
      <trkpt lat="50.61389" lon="4.17794">
        <ele>116.2</ele>
        <time>2015-01-11T09:38:07.000Z</time>
      </trkpt>
      <trkpt lat="50.61391" lon="4.17793">
        <ele>116.2</ele>
        <time>2015-01-11T09:38:08.000Z</time>
      </trkpt>
      <trkpt lat="50.61392" lon="4.17793">
        <ele>116.3</ele>
        <time>2015-01-11T09:38:09.000Z</time>
      </trkpt>
      <trkpt lat="50.61394" lon="4.17792">
        <ele>116.4</ele>
        <time>2015-01-11T09:38:10.000Z</time>
      </trkpt>
      <trkpt lat="50.61396" lon="4.17791">
        <ele>116.5</ele>
        <time>2015-01-11T09:38:11.000Z</time>
      </trkpt>
      <trkpt lat="50.61398" lon="4.1779">
        <ele>116.6</ele>
        <time>2015-01-11T09:38:12.000Z</time>
      </trkpt>
      <trkpt lat="50.614" lon="4.1779">
        <ele>116.7</ele>
        <time>2015-01-11T09:38:13.000Z</time>
      </trkpt>
      <trkpt lat="50.61403" lon="4.17789">
        <ele>116.8</ele>
        <time>2015-01-11T09:38:14.000Z</time>
      </trkpt>
      <trkpt lat="50.61405" lon="4.17789">
        <ele>117</ele>
        <time>2015-01-11T09:38:15.000Z</time>
      </trkpt>
      <trkpt lat="50.61408" lon="4.17789">
        <ele>117.1</ele>
        <time>2015-01-11T09:38:16.000Z</time>
      </trkpt>
      <trkpt lat="50.6141" lon="4.17788">
        <ele>117.3</ele>
        <time>2015-01-11T09:38:17.000Z</time>
      </trkpt>
      <trkpt lat="50.61412" lon="4.17788">
        <ele>117.4</ele>
        <time>2015-01-11T09:38:18.000Z</time>
      </trkpt>
      <trkpt lat="50.61415" lon="4.17787">
        <ele>117.6</ele>
        <time>2015-01-11T09:38:19.000Z</time>
      </trkpt>
      <trkpt lat="50.61419" lon="4.17787">
        <ele>117.6</ele>
        <time>2015-01-11T09:38:20.000Z</time>
      </trkpt>
      <trkpt lat="50.61421" lon="4.17786">
        <ele>117.4</ele>
        <time>2015-01-11T09:38:21.000Z</time>
      </trkpt>
      <trkpt lat="50.61424" lon="4.17785">
        <ele>117.3</ele>
        <time>2015-01-11T09:38:22.000Z</time>
      </trkpt>
      <trkpt lat="50.61426" lon="4.17784">
        <ele>117.1</ele>
        <time>2015-01-11T09:38:23.000Z</time>
      </trkpt>
      <trkpt lat="50.61428" lon="4.17783">
        <ele>117</ele>
        <time>2015-01-11T09:38:24.000Z</time>
      </trkpt>
      <trkpt lat="50.61434" lon="4.17782">
        <ele>116.7</ele>
        <time>2015-01-11T09:38:25.000Z</time>
      </trkpt>
      <trkpt lat="50.61434" lon="4.17782">
        <ele>116.7</ele>
        <time>2015-01-11T09:38:26.000Z</time>
      </trkpt>
      <trkpt lat="50.61435" lon="4.17782">
        <ele>116.6</ele>
        <time>2015-01-11T09:38:27.000Z</time>
      </trkpt>
      <trkpt lat="50.61437" lon="4.17781">
        <ele>116.5</ele>
        <time>2015-01-11T09:38:28.000Z</time>
      </trkpt>
      <trkpt lat="50.61438" lon="4.17781">
        <ele>116.5</ele>
        <time>2015-01-11T09:38:29.000Z</time>
      </trkpt>
      <trkpt lat="50.61439" lon="4.1778">
        <ele>116.4</ele>
        <time>2015-01-11T09:38:30.000Z</time>
      </trkpt>
      <trkpt lat="50.61441" lon="4.1778">
        <ele>116.3</ele>
        <time>2015-01-11T09:38:31.000Z</time>
      </trkpt>
      <trkpt lat="50.61442" lon="4.17779">
        <ele>116.2</ele>
        <time>2015-01-11T09:38:32.000Z</time>
      </trkpt>
      <trkpt lat="50.61443" lon="4.17779">
        <ele>116.1</ele>
        <time>2015-01-11T09:38:33.000Z</time>
      </trkpt>
      <trkpt lat="50.61445" lon="4.17778">
        <ele>116</ele>
        <time>2015-01-11T09:38:34.000Z</time>
      </trkpt>
      <trkpt lat="50.61446" lon="4.17777">
        <ele>115.8</ele>
        <time>2015-01-11T09:38:35.000Z</time>
      </trkpt>
      <trkpt lat="50.61448" lon="4.17776">
        <ele>115.7</ele>
        <time>2015-01-11T09:38:36.000Z</time>
      </trkpt>
      <trkpt lat="50.6145" lon="4.17775">
        <ele>115.5</ele>
        <time>2015-01-11T09:38:37.000Z</time>
      </trkpt>
      <trkpt lat="50.61452" lon="4.17774">
        <ele>115.2</ele>
        <time>2015-01-11T09:38:38.000Z</time>
      </trkpt>
      <trkpt lat="50.61454" lon="4.17772">
        <ele>115</ele>
        <time>2015-01-11T09:38:39.000Z</time>
      </trkpt>
      <trkpt lat="50.61456" lon="4.1777">
        <ele>114.7</ele>
        <time>2015-01-11T09:38:40.000Z</time>
      </trkpt>
      <trkpt lat="50.61458" lon="4.17769">
        <ele>114.5</ele>
        <time>2015-01-11T09:38:41.000Z</time>
      </trkpt>
      <trkpt lat="50.6146" lon="4.17768">
        <ele>114.4</ele>
        <time>2015-01-11T09:38:42.000Z</time>
      </trkpt>
      <trkpt lat="50.61462" lon="4.17767">
        <ele>114.2</ele>
        <time>2015-01-11T09:38:43.000Z</time>
      </trkpt>
      <trkpt lat="50.61467" lon="4.17764">
        <ele>113.8</ele>
        <time>2015-01-11T09:38:44.000Z</time>
      </trkpt>
      <trkpt lat="50.61468" lon="4.17763">
        <ele>113.7</ele>
        <time>2015-01-11T09:38:45.000Z</time>
      </trkpt>
      <trkpt lat="50.61469" lon="4.17763">
        <ele>113.7</ele>
        <time>2015-01-11T09:38:46.000Z</time>
      </trkpt>
      <trkpt lat="50.6147" lon="4.17762">
        <ele>113.6</ele>
        <time>2015-01-11T09:38:47.000Z</time>
      </trkpt>
      <trkpt lat="50.61471" lon="4.17761">
        <ele>113.5</ele>
        <time>2015-01-11T09:38:48.000Z</time>
      </trkpt>
      <trkpt lat="50.61472" lon="4.1776">
        <ele>113.4</ele>
        <time>2015-01-11T09:38:49.000Z</time>
      </trkpt>
      <trkpt lat="50.61473" lon="4.17759">
        <ele>113.2</ele>
        <time>2015-01-11T09:38:50.000Z</time>
      </trkpt>
      <trkpt lat="50.61475" lon="4.17758">
        <ele>113.1</ele>
        <time>2015-01-11T09:38:51.000Z</time>
      </trkpt>
      <trkpt lat="50.61476" lon="4.17757">
        <ele>113</ele>
        <time>2015-01-11T09:38:52.000Z</time>
      </trkpt>
      <trkpt lat="50.61478" lon="4.17756">
        <ele>112.9</ele>
        <time>2015-01-11T09:38:53.000Z</time>
      </trkpt>
      <trkpt lat="50.61479" lon="4.17755">
        <ele>112.8</ele>
        <time>2015-01-11T09:38:54.000Z</time>
      </trkpt>
      <trkpt lat="50.6148" lon="4.17755">
        <ele>112.8</ele>
        <time>2015-01-11T09:38:55.000Z</time>
      </trkpt>
      <trkpt lat="50.61481" lon="4.17754">
        <ele>112.7</ele>
        <time>2015-01-11T09:38:56.000Z</time>
      </trkpt>
      <trkpt lat="50.61482" lon="4.17753">
        <ele>112.7</ele>
        <time>2015-01-11T09:38:57.000Z</time>
      </trkpt>
      <trkpt lat="50.61482" lon="4.17752">
        <ele>112.6</ele>
        <time>2015-01-11T09:38:58.000Z</time>
      </trkpt>
      <trkpt lat="50.61483" lon="4.17751">
        <ele>112.6</ele>
        <time>2015-01-11T09:38:59.000Z</time>
      </trkpt>
      <trkpt lat="50.61485" lon="4.1775">
        <ele>112.5</ele>
        <time>2015-01-11T09:39:00.000Z</time>
      </trkpt>
      <trkpt lat="50.61486" lon="4.1775">
        <ele>112.5</ele>
        <time>2015-01-11T09:39:01.000Z</time>
      </trkpt>
      <trkpt lat="50.61488" lon="4.17749">
        <ele>112.3</ele>
        <time>2015-01-11T09:39:02.000Z</time>
      </trkpt>
      <trkpt lat="50.61489" lon="4.17748">
        <ele>112.2</ele>
        <time>2015-01-11T09:39:03.000Z</time>
      </trkpt>
      <trkpt lat="50.61491" lon="4.17747">
        <ele>112.1</ele>
        <time>2015-01-11T09:39:04.000Z</time>
      </trkpt>
      <trkpt lat="50.61492" lon="4.17745">
        <ele>112</ele>
        <time>2015-01-11T09:39:05.000Z</time>
      </trkpt>
      <trkpt lat="50.61494" lon="4.17744">
        <ele>111.8</ele>
        <time>2015-01-11T09:39:06.000Z</time>
      </trkpt>
      <trkpt lat="50.61495" lon="4.17743">
        <ele>111.7</ele>
        <time>2015-01-11T09:39:07.000Z</time>
      </trkpt>
      <trkpt lat="50.61497" lon="4.17742">
        <ele>111.5</ele>
        <time>2015-01-11T09:39:08.000Z</time>
      </trkpt>
      <trkpt lat="50.61499" lon="4.1774">
        <ele>111.4</ele>
        <time>2015-01-11T09:39:09.000Z</time>
      </trkpt>
      <trkpt lat="50.615" lon="4.17739">
        <ele>111.2</ele>
        <time>2015-01-11T09:39:10.000Z</time>
      </trkpt>
      <trkpt lat="50.61502" lon="4.17738">
        <ele>111.3</ele>
        <time>2015-01-11T09:39:11.000Z</time>
      </trkpt>
      <trkpt lat="50.61504" lon="4.17736">
        <ele>111.4</ele>
        <time>2015-01-11T09:39:12.000Z</time>
      </trkpt>
      <trkpt lat="50.61505" lon="4.17734">
        <ele>111.6</ele>
        <time>2015-01-11T09:39:13.000Z</time>
      </trkpt>
      <trkpt lat="50.61506" lon="4.17732">
        <ele>111.6</ele>
        <time>2015-01-11T09:39:14.000Z</time>
      </trkpt>
      <trkpt lat="50.61512" lon="4.17727">
        <ele>112.3</ele>
        <time>2015-01-11T09:39:15.000Z</time>
      </trkpt>
      <trkpt lat="50.61513" lon="4.17726">
        <ele>112.4</ele>
        <time>2015-01-11T09:39:16.000Z</time>
      </trkpt>
      <trkpt lat="50.61513" lon="4.17726">
        <ele>112.5</ele>
        <time>2015-01-11T09:39:17.000Z</time>
      </trkpt>
      <trkpt lat="50.61515" lon="4.17725">
        <ele>112.7</ele>
        <time>2015-01-11T09:39:18.000Z</time>
      </trkpt>
      <trkpt lat="50.61516" lon="4.17724">
        <ele>112.9</ele>
        <time>2015-01-11T09:39:19.000Z</time>
      </trkpt>
      <trkpt lat="50.61517" lon="4.17723">
        <ele>113.1</ele>
        <time>2015-01-11T09:39:20.000Z</time>
      </trkpt>
      <trkpt lat="50.61519" lon="4.17721">
        <ele>113.4</ele>
        <time>2015-01-11T09:39:21.000Z</time>
      </trkpt>
      <trkpt lat="50.6152" lon="4.1772">
        <ele>113.7</ele>
        <time>2015-01-11T09:39:22.000Z</time>
      </trkpt>
      <trkpt lat="50.61522" lon="4.17719">
        <ele>114</ele>
        <time>2015-01-11T09:39:23.000Z</time>
      </trkpt>
      <trkpt lat="50.61523" lon="4.17718">
        <ele>114.4</ele>
        <time>2015-01-11T09:39:24.000Z</time>
      </trkpt>
      <trkpt lat="50.61525" lon="4.17717">
        <ele>114.8</ele>
        <time>2015-01-11T09:39:25.000Z</time>
      </trkpt>
      <trkpt lat="50.61527" lon="4.17715">
        <ele>115.2</ele>
        <time>2015-01-11T09:39:26.000Z</time>
      </trkpt>
      <trkpt lat="50.61529" lon="4.17714">
        <ele>115.4</ele>
        <time>2015-01-11T09:39:27.000Z</time>
      </trkpt>
      <trkpt lat="50.61531" lon="4.17712">
        <ele>115.5</ele>
        <time>2015-01-11T09:39:28.000Z</time>
      </trkpt>
      <trkpt lat="50.61533" lon="4.17711">
        <ele>115.6</ele>
        <time>2015-01-11T09:39:29.000Z</time>
      </trkpt>
      <trkpt lat="50.61534" lon="4.17709">
        <ele>115.7</ele>
        <time>2015-01-11T09:39:30.000Z</time>
      </trkpt>
      <trkpt lat="50.61536" lon="4.17707">
        <ele>115.8</ele>
        <time>2015-01-11T09:39:31.000Z</time>
      </trkpt>
      <trkpt lat="50.61538" lon="4.17706">
        <ele>115.9</ele>
        <time>2015-01-11T09:39:32.000Z</time>
      </trkpt>
      <trkpt lat="50.61539" lon="4.17704">
        <ele>115.9</ele>
        <time>2015-01-11T09:39:33.000Z</time>
      </trkpt>
      <trkpt lat="50.61541" lon="4.17703">
        <ele>116</ele>
        <time>2015-01-11T09:39:34.000Z</time>
      </trkpt>
      <trkpt lat="50.61543" lon="4.17702">
        <ele>116</ele>
        <time>2015-01-11T09:39:35.000Z</time>
      </trkpt>
      <trkpt lat="50.61544" lon="4.17701">
        <ele>116</ele>
        <time>2015-01-11T09:39:36.000Z</time>
      </trkpt>
      <trkpt lat="50.61546" lon="4.17699">
        <ele>116.1</ele>
        <time>2015-01-11T09:39:37.000Z</time>
      </trkpt>
      <trkpt lat="50.61548" lon="4.17698">
        <ele>116.1</ele>
        <time>2015-01-11T09:39:38.000Z</time>
      </trkpt>
      <trkpt lat="50.6155" lon="4.17697">
        <ele>116.1</ele>
        <time>2015-01-11T09:39:39.000Z</time>
      </trkpt>
      <trkpt lat="50.61551" lon="4.17696">
        <ele>116</ele>
        <time>2015-01-11T09:39:40.000Z</time>
      </trkpt>
      <trkpt lat="50.61553" lon="4.17696">
        <ele>116</ele>
        <time>2015-01-11T09:39:41.000Z</time>
      </trkpt>
      <trkpt lat="50.61555" lon="4.17695">
        <ele>116</ele>
        <time>2015-01-11T09:39:42.000Z</time>
      </trkpt>
      <trkpt lat="50.61557" lon="4.17694">
        <ele>116.1</ele>
        <time>2015-01-11T09:39:43.000Z</time>
      </trkpt>
      <trkpt lat="50.61558" lon="4.17693">
        <ele>116.3</ele>
        <time>2015-01-11T09:39:44.000Z</time>
      </trkpt>
      <trkpt lat="50.6156" lon="4.17692">
        <ele>116.4</ele>
        <time>2015-01-11T09:39:45.000Z</time>
      </trkpt>
      <trkpt lat="50.61561" lon="4.17691">
        <ele>116.6</ele>
        <time>2015-01-11T09:39:46.000Z</time>
      </trkpt>
      <trkpt lat="50.61563" lon="4.17689">
        <ele>116.7</ele>
        <time>2015-01-11T09:39:47.000Z</time>
      </trkpt>
      <trkpt lat="50.61564" lon="4.17688">
        <ele>116.8</ele>
        <time>2015-01-11T09:39:48.000Z</time>
      </trkpt>
      <trkpt lat="50.61565" lon="4.17687">
        <ele>116.8</ele>
        <time>2015-01-11T09:39:49.000Z</time>
      </trkpt>
      <trkpt lat="50.61566" lon="4.17686">
        <ele>116.9</ele>
        <time>2015-01-11T09:39:50.000Z</time>
      </trkpt>
      <trkpt lat="50.61568" lon="4.17684">
        <ele>117</ele>
        <time>2015-01-11T09:39:51.000Z</time>
      </trkpt>
      <trkpt lat="50.61569" lon="4.17683">
        <ele>117.1</ele>
        <time>2015-01-11T09:39:52.000Z</time>
      </trkpt>
      <trkpt lat="50.6157" lon="4.17682">
        <ele>117.1</ele>
        <time>2015-01-11T09:39:53.000Z</time>
      </trkpt>
      <trkpt lat="50.61572" lon="4.1768">
        <ele>117.1</ele>
        <time>2015-01-11T09:39:54.000Z</time>
      </trkpt>
      <trkpt lat="50.61573" lon="4.17679">
        <ele>117.2</ele>
        <time>2015-01-11T09:39:55.000Z</time>
      </trkpt>
      <trkpt lat="50.61575" lon="4.17678">
        <ele>117.2</ele>
        <time>2015-01-11T09:39:56.000Z</time>
      </trkpt>
      <trkpt lat="50.61576" lon="4.17677">
        <ele>117.3</ele>
        <time>2015-01-11T09:39:57.000Z</time>
      </trkpt>
      <trkpt lat="50.61578" lon="4.17675">
        <ele>117.3</ele>
        <time>2015-01-11T09:39:58.000Z</time>
      </trkpt>
      <trkpt lat="50.61579" lon="4.17674">
        <ele>117.3</ele>
        <time>2015-01-11T09:39:59.000Z</time>
      </trkpt>
      <trkpt lat="50.61581" lon="4.17673">
        <ele>117.3</ele>
        <time>2015-01-11T09:40:00.000Z</time>
      </trkpt>
      <trkpt lat="50.61582" lon="4.17671">
        <ele>117.3</ele>
        <time>2015-01-11T09:40:01.000Z</time>
      </trkpt>
      <trkpt lat="50.61584" lon="4.1767">
        <ele>117.3</ele>
        <time>2015-01-11T09:40:02.000Z</time>
      </trkpt>
      <trkpt lat="50.61585" lon="4.17669">
        <ele>117.2</ele>
        <time>2015-01-11T09:40:03.000Z</time>
      </trkpt>
      <trkpt lat="50.61587" lon="4.17668">
        <ele>117.2</ele>
        <time>2015-01-11T09:40:04.000Z</time>
      </trkpt>
      <trkpt lat="50.61588" lon="4.17666">
        <ele>117.1</ele>
        <time>2015-01-11T09:40:05.000Z</time>
      </trkpt>
      <trkpt lat="50.6159" lon="4.17665">
        <ele>117.1</ele>
        <time>2015-01-11T09:40:06.000Z</time>
      </trkpt>
      <trkpt lat="50.61591" lon="4.17663">
        <ele>117</ele>
        <time>2015-01-11T09:40:07.000Z</time>
      </trkpt>
      <trkpt lat="50.61592" lon="4.17662">
        <ele>117</ele>
        <time>2015-01-11T09:40:08.000Z</time>
      </trkpt>
      <trkpt lat="50.61594" lon="4.17661">
        <ele>117</ele>
        <time>2015-01-11T09:40:09.000Z</time>
      </trkpt>
      <trkpt lat="50.61595" lon="4.1766">
        <ele>116.9</ele>
        <time>2015-01-11T09:40:10.000Z</time>
      </trkpt>
      <trkpt lat="50.61596" lon="4.17659">
        <ele>116.9</ele>
        <time>2015-01-11T09:40:11.000Z</time>
      </trkpt>
      <trkpt lat="50.61597" lon="4.17658">
        <ele>116.9</ele>
        <time>2015-01-11T09:40:12.000Z</time>
      </trkpt>
      <trkpt lat="50.61598" lon="4.17657">
        <ele>116.8</ele>
        <time>2015-01-11T09:40:13.000Z</time>
      </trkpt>
      <trkpt lat="50.61602" lon="4.17653">
        <ele>116.7</ele>
        <time>2015-01-11T09:40:14.000Z</time>
      </trkpt>
      <trkpt lat="50.61603" lon="4.17653">
        <ele>116.7</ele>
        <time>2015-01-11T09:40:15.000Z</time>
      </trkpt>
      <trkpt lat="50.61603" lon="4.17653">
        <ele>116.7</ele>
        <time>2015-01-11T09:40:16.000Z</time>
      </trkpt>
      <trkpt lat="50.61604" lon="4.17652">
        <ele>116.7</ele>
        <time>2015-01-11T09:40:17.000Z</time>
      </trkpt>
      <trkpt lat="50.61605" lon="4.17652">
        <ele>116.7</ele>
        <time>2015-01-11T09:40:18.000Z</time>
      </trkpt>
      <trkpt lat="50.61606" lon="4.17652">
        <ele>116.8</ele>
        <time>2015-01-11T09:40:19.000Z</time>
      </trkpt>
      <trkpt lat="50.61608" lon="4.17651">
        <ele>116.8</ele>
        <time>2015-01-11T09:40:20.000Z</time>
      </trkpt>
      <trkpt lat="50.6161" lon="4.17651">
        <ele>116.8</ele>
        <time>2015-01-11T09:40:21.000Z</time>
      </trkpt>
      <trkpt lat="50.61612" lon="4.1765">
        <ele>116.8</ele>
        <time>2015-01-11T09:40:22.000Z</time>
      </trkpt>
      <trkpt lat="50.61613" lon="4.17649">
        <ele>116.8</ele>
        <time>2015-01-11T09:40:23.000Z</time>
      </trkpt>
      <trkpt lat="50.61615" lon="4.17649">
        <ele>116.8</ele>
        <time>2015-01-11T09:40:24.000Z</time>
      </trkpt>
      <trkpt lat="50.61616" lon="4.17648">
        <ele>116.8</ele>
        <time>2015-01-11T09:40:25.000Z</time>
      </trkpt>
      <trkpt lat="50.61617" lon="4.17647">
        <ele>116.8</ele>
        <time>2015-01-11T09:40:26.000Z</time>
      </trkpt>
      <trkpt lat="50.61622" lon="4.17644">
        <ele>116.7</ele>
        <time>2015-01-11T09:40:27.000Z</time>
      </trkpt>
      <trkpt lat="50.61622" lon="4.17644">
        <ele>116.7</ele>
        <time>2015-01-11T09:40:28.000Z</time>
      </trkpt>
      <trkpt lat="50.61623" lon="4.17644">
        <ele>116.7</ele>
        <time>2015-01-11T09:40:29.000Z</time>
      </trkpt>
      <trkpt lat="50.61624" lon="4.17644">
        <ele>116.8</ele>
        <time>2015-01-11T09:40:30.000Z</time>
      </trkpt>
      <trkpt lat="50.61626" lon="4.17644">
        <ele>116.8</ele>
        <time>2015-01-11T09:40:31.000Z</time>
      </trkpt>
      <trkpt lat="50.61627" lon="4.17644">
        <ele>116.8</ele>
        <time>2015-01-11T09:40:32.000Z</time>
      </trkpt>
      <trkpt lat="50.61629" lon="4.17644">
        <ele>116.9</ele>
        <time>2015-01-11T09:40:33.000Z</time>
      </trkpt>
      <trkpt lat="50.6163" lon="4.17644">
        <ele>116.9</ele>
        <time>2015-01-11T09:40:34.000Z</time>
      </trkpt>
      <trkpt lat="50.61632" lon="4.17644">
        <ele>117</ele>
        <time>2015-01-11T09:40:35.000Z</time>
      </trkpt>
      <trkpt lat="50.61633" lon="4.17643">
        <ele>117</ele>
        <time>2015-01-11T09:40:36.000Z</time>
      </trkpt>
      <trkpt lat="50.61635" lon="4.17643">
        <ele>117</ele>
        <time>2015-01-11T09:40:37.000Z</time>
      </trkpt>
      <trkpt lat="50.61638" lon="4.17643">
        <ele>117.1</ele>
        <time>2015-01-11T09:40:38.000Z</time>
      </trkpt>
      <trkpt lat="50.6164" lon="4.17643">
        <ele>117.2</ele>
        <time>2015-01-11T09:40:39.000Z</time>
      </trkpt>
      <trkpt lat="50.61642" lon="4.17643">
        <ele>117.2</ele>
        <time>2015-01-11T09:40:40.000Z</time>
      </trkpt>
      <trkpt lat="50.61644" lon="4.17643">
        <ele>117.2</ele>
        <time>2015-01-11T09:40:41.000Z</time>
      </trkpt>
      <trkpt lat="50.61646" lon="4.17643">
        <ele>117.2</ele>
        <time>2015-01-11T09:40:42.000Z</time>
      </trkpt>
      <trkpt lat="50.61648" lon="4.17642">
        <ele>117.2</ele>
        <time>2015-01-11T09:40:43.000Z</time>
      </trkpt>
      <trkpt lat="50.6165" lon="4.17643">
        <ele>117.2</ele>
        <time>2015-01-11T09:40:44.000Z</time>
      </trkpt>
      <trkpt lat="50.61652" lon="4.17643">
        <ele>117.2</ele>
        <time>2015-01-11T09:40:45.000Z</time>
      </trkpt>
      <trkpt lat="50.61654" lon="4.17643">
        <ele>117.2</ele>
        <time>2015-01-11T09:40:46.000Z</time>
      </trkpt>
      <trkpt lat="50.61656" lon="4.17643">
        <ele>117.2</ele>
        <time>2015-01-11T09:40:47.000Z</time>
      </trkpt>
      <trkpt lat="50.61657" lon="4.17643">
        <ele>117.3</ele>
        <time>2015-01-11T09:40:48.000Z</time>
      </trkpt>
      <trkpt lat="50.61659" lon="4.17644">
        <ele>117.3</ele>
        <time>2015-01-11T09:40:49.000Z</time>
      </trkpt>
      <trkpt lat="50.61661" lon="4.17644">
        <ele>117.3</ele>
        <time>2015-01-11T09:40:50.000Z</time>
      </trkpt>
      <trkpt lat="50.61663" lon="4.17645">
        <ele>117.4</ele>
        <time>2015-01-11T09:40:51.000Z</time>
      </trkpt>
      <trkpt lat="50.61665" lon="4.17645">
        <ele>117.4</ele>
        <time>2015-01-11T09:40:52.000Z</time>
      </trkpt>
      <trkpt lat="50.61667" lon="4.17646">
        <ele>117.5</ele>
        <time>2015-01-11T09:40:53.000Z</time>
      </trkpt>
      <trkpt lat="50.61668" lon="4.17646">
        <ele>117.6</ele>
        <time>2015-01-11T09:40:54.000Z</time>
      </trkpt>
      <trkpt lat="50.6167" lon="4.17647">
        <ele>117.7</ele>
        <time>2015-01-11T09:40:55.000Z</time>
      </trkpt>
      <trkpt lat="50.61672" lon="4.17647">
        <ele>117.7</ele>
        <time>2015-01-11T09:40:56.000Z</time>
      </trkpt>
      <trkpt lat="50.61673" lon="4.17648">
        <ele>117.8</ele>
        <time>2015-01-11T09:40:57.000Z</time>
      </trkpt>
      <trkpt lat="50.61675" lon="4.17649">
        <ele>117.9</ele>
        <time>2015-01-11T09:40:58.000Z</time>
      </trkpt>
      <trkpt lat="50.61677" lon="4.17649">
        <ele>118</ele>
        <time>2015-01-11T09:40:59.000Z</time>
      </trkpt>
      <trkpt lat="50.61679" lon="4.1765">
        <ele>118.1</ele>
        <time>2015-01-11T09:41:00.000Z</time>
      </trkpt>
      <trkpt lat="50.61681" lon="4.17651">
        <ele>118.1</ele>
        <time>2015-01-11T09:41:01.000Z</time>
      </trkpt>
      <trkpt lat="50.61683" lon="4.17651">
        <ele>118.2</ele>
        <time>2015-01-11T09:41:02.000Z</time>
      </trkpt>
      <trkpt lat="50.61684" lon="4.17652">
        <ele>118.3</ele>
        <time>2015-01-11T09:41:03.000Z</time>
      </trkpt>
      <trkpt lat="50.61686" lon="4.17653">
        <ele>118.3</ele>
        <time>2015-01-11T09:41:04.000Z</time>
      </trkpt>
      <trkpt lat="50.61688" lon="4.17653">
        <ele>118.4</ele>
        <time>2015-01-11T09:41:05.000Z</time>
      </trkpt>
      <trkpt lat="50.6169" lon="4.17654">
        <ele>118.5</ele>
        <time>2015-01-11T09:41:06.000Z</time>
      </trkpt>
      <trkpt lat="50.61692" lon="4.17655">
        <ele>118.6</ele>
        <time>2015-01-11T09:41:07.000Z</time>
      </trkpt>
      <trkpt lat="50.61693" lon="4.17656">
        <ele>118.6</ele>
        <time>2015-01-11T09:41:08.000Z</time>
      </trkpt>
      <trkpt lat="50.61698" lon="4.17657">
        <ele>118.7</ele>
        <time>2015-01-11T09:41:09.000Z</time>
      </trkpt>
      <trkpt lat="50.61698" lon="4.17657">
        <ele>118.7</ele>
        <time>2015-01-11T09:41:10.000Z</time>
      </trkpt>
      <trkpt lat="50.61698" lon="4.17658">
        <ele>118.7</ele>
        <time>2015-01-11T09:41:11.000Z</time>
      </trkpt>
      <trkpt lat="50.61699" lon="4.17658">
        <ele>118.7</ele>
        <time>2015-01-11T09:41:12.000Z</time>
      </trkpt>
      <trkpt lat="50.61699" lon="4.17658">
        <ele>118.7</ele>
        <time>2015-01-11T09:41:13.000Z</time>
      </trkpt>
      <trkpt lat="50.617" lon="4.17659">
        <ele>118.7</ele>
        <time>2015-01-11T09:41:14.000Z</time>
      </trkpt>
      <trkpt lat="50.61701" lon="4.1766">
        <ele>118.8</ele>
        <time>2015-01-11T09:41:15.000Z</time>
      </trkpt>
      <trkpt lat="50.61702" lon="4.17661">
        <ele>118.8</ele>
        <time>2015-01-11T09:41:16.000Z</time>
      </trkpt>
      <trkpt lat="50.61703" lon="4.17662">
        <ele>118.8</ele>
        <time>2015-01-11T09:41:17.000Z</time>
      </trkpt>
      <trkpt lat="50.61704" lon="4.17663">
        <ele>118.9</ele>
        <time>2015-01-11T09:41:18.000Z</time>
      </trkpt>
      <trkpt lat="50.61704" lon="4.17664">
        <ele>118.9</ele>
        <time>2015-01-11T09:41:19.000Z</time>
      </trkpt>
      <trkpt lat="50.61705" lon="4.17664">
        <ele>118.9</ele>
        <time>2015-01-11T09:41:20.000Z</time>
      </trkpt>
      <trkpt lat="50.61706" lon="4.17665">
        <ele>119</ele>
        <time>2015-01-11T09:41:21.000Z</time>
      </trkpt>
      <trkpt lat="50.61708" lon="4.17667">
        <ele>119</ele>
        <time>2015-01-11T09:41:22.000Z</time>
      </trkpt>
      <trkpt lat="50.61709" lon="4.17668">
        <ele>119</ele>
        <time>2015-01-11T09:41:23.000Z</time>
      </trkpt>
      <trkpt lat="50.61711" lon="4.1767">
        <ele>119.1</ele>
        <time>2015-01-11T09:41:24.000Z</time>
      </trkpt>
      <trkpt lat="50.61712" lon="4.17672">
        <ele>119.1</ele>
        <time>2015-01-11T09:41:25.000Z</time>
      </trkpt>
      <trkpt lat="50.61713" lon="4.17674">
        <ele>119.1</ele>
        <time>2015-01-11T09:41:26.000Z</time>
      </trkpt>
      <trkpt lat="50.61714" lon="4.17676">
        <ele>119.1</ele>
        <time>2015-01-11T09:41:27.000Z</time>
      </trkpt>
      <trkpt lat="50.61718" lon="4.1768">
        <ele>119.1</ele>
        <time>2015-01-11T09:41:28.000Z</time>
      </trkpt>
      <trkpt lat="50.61718" lon="4.1768">
        <ele>119.1</ele>
        <time>2015-01-11T09:41:29.000Z</time>
      </trkpt>
      <trkpt lat="50.61718" lon="4.1768">
        <ele>119.1</ele>
        <time>2015-01-11T09:41:30.000Z</time>
      </trkpt>
      <trkpt lat="50.61718" lon="4.1768">
        <ele>119.1</ele>
        <time>2015-01-11T09:41:31.000Z</time>
      </trkpt>
      <trkpt lat="50.61719" lon="4.17681">
        <ele>119.1</ele>
        <time>2015-01-11T09:41:32.000Z</time>
      </trkpt>
      <trkpt lat="50.6172" lon="4.17682">
        <ele>119</ele>
        <time>2015-01-11T09:41:33.000Z</time>
      </trkpt>
      <trkpt lat="50.6172" lon="4.17682">
        <ele>119</ele>
        <time>2015-01-11T09:41:34.000Z</time>
      </trkpt>
      <trkpt lat="50.61721" lon="4.17683">
        <ele>119</ele>
        <time>2015-01-11T09:41:35.000Z</time>
      </trkpt>
      <trkpt lat="50.61721" lon="4.17684">
        <ele>119</ele>
        <time>2015-01-11T09:41:36.000Z</time>
      </trkpt>
      <trkpt lat="50.61724" lon="4.17687">
        <ele>119.1</ele>
        <time>2015-01-11T09:41:37.000Z</time>
      </trkpt>
      <trkpt lat="50.61724" lon="4.17687">
        <ele>119.1</ele>
        <time>2015-01-11T09:41:38.000Z</time>
      </trkpt>
      <trkpt lat="50.61725" lon="4.17687">
        <ele>119.1</ele>
        <time>2015-01-11T09:41:39.000Z</time>
      </trkpt>
      <trkpt lat="50.61725" lon="4.17688">
        <ele>119.1</ele>
        <time>2015-01-11T09:41:40.000Z</time>
      </trkpt>
      <trkpt lat="50.61726" lon="4.17689">
        <ele>119.1</ele>
        <time>2015-01-11T09:41:41.000Z</time>
      </trkpt>
      <trkpt lat="50.61727" lon="4.1769">
        <ele>119.2</ele>
        <time>2015-01-11T09:41:42.000Z</time>
      </trkpt>
      <trkpt lat="50.61728" lon="4.17692">
        <ele>119.2</ele>
        <time>2015-01-11T09:41:43.000Z</time>
      </trkpt>
      <trkpt lat="50.61729" lon="4.17693">
        <ele>119.2</ele>
        <time>2015-01-11T09:41:44.000Z</time>
      </trkpt>
      <trkpt lat="50.6173" lon="4.17695">
        <ele>119.3</ele>
        <time>2015-01-11T09:41:45.000Z</time>
      </trkpt>
      <trkpt lat="50.61731" lon="4.17696">
        <ele>119.4</ele>
        <time>2015-01-11T09:41:46.000Z</time>
      </trkpt>
      <trkpt lat="50.61733" lon="4.17698">
        <ele>119.5</ele>
        <time>2015-01-11T09:41:47.000Z</time>
      </trkpt>
      <trkpt lat="50.61734" lon="4.17699">
        <ele>119.5</ele>
        <time>2015-01-11T09:41:48.000Z</time>
      </trkpt>
      <trkpt lat="50.61735" lon="4.17701">
        <ele>119.6</ele>
        <time>2015-01-11T09:41:49.000Z</time>
      </trkpt>
      <trkpt lat="50.61736" lon="4.17702">
        <ele>119.6</ele>
        <time>2015-01-11T09:41:50.000Z</time>
      </trkpt>
      <trkpt lat="50.61737" lon="4.17704">
        <ele>119.7</ele>
        <time>2015-01-11T09:41:51.000Z</time>
      </trkpt>
      <trkpt lat="50.61738" lon="4.17705">
        <ele>119.7</ele>
        <time>2015-01-11T09:41:52.000Z</time>
      </trkpt>
      <trkpt lat="50.61739" lon="4.17706">
        <ele>119.8</ele>
        <time>2015-01-11T09:41:53.000Z</time>
      </trkpt>
      <trkpt lat="50.6174" lon="4.17708">
        <ele>119.8</ele>
        <time>2015-01-11T09:41:54.000Z</time>
      </trkpt>
      <trkpt lat="50.6174" lon="4.1771">
        <ele>119.8</ele>
        <time>2015-01-11T09:41:55.000Z</time>
      </trkpt>
      <trkpt lat="50.61741" lon="4.17711">
        <ele>119.9</ele>
        <time>2015-01-11T09:41:56.000Z</time>
      </trkpt>
      <trkpt lat="50.61742" lon="4.17713">
        <ele>119.9</ele>
        <time>2015-01-11T09:41:57.000Z</time>
      </trkpt>
      <trkpt lat="50.61743" lon="4.17714">
        <ele>119.9</ele>
        <time>2015-01-11T09:41:58.000Z</time>
      </trkpt>
      <trkpt lat="50.61744" lon="4.17716">
        <ele>120</ele>
        <time>2015-01-11T09:41:59.000Z</time>
      </trkpt>
      <trkpt lat="50.61745" lon="4.17717">
        <ele>120</ele>
        <time>2015-01-11T09:42:00.000Z</time>
      </trkpt>
      <trkpt lat="50.61746" lon="4.17719">
        <ele>120</ele>
        <time>2015-01-11T09:42:01.000Z</time>
      </trkpt>
      <trkpt lat="50.61747" lon="4.17721">
        <ele>120</ele>
        <time>2015-01-11T09:42:02.000Z</time>
      </trkpt>
      <trkpt lat="50.61748" lon="4.17723">
        <ele>120</ele>
        <time>2015-01-11T09:42:03.000Z</time>
      </trkpt>
      <trkpt lat="50.61748" lon="4.17724">
        <ele>120.1</ele>
        <time>2015-01-11T09:42:04.000Z</time>
      </trkpt>
      <trkpt lat="50.61749" lon="4.17726">
        <ele>120.1</ele>
        <time>2015-01-11T09:42:05.000Z</time>
      </trkpt>
      <trkpt lat="50.6175" lon="4.17728">
        <ele>120.2</ele>
        <time>2015-01-11T09:42:06.000Z</time>
      </trkpt>
      <trkpt lat="50.61751" lon="4.1773">
        <ele>120.3</ele>
        <time>2015-01-11T09:42:07.000Z</time>
      </trkpt>
      <trkpt lat="50.61752" lon="4.17732">
        <ele>120.4</ele>
        <time>2015-01-11T09:42:08.000Z</time>
      </trkpt>
      <trkpt lat="50.61753" lon="4.17734">
        <ele>120.5</ele>
        <time>2015-01-11T09:42:09.000Z</time>
      </trkpt>
      <trkpt lat="50.61754" lon="4.17735">
        <ele>120.6</ele>
        <time>2015-01-11T09:42:10.000Z</time>
      </trkpt>
      <trkpt lat="50.61755" lon="4.17737">
        <ele>120.6</ele>
        <time>2015-01-11T09:42:11.000Z</time>
      </trkpt>
      <trkpt lat="50.61756" lon="4.17739">
        <ele>120.7</ele>
        <time>2015-01-11T09:42:12.000Z</time>
      </trkpt>
      <trkpt lat="50.61757" lon="4.1774">
        <ele>120.7</ele>
        <time>2015-01-11T09:42:13.000Z</time>
      </trkpt>
      <trkpt lat="50.61758" lon="4.17742">
        <ele>120.8</ele>
        <time>2015-01-11T09:42:14.000Z</time>
      </trkpt>
      <trkpt lat="50.61759" lon="4.17744">
        <ele>120.8</ele>
        <time>2015-01-11T09:42:15.000Z</time>
      </trkpt>
      <trkpt lat="50.6176" lon="4.17746">
        <ele>120.9</ele>
        <time>2015-01-11T09:42:16.000Z</time>
      </trkpt>
      <trkpt lat="50.6176" lon="4.17748">
        <ele>120.9</ele>
        <time>2015-01-11T09:42:17.000Z</time>
      </trkpt>
      <trkpt lat="50.61761" lon="4.17749">
        <ele>121</ele>
        <time>2015-01-11T09:42:18.000Z</time>
      </trkpt>
      <trkpt lat="50.61762" lon="4.17751">
        <ele>121</ele>
        <time>2015-01-11T09:42:19.000Z</time>
      </trkpt>
      <trkpt lat="50.61762" lon="4.17752">
        <ele>121.1</ele>
        <time>2015-01-11T09:42:20.000Z</time>
      </trkpt>
      <trkpt lat="50.61763" lon="4.17754">
        <ele>121.2</ele>
        <time>2015-01-11T09:42:21.000Z</time>
      </trkpt>
      <trkpt lat="50.61763" lon="4.17755">
        <ele>121.2</ele>
        <time>2015-01-11T09:42:22.000Z</time>
      </trkpt>
      <trkpt lat="50.61764" lon="4.17757">
        <ele>121.2</ele>
        <time>2015-01-11T09:42:23.000Z</time>
      </trkpt>
      <trkpt lat="50.61765" lon="4.17758">
        <ele>121.3</ele>
        <time>2015-01-11T09:42:24.000Z</time>
      </trkpt>
      <trkpt lat="50.61766" lon="4.1776">
        <ele>121.3</ele>
        <time>2015-01-11T09:42:25.000Z</time>
      </trkpt>
      <trkpt lat="50.61768" lon="4.17765">
        <ele>121.4</ele>
        <time>2015-01-11T09:42:26.000Z</time>
      </trkpt>
      <trkpt lat="50.61768" lon="4.17765">
        <ele>121.4</ele>
        <time>2015-01-11T09:42:27.000Z</time>
      </trkpt>
      <trkpt lat="50.61768" lon="4.17765">
        <ele>121.4</ele>
        <time>2015-01-11T09:42:28.000Z</time>
      </trkpt>
      <trkpt lat="50.61769" lon="4.17766">
        <ele>121.4</ele>
        <time>2015-01-11T09:42:29.000Z</time>
      </trkpt>
      <trkpt lat="50.61769" lon="4.17766">
        <ele>121.4</ele>
        <time>2015-01-11T09:42:30.000Z</time>
      </trkpt>
      <trkpt lat="50.61771" lon="4.17768">
        <ele>121.3</ele>
        <time>2015-01-11T09:42:31.000Z</time>
      </trkpt>
      <trkpt lat="50.61771" lon="4.17769">
        <ele>121.3</ele>
        <time>2015-01-11T09:42:32.000Z</time>
      </trkpt>
      <trkpt lat="50.61771" lon="4.17769">
        <ele>121.3</ele>
        <time>2015-01-11T09:42:33.000Z</time>
      </trkpt>
      <trkpt lat="50.61772" lon="4.1777">
        <ele>121.3</ele>
        <time>2015-01-11T09:42:34.000Z</time>
      </trkpt>
      <trkpt lat="50.61772" lon="4.17771">
        <ele>121.3</ele>
        <time>2015-01-11T09:42:35.000Z</time>
      </trkpt>
      <trkpt lat="50.61772" lon="4.17772">
        <ele>121.3</ele>
        <time>2015-01-11T09:42:36.000Z</time>
      </trkpt>
      <trkpt lat="50.61773" lon="4.17774">
        <ele>121.3</ele>
        <time>2015-01-11T09:42:37.000Z</time>
      </trkpt>
      <trkpt lat="50.61773" lon="4.17776">
        <ele>121.3</ele>
        <time>2015-01-11T09:42:38.000Z</time>
      </trkpt>
      <trkpt lat="50.61774" lon="4.17778">
        <ele>121.3</ele>
        <time>2015-01-11T09:42:39.000Z</time>
      </trkpt>
      <trkpt lat="50.61774" lon="4.1778">
        <ele>121.3</ele>
        <time>2015-01-11T09:42:40.000Z</time>
      </trkpt>
      <trkpt lat="50.61774" lon="4.17782">
        <ele>121.4</ele>
        <time>2015-01-11T09:42:41.000Z</time>
      </trkpt>
      <trkpt lat="50.61775" lon="4.17784">
        <ele>121.5</ele>
        <time>2015-01-11T09:42:42.000Z</time>
      </trkpt>
      <trkpt lat="50.61775" lon="4.17787">
        <ele>121.5</ele>
        <time>2015-01-11T09:42:43.000Z</time>
      </trkpt>
      <trkpt lat="50.61775" lon="4.17789">
        <ele>121.6</ele>
        <time>2015-01-11T09:42:44.000Z</time>
      </trkpt>
      <trkpt lat="50.61776" lon="4.17792">
        <ele>121.6</ele>
        <time>2015-01-11T09:42:45.000Z</time>
      </trkpt>
      <trkpt lat="50.61776" lon="4.17794">
        <ele>121.7</ele>
        <time>2015-01-11T09:42:46.000Z</time>
      </trkpt>
      <trkpt lat="50.61777" lon="4.17797">
        <ele>121.8</ele>
        <time>2015-01-11T09:42:47.000Z</time>
      </trkpt>
      <trkpt lat="50.61777" lon="4.178">
        <ele>121.9</ele>
        <time>2015-01-11T09:42:48.000Z</time>
      </trkpt>
      <trkpt lat="50.61777" lon="4.17802">
        <ele>121.9</ele>
        <time>2015-01-11T09:42:49.000Z</time>
      </trkpt>
      <trkpt lat="50.61778" lon="4.17805">
        <ele>122</ele>
        <time>2015-01-11T09:42:50.000Z</time>
      </trkpt>
      <trkpt lat="50.61778" lon="4.17808">
        <ele>122</ele>
        <time>2015-01-11T09:42:51.000Z</time>
      </trkpt>
      <trkpt lat="50.61779" lon="4.17811">
        <ele>122</ele>
        <time>2015-01-11T09:42:52.000Z</time>
      </trkpt>
      <trkpt lat="50.61779" lon="4.17814">
        <ele>122</ele>
        <time>2015-01-11T09:42:53.000Z</time>
      </trkpt>
      <trkpt lat="50.61779" lon="4.17818">
        <ele>121.9</ele>
        <time>2015-01-11T09:42:54.000Z</time>
      </trkpt>
      <trkpt lat="50.6178" lon="4.17821">
        <ele>121.9</ele>
        <time>2015-01-11T09:42:55.000Z</time>
      </trkpt>
      <trkpt lat="50.6178" lon="4.17824">
        <ele>121.9</ele>
        <time>2015-01-11T09:42:56.000Z</time>
      </trkpt>
      <trkpt lat="50.61781" lon="4.17827">
        <ele>121.9</ele>
        <time>2015-01-11T09:42:57.000Z</time>
      </trkpt>
      <trkpt lat="50.61781" lon="4.17831">
        <ele>121.9</ele>
        <time>2015-01-11T09:42:58.000Z</time>
      </trkpt>
      <trkpt lat="50.61781" lon="4.17834">
        <ele>121.9</ele>
        <time>2015-01-11T09:42:59.000Z</time>
      </trkpt>
      <trkpt lat="50.61782" lon="4.17837">
        <ele>122.1</ele>
        <time>2015-01-11T09:43:00.000Z</time>
      </trkpt>
      <trkpt lat="50.61782" lon="4.1784">
        <ele>122.3</ele>
        <time>2015-01-11T09:43:01.000Z</time>
      </trkpt>
      <trkpt lat="50.61782" lon="4.17844">
        <ele>122.5</ele>
        <time>2015-01-11T09:43:02.000Z</time>
      </trkpt>
      <trkpt lat="50.61782" lon="4.17847">
        <ele>122.7</ele>
        <time>2015-01-11T09:43:03.000Z</time>
      </trkpt>
      <trkpt lat="50.61783" lon="4.17851">
        <ele>122.9</ele>
        <time>2015-01-11T09:43:04.000Z</time>
      </trkpt>
      <trkpt lat="50.61783" lon="4.17854">
        <ele>123</ele>
        <time>2015-01-11T09:43:05.000Z</time>
      </trkpt>
      <trkpt lat="50.61784" lon="4.17858">
        <ele>123.1</ele>
        <time>2015-01-11T09:43:06.000Z</time>
      </trkpt>
      <trkpt lat="50.61785" lon="4.17862">
        <ele>123.2</ele>
        <time>2015-01-11T09:43:07.000Z</time>
      </trkpt>
      <trkpt lat="50.61787" lon="4.17866">
        <ele>123.2</ele>
        <time>2015-01-11T09:43:08.000Z</time>
      </trkpt>
      <trkpt lat="50.61788" lon="4.17869">
        <ele>123.2</ele>
        <time>2015-01-11T09:43:09.000Z</time>
      </trkpt>
      <trkpt lat="50.61789" lon="4.17873">
        <ele>123.3</ele>
        <time>2015-01-11T09:43:10.000Z</time>
      </trkpt>
      <trkpt lat="50.6179" lon="4.17877">
        <ele>123.3</ele>
        <time>2015-01-11T09:43:11.000Z</time>
      </trkpt>
      <trkpt lat="50.6179" lon="4.1788">
        <ele>123.3</ele>
        <time>2015-01-11T09:43:12.000Z</time>
      </trkpt>
      <trkpt lat="50.61792" lon="4.17885">
        <ele>123.4</ele>
        <time>2015-01-11T09:43:13.000Z</time>
      </trkpt>
      <trkpt lat="50.61793" lon="4.17889">
        <ele>123.4</ele>
        <time>2015-01-11T09:43:14.000Z</time>
      </trkpt>
      <trkpt lat="50.61794" lon="4.17893">
        <ele>123.2</ele>
        <time>2015-01-11T09:43:15.000Z</time>
      </trkpt>
      <trkpt lat="50.61795" lon="4.17897">
        <ele>123.1</ele>
        <time>2015-01-11T09:43:16.000Z</time>
      </trkpt>
      <trkpt lat="50.61796" lon="4.17901">
        <ele>123</ele>
        <time>2015-01-11T09:43:17.000Z</time>
      </trkpt>
      <trkpt lat="50.61797" lon="4.17905">
        <ele>122.9</ele>
        <time>2015-01-11T09:43:18.000Z</time>
      </trkpt>
      <trkpt lat="50.61798" lon="4.17909">
        <ele>122.8</ele>
        <time>2015-01-11T09:43:19.000Z</time>
      </trkpt>
      <trkpt lat="50.61799" lon="4.17912">
        <ele>122.7</ele>
        <time>2015-01-11T09:43:20.000Z</time>
      </trkpt>
      <trkpt lat="50.618" lon="4.17915">
        <ele>122.6</ele>
        <time>2015-01-11T09:43:21.000Z</time>
      </trkpt>
      <trkpt lat="50.618" lon="4.17919">
        <ele>122.5</ele>
        <time>2015-01-11T09:43:22.000Z</time>
      </trkpt>
      <trkpt lat="50.61801" lon="4.17922">
        <ele>122.3</ele>
        <time>2015-01-11T09:43:23.000Z</time>
      </trkpt>
      <trkpt lat="50.61802" lon="4.17925">
        <ele>122.2</ele>
        <time>2015-01-11T09:43:24.000Z</time>
      </trkpt>
      <trkpt lat="50.61802" lon="4.17928">
        <ele>122</ele>
        <time>2015-01-11T09:43:25.000Z</time>
      </trkpt>
      <trkpt lat="50.61803" lon="4.1793">
        <ele>121.8</ele>
        <time>2015-01-11T09:43:26.000Z</time>
      </trkpt>
      <trkpt lat="50.61804" lon="4.17933">
        <ele>121.6</ele>
        <time>2015-01-11T09:43:27.000Z</time>
      </trkpt>
      <trkpt lat="50.61805" lon="4.17936">
        <ele>121.4</ele>
        <time>2015-01-11T09:43:28.000Z</time>
      </trkpt>
      <trkpt lat="50.61805" lon="4.17939">
        <ele>121.2</ele>
        <time>2015-01-11T09:43:29.000Z</time>
      </trkpt>
      <trkpt lat="50.61806" lon="4.17942">
        <ele>120.9</ele>
        <time>2015-01-11T09:43:30.000Z</time>
      </trkpt>
      <trkpt lat="50.61807" lon="4.17945">
        <ele>120.7</ele>
        <time>2015-01-11T09:43:31.000Z</time>
      </trkpt>
      <trkpt lat="50.61808" lon="4.17948">
        <ele>120.4</ele>
        <time>2015-01-11T09:43:32.000Z</time>
      </trkpt>
      <trkpt lat="50.61809" lon="4.17951">
        <ele>120.2</ele>
        <time>2015-01-11T09:43:33.000Z</time>
      </trkpt>
      <trkpt lat="50.61809" lon="4.17954">
        <ele>120</ele>
        <time>2015-01-11T09:43:34.000Z</time>
      </trkpt>
      <trkpt lat="50.6181" lon="4.17956">
        <ele>119.8</ele>
        <time>2015-01-11T09:43:35.000Z</time>
      </trkpt>
      <trkpt lat="50.6181" lon="4.17959">
        <ele>119.7</ele>
        <time>2015-01-11T09:43:36.000Z</time>
      </trkpt>
      <trkpt lat="50.61811" lon="4.17962">
        <ele>119.5</ele>
        <time>2015-01-11T09:43:37.000Z</time>
      </trkpt>
      <trkpt lat="50.61811" lon="4.17965">
        <ele>119.3</ele>
        <time>2015-01-11T09:43:38.000Z</time>
      </trkpt>
      <trkpt lat="50.61812" lon="4.17968">
        <ele>119.1</ele>
        <time>2015-01-11T09:43:39.000Z</time>
      </trkpt>
      <trkpt lat="50.61813" lon="4.17971">
        <ele>118.9</ele>
        <time>2015-01-11T09:43:40.000Z</time>
      </trkpt>
      <trkpt lat="50.61814" lon="4.17974">
        <ele>118.9</ele>
        <time>2015-01-11T09:43:41.000Z</time>
      </trkpt>
      <trkpt lat="50.61815" lon="4.17977">
        <ele>119</ele>
        <time>2015-01-11T09:43:42.000Z</time>
      </trkpt>
      <trkpt lat="50.61817" lon="4.1798">
        <ele>119</ele>
        <time>2015-01-11T09:43:43.000Z</time>
      </trkpt>
      <trkpt lat="50.61818" lon="4.17983">
        <ele>119</ele>
        <time>2015-01-11T09:43:44.000Z</time>
      </trkpt>
      <trkpt lat="50.61819" lon="4.17986">
        <ele>119</ele>
        <time>2015-01-11T09:43:45.000Z</time>
      </trkpt>
      <trkpt lat="50.6182" lon="4.17988">
        <ele>119</ele>
        <time>2015-01-11T09:43:46.000Z</time>
      </trkpt>
      <trkpt lat="50.61821" lon="4.17991">
        <ele>119.1</ele>
        <time>2015-01-11T09:43:47.000Z</time>
      </trkpt>
      <trkpt lat="50.61822" lon="4.17993">
        <ele>119.1</ele>
        <time>2015-01-11T09:43:48.000Z</time>
      </trkpt>
      <trkpt lat="50.61823" lon="4.17996">
        <ele>119.2</ele>
        <time>2015-01-11T09:43:49.000Z</time>
      </trkpt>
      <trkpt lat="50.61824" lon="4.17999">
        <ele>119.3</ele>
        <time>2015-01-11T09:43:50.000Z</time>
      </trkpt>
      <trkpt lat="50.61825" lon="4.18001">
        <ele>119.2</ele>
        <time>2015-01-11T09:43:51.000Z</time>
      </trkpt>
      <trkpt lat="50.61826" lon="4.18004">
        <ele>119</ele>
        <time>2015-01-11T09:43:52.000Z</time>
      </trkpt>
      <trkpt lat="50.61828" lon="4.18006">
        <ele>118.8</ele>
        <time>2015-01-11T09:43:53.000Z</time>
      </trkpt>
      <trkpt lat="50.61829" lon="4.18008">
        <ele>118.6</ele>
        <time>2015-01-11T09:43:54.000Z</time>
      </trkpt>
      <trkpt lat="50.61831" lon="4.18011">
        <ele>118.4</ele>
        <time>2015-01-11T09:43:55.000Z</time>
      </trkpt>
      <trkpt lat="50.61832" lon="4.18013">
        <ele>118.2</ele>
        <time>2015-01-11T09:43:56.000Z</time>
      </trkpt>
      <trkpt lat="50.61833" lon="4.18016">
        <ele>118</ele>
        <time>2015-01-11T09:43:57.000Z</time>
      </trkpt>
      <trkpt lat="50.61834" lon="4.18019">
        <ele>117.8</ele>
        <time>2015-01-11T09:43:58.000Z</time>
      </trkpt>
      <trkpt lat="50.61835" lon="4.18021">
        <ele>117.7</ele>
        <time>2015-01-11T09:43:59.000Z</time>
      </trkpt>
      <trkpt lat="50.61836" lon="4.18023">
        <ele>117.5</ele>
        <time>2015-01-11T09:44:00.000Z</time>
      </trkpt>
      <trkpt lat="50.61837" lon="4.18025">
        <ele>117.3</ele>
        <time>2015-01-11T09:44:01.000Z</time>
      </trkpt>
      <trkpt lat="50.61838" lon="4.18027">
        <ele>117.2</ele>
        <time>2015-01-11T09:44:02.000Z</time>
      </trkpt>
      <trkpt lat="50.61839" lon="4.18029">
        <ele>117.1</ele>
        <time>2015-01-11T09:44:03.000Z</time>
      </trkpt>
      <trkpt lat="50.6184" lon="4.18031">
        <ele>116.9</ele>
        <time>2015-01-11T09:44:04.000Z</time>
      </trkpt>
      <trkpt lat="50.61841" lon="4.18032">
        <ele>116.8</ele>
        <time>2015-01-11T09:44:05.000Z</time>
      </trkpt>
      <trkpt lat="50.61843" lon="4.18034">
        <ele>116.6</ele>
        <time>2015-01-11T09:44:06.000Z</time>
      </trkpt>
      <trkpt lat="50.61844" lon="4.18036">
        <ele>116.5</ele>
        <time>2015-01-11T09:44:07.000Z</time>
      </trkpt>
      <trkpt lat="50.61846" lon="4.18038">
        <ele>116.5</ele>
        <time>2015-01-11T09:44:08.000Z</time>
      </trkpt>
      <trkpt lat="50.6185" lon="4.18041">
        <ele>116.5</ele>
        <time>2015-01-11T09:44:09.000Z</time>
      </trkpt>
      <trkpt lat="50.6185" lon="4.18041">
        <ele>116.5</ele>
        <time>2015-01-11T09:44:10.000Z</time>
      </trkpt>
      <trkpt lat="50.61851" lon="4.18041">
        <ele>116.5</ele>
        <time>2015-01-11T09:44:11.000Z</time>
      </trkpt>
      <trkpt lat="50.61852" lon="4.18042">
        <ele>116.5</ele>
        <time>2015-01-11T09:44:12.000Z</time>
      </trkpt>
      <trkpt lat="50.61853" lon="4.18042">
        <ele>116.6</ele>
        <time>2015-01-11T09:44:13.000Z</time>
      </trkpt>
      <trkpt lat="50.61854" lon="4.18044">
        <ele>116.6</ele>
        <time>2015-01-11T09:44:14.000Z</time>
      </trkpt>
      <trkpt lat="50.61856" lon="4.18045">
        <ele>116.8</ele>
        <time>2015-01-11T09:44:15.000Z</time>
      </trkpt>
      <trkpt lat="50.61858" lon="4.18045">
        <ele>116.9</ele>
        <time>2015-01-11T09:44:16.000Z</time>
      </trkpt>
      <trkpt lat="50.6186" lon="4.18046">
        <ele>117</ele>
        <time>2015-01-11T09:44:17.000Z</time>
      </trkpt>
      <trkpt lat="50.61862" lon="4.18047">
        <ele>117.2</ele>
        <time>2015-01-11T09:44:18.000Z</time>
      </trkpt>
      <trkpt lat="50.61865" lon="4.18049">
        <ele>117.5</ele>
        <time>2015-01-11T09:44:19.000Z</time>
      </trkpt>
      <trkpt lat="50.61867" lon="4.1805">
        <ele>117.7</ele>
        <time>2015-01-11T09:44:20.000Z</time>
      </trkpt>
      <trkpt lat="50.61869" lon="4.18052">
        <ele>117.8</ele>
        <time>2015-01-11T09:44:21.000Z</time>
      </trkpt>
      <trkpt lat="50.61871" lon="4.18053">
        <ele>118</ele>
        <time>2015-01-11T09:44:22.000Z</time>
      </trkpt>
      <trkpt lat="50.61873" lon="4.18055">
        <ele>118</ele>
        <time>2015-01-11T09:44:23.000Z</time>
      </trkpt>
      <trkpt lat="50.61874" lon="4.18055">
        <ele>118</ele>
        <time>2015-01-11T09:44:24.000Z</time>
      </trkpt>
      <trkpt lat="50.61876" lon="4.18056">
        <ele>117.9</ele>
        <time>2015-01-11T09:44:25.000Z</time>
      </trkpt>
      <trkpt lat="50.61879" lon="4.18056">
        <ele>117.7</ele>
        <time>2015-01-11T09:44:26.000Z</time>
      </trkpt>
      <trkpt lat="50.61881" lon="4.18056">
        <ele>117.6</ele>
        <time>2015-01-11T09:44:27.000Z</time>
      </trkpt>
      <trkpt lat="50.61883" lon="4.18056">
        <ele>117.4</ele>
        <time>2015-01-11T09:44:28.000Z</time>
      </trkpt>
      <trkpt lat="50.61885" lon="4.18056">
        <ele>117.3</ele>
        <time>2015-01-11T09:44:29.000Z</time>
      </trkpt>
      <trkpt lat="50.61888" lon="4.18056">
        <ele>117.1</ele>
        <time>2015-01-11T09:44:30.000Z</time>
      </trkpt>
      <trkpt lat="50.6189" lon="4.18056">
        <ele>117.1</ele>
        <time>2015-01-11T09:44:31.000Z</time>
      </trkpt>
      <trkpt lat="50.61892" lon="4.18055">
        <ele>117.3</ele>
        <time>2015-01-11T09:44:32.000Z</time>
      </trkpt>
      <trkpt lat="50.61894" lon="4.18054">
        <ele>117.5</ele>
        <time>2015-01-11T09:44:33.000Z</time>
      </trkpt>
      <trkpt lat="50.61896" lon="4.18053">
        <ele>117.7</ele>
        <time>2015-01-11T09:44:34.000Z</time>
      </trkpt>
      <trkpt lat="50.61898" lon="4.18052">
        <ele>117.8</ele>
        <time>2015-01-11T09:44:35.000Z</time>
      </trkpt>
      <trkpt lat="50.619" lon="4.18051">
        <ele>118</ele>
        <time>2015-01-11T09:44:36.000Z</time>
      </trkpt>
      <trkpt lat="50.61902" lon="4.18051">
        <ele>118.1</ele>
        <time>2015-01-11T09:44:37.000Z</time>
      </trkpt>
      <trkpt lat="50.61904" lon="4.1805">
        <ele>118.3</ele>
        <time>2015-01-11T09:44:38.000Z</time>
      </trkpt>
      <trkpt lat="50.61906" lon="4.1805">
        <ele>118.5</ele>
        <time>2015-01-11T09:44:39.000Z</time>
      </trkpt>
      <trkpt lat="50.61908" lon="4.18049">
        <ele>118.7</ele>
        <time>2015-01-11T09:44:40.000Z</time>
      </trkpt>
      <trkpt lat="50.6191" lon="4.18048">
        <ele>118.9</ele>
        <time>2015-01-11T09:44:41.000Z</time>
      </trkpt>
      <trkpt lat="50.61913" lon="4.18048">
        <ele>119</ele>
        <time>2015-01-11T09:44:42.000Z</time>
      </trkpt>
      <trkpt lat="50.61915" lon="4.18047">
        <ele>119.2</ele>
        <time>2015-01-11T09:44:43.000Z</time>
      </trkpt>
      <trkpt lat="50.61917" lon="4.18045">
        <ele>119.3</ele>
        <time>2015-01-11T09:44:44.000Z</time>
      </trkpt>
      <trkpt lat="50.61919" lon="4.18044">
        <ele>119.3</ele>
        <time>2015-01-11T09:44:45.000Z</time>
      </trkpt>
      <trkpt lat="50.61921" lon="4.18043">
        <ele>119.3</ele>
        <time>2015-01-11T09:44:46.000Z</time>
      </trkpt>
      <trkpt lat="50.61923" lon="4.18042">
        <ele>119.4</ele>
        <time>2015-01-11T09:44:47.000Z</time>
      </trkpt>
      <trkpt lat="50.61925" lon="4.1804">
        <ele>119.4</ele>
        <time>2015-01-11T09:44:48.000Z</time>
      </trkpt>
      <trkpt lat="50.61927" lon="4.18039">
        <ele>119.4</ele>
        <time>2015-01-11T09:44:49.000Z</time>
      </trkpt>
      <trkpt lat="50.61929" lon="4.18038">
        <ele>119.5</ele>
        <time>2015-01-11T09:44:50.000Z</time>
      </trkpt>
      <trkpt lat="50.61931" lon="4.18037">
        <ele>119.5</ele>
        <time>2015-01-11T09:44:51.000Z</time>
      </trkpt>
      <trkpt lat="50.61933" lon="4.18035">
        <ele>119.6</ele>
        <time>2015-01-11T09:44:52.000Z</time>
      </trkpt>
      <trkpt lat="50.61935" lon="4.18034">
        <ele>119.6</ele>
        <time>2015-01-11T09:44:53.000Z</time>
      </trkpt>
      <trkpt lat="50.61937" lon="4.18033">
        <ele>119.7</ele>
        <time>2015-01-11T09:44:54.000Z</time>
      </trkpt>
      <trkpt lat="50.61938" lon="4.18032">
        <ele>119.8</ele>
        <time>2015-01-11T09:44:55.000Z</time>
      </trkpt>
      <trkpt lat="50.6194" lon="4.18031">
        <ele>119.8</ele>
        <time>2015-01-11T09:44:56.000Z</time>
      </trkpt>
      <trkpt lat="50.61941" lon="4.1803">
        <ele>119.9</ele>
        <time>2015-01-11T09:44:57.000Z</time>
      </trkpt>
      <trkpt lat="50.61942" lon="4.18029">
        <ele>119.9</ele>
        <time>2015-01-11T09:44:58.000Z</time>
      </trkpt>
      <trkpt lat="50.61944" lon="4.18027">
        <ele>119.9</ele>
        <time>2015-01-11T09:44:59.000Z</time>
      </trkpt>
      <trkpt lat="50.61946" lon="4.18026">
        <ele>120.1</ele>
        <time>2015-01-11T09:45:00.000Z</time>
      </trkpt>
      <trkpt lat="50.61947" lon="4.18024">
        <ele>120.2</ele>
        <time>2015-01-11T09:45:01.000Z</time>
      </trkpt>
      <trkpt lat="50.61949" lon="4.18023">
        <ele>120.4</ele>
        <time>2015-01-11T09:45:02.000Z</time>
      </trkpt>
      <trkpt lat="50.61951" lon="4.18021">
        <ele>120.5</ele>
        <time>2015-01-11T09:45:03.000Z</time>
      </trkpt>
      <trkpt lat="50.61952" lon="4.18019">
        <ele>120.7</ele>
        <time>2015-01-11T09:45:04.000Z</time>
      </trkpt>
      <trkpt lat="50.61954" lon="4.18018">
        <ele>120.7</ele>
        <time>2015-01-11T09:45:05.000Z</time>
      </trkpt>
      <trkpt lat="50.61955" lon="4.18016">
        <ele>120.8</ele>
        <time>2015-01-11T09:45:06.000Z</time>
      </trkpt>
      <trkpt lat="50.61957" lon="4.18014">
        <ele>120.8</ele>
        <time>2015-01-11T09:45:07.000Z</time>
      </trkpt>
      <trkpt lat="50.61958" lon="4.18012">
        <ele>120.9</ele>
        <time>2015-01-11T09:45:08.000Z</time>
      </trkpt>
      <trkpt lat="50.6196" lon="4.1801">
        <ele>120.9</ele>
        <time>2015-01-11T09:45:09.000Z</time>
      </trkpt>
      <trkpt lat="50.61962" lon="4.18009">
        <ele>120.9</ele>
        <time>2015-01-11T09:45:10.000Z</time>
      </trkpt>
      <trkpt lat="50.61963" lon="4.18007">
        <ele>121</ele>
        <time>2015-01-11T09:45:11.000Z</time>
      </trkpt>
      <trkpt lat="50.61965" lon="4.18006">
        <ele>121</ele>
        <time>2015-01-11T09:45:12.000Z</time>
      </trkpt>
      <trkpt lat="50.61966" lon="4.18005">
        <ele>121</ele>
        <time>2015-01-11T09:45:13.000Z</time>
      </trkpt>
      <trkpt lat="50.61967" lon="4.18003">
        <ele>120.9</ele>
        <time>2015-01-11T09:45:14.000Z</time>
      </trkpt>
      <trkpt lat="50.61968" lon="4.18002">
        <ele>120.9</ele>
        <time>2015-01-11T09:45:15.000Z</time>
      </trkpt>
      <trkpt lat="50.61969" lon="4.18">
        <ele>120.8</ele>
        <time>2015-01-11T09:45:16.000Z</time>
      </trkpt>
      <trkpt lat="50.61971" lon="4.17998">
        <ele>120.8</ele>
        <time>2015-01-11T09:45:17.000Z</time>
      </trkpt>
      <trkpt lat="50.61972" lon="4.17996">
        <ele>120.9</ele>
        <time>2015-01-11T09:45:18.000Z</time>
      </trkpt>
      <trkpt lat="50.61974" lon="4.17995">
        <ele>121</ele>
        <time>2015-01-11T09:45:19.000Z</time>
      </trkpt>
      <trkpt lat="50.61976" lon="4.17993">
        <ele>121.1</ele>
        <time>2015-01-11T09:45:20.000Z</time>
      </trkpt>
      <trkpt lat="50.61977" lon="4.1799">
        <ele>121.2</ele>
        <time>2015-01-11T09:45:21.000Z</time>
      </trkpt>
      <trkpt lat="50.61979" lon="4.17988">
        <ele>121.3</ele>
        <time>2015-01-11T09:45:22.000Z</time>
      </trkpt>
      <trkpt lat="50.6198" lon="4.17986">
        <ele>121.4</ele>
        <time>2015-01-11T09:45:23.000Z</time>
      </trkpt>
      <trkpt lat="50.61982" lon="4.17984">
        <ele>121.5</ele>
        <time>2015-01-11T09:45:24.000Z</time>
      </trkpt>
      <trkpt lat="50.61984" lon="4.17981">
        <ele>121.5</ele>
        <time>2015-01-11T09:45:25.000Z</time>
      </trkpt>
      <trkpt lat="50.61985" lon="4.17978">
        <ele>121.6</ele>
        <time>2015-01-11T09:45:26.000Z</time>
      </trkpt>
      <trkpt lat="50.61987" lon="4.17976">
        <ele>121.7</ele>
        <time>2015-01-11T09:45:27.000Z</time>
      </trkpt>
      <trkpt lat="50.61989" lon="4.17973">
        <ele>121.8</ele>
        <time>2015-01-11T09:45:28.000Z</time>
      </trkpt>
      <trkpt lat="50.61991" lon="4.1797">
        <ele>121.9</ele>
        <time>2015-01-11T09:45:29.000Z</time>
      </trkpt>
      <trkpt lat="50.61992" lon="4.17968">
        <ele>121.9</ele>
        <time>2015-01-11T09:45:30.000Z</time>
      </trkpt>
      <trkpt lat="50.61994" lon="4.17965">
        <ele>121.9</ele>
        <time>2015-01-11T09:45:31.000Z</time>
      </trkpt>
      <trkpt lat="50.61996" lon="4.17963">
        <ele>121.9</ele>
        <time>2015-01-11T09:45:32.000Z</time>
      </trkpt>
      <trkpt lat="50.61997" lon="4.17961">
        <ele>122</ele>
        <time>2015-01-11T09:45:33.000Z</time>
      </trkpt>
      <trkpt lat="50.61999" lon="4.17959">
        <ele>122</ele>
        <time>2015-01-11T09:45:34.000Z</time>
      </trkpt>
      <trkpt lat="50.62001" lon="4.17957">
        <ele>121.9</ele>
        <time>2015-01-11T09:45:35.000Z</time>
      </trkpt>
      <trkpt lat="50.62002" lon="4.17955">
        <ele>121.9</ele>
        <time>2015-01-11T09:45:36.000Z</time>
      </trkpt>
      <trkpt lat="50.62004" lon="4.17953">
        <ele>121.9</ele>
        <time>2015-01-11T09:45:37.000Z</time>
      </trkpt>
      <trkpt lat="50.62005" lon="4.17951">
        <ele>121.9</ele>
        <time>2015-01-11T09:45:38.000Z</time>
      </trkpt>
      <trkpt lat="50.62007" lon="4.1795">
        <ele>121.8</ele>
        <time>2015-01-11T09:45:39.000Z</time>
      </trkpt>
      <trkpt lat="50.62008" lon="4.17948">
        <ele>121.8</ele>
        <time>2015-01-11T09:45:40.000Z</time>
      </trkpt>
      <trkpt lat="50.6201" lon="4.17946">
        <ele>121.8</ele>
        <time>2015-01-11T09:45:41.000Z</time>
      </trkpt>
      <trkpt lat="50.62011" lon="4.17944">
        <ele>121.8</ele>
        <time>2015-01-11T09:45:42.000Z</time>
      </trkpt>
      <trkpt lat="50.62012" lon="4.17942">
        <ele>121.7</ele>
        <time>2015-01-11T09:45:43.000Z</time>
      </trkpt>
      <trkpt lat="50.62014" lon="4.17939">
        <ele>121.7</ele>
        <time>2015-01-11T09:45:44.000Z</time>
      </trkpt>
      <trkpt lat="50.62015" lon="4.17937">
        <ele>121.7</ele>
        <time>2015-01-11T09:45:45.000Z</time>
      </trkpt>
      <trkpt lat="50.62017" lon="4.17935">
        <ele>121.7</ele>
        <time>2015-01-11T09:45:46.000Z</time>
      </trkpt>
      <trkpt lat="50.62018" lon="4.17933">
        <ele>121.6</ele>
        <time>2015-01-11T09:45:47.000Z</time>
      </trkpt>
      <trkpt lat="50.6202" lon="4.17931">
        <ele>121.6</ele>
        <time>2015-01-11T09:45:48.000Z</time>
      </trkpt>
      <trkpt lat="50.62021" lon="4.17929">
        <ele>121.5</ele>
        <time>2015-01-11T09:45:49.000Z</time>
      </trkpt>
      <trkpt lat="50.62023" lon="4.17927">
        <ele>121.5</ele>
        <time>2015-01-11T09:45:50.000Z</time>
      </trkpt>
      <trkpt lat="50.62024" lon="4.17926">
        <ele>121.5</ele>
        <time>2015-01-11T09:45:51.000Z</time>
      </trkpt>
      <trkpt lat="50.62025" lon="4.17924">
        <ele>121.4</ele>
        <time>2015-01-11T09:45:52.000Z</time>
      </trkpt>
      <trkpt lat="50.62026" lon="4.17923">
        <ele>121.4</ele>
        <time>2015-01-11T09:45:53.000Z</time>
      </trkpt>
      <trkpt lat="50.62028" lon="4.17921">
        <ele>121.3</ele>
        <time>2015-01-11T09:45:54.000Z</time>
      </trkpt>
      <trkpt lat="50.62029" lon="4.1792">
        <ele>121.4</ele>
        <time>2015-01-11T09:45:55.000Z</time>
      </trkpt>
      <trkpt lat="50.6203" lon="4.17919">
        <ele>121.4</ele>
        <time>2015-01-11T09:45:56.000Z</time>
      </trkpt>
      <trkpt lat="50.62031" lon="4.17917">
        <ele>121.4</ele>
        <time>2015-01-11T09:45:57.000Z</time>
      </trkpt>
      <trkpt lat="50.62032" lon="4.17915">
        <ele>121.4</ele>
        <time>2015-01-11T09:45:58.000Z</time>
      </trkpt>
      <trkpt lat="50.62033" lon="4.17914">
        <ele>121.5</ele>
        <time>2015-01-11T09:45:59.000Z</time>
      </trkpt>
      <trkpt lat="50.62033" lon="4.17912">
        <ele>121.5</ele>
        <time>2015-01-11T09:46:00.000Z</time>
      </trkpt>
      <trkpt lat="50.62034" lon="4.17912">
        <ele>121.6</ele>
        <time>2015-01-11T09:46:01.000Z</time>
      </trkpt>
      <trkpt lat="50.62034" lon="4.1791">
        <ele>121.6</ele>
        <time>2015-01-11T09:46:02.000Z</time>
      </trkpt>
      <trkpt lat="50.62035" lon="4.17909">
        <ele>121.6</ele>
        <time>2015-01-11T09:46:03.000Z</time>
      </trkpt>
      <trkpt lat="50.62036" lon="4.17907">
        <ele>121.7</ele>
        <time>2015-01-11T09:46:04.000Z</time>
      </trkpt>
      <trkpt lat="50.62036" lon="4.17906">
        <ele>121.7</ele>
        <time>2015-01-11T09:46:05.000Z</time>
      </trkpt>
      <trkpt lat="50.62037" lon="4.17904">
        <ele>121.7</ele>
        <time>2015-01-11T09:46:06.000Z</time>
      </trkpt>
      <trkpt lat="50.62038" lon="4.17903">
        <ele>121.7</ele>
        <time>2015-01-11T09:46:07.000Z</time>
      </trkpt>
      <trkpt lat="50.62039" lon="4.17901">
        <ele>121.8</ele>
        <time>2015-01-11T09:46:08.000Z</time>
      </trkpt>
      <trkpt lat="50.6204" lon="4.17899">
        <ele>121.8</ele>
        <time>2015-01-11T09:46:09.000Z</time>
      </trkpt>
      <trkpt lat="50.62042" lon="4.17898">
        <ele>121.8</ele>
        <time>2015-01-11T09:46:10.000Z</time>
      </trkpt>
      <trkpt lat="50.62043" lon="4.17896">
        <ele>121.8</ele>
        <time>2015-01-11T09:46:11.000Z</time>
      </trkpt>
      <trkpt lat="50.62045" lon="4.17894">
        <ele>121.8</ele>
        <time>2015-01-11T09:46:12.000Z</time>
      </trkpt>
      <trkpt lat="50.62046" lon="4.17892">
        <ele>121.8</ele>
        <time>2015-01-11T09:46:13.000Z</time>
      </trkpt>
      <trkpt lat="50.62048" lon="4.1789">
        <ele>121.8</ele>
        <time>2015-01-11T09:46:14.000Z</time>
      </trkpt>
      <trkpt lat="50.62049" lon="4.17889">
        <ele>121.7</ele>
        <time>2015-01-11T09:46:15.000Z</time>
      </trkpt>
      <trkpt lat="50.6205" lon="4.17887">
        <ele>121.7</ele>
        <time>2015-01-11T09:46:16.000Z</time>
      </trkpt>
      <trkpt lat="50.62052" lon="4.17885">
        <ele>121.6</ele>
        <time>2015-01-11T09:46:17.000Z</time>
      </trkpt>
      <trkpt lat="50.62053" lon="4.17883">
        <ele>121.5</ele>
        <time>2015-01-11T09:46:18.000Z</time>
      </trkpt>
      <trkpt lat="50.62055" lon="4.17882">
        <ele>121.5</ele>
        <time>2015-01-11T09:46:19.000Z</time>
      </trkpt>
      <trkpt lat="50.62056" lon="4.1788">
        <ele>121.4</ele>
        <time>2015-01-11T09:46:20.000Z</time>
      </trkpt>
      <trkpt lat="50.62058" lon="4.17878">
        <ele>121.3</ele>
        <time>2015-01-11T09:46:21.000Z</time>
      </trkpt>
      <trkpt lat="50.6206" lon="4.17876">
        <ele>121.3</ele>
        <time>2015-01-11T09:46:22.000Z</time>
      </trkpt>
      <trkpt lat="50.62061" lon="4.17873">
        <ele>121.2</ele>
        <time>2015-01-11T09:46:23.000Z</time>
      </trkpt>
      <trkpt lat="50.62063" lon="4.17871">
        <ele>121.2</ele>
        <time>2015-01-11T09:46:24.000Z</time>
      </trkpt>
      <trkpt lat="50.62065" lon="4.17869">
        <ele>121.1</ele>
        <time>2015-01-11T09:46:25.000Z</time>
      </trkpt>
      <trkpt lat="50.62066" lon="4.17867">
        <ele>121.1</ele>
        <time>2015-01-11T09:46:26.000Z</time>
      </trkpt>
      <trkpt lat="50.62068" lon="4.17865">
        <ele>121.1</ele>
        <time>2015-01-11T09:46:27.000Z</time>
      </trkpt>
      <trkpt lat="50.62069" lon="4.17863">
        <ele>121.1</ele>
        <time>2015-01-11T09:46:28.000Z</time>
      </trkpt>
      <trkpt lat="50.6207" lon="4.17861">
        <ele>121</ele>
        <time>2015-01-11T09:46:29.000Z</time>
      </trkpt>
      <trkpt lat="50.62072" lon="4.17858">
        <ele>120.9</ele>
        <time>2015-01-11T09:46:30.000Z</time>
      </trkpt>
      <trkpt lat="50.62073" lon="4.17856">
        <ele>120.8</ele>
        <time>2015-01-11T09:46:31.000Z</time>
      </trkpt>
      <trkpt lat="50.62074" lon="4.17854">
        <ele>120.7</ele>
        <time>2015-01-11T09:46:32.000Z</time>
      </trkpt>
      <trkpt lat="50.62075" lon="4.17852">
        <ele>120.5</ele>
        <time>2015-01-11T09:46:33.000Z</time>
      </trkpt>
      <trkpt lat="50.62076" lon="4.1785">
        <ele>120.4</ele>
        <time>2015-01-11T09:46:34.000Z</time>
      </trkpt>
      <trkpt lat="50.62077" lon="4.17848">
        <ele>120.2</ele>
        <time>2015-01-11T09:46:35.000Z</time>
      </trkpt>
      <trkpt lat="50.62078" lon="4.17846">
        <ele>120.1</ele>
        <time>2015-01-11T09:46:36.000Z</time>
      </trkpt>
      <trkpt lat="50.62079" lon="4.17844">
        <ele>119.9</ele>
        <time>2015-01-11T09:46:37.000Z</time>
      </trkpt>
      <trkpt lat="50.62081" lon="4.17842">
        <ele>119.8</ele>
        <time>2015-01-11T09:46:38.000Z</time>
      </trkpt>
      <trkpt lat="50.62082" lon="4.1784">
        <ele>119.6</ele>
        <time>2015-01-11T09:46:39.000Z</time>
      </trkpt>
      <trkpt lat="50.62083" lon="4.17838">
        <ele>119.5</ele>
        <time>2015-01-11T09:46:40.000Z</time>
      </trkpt>
      <trkpt lat="50.62085" lon="4.17835">
        <ele>119.3</ele>
        <time>2015-01-11T09:46:41.000Z</time>
      </trkpt>
      <trkpt lat="50.62086" lon="4.17833">
        <ele>119.1</ele>
        <time>2015-01-11T09:46:42.000Z</time>
      </trkpt>
      <trkpt lat="50.62087" lon="4.1783">
        <ele>118.9</ele>
        <time>2015-01-11T09:46:43.000Z</time>
      </trkpt>
      <trkpt lat="50.62089" lon="4.17828">
        <ele>118.8</ele>
        <time>2015-01-11T09:46:44.000Z</time>
      </trkpt>
      <trkpt lat="50.6209" lon="4.17826">
        <ele>118.7</ele>
        <time>2015-01-11T09:46:45.000Z</time>
      </trkpt>
      <trkpt lat="50.62091" lon="4.17824">
        <ele>118.6</ele>
        <time>2015-01-11T09:46:46.000Z</time>
      </trkpt>
      <trkpt lat="50.62093" lon="4.17822">
        <ele>118.5</ele>
        <time>2015-01-11T09:46:47.000Z</time>
      </trkpt>
      <trkpt lat="50.62094" lon="4.1782">
        <ele>118.4</ele>
        <time>2015-01-11T09:46:48.000Z</time>
      </trkpt>
      <trkpt lat="50.62096" lon="4.17819">
        <ele>118.4</ele>
        <time>2015-01-11T09:46:49.000Z</time>
      </trkpt>
      <trkpt lat="50.62097" lon="4.17817">
        <ele>118.3</ele>
        <time>2015-01-11T09:46:50.000Z</time>
      </trkpt>
      <trkpt lat="50.62098" lon="4.17815">
        <ele>118.2</ele>
        <time>2015-01-11T09:46:51.000Z</time>
      </trkpt>
      <trkpt lat="50.621" lon="4.17814">
        <ele>118.2</ele>
        <time>2015-01-11T09:46:52.000Z</time>
      </trkpt>
      <trkpt lat="50.62101" lon="4.17812">
        <ele>118.1</ele>
        <time>2015-01-11T09:46:53.000Z</time>
      </trkpt>
      <trkpt lat="50.62102" lon="4.1781">
        <ele>118</ele>
        <time>2015-01-11T09:46:54.000Z</time>
      </trkpt>
      <trkpt lat="50.62104" lon="4.17809">
        <ele>118</ele>
        <time>2015-01-11T09:46:55.000Z</time>
      </trkpt>
      <trkpt lat="50.62105" lon="4.17807">
        <ele>117.9</ele>
        <time>2015-01-11T09:46:56.000Z</time>
      </trkpt>
      <trkpt lat="50.62107" lon="4.17806">
        <ele>117.9</ele>
        <time>2015-01-11T09:46:57.000Z</time>
      </trkpt>
      <trkpt lat="50.62109" lon="4.17804">
        <ele>117.9</ele>
        <time>2015-01-11T09:46:58.000Z</time>
      </trkpt>
      <trkpt lat="50.6211" lon="4.17803">
        <ele>117.9</ele>
        <time>2015-01-11T09:46:59.000Z</time>
      </trkpt>
      <trkpt lat="50.62112" lon="4.17801">
        <ele>117.9</ele>
        <time>2015-01-11T09:47:00.000Z</time>
      </trkpt>
      <trkpt lat="50.62114" lon="4.178">
        <ele>117.9</ele>
        <time>2015-01-11T09:47:01.000Z</time>
      </trkpt>
      <trkpt lat="50.62116" lon="4.17798">
        <ele>117.9</ele>
        <time>2015-01-11T09:47:02.000Z</time>
      </trkpt>
      <trkpt lat="50.62118" lon="4.17797">
        <ele>118</ele>
        <time>2015-01-11T09:47:03.000Z</time>
      </trkpt>
      <trkpt lat="50.62119" lon="4.17795">
        <ele>118</ele>
        <time>2015-01-11T09:47:04.000Z</time>
      </trkpt>
      <trkpt lat="50.62122" lon="4.17793">
        <ele>118.1</ele>
        <time>2015-01-11T09:47:05.000Z</time>
      </trkpt>
      <trkpt lat="50.62124" lon="4.17791">
        <ele>118.2</ele>
        <time>2015-01-11T09:47:06.000Z</time>
      </trkpt>
      <trkpt lat="50.62126" lon="4.17789">
        <ele>118.3</ele>
        <time>2015-01-11T09:47:07.000Z</time>
      </trkpt>
      <trkpt lat="50.62129" lon="4.17787">
        <ele>118.4</ele>
        <time>2015-01-11T09:47:08.000Z</time>
      </trkpt>
      <trkpt lat="50.6213" lon="4.17786">
        <ele>118.5</ele>
        <time>2015-01-11T09:47:09.000Z</time>
      </trkpt>
      <trkpt lat="50.62132" lon="4.17784">
        <ele>118.6</ele>
        <time>2015-01-11T09:47:10.000Z</time>
      </trkpt>
      <trkpt lat="50.62134" lon="4.17782">
        <ele>118.7</ele>
        <time>2015-01-11T09:47:11.000Z</time>
      </trkpt>
      <trkpt lat="50.62135" lon="4.1778">
        <ele>118.8</ele>
        <time>2015-01-11T09:47:12.000Z</time>
      </trkpt>
      <trkpt lat="50.62137" lon="4.17779">
        <ele>118.9</ele>
        <time>2015-01-11T09:47:13.000Z</time>
      </trkpt>
      <trkpt lat="50.6214" lon="4.17777">
        <ele>118.9</ele>
        <time>2015-01-11T09:47:14.000Z</time>
      </trkpt>
      <trkpt lat="50.62142" lon="4.17776">
        <ele>118.8</ele>
        <time>2015-01-11T09:47:15.000Z</time>
      </trkpt>
      <trkpt lat="50.62144" lon="4.17775">
        <ele>118.6</ele>
        <time>2015-01-11T09:47:16.000Z</time>
      </trkpt>
      <trkpt lat="50.62147" lon="4.17774">
        <ele>118.5</ele>
        <time>2015-01-11T09:47:17.000Z</time>
      </trkpt>
      <trkpt lat="50.62149" lon="4.17773">
        <ele>118.3</ele>
        <time>2015-01-11T09:47:18.000Z</time>
      </trkpt>
      <trkpt lat="50.62151" lon="4.17771">
        <ele>118.2</ele>
        <time>2015-01-11T09:47:19.000Z</time>
      </trkpt>
      <trkpt lat="50.62153" lon="4.1777">
        <ele>118.1</ele>
        <time>2015-01-11T09:47:20.000Z</time>
      </trkpt>
      <trkpt lat="50.62155" lon="4.17769">
        <ele>118</ele>
        <time>2015-01-11T09:47:21.000Z</time>
      </trkpt>
      <trkpt lat="50.62157" lon="4.17768">
        <ele>117.8</ele>
        <time>2015-01-11T09:47:22.000Z</time>
      </trkpt>
      <trkpt lat="50.62159" lon="4.17767">
        <ele>117.7</ele>
        <time>2015-01-11T09:47:23.000Z</time>
      </trkpt>
      <trkpt lat="50.62161" lon="4.17765">
        <ele>117.6</ele>
        <time>2015-01-11T09:47:24.000Z</time>
      </trkpt>
      <trkpt lat="50.62163" lon="4.17764">
        <ele>117.5</ele>
        <time>2015-01-11T09:47:25.000Z</time>
      </trkpt>
      <trkpt lat="50.62165" lon="4.17763">
        <ele>117.3</ele>
        <time>2015-01-11T09:47:26.000Z</time>
      </trkpt>
      <trkpt lat="50.62166" lon="4.17762">
        <ele>117.2</ele>
        <time>2015-01-11T09:47:27.000Z</time>
      </trkpt>
      <trkpt lat="50.62168" lon="4.17761">
        <ele>117.3</ele>
        <time>2015-01-11T09:47:28.000Z</time>
      </trkpt>
      <trkpt lat="50.6217" lon="4.1776">
        <ele>117.3</ele>
        <time>2015-01-11T09:47:29.000Z</time>
      </trkpt>
      <trkpt lat="50.62171" lon="4.17759">
        <ele>117.4</ele>
        <time>2015-01-11T09:47:30.000Z</time>
      </trkpt>
      <trkpt lat="50.62173" lon="4.17759">
        <ele>117.5</ele>
        <time>2015-01-11T09:47:31.000Z</time>
      </trkpt>
      <trkpt lat="50.62175" lon="4.17758">
        <ele>117.6</ele>
        <time>2015-01-11T09:47:32.000Z</time>
      </trkpt>
      <trkpt lat="50.62176" lon="4.17757">
        <ele>117.6</ele>
        <time>2015-01-11T09:47:33.000Z</time>
      </trkpt>
      <trkpt lat="50.62178" lon="4.17757">
        <ele>117.7</ele>
        <time>2015-01-11T09:47:34.000Z</time>
      </trkpt>
      <trkpt lat="50.6218" lon="4.17756">
        <ele>117.9</ele>
        <time>2015-01-11T09:47:35.000Z</time>
      </trkpt>
      <trkpt lat="50.62182" lon="4.17756">
        <ele>118</ele>
        <time>2015-01-11T09:47:36.000Z</time>
      </trkpt>
      <trkpt lat="50.62184" lon="4.17755">
        <ele>118.2</ele>
        <time>2015-01-11T09:47:37.000Z</time>
      </trkpt>
      <trkpt lat="50.62186" lon="4.17753">
        <ele>118.3</ele>
        <time>2015-01-11T09:47:38.000Z</time>
      </trkpt>
      <trkpt lat="50.62187" lon="4.17752">
        <ele>118.4</ele>
        <time>2015-01-11T09:47:39.000Z</time>
      </trkpt>
      <trkpt lat="50.62189" lon="4.17751">
        <ele>118.5</ele>
        <time>2015-01-11T09:47:40.000Z</time>
      </trkpt>
      <trkpt lat="50.62191" lon="4.1775">
        <ele>118.6</ele>
        <time>2015-01-11T09:47:41.000Z</time>
      </trkpt>
      <trkpt lat="50.62192" lon="4.1775">
        <ele>118.7</ele>
        <time>2015-01-11T09:47:42.000Z</time>
      </trkpt>
      <trkpt lat="50.62193" lon="4.17749">
        <ele>118.8</ele>
        <time>2015-01-11T09:47:43.000Z</time>
      </trkpt>
      <trkpt lat="50.62195" lon="4.17749">
        <ele>118.9</ele>
        <time>2015-01-11T09:47:44.000Z</time>
      </trkpt>
      <trkpt lat="50.62197" lon="4.17749">
        <ele>119</ele>
        <time>2015-01-11T09:47:45.000Z</time>
      </trkpt>
      <trkpt lat="50.62199" lon="4.17748">
        <ele>119</ele>
        <time>2015-01-11T09:47:46.000Z</time>
      </trkpt>
      <trkpt lat="50.622" lon="4.17748">
        <ele>119</ele>
        <time>2015-01-11T09:47:47.000Z</time>
      </trkpt>
      <trkpt lat="50.62202" lon="4.17748">
        <ele>119.1</ele>
        <time>2015-01-11T09:47:48.000Z</time>
      </trkpt>
      <trkpt lat="50.62204" lon="4.17747">
        <ele>119.1</ele>
        <time>2015-01-11T09:47:49.000Z</time>
      </trkpt>
      <trkpt lat="50.62206" lon="4.17747">
        <ele>119.1</ele>
        <time>2015-01-11T09:47:50.000Z</time>
      </trkpt>
      <trkpt lat="50.62207" lon="4.17747">
        <ele>119.2</ele>
        <time>2015-01-11T09:47:51.000Z</time>
      </trkpt>
      <trkpt lat="50.62209" lon="4.17746">
        <ele>119.2</ele>
        <time>2015-01-11T09:47:52.000Z</time>
      </trkpt>
      <trkpt lat="50.62211" lon="4.17746">
        <ele>119.2</ele>
        <time>2015-01-11T09:47:53.000Z</time>
      </trkpt>
      <trkpt lat="50.62213" lon="4.17746">
        <ele>119.3</ele>
        <time>2015-01-11T09:47:54.000Z</time>
      </trkpt>
      <trkpt lat="50.62214" lon="4.17745">
        <ele>119.3</ele>
        <time>2015-01-11T09:47:55.000Z</time>
      </trkpt>
      <trkpt lat="50.62216" lon="4.17745">
        <ele>119.4</ele>
        <time>2015-01-11T09:47:56.000Z</time>
      </trkpt>
      <trkpt lat="50.62218" lon="4.17745">
        <ele>119.5</ele>
        <time>2015-01-11T09:47:57.000Z</time>
      </trkpt>
      <trkpt lat="50.62219" lon="4.17745">
        <ele>119.5</ele>
        <time>2015-01-11T09:47:58.000Z</time>
      </trkpt>
      <trkpt lat="50.62221" lon="4.17745">
        <ele>119.6</ele>
        <time>2015-01-11T09:47:59.000Z</time>
      </trkpt>
      <trkpt lat="50.62223" lon="4.17744">
        <ele>119.6</ele>
        <time>2015-01-11T09:48:00.000Z</time>
      </trkpt>
      <trkpt lat="50.62225" lon="4.17744">
        <ele>119.6</ele>
        <time>2015-01-11T09:48:01.000Z</time>
      </trkpt>
      <trkpt lat="50.62227" lon="4.17744">
        <ele>119.5</ele>
        <time>2015-01-11T09:48:02.000Z</time>
      </trkpt>
      <trkpt lat="50.62229" lon="4.17744">
        <ele>119.5</ele>
        <time>2015-01-11T09:48:03.000Z</time>
      </trkpt>
      <trkpt lat="50.6223" lon="4.17744">
        <ele>119.5</ele>
        <time>2015-01-11T09:48:04.000Z</time>
      </trkpt>
      <trkpt lat="50.62232" lon="4.17743">
        <ele>119.5</ele>
        <time>2015-01-11T09:48:05.000Z</time>
      </trkpt>
      <trkpt lat="50.62234" lon="4.17743">
        <ele>119.5</ele>
        <time>2015-01-11T09:48:06.000Z</time>
      </trkpt>
      <trkpt lat="50.62236" lon="4.17743">
        <ele>119.5</ele>
        <time>2015-01-11T09:48:07.000Z</time>
      </trkpt>
      <trkpt lat="50.62237" lon="4.17743">
        <ele>119.5</ele>
        <time>2015-01-11T09:48:08.000Z</time>
      </trkpt>
      <trkpt lat="50.62239" lon="4.17743">
        <ele>119.5</ele>
        <time>2015-01-11T09:48:09.000Z</time>
      </trkpt>
      <trkpt lat="50.62241" lon="4.17743">
        <ele>119.5</ele>
        <time>2015-01-11T09:48:10.000Z</time>
      </trkpt>
      <trkpt lat="50.62243" lon="4.17742">
        <ele>119.4</ele>
        <time>2015-01-11T09:48:11.000Z</time>
      </trkpt>
      <trkpt lat="50.62244" lon="4.17742">
        <ele>119.4</ele>
        <time>2015-01-11T09:48:12.000Z</time>
      </trkpt>
      <trkpt lat="50.62246" lon="4.17741">
        <ele>119.4</ele>
        <time>2015-01-11T09:48:13.000Z</time>
      </trkpt>
      <trkpt lat="50.62248" lon="4.17741">
        <ele>119.3</ele>
        <time>2015-01-11T09:48:14.000Z</time>
      </trkpt>
      <trkpt lat="50.6225" lon="4.17741">
        <ele>119.3</ele>
        <time>2015-01-11T09:48:15.000Z</time>
      </trkpt>
      <trkpt lat="50.62252" lon="4.17741">
        <ele>119.3</ele>
        <time>2015-01-11T09:48:16.000Z</time>
      </trkpt>
      <trkpt lat="50.62254" lon="4.17741">
        <ele>119.3</ele>
        <time>2015-01-11T09:48:17.000Z</time>
      </trkpt>
      <trkpt lat="50.62256" lon="4.17741">
        <ele>119.2</ele>
        <time>2015-01-11T09:48:18.000Z</time>
      </trkpt>
      <trkpt lat="50.62258" lon="4.17741">
        <ele>119.2</ele>
        <time>2015-01-11T09:48:19.000Z</time>
      </trkpt>
      <trkpt lat="50.62259" lon="4.17741">
        <ele>119.1</ele>
        <time>2015-01-11T09:48:20.000Z</time>
      </trkpt>
      <trkpt lat="50.62261" lon="4.17741">
        <ele>119.1</ele>
        <time>2015-01-11T09:48:21.000Z</time>
      </trkpt>
      <trkpt lat="50.62263" lon="4.17741">
        <ele>119.1</ele>
        <time>2015-01-11T09:48:22.000Z</time>
      </trkpt>
      <trkpt lat="50.62265" lon="4.17742">
        <ele>119</ele>
        <time>2015-01-11T09:48:23.000Z</time>
      </trkpt>
      <trkpt lat="50.62266" lon="4.17742">
        <ele>119</ele>
        <time>2015-01-11T09:48:24.000Z</time>
      </trkpt>
      <trkpt lat="50.62268" lon="4.17742">
        <ele>119</ele>
        <time>2015-01-11T09:48:25.000Z</time>
      </trkpt>
      <trkpt lat="50.6227" lon="4.17742">
        <ele>118.9</ele>
        <time>2015-01-11T09:48:26.000Z</time>
      </trkpt>
      <trkpt lat="50.62271" lon="4.17742">
        <ele>118.9</ele>
        <time>2015-01-11T09:48:27.000Z</time>
      </trkpt>
      <trkpt lat="50.62273" lon="4.17742">
        <ele>118.8</ele>
        <time>2015-01-11T09:48:28.000Z</time>
      </trkpt>
      <trkpt lat="50.62274" lon="4.17742">
        <ele>118.8</ele>
        <time>2015-01-11T09:48:29.000Z</time>
      </trkpt>
      <trkpt lat="50.62276" lon="4.17742">
        <ele>118.8</ele>
        <time>2015-01-11T09:48:30.000Z</time>
      </trkpt>
      <trkpt lat="50.62277" lon="4.17742">
        <ele>118.7</ele>
        <time>2015-01-11T09:48:31.000Z</time>
      </trkpt>
      <trkpt lat="50.62279" lon="4.17743">
        <ele>118.7</ele>
        <time>2015-01-11T09:48:32.000Z</time>
      </trkpt>
      <trkpt lat="50.62281" lon="4.17743">
        <ele>118.8</ele>
        <time>2015-01-11T09:48:33.000Z</time>
      </trkpt>
      <trkpt lat="50.62282" lon="4.17744">
        <ele>118.8</ele>
        <time>2015-01-11T09:48:34.000Z</time>
      </trkpt>
      <trkpt lat="50.62284" lon="4.17745">
        <ele>118.9</ele>
        <time>2015-01-11T09:48:35.000Z</time>
      </trkpt>
      <trkpt lat="50.62286" lon="4.17746">
        <ele>118.9</ele>
        <time>2015-01-11T09:48:36.000Z</time>
      </trkpt>
      <trkpt lat="50.62287" lon="4.17747">
        <ele>118.9</ele>
        <time>2015-01-11T09:48:37.000Z</time>
      </trkpt>
      <trkpt lat="50.62289" lon="4.17748">
        <ele>119</ele>
        <time>2015-01-11T09:48:38.000Z</time>
      </trkpt>
      <trkpt lat="50.6229" lon="4.17749">
        <ele>119</ele>
        <time>2015-01-11T09:48:39.000Z</time>
      </trkpt>
      <trkpt lat="50.62292" lon="4.1775">
        <ele>119</ele>
        <time>2015-01-11T09:48:40.000Z</time>
      </trkpt>
      <trkpt lat="50.62294" lon="4.17751">
        <ele>119</ele>
        <time>2015-01-11T09:48:41.000Z</time>
      </trkpt>
      <trkpt lat="50.62295" lon="4.17751">
        <ele>119</ele>
        <time>2015-01-11T09:48:42.000Z</time>
      </trkpt>
      <trkpt lat="50.62297" lon="4.17752">
        <ele>119</ele>
        <time>2015-01-11T09:48:43.000Z</time>
      </trkpt>
      <trkpt lat="50.62298" lon="4.17753">
        <ele>119</ele>
        <time>2015-01-11T09:48:44.000Z</time>
      </trkpt>
      <trkpt lat="50.623" lon="4.17754">
        <ele>119</ele>
        <time>2015-01-11T09:48:45.000Z</time>
      </trkpt>
      <trkpt lat="50.62302" lon="4.17755">
        <ele>119</ele>
        <time>2015-01-11T09:48:46.000Z</time>
      </trkpt>
      <trkpt lat="50.62304" lon="4.17756">
        <ele>119</ele>
        <time>2015-01-11T09:48:47.000Z</time>
      </trkpt>
      <trkpt lat="50.62306" lon="4.17758">
        <ele>119</ele>
        <time>2015-01-11T09:48:48.000Z</time>
      </trkpt>
      <trkpt lat="50.62309" lon="4.17759">
        <ele>118.8</ele>
        <time>2015-01-11T09:48:49.000Z</time>
      </trkpt>
      <trkpt lat="50.62311" lon="4.17761">
        <ele>118.7</ele>
        <time>2015-01-11T09:48:50.000Z</time>
      </trkpt>
      <trkpt lat="50.62314" lon="4.17762">
        <ele>118.6</ele>
        <time>2015-01-11T09:48:51.000Z</time>
      </trkpt>
      <trkpt lat="50.62316" lon="4.17764">
        <ele>118.5</ele>
        <time>2015-01-11T09:48:52.000Z</time>
      </trkpt>
      <trkpt lat="50.62319" lon="4.17766">
        <ele>118.3</ele>
        <time>2015-01-11T09:48:53.000Z</time>
      </trkpt>
      <trkpt lat="50.62321" lon="4.17767">
        <ele>118.1</ele>
        <time>2015-01-11T09:48:54.000Z</time>
      </trkpt>
      <trkpt lat="50.62323" lon="4.17768">
        <ele>117.9</ele>
        <time>2015-01-11T09:48:55.000Z</time>
      </trkpt>
      <trkpt lat="50.62325" lon="4.1777">
        <ele>117.8</ele>
        <time>2015-01-11T09:48:56.000Z</time>
      </trkpt>
      <trkpt lat="50.62327" lon="4.17771">
        <ele>117.6</ele>
        <time>2015-01-11T09:48:57.000Z</time>
      </trkpt>
      <trkpt lat="50.62329" lon="4.17773">
        <ele>117.5</ele>
        <time>2015-01-11T09:48:58.000Z</time>
      </trkpt>
      <trkpt lat="50.62331" lon="4.17774">
        <ele>117.3</ele>
        <time>2015-01-11T09:48:59.000Z</time>
      </trkpt>
      <trkpt lat="50.62332" lon="4.17776">
        <ele>117.1</ele>
        <time>2015-01-11T09:49:00.000Z</time>
      </trkpt>
      <trkpt lat="50.62334" lon="4.17777">
        <ele>117</ele>
        <time>2015-01-11T09:49:01.000Z</time>
      </trkpt>
      <trkpt lat="50.62336" lon="4.17778">
        <ele>116.9</ele>
        <time>2015-01-11T09:49:02.000Z</time>
      </trkpt>
      <trkpt lat="50.62337" lon="4.17778">
        <ele>116.9</ele>
        <time>2015-01-11T09:49:03.000Z</time>
      </trkpt>
      <trkpt lat="50.62339" lon="4.17779">
        <ele>116.8</ele>
        <time>2015-01-11T09:49:04.000Z</time>
      </trkpt>
      <trkpt lat="50.62341" lon="4.17779">
        <ele>116.8</ele>
        <time>2015-01-11T09:49:05.000Z</time>
      </trkpt>
      <trkpt lat="50.62343" lon="4.1778">
        <ele>116.7</ele>
        <time>2015-01-11T09:49:06.000Z</time>
      </trkpt>
      <trkpt lat="50.62345" lon="4.1778">
        <ele>116.7</ele>
        <time>2015-01-11T09:49:07.000Z</time>
      </trkpt>
      <trkpt lat="50.62347" lon="4.17781">
        <ele>116.6</ele>
        <time>2015-01-11T09:49:08.000Z</time>
      </trkpt>
      <trkpt lat="50.62348" lon="4.17781">
        <ele>116.6</ele>
        <time>2015-01-11T09:49:09.000Z</time>
      </trkpt>
      <trkpt lat="50.6235" lon="4.17782">
        <ele>116.5</ele>
        <time>2015-01-11T09:49:10.000Z</time>
      </trkpt>
      <trkpt lat="50.62352" lon="4.17784">
        <ele>116.5</ele>
        <time>2015-01-11T09:49:11.000Z</time>
      </trkpt>
      <trkpt lat="50.62353" lon="4.17785">
        <ele>116.5</ele>
        <time>2015-01-11T09:49:12.000Z</time>
      </trkpt>
      <trkpt lat="50.62355" lon="4.17786">
        <ele>116.5</ele>
        <time>2015-01-11T09:49:13.000Z</time>
      </trkpt>
      <trkpt lat="50.62356" lon="4.17787">
        <ele>116.5</ele>
        <time>2015-01-11T09:49:14.000Z</time>
      </trkpt>
      <trkpt lat="50.62358" lon="4.17788">
        <ele>116.5</ele>
        <time>2015-01-11T09:49:15.000Z</time>
      </trkpt>
      <trkpt lat="50.6236" lon="4.1779">
        <ele>116.5</ele>
        <time>2015-01-11T09:49:16.000Z</time>
      </trkpt>
      <trkpt lat="50.62361" lon="4.17791">
        <ele>116.5</ele>
        <time>2015-01-11T09:49:17.000Z</time>
      </trkpt>
      <trkpt lat="50.62362" lon="4.17792">
        <ele>116.4</ele>
        <time>2015-01-11T09:49:18.000Z</time>
      </trkpt>
      <trkpt lat="50.62364" lon="4.17793">
        <ele>116.4</ele>
        <time>2015-01-11T09:49:19.000Z</time>
      </trkpt>
      <trkpt lat="50.62365" lon="4.17794">
        <ele>116.3</ele>
        <time>2015-01-11T09:49:20.000Z</time>
      </trkpt>
      <trkpt lat="50.62367" lon="4.17795">
        <ele>116.3</ele>
        <time>2015-01-11T09:49:21.000Z</time>
      </trkpt>
      <trkpt lat="50.62369" lon="4.17796">
        <ele>116.2</ele>
        <time>2015-01-11T09:49:22.000Z</time>
      </trkpt>
      <trkpt lat="50.62371" lon="4.17796">
        <ele>116.1</ele>
        <time>2015-01-11T09:49:23.000Z</time>
      </trkpt>
      <trkpt lat="50.62372" lon="4.17797">
        <ele>116</ele>
        <time>2015-01-11T09:49:24.000Z</time>
      </trkpt>
      <trkpt lat="50.62374" lon="4.17798">
        <ele>115.9</ele>
        <time>2015-01-11T09:49:25.000Z</time>
      </trkpt>
      <trkpt lat="50.62376" lon="4.17799">
        <ele>115.8</ele>
        <time>2015-01-11T09:49:26.000Z</time>
      </trkpt>
      <trkpt lat="50.62378" lon="4.178">
        <ele>115.7</ele>
        <time>2015-01-11T09:49:27.000Z</time>
      </trkpt>
      <trkpt lat="50.6238" lon="4.17801">
        <ele>115.6</ele>
        <time>2015-01-11T09:49:28.000Z</time>
      </trkpt>
      <trkpt lat="50.62382" lon="4.17802">
        <ele>115.5</ele>
        <time>2015-01-11T09:49:29.000Z</time>
      </trkpt>
      <trkpt lat="50.62384" lon="4.17804">
        <ele>115.4</ele>
        <time>2015-01-11T09:49:30.000Z</time>
      </trkpt>
      <trkpt lat="50.62386" lon="4.17805">
        <ele>115.2</ele>
        <time>2015-01-11T09:49:31.000Z</time>
      </trkpt>
      <trkpt lat="50.62388" lon="4.17807">
        <ele>115.1</ele>
        <time>2015-01-11T09:49:32.000Z</time>
      </trkpt>
      <trkpt lat="50.62389" lon="4.17808">
        <ele>115</ele>
        <time>2015-01-11T09:49:33.000Z</time>
      </trkpt>
      <trkpt lat="50.62391" lon="4.17809">
        <ele>114.9</ele>
        <time>2015-01-11T09:49:34.000Z</time>
      </trkpt>
      <trkpt lat="50.62393" lon="4.1781">
        <ele>114.9</ele>
        <time>2015-01-11T09:49:35.000Z</time>
      </trkpt>
      <trkpt lat="50.62395" lon="4.17811">
        <ele>114.8</ele>
        <time>2015-01-11T09:49:36.000Z</time>
      </trkpt>
      <trkpt lat="50.62397" lon="4.17812">
        <ele>114.7</ele>
        <time>2015-01-11T09:49:37.000Z</time>
      </trkpt>
      <trkpt lat="50.624" lon="4.17814">
        <ele>114.6</ele>
        <time>2015-01-11T09:49:38.000Z</time>
      </trkpt>
      <trkpt lat="50.62402" lon="4.17815">
        <ele>114.5</ele>
        <time>2015-01-11T09:49:39.000Z</time>
      </trkpt>
      <trkpt lat="50.62404" lon="4.17816">
        <ele>114.5</ele>
        <time>2015-01-11T09:49:40.000Z</time>
      </trkpt>
      <trkpt lat="50.62405" lon="4.17818">
        <ele>114.4</ele>
        <time>2015-01-11T09:49:41.000Z</time>
      </trkpt>
      <trkpt lat="50.62408" lon="4.17819">
        <ele>114.3</ele>
        <time>2015-01-11T09:49:42.000Z</time>
      </trkpt>
      <trkpt lat="50.6241" lon="4.17821">
        <ele>114.3</ele>
        <time>2015-01-11T09:49:43.000Z</time>
      </trkpt>
      <trkpt lat="50.62411" lon="4.17823">
        <ele>114.2</ele>
        <time>2015-01-11T09:49:44.000Z</time>
      </trkpt>
      <trkpt lat="50.62413" lon="4.17824">
        <ele>114.1</ele>
        <time>2015-01-11T09:49:45.000Z</time>
      </trkpt>
      <trkpt lat="50.62415" lon="4.17826">
        <ele>114.1</ele>
        <time>2015-01-11T09:49:46.000Z</time>
      </trkpt>
      <trkpt lat="50.62416" lon="4.17828">
        <ele>114</ele>
        <time>2015-01-11T09:49:47.000Z</time>
      </trkpt>
      <trkpt lat="50.62418" lon="4.1783">
        <ele>114</ele>
        <time>2015-01-11T09:49:48.000Z</time>
      </trkpt>
      <trkpt lat="50.62419" lon="4.17831">
        <ele>113.9</ele>
        <time>2015-01-11T09:49:49.000Z</time>
      </trkpt>
      <trkpt lat="50.62421" lon="4.17833">
        <ele>113.9</ele>
        <time>2015-01-11T09:49:50.000Z</time>
      </trkpt>
      <trkpt lat="50.62422" lon="4.17834">
        <ele>113.8</ele>
        <time>2015-01-11T09:49:51.000Z</time>
      </trkpt>
      <trkpt lat="50.62424" lon="4.17835">
        <ele>113.7</ele>
        <time>2015-01-11T09:49:52.000Z</time>
      </trkpt>
      <trkpt lat="50.62426" lon="4.17836">
        <ele>113.7</ele>
        <time>2015-01-11T09:49:53.000Z</time>
      </trkpt>
      <trkpt lat="50.62428" lon="4.17837">
        <ele>113.6</ele>
        <time>2015-01-11T09:49:54.000Z</time>
      </trkpt>
      <trkpt lat="50.6243" lon="4.17839">
        <ele>113.5</ele>
        <time>2015-01-11T09:49:55.000Z</time>
      </trkpt>
      <trkpt lat="50.62431" lon="4.1784">
        <ele>113.5</ele>
        <time>2015-01-11T09:49:56.000Z</time>
      </trkpt>
      <trkpt lat="50.62433" lon="4.17841">
        <ele>113.4</ele>
        <time>2015-01-11T09:49:57.000Z</time>
      </trkpt>
      <trkpt lat="50.62435" lon="4.17842">
        <ele>113.3</ele>
        <time>2015-01-11T09:49:58.000Z</time>
      </trkpt>
      <trkpt lat="50.62437" lon="4.17844">
        <ele>113.3</ele>
        <time>2015-01-11T09:49:59.000Z</time>
      </trkpt>
      <trkpt lat="50.62439" lon="4.17845">
        <ele>113.2</ele>
        <time>2015-01-11T09:50:00.000Z</time>
      </trkpt>
      <trkpt lat="50.62441" lon="4.17847">
        <ele>113.1</ele>
        <time>2015-01-11T09:50:01.000Z</time>
      </trkpt>
      <trkpt lat="50.62443" lon="4.17848">
        <ele>113</ele>
        <time>2015-01-11T09:50:02.000Z</time>
      </trkpt>
      <trkpt lat="50.62445" lon="4.17849">
        <ele>112.9</ele>
        <time>2015-01-11T09:50:03.000Z</time>
      </trkpt>
      <trkpt lat="50.62447" lon="4.17851">
        <ele>112.8</ele>
        <time>2015-01-11T09:50:04.000Z</time>
      </trkpt>
      <trkpt lat="50.62449" lon="4.17852">
        <ele>112.7</ele>
        <time>2015-01-11T09:50:05.000Z</time>
      </trkpt>
      <trkpt lat="50.62451" lon="4.17853">
        <ele>112.5</ele>
        <time>2015-01-11T09:50:06.000Z</time>
      </trkpt>
      <trkpt lat="50.62453" lon="4.17855">
        <ele>112.4</ele>
        <time>2015-01-11T09:50:07.000Z</time>
      </trkpt>
      <trkpt lat="50.62455" lon="4.17856">
        <ele>112.2</ele>
        <time>2015-01-11T09:50:08.000Z</time>
      </trkpt>
      <trkpt lat="50.62457" lon="4.17857">
        <ele>112.1</ele>
        <time>2015-01-11T09:50:09.000Z</time>
      </trkpt>
      <trkpt lat="50.62459" lon="4.17859">
        <ele>112</ele>
        <time>2015-01-11T09:50:10.000Z</time>
      </trkpt>
      <trkpt lat="50.62461" lon="4.17861">
        <ele>111.8</ele>
        <time>2015-01-11T09:50:11.000Z</time>
      </trkpt>
      <trkpt lat="50.62463" lon="4.17863">
        <ele>111.7</ele>
        <time>2015-01-11T09:50:12.000Z</time>
      </trkpt>
      <trkpt lat="50.62464" lon="4.17865">
        <ele>111.6</ele>
        <time>2015-01-11T09:50:13.000Z</time>
      </trkpt>
      <trkpt lat="50.62466" lon="4.17867">
        <ele>111.4</ele>
        <time>2015-01-11T09:50:14.000Z</time>
      </trkpt>
      <trkpt lat="50.62468" lon="4.17868">
        <ele>111.3</ele>
        <time>2015-01-11T09:50:15.000Z</time>
      </trkpt>
      <trkpt lat="50.62469" lon="4.1787">
        <ele>111.2</ele>
        <time>2015-01-11T09:50:16.000Z</time>
      </trkpt>
      <trkpt lat="50.62471" lon="4.17872">
        <ele>111.1</ele>
        <time>2015-01-11T09:50:17.000Z</time>
      </trkpt>
      <trkpt lat="50.62472" lon="4.17873">
        <ele>111</ele>
        <time>2015-01-11T09:50:18.000Z</time>
      </trkpt>
      <trkpt lat="50.62473" lon="4.17875">
        <ele>110.9</ele>
        <time>2015-01-11T09:50:19.000Z</time>
      </trkpt>
      <trkpt lat="50.62474" lon="4.17877">
        <ele>110.8</ele>
        <time>2015-01-11T09:50:20.000Z</time>
      </trkpt>
      <trkpt lat="50.62476" lon="4.17879">
        <ele>110.7</ele>
        <time>2015-01-11T09:50:21.000Z</time>
      </trkpt>
      <trkpt lat="50.62477" lon="4.1788">
        <ele>110.7</ele>
        <time>2015-01-11T09:50:22.000Z</time>
      </trkpt>
      <trkpt lat="50.62478" lon="4.17882">
        <ele>110.6</ele>
        <time>2015-01-11T09:50:23.000Z</time>
      </trkpt>
      <trkpt lat="50.62479" lon="4.17884">
        <ele>110.5</ele>
        <time>2015-01-11T09:50:24.000Z</time>
      </trkpt>
      <trkpt lat="50.6248" lon="4.17886">
        <ele>110.4</ele>
        <time>2015-01-11T09:50:25.000Z</time>
      </trkpt>
      <trkpt lat="50.62481" lon="4.17887">
        <ele>110.3</ele>
        <time>2015-01-11T09:50:26.000Z</time>
      </trkpt>
      <trkpt lat="50.62482" lon="4.17888">
        <ele>110.3</ele>
        <time>2015-01-11T09:50:27.000Z</time>
      </trkpt>
      <trkpt lat="50.62483" lon="4.17889">
        <ele>110.2</ele>
        <time>2015-01-11T09:50:28.000Z</time>
      </trkpt>
      <trkpt lat="50.62484" lon="4.17891">
        <ele>110.1</ele>
        <time>2015-01-11T09:50:29.000Z</time>
      </trkpt>
      <trkpt lat="50.62486" lon="4.17892">
        <ele>110</ele>
        <time>2015-01-11T09:50:30.000Z</time>
      </trkpt>
      <trkpt lat="50.62486" lon="4.17892">
        <ele>110</ele>
        <time>2015-01-11T09:50:31.000Z</time>
      </trkpt>
      <trkpt lat="50.62488" lon="4.17894">
        <ele>109.9</ele>
        <time>2015-01-11T09:50:32.000Z</time>
      </trkpt>
      <trkpt lat="50.62489" lon="4.17895">
        <ele>109.8</ele>
        <time>2015-01-11T09:50:33.000Z</time>
      </trkpt>
      <trkpt lat="50.6249" lon="4.17897">
        <ele>109.7</ele>
        <time>2015-01-11T09:50:34.000Z</time>
      </trkpt>
      <trkpt lat="50.62491" lon="4.17899">
        <ele>109.6</ele>
        <time>2015-01-11T09:50:35.000Z</time>
      </trkpt>
      <trkpt lat="50.62493" lon="4.17901">
        <ele>109.5</ele>
        <time>2015-01-11T09:50:36.000Z</time>
      </trkpt>
      <trkpt lat="50.62494" lon="4.17902">
        <ele>109.4</ele>
        <time>2015-01-11T09:50:37.000Z</time>
      </trkpt>
      <trkpt lat="50.62496" lon="4.17904">
        <ele>109.3</ele>
        <time>2015-01-11T09:50:38.000Z</time>
      </trkpt>
      <trkpt lat="50.62497" lon="4.17906">
        <ele>109.2</ele>
        <time>2015-01-11T09:50:39.000Z</time>
      </trkpt>
      <trkpt lat="50.62498" lon="4.17907">
        <ele>109.1</ele>
        <time>2015-01-11T09:50:40.000Z</time>
      </trkpt>
      <trkpt lat="50.625" lon="4.17909">
        <ele>109</ele>
        <time>2015-01-11T09:50:41.000Z</time>
      </trkpt>
      <trkpt lat="50.62501" lon="4.17911">
        <ele>108.9</ele>
        <time>2015-01-11T09:50:42.000Z</time>
      </trkpt>
      <trkpt lat="50.62502" lon="4.17913">
        <ele>108.7</ele>
        <time>2015-01-11T09:50:43.000Z</time>
      </trkpt>
      <trkpt lat="50.62504" lon="4.17915">
        <ele>108.6</ele>
        <time>2015-01-11T09:50:44.000Z</time>
      </trkpt>
      <trkpt lat="50.62506" lon="4.17917">
        <ele>108.4</ele>
        <time>2015-01-11T09:50:45.000Z</time>
      </trkpt>
      <trkpt lat="50.62507" lon="4.1792">
        <ele>108.2</ele>
        <time>2015-01-11T09:50:46.000Z</time>
      </trkpt>
      <trkpt lat="50.62509" lon="4.17922">
        <ele>108.1</ele>
        <time>2015-01-11T09:50:47.000Z</time>
      </trkpt>
      <trkpt lat="50.6251" lon="4.17925">
        <ele>108.1</ele>
        <time>2015-01-11T09:50:48.000Z</time>
      </trkpt>
      <trkpt lat="50.62511" lon="4.17928">
        <ele>108</ele>
        <time>2015-01-11T09:50:49.000Z</time>
      </trkpt>
      <trkpt lat="50.62512" lon="4.1793">
        <ele>108</ele>
        <time>2015-01-11T09:50:50.000Z</time>
      </trkpt>
      <trkpt lat="50.62514" lon="4.17933">
        <ele>108.1</ele>
        <time>2015-01-11T09:50:51.000Z</time>
      </trkpt>
      <trkpt lat="50.62515" lon="4.17935">
        <ele>108.2</ele>
        <time>2015-01-11T09:50:52.000Z</time>
      </trkpt>
      <trkpt lat="50.62516" lon="4.17938">
        <ele>108.3</ele>
        <time>2015-01-11T09:50:53.000Z</time>
      </trkpt>
      <trkpt lat="50.62517" lon="4.17941">
        <ele>108.4</ele>
        <time>2015-01-11T09:50:54.000Z</time>
      </trkpt>
      <trkpt lat="50.62518" lon="4.17943">
        <ele>108.6</ele>
        <time>2015-01-11T09:50:55.000Z</time>
      </trkpt>
      <trkpt lat="50.62519" lon="4.17945">
        <ele>108.7</ele>
        <time>2015-01-11T09:50:56.000Z</time>
      </trkpt>
      <trkpt lat="50.6252" lon="4.17947">
        <ele>108.6</ele>
        <time>2015-01-11T09:50:57.000Z</time>
      </trkpt>
      <trkpt lat="50.62521" lon="4.1795">
        <ele>108.6</ele>
        <time>2015-01-11T09:50:58.000Z</time>
      </trkpt>
      <trkpt lat="50.62522" lon="4.17952">
        <ele>108.6</ele>
        <time>2015-01-11T09:50:59.000Z</time>
      </trkpt>
      <trkpt lat="50.62523" lon="4.17955">
        <ele>108.5</ele>
        <time>2015-01-11T09:51:00.000Z</time>
      </trkpt>
      <trkpt lat="50.62524" lon="4.17957">
        <ele>108.5</ele>
        <time>2015-01-11T09:51:01.000Z</time>
      </trkpt>
      <trkpt lat="50.62525" lon="4.1796">
        <ele>108.4</ele>
        <time>2015-01-11T09:51:02.000Z</time>
      </trkpt>
      <trkpt lat="50.62526" lon="4.17963">
        <ele>108.3</ele>
        <time>2015-01-11T09:51:03.000Z</time>
      </trkpt>
      <trkpt lat="50.62527" lon="4.17966">
        <ele>108.2</ele>
        <time>2015-01-11T09:51:04.000Z</time>
      </trkpt>
      <trkpt lat="50.62528" lon="4.17969">
        <ele>108.1</ele>
        <time>2015-01-11T09:51:05.000Z</time>
      </trkpt>
      <trkpt lat="50.62529" lon="4.17973">
        <ele>108</ele>
        <time>2015-01-11T09:51:06.000Z</time>
      </trkpt>
      <trkpt lat="50.6253" lon="4.17976">
        <ele>108.3</ele>
        <time>2015-01-11T09:51:07.000Z</time>
      </trkpt>
      <trkpt lat="50.62531" lon="4.1798">
        <ele>108.7</ele>
        <time>2015-01-11T09:51:08.000Z</time>
      </trkpt>
      <trkpt lat="50.62532" lon="4.17983">
        <ele>109</ele>
        <time>2015-01-11T09:51:09.000Z</time>
      </trkpt>
      <trkpt lat="50.62533" lon="4.17987">
        <ele>109.3</ele>
        <time>2015-01-11T09:51:10.000Z</time>
      </trkpt>
      <trkpt lat="50.62534" lon="4.1799">
        <ele>109.5</ele>
        <time>2015-01-11T09:51:11.000Z</time>
      </trkpt>
      <trkpt lat="50.62535" lon="4.17993">
        <ele>109.8</ele>
        <time>2015-01-11T09:51:12.000Z</time>
      </trkpt>
      <trkpt lat="50.62536" lon="4.17995">
        <ele>110</ele>
        <time>2015-01-11T09:51:13.000Z</time>
      </trkpt>
      <trkpt lat="50.62538" lon="4.17998">
        <ele>110.1</ele>
        <time>2015-01-11T09:51:14.000Z</time>
      </trkpt>
      <trkpt lat="50.62539" lon="4.18001">
        <ele>110.2</ele>
        <time>2015-01-11T09:51:15.000Z</time>
      </trkpt>
      <trkpt lat="50.6254" lon="4.18004">
        <ele>110.2</ele>
        <time>2015-01-11T09:51:16.000Z</time>
      </trkpt>
      <trkpt lat="50.62541" lon="4.18007">
        <ele>110.1</ele>
        <time>2015-01-11T09:51:17.000Z</time>
      </trkpt>
      <trkpt lat="50.62542" lon="4.18009">
        <ele>110.1</ele>
        <time>2015-01-11T09:51:18.000Z</time>
      </trkpt>
      <trkpt lat="50.62543" lon="4.18012">
        <ele>110.1</ele>
        <time>2015-01-11T09:51:19.000Z</time>
      </trkpt>
      <trkpt lat="50.62545" lon="4.18015">
        <ele>110</ele>
        <time>2015-01-11T09:51:20.000Z</time>
      </trkpt>
      <trkpt lat="50.62547" lon="4.18018">
        <ele>109.8</ele>
        <time>2015-01-11T09:51:21.000Z</time>
      </trkpt>
      <trkpt lat="50.62549" lon="4.18021">
        <ele>109.7</ele>
        <time>2015-01-11T09:51:22.000Z</time>
      </trkpt>
      <trkpt lat="50.6255" lon="4.18024">
        <ele>109.5</ele>
        <time>2015-01-11T09:51:23.000Z</time>
      </trkpt>
      <trkpt lat="50.62551" lon="4.18027">
        <ele>109.4</ele>
        <time>2015-01-11T09:51:24.000Z</time>
      </trkpt>
      <trkpt lat="50.62553" lon="4.1803">
        <ele>109.3</ele>
        <time>2015-01-11T09:51:25.000Z</time>
      </trkpt>
      <trkpt lat="50.62553" lon="4.18033">
        <ele>109.1</ele>
        <time>2015-01-11T09:51:26.000Z</time>
      </trkpt>
      <trkpt lat="50.62554" lon="4.18036">
        <ele>108.9</ele>
        <time>2015-01-11T09:51:27.000Z</time>
      </trkpt>
      <trkpt lat="50.62555" lon="4.18039">
        <ele>108.7</ele>
        <time>2015-01-11T09:51:28.000Z</time>
      </trkpt>
      <trkpt lat="50.62556" lon="4.18042">
        <ele>108.5</ele>
        <time>2015-01-11T09:51:29.000Z</time>
      </trkpt>
      <trkpt lat="50.62557" lon="4.18045">
        <ele>108.3</ele>
        <time>2015-01-11T09:51:30.000Z</time>
      </trkpt>
      <trkpt lat="50.62558" lon="4.18048">
        <ele>108</ele>
        <time>2015-01-11T09:51:31.000Z</time>
      </trkpt>
      <trkpt lat="50.62559" lon="4.18051">
        <ele>107.8</ele>
        <time>2015-01-11T09:51:32.000Z</time>
      </trkpt>
      <trkpt lat="50.6256" lon="4.18054">
        <ele>107.6</ele>
        <time>2015-01-11T09:51:33.000Z</time>
      </trkpt>
      <trkpt lat="50.62562" lon="4.18056">
        <ele>107.3</ele>
        <time>2015-01-11T09:51:34.000Z</time>
      </trkpt>
      <trkpt lat="50.62563" lon="4.18059">
        <ele>107</ele>
        <time>2015-01-11T09:51:35.000Z</time>
      </trkpt>
      <trkpt lat="50.62564" lon="4.18061">
        <ele>106.8</ele>
        <time>2015-01-11T09:51:36.000Z</time>
      </trkpt>
      <trkpt lat="50.62566" lon="4.18063">
        <ele>106.5</ele>
        <time>2015-01-11T09:51:37.000Z</time>
      </trkpt>
      <trkpt lat="50.62567" lon="4.18066">
        <ele>106.2</ele>
        <time>2015-01-11T09:51:38.000Z</time>
      </trkpt>
      <trkpt lat="50.62569" lon="4.18068">
        <ele>105.9</ele>
        <time>2015-01-11T09:51:39.000Z</time>
      </trkpt>
      <trkpt lat="50.6257" lon="4.1807">
        <ele>105.6</ele>
        <time>2015-01-11T09:51:40.000Z</time>
      </trkpt>
      <trkpt lat="50.62572" lon="4.18072">
        <ele>105.3</ele>
        <time>2015-01-11T09:51:41.000Z</time>
      </trkpt>
      <trkpt lat="50.62573" lon="4.18074">
        <ele>105</ele>
        <time>2015-01-11T09:51:42.000Z</time>
      </trkpt>
      <trkpt lat="50.62575" lon="4.18075">
        <ele>104.7</ele>
        <time>2015-01-11T09:51:43.000Z</time>
      </trkpt>
      <trkpt lat="50.62577" lon="4.18077">
        <ele>104.4</ele>
        <time>2015-01-11T09:51:44.000Z</time>
      </trkpt>
      <trkpt lat="50.62578" lon="4.18078">
        <ele>104.1</ele>
        <time>2015-01-11T09:51:45.000Z</time>
      </trkpt>
      <trkpt lat="50.62579" lon="4.18079">
        <ele>103.9</ele>
        <time>2015-01-11T09:51:46.000Z</time>
      </trkpt>
      <trkpt lat="50.6258" lon="4.18081">
        <ele>103.6</ele>
        <time>2015-01-11T09:51:47.000Z</time>
      </trkpt>
      <trkpt lat="50.62582" lon="4.18083">
        <ele>103.3</ele>
        <time>2015-01-11T09:51:48.000Z</time>
      </trkpt>
      <trkpt lat="50.62584" lon="4.18085">
        <ele>103</ele>
        <time>2015-01-11T09:51:49.000Z</time>
      </trkpt>
      <trkpt lat="50.62585" lon="4.18087">
        <ele>102.9</ele>
        <time>2015-01-11T09:51:50.000Z</time>
      </trkpt>
      <trkpt lat="50.62586" lon="4.18088">
        <ele>102.9</ele>
        <time>2015-01-11T09:51:51.000Z</time>
      </trkpt>
      <trkpt lat="50.62588" lon="4.1809">
        <ele>102.8</ele>
        <time>2015-01-11T09:51:52.000Z</time>
      </trkpt>
      <trkpt lat="50.62589" lon="4.18091">
        <ele>102.8</ele>
        <time>2015-01-11T09:51:53.000Z</time>
      </trkpt>
      <trkpt lat="50.62591" lon="4.18093">
        <ele>102.8</ele>
        <time>2015-01-11T09:51:54.000Z</time>
      </trkpt>
      <trkpt lat="50.62593" lon="4.18095">
        <ele>102.9</ele>
        <time>2015-01-11T09:51:55.000Z</time>
      </trkpt>
      <trkpt lat="50.62594" lon="4.18096">
        <ele>102.9</ele>
        <time>2015-01-11T09:51:56.000Z</time>
      </trkpt>
      <trkpt lat="50.62596" lon="4.18097">
        <ele>103</ele>
        <time>2015-01-11T09:51:57.000Z</time>
      </trkpt>
      <trkpt lat="50.62598" lon="4.18098">
        <ele>103.1</ele>
        <time>2015-01-11T09:51:58.000Z</time>
      </trkpt>
      <trkpt lat="50.62599" lon="4.181">
        <ele>103.2</ele>
        <time>2015-01-11T09:51:59.000Z</time>
      </trkpt>
      <trkpt lat="50.62601" lon="4.181">
        <ele>103.3</ele>
        <time>2015-01-11T09:52:00.000Z</time>
      </trkpt>
      <trkpt lat="50.62603" lon="4.18101">
        <ele>103.4</ele>
        <time>2015-01-11T09:52:01.000Z</time>
      </trkpt>
      <trkpt lat="50.62605" lon="4.18102">
        <ele>103.5</ele>
        <time>2015-01-11T09:52:02.000Z</time>
      </trkpt>
      <trkpt lat="50.62606" lon="4.18103">
        <ele>103.7</ele>
        <time>2015-01-11T09:52:03.000Z</time>
      </trkpt>
      <trkpt lat="50.62608" lon="4.18104">
        <ele>103.9</ele>
        <time>2015-01-11T09:52:04.000Z</time>
      </trkpt>
      <trkpt lat="50.6261" lon="4.18105">
        <ele>104.1</ele>
        <time>2015-01-11T09:52:05.000Z</time>
      </trkpt>
      <trkpt lat="50.62612" lon="4.18106">
        <ele>104.3</ele>
        <time>2015-01-11T09:52:06.000Z</time>
      </trkpt>
      <trkpt lat="50.62613" lon="4.18107">
        <ele>104.5</ele>
        <time>2015-01-11T09:52:07.000Z</time>
      </trkpt>
      <trkpt lat="50.62615" lon="4.18108">
        <ele>104.7</ele>
        <time>2015-01-11T09:52:08.000Z</time>
      </trkpt>
      <trkpt lat="50.62617" lon="4.18109">
        <ele>105</ele>
        <time>2015-01-11T09:52:09.000Z</time>
      </trkpt>
      <trkpt lat="50.62622" lon="4.18112">
        <ele>105.4</ele>
        <time>2015-01-11T09:52:10.000Z</time>
      </trkpt>
      <trkpt lat="50.62622" lon="4.18112">
        <ele>105.4</ele>
        <time>2015-01-11T09:52:11.000Z</time>
      </trkpt>
      <trkpt lat="50.62623" lon="4.18112">
        <ele>105.5</ele>
        <time>2015-01-11T09:52:12.000Z</time>
      </trkpt>
      <trkpt lat="50.62624" lon="4.18112">
        <ele>105.5</ele>
        <time>2015-01-11T09:52:13.000Z</time>
      </trkpt>
      <trkpt lat="50.62625" lon="4.18113">
        <ele>105.6</ele>
        <time>2015-01-11T09:52:14.000Z</time>
      </trkpt>
      <trkpt lat="50.62627" lon="4.18113">
        <ele>105.7</ele>
        <time>2015-01-11T09:52:15.000Z</time>
      </trkpt>
      <trkpt lat="50.62629" lon="4.18113">
        <ele>105.8</ele>
        <time>2015-01-11T09:52:16.000Z</time>
      </trkpt>
      <trkpt lat="50.6263" lon="4.18113">
        <ele>105.8</ele>
        <time>2015-01-11T09:52:17.000Z</time>
      </trkpt>
      <trkpt lat="50.62632" lon="4.18113">
        <ele>105.9</ele>
        <time>2015-01-11T09:52:18.000Z</time>
      </trkpt>
      <trkpt lat="50.62634" lon="4.18113">
        <ele>105.9</ele>
        <time>2015-01-11T09:52:19.000Z</time>
      </trkpt>
      <trkpt lat="50.62635" lon="4.18113">
        <ele>106</ele>
        <time>2015-01-11T09:52:20.000Z</time>
      </trkpt>
      <trkpt lat="50.62637" lon="4.18112">
        <ele>106</ele>
        <time>2015-01-11T09:52:21.000Z</time>
      </trkpt>
      <trkpt lat="50.62639" lon="4.18112">
        <ele>106.1</ele>
        <time>2015-01-11T09:52:22.000Z</time>
      </trkpt>
      <trkpt lat="50.62641" lon="4.18112">
        <ele>106</ele>
        <time>2015-01-11T09:52:23.000Z</time>
      </trkpt>
      <trkpt lat="50.62643" lon="4.18112">
        <ele>106</ele>
        <time>2015-01-11T09:52:24.000Z</time>
      </trkpt>
      <trkpt lat="50.62645" lon="4.18112">
        <ele>106</ele>
        <time>2015-01-11T09:52:25.000Z</time>
      </trkpt>
      <trkpt lat="50.62647" lon="4.18111">
        <ele>106</ele>
        <time>2015-01-11T09:52:26.000Z</time>
      </trkpt>
      <trkpt lat="50.62648" lon="4.18112">
        <ele>106</ele>
        <time>2015-01-11T09:52:27.000Z</time>
      </trkpt>
      <trkpt lat="50.6265" lon="4.18112">
        <ele>106</ele>
        <time>2015-01-11T09:52:28.000Z</time>
      </trkpt>
      <trkpt lat="50.62652" lon="4.18112">
        <ele>106.1</ele>
        <time>2015-01-11T09:52:29.000Z</time>
      </trkpt>
      <trkpt lat="50.62654" lon="4.18112">
        <ele>106.1</ele>
        <time>2015-01-11T09:52:30.000Z</time>
      </trkpt>
      <trkpt lat="50.62655" lon="4.18113">
        <ele>106.1</ele>
        <time>2015-01-11T09:52:31.000Z</time>
      </trkpt>
      <trkpt lat="50.62657" lon="4.18113">
        <ele>106.1</ele>
        <time>2015-01-11T09:52:32.000Z</time>
      </trkpt>
      <trkpt lat="50.62658" lon="4.18113">
        <ele>106.2</ele>
        <time>2015-01-11T09:52:33.000Z</time>
      </trkpt>
      <trkpt lat="50.6266" lon="4.18113">
        <ele>106.2</ele>
        <time>2015-01-11T09:52:34.000Z</time>
      </trkpt>
      <trkpt lat="50.62662" lon="4.18113">
        <ele>106.2</ele>
        <time>2015-01-11T09:52:35.000Z</time>
      </trkpt>
      <trkpt lat="50.62664" lon="4.18113">
        <ele>106.2</ele>
        <time>2015-01-11T09:52:36.000Z</time>
      </trkpt>
      <trkpt lat="50.62666" lon="4.18114">
        <ele>106.2</ele>
        <time>2015-01-11T09:52:37.000Z</time>
      </trkpt>
      <trkpt lat="50.62668" lon="4.18114">
        <ele>106.2</ele>
        <time>2015-01-11T09:52:38.000Z</time>
      </trkpt>
      <trkpt lat="50.62669" lon="4.18114">
        <ele>106.2</ele>
        <time>2015-01-11T09:52:39.000Z</time>
      </trkpt>
      <trkpt lat="50.62671" lon="4.18114">
        <ele>106.2</ele>
        <time>2015-01-11T09:52:40.000Z</time>
      </trkpt>
      <trkpt lat="50.62673" lon="4.18114">
        <ele>106.2</ele>
        <time>2015-01-11T09:52:41.000Z</time>
      </trkpt>
      <trkpt lat="50.62675" lon="4.18114">
        <ele>106.2</ele>
        <time>2015-01-11T09:52:42.000Z</time>
      </trkpt>
      <trkpt lat="50.62677" lon="4.18113">
        <ele>106.1</ele>
        <time>2015-01-11T09:52:43.000Z</time>
      </trkpt>
      <trkpt lat="50.62678" lon="4.18112">
        <ele>106.1</ele>
        <time>2015-01-11T09:52:44.000Z</time>
      </trkpt>
      <trkpt lat="50.6268" lon="4.18112">
        <ele>106</ele>
        <time>2015-01-11T09:52:45.000Z</time>
      </trkpt>
      <trkpt lat="50.62682" lon="4.18111">
        <ele>106</ele>
        <time>2015-01-11T09:52:46.000Z</time>
      </trkpt>
      <trkpt lat="50.62684" lon="4.18111">
        <ele>106</ele>
        <time>2015-01-11T09:52:47.000Z</time>
      </trkpt>
      <trkpt lat="50.62686" lon="4.18111">
        <ele>106</ele>
        <time>2015-01-11T09:52:48.000Z</time>
      </trkpt>
      <trkpt lat="50.62688" lon="4.18111">
        <ele>106</ele>
        <time>2015-01-11T09:52:49.000Z</time>
      </trkpt>
      <trkpt lat="50.6269" lon="4.18111">
        <ele>106</ele>
        <time>2015-01-11T09:52:50.000Z</time>
      </trkpt>
      <trkpt lat="50.62692" lon="4.18111">
        <ele>106</ele>
        <time>2015-01-11T09:52:51.000Z</time>
      </trkpt>
      <trkpt lat="50.62694" lon="4.18112">
        <ele>106</ele>
        <time>2015-01-11T09:52:52.000Z</time>
      </trkpt>
      <trkpt lat="50.62696" lon="4.18112">
        <ele>106.1</ele>
        <time>2015-01-11T09:52:53.000Z</time>
      </trkpt>
      <trkpt lat="50.62698" lon="4.18113">
        <ele>106.2</ele>
        <time>2015-01-11T09:52:54.000Z</time>
      </trkpt>
      <trkpt lat="50.627" lon="4.18113">
        <ele>106.3</ele>
        <time>2015-01-11T09:52:55.000Z</time>
      </trkpt>
      <trkpt lat="50.62702" lon="4.18114">
        <ele>106.4</ele>
        <time>2015-01-11T09:52:56.000Z</time>
      </trkpt>
      <trkpt lat="50.62705" lon="4.18115">
        <ele>106.5</ele>
        <time>2015-01-11T09:52:57.000Z</time>
      </trkpt>
      <trkpt lat="50.62707" lon="4.18116">
        <ele>106.6</ele>
        <time>2015-01-11T09:52:58.000Z</time>
      </trkpt>
      <trkpt lat="50.62709" lon="4.18117">
        <ele>106.7</ele>
        <time>2015-01-11T09:52:59.000Z</time>
      </trkpt>
      <trkpt lat="50.62711" lon="4.18118">
        <ele>106.8</ele>
        <time>2015-01-11T09:53:00.000Z</time>
      </trkpt>
      <trkpt lat="50.62713" lon="4.18119">
        <ele>107</ele>
        <time>2015-01-11T09:53:01.000Z</time>
      </trkpt>
      <trkpt lat="50.62715" lon="4.1812">
        <ele>107.1</ele>
        <time>2015-01-11T09:53:02.000Z</time>
      </trkpt>
      <trkpt lat="50.62717" lon="4.18121">
        <ele>107.2</ele>
        <time>2015-01-11T09:53:03.000Z</time>
      </trkpt>
      <trkpt lat="50.62719" lon="4.18122">
        <ele>107.3</ele>
        <time>2015-01-11T09:53:04.000Z</time>
      </trkpt>
      <trkpt lat="50.6272" lon="4.18124">
        <ele>107.4</ele>
        <time>2015-01-11T09:53:05.000Z</time>
      </trkpt>
      <trkpt lat="50.62722" lon="4.18125">
        <ele>107.5</ele>
        <time>2015-01-11T09:53:06.000Z</time>
      </trkpt>
      <trkpt lat="50.62723" lon="4.18126">
        <ele>107.6</ele>
        <time>2015-01-11T09:53:07.000Z</time>
      </trkpt>
      <trkpt lat="50.62725" lon="4.18128">
        <ele>107.6</ele>
        <time>2015-01-11T09:53:08.000Z</time>
      </trkpt>
      <trkpt lat="50.62726" lon="4.18129">
        <ele>107.7</ele>
        <time>2015-01-11T09:53:09.000Z</time>
      </trkpt>
      <trkpt lat="50.62727" lon="4.18131">
        <ele>107.8</ele>
        <time>2015-01-11T09:53:10.000Z</time>
      </trkpt>
      <trkpt lat="50.62729" lon="4.18132">
        <ele>107.8</ele>
        <time>2015-01-11T09:53:11.000Z</time>
      </trkpt>
      <trkpt lat="50.6273" lon="4.18133">
        <ele>107.9</ele>
        <time>2015-01-11T09:53:12.000Z</time>
      </trkpt>
      <trkpt lat="50.62732" lon="4.18135">
        <ele>107.9</ele>
        <time>2015-01-11T09:53:13.000Z</time>
      </trkpt>
      <trkpt lat="50.62733" lon="4.18136">
        <ele>107.9</ele>
        <time>2015-01-11T09:53:14.000Z</time>
      </trkpt>
      <trkpt lat="50.62734" lon="4.18137">
        <ele>108</ele>
        <time>2015-01-11T09:53:15.000Z</time>
      </trkpt>
      <trkpt lat="50.62735" lon="4.18138">
        <ele>108</ele>
        <time>2015-01-11T09:53:16.000Z</time>
      </trkpt>
      <trkpt lat="50.62737" lon="4.18139">
        <ele>108</ele>
        <time>2015-01-11T09:53:17.000Z</time>
      </trkpt>
      <trkpt lat="50.62738" lon="4.1814">
        <ele>108.1</ele>
        <time>2015-01-11T09:53:18.000Z</time>
      </trkpt>
      <trkpt lat="50.62739" lon="4.18141">
        <ele>108.2</ele>
        <time>2015-01-11T09:53:19.000Z</time>
      </trkpt>
      <trkpt lat="50.62741" lon="4.18142">
        <ele>108.3</ele>
        <time>2015-01-11T09:53:20.000Z</time>
      </trkpt>
      <trkpt lat="50.62743" lon="4.18144">
        <ele>108.4</ele>
        <time>2015-01-11T09:53:21.000Z</time>
      </trkpt>
      <trkpt lat="50.62744" lon="4.18145">
        <ele>108.5</ele>
        <time>2015-01-11T09:53:22.000Z</time>
      </trkpt>
      <trkpt lat="50.62746" lon="4.18147">
        <ele>108.7</ele>
        <time>2015-01-11T09:53:23.000Z</time>
      </trkpt>
      <trkpt lat="50.62747" lon="4.18149">
        <ele>108.8</ele>
        <time>2015-01-11T09:53:24.000Z</time>
      </trkpt>
      <trkpt lat="50.62749" lon="4.18151">
        <ele>108.9</ele>
        <time>2015-01-11T09:53:25.000Z</time>
      </trkpt>
      <trkpt lat="50.6275" lon="4.18152">
        <ele>109</ele>
        <time>2015-01-11T09:53:26.000Z</time>
      </trkpt>
      <trkpt lat="50.62751" lon="4.18154">
        <ele>109</ele>
        <time>2015-01-11T09:53:27.000Z</time>
      </trkpt>
      <trkpt lat="50.62752" lon="4.18156">
        <ele>109.1</ele>
        <time>2015-01-11T09:53:28.000Z</time>
      </trkpt>
      <trkpt lat="50.62754" lon="4.18158">
        <ele>109.2</ele>
        <time>2015-01-11T09:53:29.000Z</time>
      </trkpt>
      <trkpt lat="50.62755" lon="4.1816">
        <ele>109.2</ele>
        <time>2015-01-11T09:53:30.000Z</time>
      </trkpt>
      <trkpt lat="50.62756" lon="4.18161">
        <ele>109.3</ele>
        <time>2015-01-11T09:53:31.000Z</time>
      </trkpt>
      <trkpt lat="50.62757" lon="4.18163">
        <ele>109.3</ele>
        <time>2015-01-11T09:53:32.000Z</time>
      </trkpt>
      <trkpt lat="50.62758" lon="4.18165">
        <ele>109.3</ele>
        <time>2015-01-11T09:53:33.000Z</time>
      </trkpt>
      <trkpt lat="50.62759" lon="4.18166">
        <ele>109.3</ele>
        <time>2015-01-11T09:53:34.000Z</time>
      </trkpt>
      <trkpt lat="50.62761" lon="4.18168">
        <ele>109.3</ele>
        <time>2015-01-11T09:53:35.000Z</time>
      </trkpt>
      <trkpt lat="50.62762" lon="4.1817">
        <ele>109.2</ele>
        <time>2015-01-11T09:53:36.000Z</time>
      </trkpt>
      <trkpt lat="50.62763" lon="4.18172">
        <ele>109.2</ele>
        <time>2015-01-11T09:53:37.000Z</time>
      </trkpt>
      <trkpt lat="50.62764" lon="4.18174">
        <ele>109.1</ele>
        <time>2015-01-11T09:53:38.000Z</time>
      </trkpt>
      <trkpt lat="50.62765" lon="4.18177">
        <ele>109</ele>
        <time>2015-01-11T09:53:39.000Z</time>
      </trkpt>
      <trkpt lat="50.62767" lon="4.18179">
        <ele>109</ele>
        <time>2015-01-11T09:53:40.000Z</time>
      </trkpt>
      <trkpt lat="50.62768" lon="4.18181">
        <ele>108.9</ele>
        <time>2015-01-11T09:53:41.000Z</time>
      </trkpt>
      <trkpt lat="50.62769" lon="4.18183">
        <ele>108.8</ele>
        <time>2015-01-11T09:53:42.000Z</time>
      </trkpt>
      <trkpt lat="50.6277" lon="4.18185">
        <ele>108.7</ele>
        <time>2015-01-11T09:53:43.000Z</time>
      </trkpt>
      <trkpt lat="50.62772" lon="4.18187">
        <ele>108.6</ele>
        <time>2015-01-11T09:53:44.000Z</time>
      </trkpt>
      <trkpt lat="50.62773" lon="4.18189">
        <ele>108.5</ele>
        <time>2015-01-11T09:53:45.000Z</time>
      </trkpt>
      <trkpt lat="50.62774" lon="4.18191">
        <ele>108.3</ele>
        <time>2015-01-11T09:53:46.000Z</time>
      </trkpt>
      <trkpt lat="50.62776" lon="4.18193">
        <ele>108.2</ele>
        <time>2015-01-11T09:53:47.000Z</time>
      </trkpt>
      <trkpt lat="50.62777" lon="4.18195">
        <ele>108.1</ele>
        <time>2015-01-11T09:53:48.000Z</time>
      </trkpt>
      <trkpt lat="50.62778" lon="4.18197">
        <ele>108.2</ele>
        <time>2015-01-11T09:53:49.000Z</time>
      </trkpt>
      <trkpt lat="50.62779" lon="4.18198">
        <ele>108.4</ele>
        <time>2015-01-11T09:53:50.000Z</time>
      </trkpt>
      <trkpt lat="50.6278" lon="4.182">
        <ele>108.5</ele>
        <time>2015-01-11T09:53:51.000Z</time>
      </trkpt>
      <trkpt lat="50.62782" lon="4.18201">
        <ele>108.6</ele>
        <time>2015-01-11T09:53:52.000Z</time>
      </trkpt>
      <trkpt lat="50.62783" lon="4.18203">
        <ele>108.7</ele>
        <time>2015-01-11T09:53:53.000Z</time>
      </trkpt>
      <trkpt lat="50.62785" lon="4.18204">
        <ele>108.8</ele>
        <time>2015-01-11T09:53:54.000Z</time>
      </trkpt>
      <trkpt lat="50.62787" lon="4.18205">
        <ele>108.8</ele>
        <time>2015-01-11T09:53:55.000Z</time>
      </trkpt>
      <trkpt lat="50.62788" lon="4.18206">
        <ele>108.8</ele>
        <time>2015-01-11T09:53:56.000Z</time>
      </trkpt>
      <trkpt lat="50.6279" lon="4.18208">
        <ele>108.8</ele>
        <time>2015-01-11T09:53:57.000Z</time>
      </trkpt>
      <trkpt lat="50.62791" lon="4.18209">
        <ele>108.8</ele>
        <time>2015-01-11T09:53:58.000Z</time>
      </trkpt>
      <trkpt lat="50.62793" lon="4.1821">
        <ele>108.8</ele>
        <time>2015-01-11T09:53:59.000Z</time>
      </trkpt>
      <trkpt lat="50.62795" lon="4.18212">
        <ele>108.8</ele>
        <time>2015-01-11T09:54:00.000Z</time>
      </trkpt>
      <trkpt lat="50.62796" lon="4.18214">
        <ele>108.7</ele>
        <time>2015-01-11T09:54:01.000Z</time>
      </trkpt>
      <trkpt lat="50.62798" lon="4.18215">
        <ele>108.6</ele>
        <time>2015-01-11T09:54:02.000Z</time>
      </trkpt>
      <trkpt lat="50.62799" lon="4.18217">
        <ele>108.6</ele>
        <time>2015-01-11T09:54:03.000Z</time>
      </trkpt>
      <trkpt lat="50.62801" lon="4.18218">
        <ele>108.4</ele>
        <time>2015-01-11T09:54:04.000Z</time>
      </trkpt>
      <trkpt lat="50.62802" lon="4.1822">
        <ele>108.3</ele>
        <time>2015-01-11T09:54:05.000Z</time>
      </trkpt>
      <trkpt lat="50.62804" lon="4.18221">
        <ele>108.2</ele>
        <time>2015-01-11T09:54:06.000Z</time>
      </trkpt>
      <trkpt lat="50.62805" lon="4.18223">
        <ele>108</ele>
        <time>2015-01-11T09:54:07.000Z</time>
      </trkpt>
      <trkpt lat="50.62807" lon="4.18224">
        <ele>108</ele>
        <time>2015-01-11T09:54:08.000Z</time>
      </trkpt>
      <trkpt lat="50.62808" lon="4.18226">
        <ele>108</ele>
        <time>2015-01-11T09:54:09.000Z</time>
      </trkpt>
      <trkpt lat="50.6281" lon="4.18227">
        <ele>108</ele>
        <time>2015-01-11T09:54:10.000Z</time>
      </trkpt>
      <trkpt lat="50.62811" lon="4.18228">
        <ele>108</ele>
        <time>2015-01-11T09:54:11.000Z</time>
      </trkpt>
      <trkpt lat="50.62813" lon="4.18229">
        <ele>107.9</ele>
        <time>2015-01-11T09:54:12.000Z</time>
      </trkpt>
      <trkpt lat="50.62815" lon="4.1823">
        <ele>107.9</ele>
        <time>2015-01-11T09:54:13.000Z</time>
      </trkpt>
      <trkpt lat="50.62817" lon="4.18231">
        <ele>107.8</ele>
        <time>2015-01-11T09:54:14.000Z</time>
      </trkpt>
      <trkpt lat="50.62819" lon="4.18232">
        <ele>107.7</ele>
        <time>2015-01-11T09:54:15.000Z</time>
      </trkpt>
      <trkpt lat="50.62821" lon="4.18232">
        <ele>107.6</ele>
        <time>2015-01-11T09:54:16.000Z</time>
      </trkpt>
      <trkpt lat="50.62822" lon="4.18233">
        <ele>107.5</ele>
        <time>2015-01-11T09:54:17.000Z</time>
      </trkpt>
      <trkpt lat="50.62824" lon="4.18233">
        <ele>107.5</ele>
        <time>2015-01-11T09:54:18.000Z</time>
      </trkpt>
      <trkpt lat="50.62826" lon="4.18233">
        <ele>107.4</ele>
        <time>2015-01-11T09:54:19.000Z</time>
      </trkpt>
      <trkpt lat="50.62828" lon="4.18233">
        <ele>107.3</ele>
        <time>2015-01-11T09:54:20.000Z</time>
      </trkpt>
      <trkpt lat="50.6283" lon="4.18233">
        <ele>107.2</ele>
        <time>2015-01-11T09:54:21.000Z</time>
      </trkpt>
      <trkpt lat="50.62832" lon="4.18232">
        <ele>107.1</ele>
        <time>2015-01-11T09:54:22.000Z</time>
      </trkpt>
      <trkpt lat="50.62833" lon="4.18232">
        <ele>107</ele>
        <time>2015-01-11T09:54:23.000Z</time>
      </trkpt>
      <trkpt lat="50.62835" lon="4.18232">
        <ele>106.9</ele>
        <time>2015-01-11T09:54:24.000Z</time>
      </trkpt>
      <trkpt lat="50.62837" lon="4.18232">
        <ele>106.7</ele>
        <time>2015-01-11T09:54:25.000Z</time>
      </trkpt>
      <trkpt lat="50.62839" lon="4.18232">
        <ele>106.6</ele>
        <time>2015-01-11T09:54:26.000Z</time>
      </trkpt>
      <trkpt lat="50.62841" lon="4.18232">
        <ele>106.4</ele>
        <time>2015-01-11T09:54:27.000Z</time>
      </trkpt>
      <trkpt lat="50.62843" lon="4.18232">
        <ele>106.3</ele>
        <time>2015-01-11T09:54:28.000Z</time>
      </trkpt>
      <trkpt lat="50.62845" lon="4.18232">
        <ele>106.2</ele>
        <time>2015-01-11T09:54:29.000Z</time>
      </trkpt>
      <trkpt lat="50.62846" lon="4.18232">
        <ele>106.1</ele>
        <time>2015-01-11T09:54:30.000Z</time>
      </trkpt>
      <trkpt lat="50.62848" lon="4.18231">
        <ele>106</ele>
        <time>2015-01-11T09:54:31.000Z</time>
      </trkpt>
      <trkpt lat="50.6285" lon="4.18231">
        <ele>105.8</ele>
        <time>2015-01-11T09:54:32.000Z</time>
      </trkpt>
      <trkpt lat="50.62851" lon="4.1823">
        <ele>105.7</ele>
        <time>2015-01-11T09:54:33.000Z</time>
      </trkpt>
      <trkpt lat="50.62853" lon="4.1823">
        <ele>105.6</ele>
        <time>2015-01-11T09:54:34.000Z</time>
      </trkpt>
      <trkpt lat="50.6286" lon="4.18228">
        <ele>105.1</ele>
        <time>2015-01-11T09:54:35.000Z</time>
      </trkpt>
      <trkpt lat="50.6286" lon="4.18227">
        <ele>105.1</ele>
        <time>2015-01-11T09:54:36.000Z</time>
      </trkpt>
      <trkpt lat="50.6286" lon="4.18227">
        <ele>105.1</ele>
        <time>2015-01-11T09:54:37.000Z</time>
      </trkpt>
      <trkpt lat="50.62861" lon="4.18227">
        <ele>105</ele>
        <time>2015-01-11T09:54:38.000Z</time>
      </trkpt>
      <trkpt lat="50.62862" lon="4.18227">
        <ele>105.1</ele>
        <time>2015-01-11T09:54:39.000Z</time>
      </trkpt>
      <trkpt lat="50.62863" lon="4.18226">
        <ele>105.2</ele>
        <time>2015-01-11T09:54:40.000Z</time>
      </trkpt>
      <trkpt lat="50.62865" lon="4.18226">
        <ele>105.3</ele>
        <time>2015-01-11T09:54:41.000Z</time>
      </trkpt>
      <trkpt lat="50.62866" lon="4.18226">
        <ele>105.4</ele>
        <time>2015-01-11T09:54:42.000Z</time>
      </trkpt>
      <trkpt lat="50.62868" lon="4.18226">
        <ele>105.6</ele>
        <time>2015-01-11T09:54:43.000Z</time>
      </trkpt>
      <trkpt lat="50.6287" lon="4.18225">
        <ele>105.8</ele>
        <time>2015-01-11T09:54:44.000Z</time>
      </trkpt>
      <trkpt lat="50.62871" lon="4.18225">
        <ele>105.9</ele>
        <time>2015-01-11T09:54:45.000Z</time>
      </trkpt>
      <trkpt lat="50.62873" lon="4.18224">
        <ele>106.1</ele>
        <time>2015-01-11T09:54:46.000Z</time>
      </trkpt>
      <trkpt lat="50.62874" lon="4.18224">
        <ele>106.3</ele>
        <time>2015-01-11T09:54:47.000Z</time>
      </trkpt>
      <trkpt lat="50.62879" lon="4.18222">
        <ele>106.9</ele>
        <time>2015-01-11T09:54:48.000Z</time>
      </trkpt>
      <trkpt lat="50.62879" lon="4.18222">
        <ele>107</ele>
        <time>2015-01-11T09:54:49.000Z</time>
      </trkpt>
      <trkpt lat="50.6288" lon="4.18222">
        <ele>107</ele>
        <time>2015-01-11T09:54:50.000Z</time>
      </trkpt>
      <trkpt lat="50.62881" lon="4.18222">
        <ele>107</ele>
        <time>2015-01-11T09:54:51.000Z</time>
      </trkpt>
      <trkpt lat="50.62882" lon="4.18221">
        <ele>107</ele>
        <time>2015-01-11T09:54:52.000Z</time>
      </trkpt>
      <trkpt lat="50.62883" lon="4.18221">
        <ele>107.1</ele>
        <time>2015-01-11T09:54:53.000Z</time>
      </trkpt>
      <trkpt lat="50.62885" lon="4.18221">
        <ele>107.3</ele>
        <time>2015-01-11T09:54:54.000Z</time>
      </trkpt>
      <trkpt lat="50.62887" lon="4.1822">
        <ele>107.4</ele>
        <time>2015-01-11T09:54:55.000Z</time>
      </trkpt>
      <trkpt lat="50.62888" lon="4.1822">
        <ele>107.5</ele>
        <time>2015-01-11T09:54:56.000Z</time>
      </trkpt>
      <trkpt lat="50.6289" lon="4.1822">
        <ele>107.5</ele>
        <time>2015-01-11T09:54:57.000Z</time>
      </trkpt>
      <trkpt lat="50.62891" lon="4.18219">
        <ele>107.4</ele>
        <time>2015-01-11T09:54:58.000Z</time>
      </trkpt>
      <trkpt lat="50.62893" lon="4.18219">
        <ele>107.4</ele>
        <time>2015-01-11T09:54:59.000Z</time>
      </trkpt>
      <trkpt lat="50.62895" lon="4.18218">
        <ele>107.3</ele>
        <time>2015-01-11T09:55:00.000Z</time>
      </trkpt>
      <trkpt lat="50.62896" lon="4.18218">
        <ele>107.3</ele>
        <time>2015-01-11T09:55:01.000Z</time>
      </trkpt>
      <trkpt lat="50.62898" lon="4.18218">
        <ele>107.3</ele>
        <time>2015-01-11T09:55:02.000Z</time>
      </trkpt>
      <trkpt lat="50.629" lon="4.18218">
        <ele>107.3</ele>
        <time>2015-01-11T09:55:03.000Z</time>
      </trkpt>
      <trkpt lat="50.62902" lon="4.18217">
        <ele>107.3</ele>
        <time>2015-01-11T09:55:04.000Z</time>
      </trkpt>
      <trkpt lat="50.62908" lon="4.18217">
        <ele>107.5</ele>
        <time>2015-01-11T09:55:05.000Z</time>
      </trkpt>
      <trkpt lat="50.62908" lon="4.18217">
        <ele>107.5</ele>
        <time>2015-01-11T09:55:06.000Z</time>
      </trkpt>
      <trkpt lat="50.62909" lon="4.18216">
        <ele>107.5</ele>
        <time>2015-01-11T09:55:07.000Z</time>
      </trkpt>
      <trkpt lat="50.6291" lon="4.18216">
        <ele>107.5</ele>
        <time>2015-01-11T09:55:08.000Z</time>
      </trkpt>
      <trkpt lat="50.62911" lon="4.18215">
        <ele>107.5</ele>
        <time>2015-01-11T09:55:09.000Z</time>
      </trkpt>
      <trkpt lat="50.62912" lon="4.18215">
        <ele>107.5</ele>
        <time>2015-01-11T09:55:10.000Z</time>
      </trkpt>
      <trkpt lat="50.62914" lon="4.18215">
        <ele>107.6</ele>
        <time>2015-01-11T09:55:11.000Z</time>
      </trkpt>
      <trkpt lat="50.62916" lon="4.18214">
        <ele>107.7</ele>
        <time>2015-01-11T09:55:12.000Z</time>
      </trkpt>
      <trkpt lat="50.62918" lon="4.18214">
        <ele>107.8</ele>
        <time>2015-01-11T09:55:13.000Z</time>
      </trkpt>
      <trkpt lat="50.62919" lon="4.18214">
        <ele>108.1</ele>
        <time>2015-01-11T09:55:14.000Z</time>
      </trkpt>
      <trkpt lat="50.62921" lon="4.18213">
        <ele>108.3</ele>
        <time>2015-01-11T09:55:15.000Z</time>
      </trkpt>
      <trkpt lat="50.62923" lon="4.18213">
        <ele>108.6</ele>
        <time>2015-01-11T09:55:16.000Z</time>
      </trkpt>
      <trkpt lat="50.62925" lon="4.18213">
        <ele>108.8</ele>
        <time>2015-01-11T09:55:17.000Z</time>
      </trkpt>
      <trkpt lat="50.62926" lon="4.18212">
        <ele>109</ele>
        <time>2015-01-11T09:55:18.000Z</time>
      </trkpt>
      <trkpt lat="50.62928" lon="4.18212">
        <ele>109.3</ele>
        <time>2015-01-11T09:55:19.000Z</time>
      </trkpt>
      <trkpt lat="50.62929" lon="4.18212">
        <ele>109.5</ele>
        <time>2015-01-11T09:55:20.000Z</time>
      </trkpt>
      <trkpt lat="50.62931" lon="4.18212">
        <ele>109.6</ele>
        <time>2015-01-11T09:55:21.000Z</time>
      </trkpt>
      <trkpt lat="50.62932" lon="4.18211">
        <ele>109.8</ele>
        <time>2015-01-11T09:55:22.000Z</time>
      </trkpt>
      <trkpt lat="50.62934" lon="4.18211">
        <ele>110</ele>
        <time>2015-01-11T09:55:23.000Z</time>
      </trkpt>
      <trkpt lat="50.62935" lon="4.18211">
        <ele>110.2</ele>
        <time>2015-01-11T09:55:24.000Z</time>
      </trkpt>
      <trkpt lat="50.62936" lon="4.18211">
        <ele>110.4</ele>
        <time>2015-01-11T09:55:25.000Z</time>
      </trkpt>
      <trkpt lat="50.62937" lon="4.1821">
        <ele>110.6</ele>
        <time>2015-01-11T09:55:26.000Z</time>
      </trkpt>
      <trkpt lat="50.62939" lon="4.1821">
        <ele>110.8</ele>
        <time>2015-01-11T09:55:27.000Z</time>
      </trkpt>
      <trkpt lat="50.62941" lon="4.18209">
        <ele>111</ele>
        <time>2015-01-11T09:55:28.000Z</time>
      </trkpt>
      <trkpt lat="50.62943" lon="4.18209">
        <ele>111.3</ele>
        <time>2015-01-11T09:55:29.000Z</time>
      </trkpt>
      <trkpt lat="50.62945" lon="4.18209">
        <ele>111.5</ele>
        <time>2015-01-11T09:55:30.000Z</time>
      </trkpt>
      <trkpt lat="50.62947" lon="4.18208">
        <ele>111.6</ele>
        <time>2015-01-11T09:55:31.000Z</time>
      </trkpt>
      <trkpt lat="50.62948" lon="4.18208">
        <ele>111.6</ele>
        <time>2015-01-11T09:55:32.000Z</time>
      </trkpt>
      <trkpt lat="50.6295" lon="4.18208">
        <ele>111.7</ele>
        <time>2015-01-11T09:55:33.000Z</time>
      </trkpt>
      <trkpt lat="50.62952" lon="4.18208">
        <ele>111.8</ele>
        <time>2015-01-11T09:55:34.000Z</time>
      </trkpt>
      <trkpt lat="50.62954" lon="4.18208">
        <ele>111.8</ele>
        <time>2015-01-11T09:55:35.000Z</time>
      </trkpt>
      <trkpt lat="50.62961" lon="4.18208">
        <ele>112.1</ele>
        <time>2015-01-11T09:55:36.000Z</time>
      </trkpt>
      <trkpt lat="50.62961" lon="4.18208">
        <ele>112.1</ele>
        <time>2015-01-11T09:55:37.000Z</time>
      </trkpt>
      <trkpt lat="50.62962" lon="4.18208">
        <ele>112.1</ele>
        <time>2015-01-11T09:55:38.000Z</time>
      </trkpt>
      <trkpt lat="50.62963" lon="4.18207">
        <ele>112.1</ele>
        <time>2015-01-11T09:55:39.000Z</time>
      </trkpt>
      <trkpt lat="50.62964" lon="4.18207">
        <ele>112.2</ele>
        <time>2015-01-11T09:55:40.000Z</time>
      </trkpt>
      <trkpt lat="50.62965" lon="4.18207">
        <ele>112.2</ele>
        <time>2015-01-11T09:55:41.000Z</time>
      </trkpt>
      <trkpt lat="50.62967" lon="4.18207">
        <ele>112.2</ele>
        <time>2015-01-11T09:55:42.000Z</time>
      </trkpt>
      <trkpt lat="50.62968" lon="4.18207">
        <ele>112.3</ele>
        <time>2015-01-11T09:55:43.000Z</time>
      </trkpt>
      <trkpt lat="50.6297" lon="4.18207">
        <ele>112.4</ele>
        <time>2015-01-11T09:55:44.000Z</time>
      </trkpt>
      <trkpt lat="50.62971" lon="4.18207">
        <ele>112.4</ele>
        <time>2015-01-11T09:55:45.000Z</time>
      </trkpt>
      <trkpt lat="50.62973" lon="4.18208">
        <ele>112.5</ele>
        <time>2015-01-11T09:55:46.000Z</time>
      </trkpt>
      <trkpt lat="50.62974" lon="4.18208">
        <ele>112.5</ele>
        <time>2015-01-11T09:55:47.000Z</time>
      </trkpt>
      <trkpt lat="50.62976" lon="4.18209">
        <ele>112.6</ele>
        <time>2015-01-11T09:55:48.000Z</time>
      </trkpt>
      <trkpt lat="50.62978" lon="4.18209">
        <ele>112.6</ele>
        <time>2015-01-11T09:55:49.000Z</time>
      </trkpt>
      <trkpt lat="50.62979" lon="4.1821">
        <ele>112.7</ele>
        <time>2015-01-11T09:55:50.000Z</time>
      </trkpt>
      <trkpt lat="50.62981" lon="4.18211">
        <ele>112.7</ele>
        <time>2015-01-11T09:55:51.000Z</time>
      </trkpt>
      <trkpt lat="50.62982" lon="4.18211">
        <ele>112.7</ele>
        <time>2015-01-11T09:55:52.000Z</time>
      </trkpt>
      <trkpt lat="50.62984" lon="4.18212">
        <ele>112.8</ele>
        <time>2015-01-11T09:55:53.000Z</time>
      </trkpt>
      <trkpt lat="50.62986" lon="4.18213">
        <ele>112.8</ele>
        <time>2015-01-11T09:55:54.000Z</time>
      </trkpt>
      <trkpt lat="50.62987" lon="4.18213">
        <ele>112.9</ele>
        <time>2015-01-11T09:55:55.000Z</time>
      </trkpt>
      <trkpt lat="50.62989" lon="4.18214">
        <ele>112.9</ele>
        <time>2015-01-11T09:55:56.000Z</time>
      </trkpt>
      <trkpt lat="50.6299" lon="4.18215">
        <ele>112.9</ele>
        <time>2015-01-11T09:55:57.000Z</time>
      </trkpt>
      <trkpt lat="50.62992" lon="4.18215">
        <ele>112.9</ele>
        <time>2015-01-11T09:55:58.000Z</time>
      </trkpt>
      <trkpt lat="50.62993" lon="4.18216">
        <ele>112.9</ele>
        <time>2015-01-11T09:55:59.000Z</time>
      </trkpt>
      <trkpt lat="50.62995" lon="4.18217">
        <ele>113</ele>
        <time>2015-01-11T09:56:00.000Z</time>
      </trkpt>
      <trkpt lat="50.62996" lon="4.18218">
        <ele>113</ele>
        <time>2015-01-11T09:56:01.000Z</time>
      </trkpt>
      <trkpt lat="50.62997" lon="4.1822">
        <ele>113</ele>
        <time>2015-01-11T09:56:02.000Z</time>
      </trkpt>
      <trkpt lat="50.62999" lon="4.18222">
        <ele>113</ele>
        <time>2015-01-11T09:56:03.000Z</time>
      </trkpt>
      <trkpt lat="50.63001" lon="4.18224">
        <ele>113</ele>
        <time>2015-01-11T09:56:04.000Z</time>
      </trkpt>
      <trkpt lat="50.63003" lon="4.18226">
        <ele>113</ele>
        <time>2015-01-11T09:56:05.000Z</time>
      </trkpt>
      <trkpt lat="50.63004" lon="4.18228">
        <ele>113</ele>
        <time>2015-01-11T09:56:06.000Z</time>
      </trkpt>
      <trkpt lat="50.63006" lon="4.18229">
        <ele>113</ele>
        <time>2015-01-11T09:56:07.000Z</time>
      </trkpt>
      <trkpt lat="50.63013" lon="4.18235">
        <ele>113</ele>
        <time>2015-01-11T09:56:08.000Z</time>
      </trkpt>
      <trkpt lat="50.63013" lon="4.18235">
        <ele>113</ele>
        <time>2015-01-11T09:56:09.000Z</time>
      </trkpt>
      <trkpt lat="50.63013" lon="4.18235">
        <ele>113</ele>
        <time>2015-01-11T09:56:10.000Z</time>
      </trkpt>
      <trkpt lat="50.63014" lon="4.18236">
        <ele>113</ele>
        <time>2015-01-11T09:56:11.000Z</time>
      </trkpt>
      <trkpt lat="50.63015" lon="4.18237">
        <ele>113</ele>
        <time>2015-01-11T09:56:12.000Z</time>
      </trkpt>
      <trkpt lat="50.63015" lon="4.18239">
        <ele>113.1</ele>
        <time>2015-01-11T09:56:13.000Z</time>
      </trkpt>
      <trkpt lat="50.63016" lon="4.18241">
        <ele>113.1</ele>
        <time>2015-01-11T09:56:14.000Z</time>
      </trkpt>
      <trkpt lat="50.63016" lon="4.18243">
        <ele>113.2</ele>
        <time>2015-01-11T09:56:15.000Z</time>
      </trkpt>
      <trkpt lat="50.63016" lon="4.18245">
        <ele>113.2</ele>
        <time>2015-01-11T09:56:16.000Z</time>
      </trkpt>
      <trkpt lat="50.63016" lon="4.18247">
        <ele>113.3</ele>
        <time>2015-01-11T09:56:17.000Z</time>
      </trkpt>
      <trkpt lat="50.63015" lon="4.18249">
        <ele>113.4</ele>
        <time>2015-01-11T09:56:18.000Z</time>
      </trkpt>
      <trkpt lat="50.63015" lon="4.18251">
        <ele>113.5</ele>
        <time>2015-01-11T09:56:19.000Z</time>
      </trkpt>
      <trkpt lat="50.63015" lon="4.18253">
        <ele>113.5</ele>
        <time>2015-01-11T09:56:20.000Z</time>
      </trkpt>
      <trkpt lat="50.63015" lon="4.18255">
        <ele>113.5</ele>
        <time>2015-01-11T09:56:21.000Z</time>
      </trkpt>
      <trkpt lat="50.63014" lon="4.18257">
        <ele>113.5</ele>
        <time>2015-01-11T09:56:22.000Z</time>
      </trkpt>
      <trkpt lat="50.63013" lon="4.18259">
        <ele>113.5</ele>
        <time>2015-01-11T09:56:23.000Z</time>
      </trkpt>
      <trkpt lat="50.63013" lon="4.18261">
        <ele>113.5</ele>
        <time>2015-01-11T09:56:24.000Z</time>
      </trkpt>
      <trkpt lat="50.63012" lon="4.18264">
        <ele>113.6</ele>
        <time>2015-01-11T09:56:25.000Z</time>
      </trkpt>
      <trkpt lat="50.63012" lon="4.18267">
        <ele>113.6</ele>
        <time>2015-01-11T09:56:26.000Z</time>
      </trkpt>
      <trkpt lat="50.63011" lon="4.18269">
        <ele>113.6</ele>
        <time>2015-01-11T09:56:27.000Z</time>
      </trkpt>
      <trkpt lat="50.63011" lon="4.18272">
        <ele>113.6</ele>
        <time>2015-01-11T09:56:28.000Z</time>
      </trkpt>
      <trkpt lat="50.6301" lon="4.18274">
        <ele>113.6</ele>
        <time>2015-01-11T09:56:29.000Z</time>
      </trkpt>
      <trkpt lat="50.6301" lon="4.18276">
        <ele>113.6</ele>
        <time>2015-01-11T09:56:30.000Z</time>
      </trkpt>
      <trkpt lat="50.63009" lon="4.18279">
        <ele>113.7</ele>
        <time>2015-01-11T09:56:31.000Z</time>
      </trkpt>
      <trkpt lat="50.63009" lon="4.18282">
        <ele>113.7</ele>
        <time>2015-01-11T09:56:32.000Z</time>
      </trkpt>
      <trkpt lat="50.63008" lon="4.18284">
        <ele>113.7</ele>
        <time>2015-01-11T09:56:33.000Z</time>
      </trkpt>
      <trkpt lat="50.63007" lon="4.18287">
        <ele>113.7</ele>
        <time>2015-01-11T09:56:34.000Z</time>
      </trkpt>
      <trkpt lat="50.63007" lon="4.18289">
        <ele>113.7</ele>
        <time>2015-01-11T09:56:35.000Z</time>
      </trkpt>
      <trkpt lat="50.63007" lon="4.18291">
        <ele>113.8</ele>
        <time>2015-01-11T09:56:36.000Z</time>
      </trkpt>
      <trkpt lat="50.63006" lon="4.18294">
        <ele>113.8</ele>
        <time>2015-01-11T09:56:37.000Z</time>
      </trkpt>
      <trkpt lat="50.63006" lon="4.18296">
        <ele>113.8</ele>
        <time>2015-01-11T09:56:38.000Z</time>
      </trkpt>
      <trkpt lat="50.63005" lon="4.18299">
        <ele>113.8</ele>
        <time>2015-01-11T09:56:39.000Z</time>
      </trkpt>
      <trkpt lat="50.63005" lon="4.18301">
        <ele>113.8</ele>
        <time>2015-01-11T09:56:40.000Z</time>
      </trkpt>
      <trkpt lat="50.63004" lon="4.18304">
        <ele>113.8</ele>
        <time>2015-01-11T09:56:41.000Z</time>
      </trkpt>
      <trkpt lat="50.63004" lon="4.18306">
        <ele>113.9</ele>
        <time>2015-01-11T09:56:42.000Z</time>
      </trkpt>
      <trkpt lat="50.63003" lon="4.18308">
        <ele>113.9</ele>
        <time>2015-01-11T09:56:43.000Z</time>
      </trkpt>
      <trkpt lat="50.63003" lon="4.18311">
        <ele>113.9</ele>
        <time>2015-01-11T09:56:44.000Z</time>
      </trkpt>
      <trkpt lat="50.63002" lon="4.18314">
        <ele>113.9</ele>
        <time>2015-01-11T09:56:45.000Z</time>
      </trkpt>
      <trkpt lat="50.63001" lon="4.18317">
        <ele>114</ele>
        <time>2015-01-11T09:56:46.000Z</time>
      </trkpt>
      <trkpt lat="50.63" lon="4.18319">
        <ele>114</ele>
        <time>2015-01-11T09:56:47.000Z</time>
      </trkpt>
      <trkpt lat="50.63" lon="4.18322">
        <ele>114</ele>
        <time>2015-01-11T09:56:48.000Z</time>
      </trkpt>
      <trkpt lat="50.62999" lon="4.18325">
        <ele>114</ele>
        <time>2015-01-11T09:56:49.000Z</time>
      </trkpt>
      <trkpt lat="50.62999" lon="4.18328">
        <ele>114</ele>
        <time>2015-01-11T09:56:50.000Z</time>
      </trkpt>
      <trkpt lat="50.62999" lon="4.1833">
        <ele>114.1</ele>
        <time>2015-01-11T09:56:51.000Z</time>
      </trkpt>
      <trkpt lat="50.62998" lon="4.18333">
        <ele>114.1</ele>
        <time>2015-01-11T09:56:52.000Z</time>
      </trkpt>
      <trkpt lat="50.62998" lon="4.18335">
        <ele>114.1</ele>
        <time>2015-01-11T09:56:53.000Z</time>
      </trkpt>
      <trkpt lat="50.62998" lon="4.18338">
        <ele>114.1</ele>
        <time>2015-01-11T09:56:54.000Z</time>
      </trkpt>
      <trkpt lat="50.62997" lon="4.1834">
        <ele>114.1</ele>
        <time>2015-01-11T09:56:55.000Z</time>
      </trkpt>
      <trkpt lat="50.62997" lon="4.18343">
        <ele>114.2</ele>
        <time>2015-01-11T09:56:56.000Z</time>
      </trkpt>
      <trkpt lat="50.62996" lon="4.18345">
        <ele>114.2</ele>
        <time>2015-01-11T09:56:57.000Z</time>
      </trkpt>
      <trkpt lat="50.62996" lon="4.18348">
        <ele>114.2</ele>
        <time>2015-01-11T09:56:58.000Z</time>
      </trkpt>
      <trkpt lat="50.62995" lon="4.1835">
        <ele>114.3</ele>
        <time>2015-01-11T09:56:59.000Z</time>
      </trkpt>
      <trkpt lat="50.62994" lon="4.18352">
        <ele>114.3</ele>
        <time>2015-01-11T09:57:00.000Z</time>
      </trkpt>
      <trkpt lat="50.62994" lon="4.18354">
        <ele>114.4</ele>
        <time>2015-01-11T09:57:01.000Z</time>
      </trkpt>
      <trkpt lat="50.62993" lon="4.18357">
        <ele>114.5</ele>
        <time>2015-01-11T09:57:02.000Z</time>
      </trkpt>
      <trkpt lat="50.62992" lon="4.18359">
        <ele>114.5</ele>
        <time>2015-01-11T09:57:03.000Z</time>
      </trkpt>
      <trkpt lat="50.62992" lon="4.18362">
        <ele>114.6</ele>
        <time>2015-01-11T09:57:04.000Z</time>
      </trkpt>
      <trkpt lat="50.62991" lon="4.18364">
        <ele>114.6</ele>
        <time>2015-01-11T09:57:05.000Z</time>
      </trkpt>
      <trkpt lat="50.6299" lon="4.18367">
        <ele>114.7</ele>
        <time>2015-01-11T09:57:06.000Z</time>
      </trkpt>
      <trkpt lat="50.6299" lon="4.18369">
        <ele>114.7</ele>
        <time>2015-01-11T09:57:07.000Z</time>
      </trkpt>
      <trkpt lat="50.62989" lon="4.18372">
        <ele>114.8</ele>
        <time>2015-01-11T09:57:08.000Z</time>
      </trkpt>
      <trkpt lat="50.62988" lon="4.18374">
        <ele>114.8</ele>
        <time>2015-01-11T09:57:09.000Z</time>
      </trkpt>
      <trkpt lat="50.62988" lon="4.18376">
        <ele>114.9</ele>
        <time>2015-01-11T09:57:10.000Z</time>
      </trkpt>
      <trkpt lat="50.62987" lon="4.18378">
        <ele>114.9</ele>
        <time>2015-01-11T09:57:11.000Z</time>
      </trkpt>
      <trkpt lat="50.62987" lon="4.18381">
        <ele>115</ele>
        <time>2015-01-11T09:57:12.000Z</time>
      </trkpt>
      <trkpt lat="50.62986" lon="4.18383">
        <ele>115</ele>
        <time>2015-01-11T09:57:13.000Z</time>
      </trkpt>
      <trkpt lat="50.62986" lon="4.18386">
        <ele>115</ele>
        <time>2015-01-11T09:57:14.000Z</time>
      </trkpt>
      <trkpt lat="50.62985" lon="4.18388">
        <ele>115.1</ele>
        <time>2015-01-11T09:57:15.000Z</time>
      </trkpt>
      <trkpt lat="50.62985" lon="4.18391">
        <ele>115.1</ele>
        <time>2015-01-11T09:57:16.000Z</time>
      </trkpt>
      <trkpt lat="50.62984" lon="4.18394">
        <ele>115.1</ele>
        <time>2015-01-11T09:57:17.000Z</time>
      </trkpt>
      <trkpt lat="50.62983" lon="4.18396">
        <ele>115.2</ele>
        <time>2015-01-11T09:57:18.000Z</time>
      </trkpt>
      <trkpt lat="50.62982" lon="4.18399">
        <ele>115.3</ele>
        <time>2015-01-11T09:57:19.000Z</time>
      </trkpt>
      <trkpt lat="50.62982" lon="4.18402">
        <ele>115.3</ele>
        <time>2015-01-11T09:57:20.000Z</time>
      </trkpt>
      <trkpt lat="50.62981" lon="4.18405">
        <ele>115.4</ele>
        <time>2015-01-11T09:57:21.000Z</time>
      </trkpt>
      <trkpt lat="50.6298" lon="4.18407">
        <ele>115.5</ele>
        <time>2015-01-11T09:57:22.000Z</time>
      </trkpt>
      <trkpt lat="50.62979" lon="4.1841">
        <ele>115.5</ele>
        <time>2015-01-11T09:57:23.000Z</time>
      </trkpt>
      <trkpt lat="50.62978" lon="4.18412">
        <ele>115.6</ele>
        <time>2015-01-11T09:57:24.000Z</time>
      </trkpt>
      <trkpt lat="50.62977" lon="4.18415">
        <ele>115.6</ele>
        <time>2015-01-11T09:57:25.000Z</time>
      </trkpt>
      <trkpt lat="50.62977" lon="4.18418">
        <ele>115.7</ele>
        <time>2015-01-11T09:57:26.000Z</time>
      </trkpt>
      <trkpt lat="50.62976" lon="4.18421">
        <ele>115.7</ele>
        <time>2015-01-11T09:57:27.000Z</time>
      </trkpt>
      <trkpt lat="50.62975" lon="4.18423">
        <ele>115.8</ele>
        <time>2015-01-11T09:57:28.000Z</time>
      </trkpt>
      <trkpt lat="50.62974" lon="4.18426">
        <ele>115.8</ele>
        <time>2015-01-11T09:57:29.000Z</time>
      </trkpt>
      <trkpt lat="50.62974" lon="4.18428">
        <ele>115.9</ele>
        <time>2015-01-11T09:57:30.000Z</time>
      </trkpt>
      <trkpt lat="50.62973" lon="4.18431">
        <ele>116</ele>
        <time>2015-01-11T09:57:31.000Z</time>
      </trkpt>
      <trkpt lat="50.62972" lon="4.18434">
        <ele>116</ele>
        <time>2015-01-11T09:57:32.000Z</time>
      </trkpt>
      <trkpt lat="50.62972" lon="4.18436">
        <ele>116</ele>
        <time>2015-01-11T09:57:33.000Z</time>
      </trkpt>
      <trkpt lat="50.62971" lon="4.18438">
        <ele>116.1</ele>
        <time>2015-01-11T09:57:34.000Z</time>
      </trkpt>
      <trkpt lat="50.6297" lon="4.18441">
        <ele>116.1</ele>
        <time>2015-01-11T09:57:35.000Z</time>
      </trkpt>
      <trkpt lat="50.6297" lon="4.18443">
        <ele>116.2</ele>
        <time>2015-01-11T09:57:36.000Z</time>
      </trkpt>
      <trkpt lat="50.62969" lon="4.18445">
        <ele>116.2</ele>
        <time>2015-01-11T09:57:37.000Z</time>
      </trkpt>
      <trkpt lat="50.62967" lon="4.18451">
        <ele>116.3</ele>
        <time>2015-01-11T09:57:38.000Z</time>
      </trkpt>
      <trkpt lat="50.62967" lon="4.18451">
        <ele>116.3</ele>
        <time>2015-01-11T09:57:39.000Z</time>
      </trkpt>
      <trkpt lat="50.62967" lon="4.18452">
        <ele>116.3</ele>
        <time>2015-01-11T09:57:40.000Z</time>
      </trkpt>
      <trkpt lat="50.62967" lon="4.18453">
        <ele>116.3</ele>
        <time>2015-01-11T09:57:41.000Z</time>
      </trkpt>
      <trkpt lat="50.62966" lon="4.18454">
        <ele>116.4</ele>
        <time>2015-01-11T09:57:42.000Z</time>
      </trkpt>
      <trkpt lat="50.62966" lon="4.18455">
        <ele>116.4</ele>
        <time>2015-01-11T09:57:43.000Z</time>
      </trkpt>
      <trkpt lat="50.62965" lon="4.18456">
        <ele>116.4</ele>
        <time>2015-01-11T09:57:44.000Z</time>
      </trkpt>
      <trkpt lat="50.62965" lon="4.18457">
        <ele>116.4</ele>
        <time>2015-01-11T09:57:45.000Z</time>
      </trkpt>
      <trkpt lat="50.62964" lon="4.18459">
        <ele>116.4</ele>
        <time>2015-01-11T09:57:46.000Z</time>
      </trkpt>
      <trkpt lat="50.62964" lon="4.1846">
        <ele>116.4</ele>
        <time>2015-01-11T09:57:47.000Z</time>
      </trkpt>
      <trkpt lat="50.62963" lon="4.18461">
        <ele>116.5</ele>
        <time>2015-01-11T09:57:48.000Z</time>
      </trkpt>
      <trkpt lat="50.62963" lon="4.18462">
        <ele>116.5</ele>
        <time>2015-01-11T09:57:49.000Z</time>
      </trkpt>
      <trkpt lat="50.62962" lon="4.18464">
        <ele>116.5</ele>
        <time>2015-01-11T09:57:50.000Z</time>
      </trkpt>
      <trkpt lat="50.62961" lon="4.18465">
        <ele>116.5</ele>
        <time>2015-01-11T09:57:51.000Z</time>
      </trkpt>
      <trkpt lat="50.62961" lon="4.18466">
        <ele>116.5</ele>
        <time>2015-01-11T09:57:52.000Z</time>
      </trkpt>
      <trkpt lat="50.6296" lon="4.18467">
        <ele>116.5</ele>
        <time>2015-01-11T09:57:53.000Z</time>
      </trkpt>
      <trkpt lat="50.62959" lon="4.18468">
        <ele>116.5</ele>
        <time>2015-01-11T09:57:54.000Z</time>
      </trkpt>
      <trkpt lat="50.62958" lon="4.1847">
        <ele>116.5</ele>
        <time>2015-01-11T09:57:55.000Z</time>
      </trkpt>
      <trkpt lat="50.62958" lon="4.18471">
        <ele>116.6</ele>
        <time>2015-01-11T09:57:56.000Z</time>
      </trkpt>
      <trkpt lat="50.62957" lon="4.18472">
        <ele>116.6</ele>
        <time>2015-01-11T09:57:57.000Z</time>
      </trkpt>
      <trkpt lat="50.62956" lon="4.18473">
        <ele>116.6</ele>
        <time>2015-01-11T09:57:58.000Z</time>
      </trkpt>
      <trkpt lat="50.62955" lon="4.18474">
        <ele>116.6</ele>
        <time>2015-01-11T09:57:59.000Z</time>
      </trkpt>
      <trkpt lat="50.62955" lon="4.18475">
        <ele>116.7</ele>
        <time>2015-01-11T09:58:00.000Z</time>
      </trkpt>
      <trkpt lat="50.62954" lon="4.18476">
        <ele>116.8</ele>
        <time>2015-01-11T09:58:01.000Z</time>
      </trkpt>
      <trkpt lat="50.62953" lon="4.18477">
        <ele>116.8</ele>
        <time>2015-01-11T09:58:02.000Z</time>
      </trkpt>
      <trkpt lat="50.62952" lon="4.18479">
        <ele>116.9</ele>
        <time>2015-01-11T09:58:03.000Z</time>
      </trkpt>
      <trkpt lat="50.62951" lon="4.1848">
        <ele>117</ele>
        <time>2015-01-11T09:58:04.000Z</time>
      </trkpt>
      <trkpt lat="50.6295" lon="4.18482">
        <ele>117.1</ele>
        <time>2015-01-11T09:58:05.000Z</time>
      </trkpt>
      <trkpt lat="50.6295" lon="4.18483">
        <ele>117.1</ele>
        <time>2015-01-11T09:58:06.000Z</time>
      </trkpt>
      <trkpt lat="50.62949" lon="4.18485">
        <ele>117.2</ele>
        <time>2015-01-11T09:58:07.000Z</time>
      </trkpt>
      <trkpt lat="50.62948" lon="4.18487">
        <ele>117.3</ele>
        <time>2015-01-11T09:58:08.000Z</time>
      </trkpt>
      <trkpt lat="50.62947" lon="4.18488">
        <ele>117.4</ele>
        <time>2015-01-11T09:58:09.000Z</time>
      </trkpt>
      <trkpt lat="50.62946" lon="4.1849">
        <ele>117.6</ele>
        <time>2015-01-11T09:58:10.000Z</time>
      </trkpt>
      <trkpt lat="50.62945" lon="4.18492">
        <ele>117.7</ele>
        <time>2015-01-11T09:58:11.000Z</time>
      </trkpt>
      <trkpt lat="50.62944" lon="4.18494">
        <ele>117.8</ele>
        <time>2015-01-11T09:58:12.000Z</time>
      </trkpt>
      <trkpt lat="50.62943" lon="4.18496">
        <ele>117.9</ele>
        <time>2015-01-11T09:58:13.000Z</time>
      </trkpt>
      <trkpt lat="50.62942" lon="4.18498">
        <ele>118</ele>
        <time>2015-01-11T09:58:14.000Z</time>
      </trkpt>
      <trkpt lat="50.62941" lon="4.185">
        <ele>118.1</ele>
        <time>2015-01-11T09:58:15.000Z</time>
      </trkpt>
      <trkpt lat="50.6294" lon="4.18502">
        <ele>118.2</ele>
        <time>2015-01-11T09:58:16.000Z</time>
      </trkpt>
      <trkpt lat="50.62939" lon="4.18505">
        <ele>118.2</ele>
        <time>2015-01-11T09:58:17.000Z</time>
      </trkpt>
      <trkpt lat="50.62938" lon="4.18507">
        <ele>118.2</ele>
        <time>2015-01-11T09:58:18.000Z</time>
      </trkpt>
      <trkpt lat="50.62937" lon="4.1851">
        <ele>118.3</ele>
        <time>2015-01-11T09:58:19.000Z</time>
      </trkpt>
      <trkpt lat="50.62936" lon="4.18512">
        <ele>118.3</ele>
        <time>2015-01-11T09:58:20.000Z</time>
      </trkpt>
      <trkpt lat="50.62935" lon="4.18514">
        <ele>118.4</ele>
        <time>2015-01-11T09:58:21.000Z</time>
      </trkpt>
      <trkpt lat="50.62934" lon="4.18517">
        <ele>118.4</ele>
        <time>2015-01-11T09:58:22.000Z</time>
      </trkpt>
      <trkpt lat="50.62933" lon="4.18519">
        <ele>118.4</ele>
        <time>2015-01-11T09:58:23.000Z</time>
      </trkpt>
      <trkpt lat="50.62932" lon="4.18522">
        <ele>118.4</ele>
        <time>2015-01-11T09:58:24.000Z</time>
      </trkpt>
      <trkpt lat="50.62931" lon="4.18524">
        <ele>118.5</ele>
        <time>2015-01-11T09:58:25.000Z</time>
      </trkpt>
      <trkpt lat="50.62931" lon="4.18526">
        <ele>118.5</ele>
        <time>2015-01-11T09:58:26.000Z</time>
      </trkpt>
      <trkpt lat="50.6293" lon="4.18529">
        <ele>118.5</ele>
        <time>2015-01-11T09:58:27.000Z</time>
      </trkpt>
      <trkpt lat="50.62929" lon="4.18531">
        <ele>118.6</ele>
        <time>2015-01-11T09:58:28.000Z</time>
      </trkpt>
      <trkpt lat="50.62928" lon="4.18533">
        <ele>118.6</ele>
        <time>2015-01-11T09:58:29.000Z</time>
      </trkpt>
      <trkpt lat="50.62928" lon="4.18536">
        <ele>118.6</ele>
        <time>2015-01-11T09:58:30.000Z</time>
      </trkpt>
      <trkpt lat="50.62927" lon="4.18538">
        <ele>118.6</ele>
        <time>2015-01-11T09:58:31.000Z</time>
      </trkpt>
      <trkpt lat="50.62927" lon="4.18541">
        <ele>118.6</ele>
        <time>2015-01-11T09:58:32.000Z</time>
      </trkpt>
      <trkpt lat="50.62927" lon="4.18543">
        <ele>118.6</ele>
        <time>2015-01-11T09:58:33.000Z</time>
      </trkpt>
      <trkpt lat="50.62926" lon="4.18546">
        <ele>118.7</ele>
        <time>2015-01-11T09:58:34.000Z</time>
      </trkpt>
      <trkpt lat="50.62926" lon="4.18548">
        <ele>118.7</ele>
        <time>2015-01-11T09:58:35.000Z</time>
      </trkpt>
      <trkpt lat="50.62926" lon="4.1855">
        <ele>118.7</ele>
        <time>2015-01-11T09:58:36.000Z</time>
      </trkpt>
      <trkpt lat="50.62925" lon="4.18552">
        <ele>118.7</ele>
        <time>2015-01-11T09:58:37.000Z</time>
      </trkpt>
      <trkpt lat="50.62925" lon="4.18554">
        <ele>118.7</ele>
        <time>2015-01-11T09:58:38.000Z</time>
      </trkpt>
      <trkpt lat="50.62924" lon="4.18557">
        <ele>118.7</ele>
        <time>2015-01-11T09:58:39.000Z</time>
      </trkpt>
      <trkpt lat="50.62924" lon="4.18559">
        <ele>118.7</ele>
        <time>2015-01-11T09:58:40.000Z</time>
      </trkpt>
      <trkpt lat="50.62923" lon="4.18561">
        <ele>118.8</ele>
        <time>2015-01-11T09:58:41.000Z</time>
      </trkpt>
      <trkpt lat="50.62923" lon="4.18564">
        <ele>118.8</ele>
        <time>2015-01-11T09:58:42.000Z</time>
      </trkpt>
      <trkpt lat="50.62922" lon="4.18567">
        <ele>118.8</ele>
        <time>2015-01-11T09:58:43.000Z</time>
      </trkpt>
      <trkpt lat="50.62922" lon="4.18569">
        <ele>118.8</ele>
        <time>2015-01-11T09:58:44.000Z</time>
      </trkpt>
      <trkpt lat="50.62921" lon="4.18572">
        <ele>118.8</ele>
        <time>2015-01-11T09:58:45.000Z</time>
      </trkpt>
      <trkpt lat="50.62921" lon="4.18575">
        <ele>118.8</ele>
        <time>2015-01-11T09:58:46.000Z</time>
      </trkpt>
      <trkpt lat="50.62921" lon="4.18577">
        <ele>118.8</ele>
        <time>2015-01-11T09:58:47.000Z</time>
      </trkpt>
      <trkpt lat="50.62921" lon="4.1858">
        <ele>118.9</ele>
        <time>2015-01-11T09:58:48.000Z</time>
      </trkpt>
      <trkpt lat="50.6292" lon="4.18582">
        <ele>118.9</ele>
        <time>2015-01-11T09:58:49.000Z</time>
      </trkpt>
      <trkpt lat="50.6292" lon="4.18585">
        <ele>118.9</ele>
        <time>2015-01-11T09:58:50.000Z</time>
      </trkpt>
      <trkpt lat="50.62919" lon="4.18587">
        <ele>119</ele>
        <time>2015-01-11T09:58:51.000Z</time>
      </trkpt>
      <trkpt lat="50.62918" lon="4.1859">
        <ele>119.2</ele>
        <time>2015-01-11T09:58:52.000Z</time>
      </trkpt>
      <trkpt lat="50.62917" lon="4.18592">
        <ele>119.3</ele>
        <time>2015-01-11T09:58:53.000Z</time>
      </trkpt>
      <trkpt lat="50.62916" lon="4.18595">
        <ele>119.4</ele>
        <time>2015-01-11T09:58:54.000Z</time>
      </trkpt>
      <trkpt lat="50.62915" lon="4.18598">
        <ele>119.4</ele>
        <time>2015-01-11T09:58:55.000Z</time>
      </trkpt>
      <trkpt lat="50.62914" lon="4.186">
        <ele>119.4</ele>
        <time>2015-01-11T09:58:56.000Z</time>
      </trkpt>
      <trkpt lat="50.62913" lon="4.18603">
        <ele>119.4</ele>
        <time>2015-01-11T09:58:57.000Z</time>
      </trkpt>
      <trkpt lat="50.62911" lon="4.18605">
        <ele>119.4</ele>
        <time>2015-01-11T09:58:58.000Z</time>
      </trkpt>
      <trkpt lat="50.6291" lon="4.18608">
        <ele>119.4</ele>
        <time>2015-01-11T09:58:59.000Z</time>
      </trkpt>
      <trkpt lat="50.62908" lon="4.1861">
        <ele>119.4</ele>
        <time>2015-01-11T09:59:00.000Z</time>
      </trkpt>
      <trkpt lat="50.62907" lon="4.18613">
        <ele>119.4</ele>
        <time>2015-01-11T09:59:01.000Z</time>
      </trkpt>
      <trkpt lat="50.62905" lon="4.18615">
        <ele>119.5</ele>
        <time>2015-01-11T09:59:02.000Z</time>
      </trkpt>
      <trkpt lat="50.62903" lon="4.18617">
        <ele>119.5</ele>
        <time>2015-01-11T09:59:03.000Z</time>
      </trkpt>
      <trkpt lat="50.629" lon="4.18619">
        <ele>119.7</ele>
        <time>2015-01-11T09:59:04.000Z</time>
      </trkpt>
      <trkpt lat="50.62898" lon="4.18622">
        <ele>119.8</ele>
        <time>2015-01-11T09:59:05.000Z</time>
      </trkpt>
      <trkpt lat="50.62896" lon="4.18624">
        <ele>120</ele>
        <time>2015-01-11T09:59:06.000Z</time>
      </trkpt>
      <trkpt lat="50.62893" lon="4.18627">
        <ele>120.4</ele>
        <time>2015-01-11T09:59:07.000Z</time>
      </trkpt>
      <trkpt lat="50.62891" lon="4.1863">
        <ele>120.7</ele>
        <time>2015-01-11T09:59:08.000Z</time>
      </trkpt>
      <trkpt lat="50.62888" lon="4.18632">
        <ele>121</ele>
        <time>2015-01-11T09:59:09.000Z</time>
      </trkpt>
      <trkpt lat="50.62886" lon="4.18634">
        <ele>121.3</ele>
        <time>2015-01-11T09:59:10.000Z</time>
      </trkpt>
      <trkpt lat="50.62879" lon="4.18638">
        <ele>121.9</ele>
        <time>2015-01-11T09:59:11.000Z</time>
      </trkpt>
      <trkpt lat="50.62879" lon="4.18638">
        <ele>121.9</ele>
        <time>2015-01-11T09:59:12.000Z</time>
      </trkpt>
      <trkpt lat="50.62878" lon="4.18638">
        <ele>121.9</ele>
        <time>2015-01-11T09:59:13.000Z</time>
      </trkpt>
      <trkpt lat="50.62877" lon="4.18639">
        <ele>122</ele>
        <time>2015-01-11T09:59:14.000Z</time>
      </trkpt>
      <trkpt lat="50.62875" lon="4.18639">
        <ele>122</ele>
        <time>2015-01-11T09:59:15.000Z</time>
      </trkpt>
      <trkpt lat="50.62874" lon="4.18639">
        <ele>122.1</ele>
        <time>2015-01-11T09:59:16.000Z</time>
      </trkpt>
      <trkpt lat="50.62873" lon="4.1864">
        <ele>122.1</ele>
        <time>2015-01-11T09:59:17.000Z</time>
      </trkpt>
      <trkpt lat="50.62871" lon="4.1864">
        <ele>122.1</ele>
        <time>2015-01-11T09:59:18.000Z</time>
      </trkpt>
      <trkpt lat="50.6287" lon="4.1864">
        <ele>122.2</ele>
        <time>2015-01-11T09:59:19.000Z</time>
      </trkpt>
      <trkpt lat="50.62868" lon="4.18641">
        <ele>122.2</ele>
        <time>2015-01-11T09:59:20.000Z</time>
      </trkpt>
      <trkpt lat="50.62867" lon="4.18641">
        <ele>122.2</ele>
        <time>2015-01-11T09:59:21.000Z</time>
      </trkpt>
      <trkpt lat="50.62866" lon="4.18641">
        <ele>122.2</ele>
        <time>2015-01-11T09:59:22.000Z</time>
      </trkpt>
      <trkpt lat="50.62864" lon="4.18641">
        <ele>122.2</ele>
        <time>2015-01-11T09:59:23.000Z</time>
      </trkpt>
      <trkpt lat="50.62862" lon="4.18641">
        <ele>122.2</ele>
        <time>2015-01-11T09:59:24.000Z</time>
      </trkpt>
      <trkpt lat="50.62861" lon="4.18641">
        <ele>122.3</ele>
        <time>2015-01-11T09:59:25.000Z</time>
      </trkpt>
      <trkpt lat="50.62859" lon="4.1864">
        <ele>122.5</ele>
        <time>2015-01-11T09:59:26.000Z</time>
      </trkpt>
      <trkpt lat="50.62857" lon="4.1864">
        <ele>122.7</ele>
        <time>2015-01-11T09:59:27.000Z</time>
      </trkpt>
      <trkpt lat="50.62856" lon="4.18639">
        <ele>122.8</ele>
        <time>2015-01-11T09:59:28.000Z</time>
      </trkpt>
      <trkpt lat="50.62854" lon="4.18638">
        <ele>122.9</ele>
        <time>2015-01-11T09:59:29.000Z</time>
      </trkpt>
      <trkpt lat="50.62853" lon="4.18637">
        <ele>123</ele>
        <time>2015-01-11T09:59:30.000Z</time>
      </trkpt>
      <trkpt lat="50.62853" lon="4.18637">
        <ele>123.1</ele>
        <time>2015-01-11T09:59:31.000Z</time>
      </trkpt>
      <trkpt lat="50.62852" lon="4.18636">
        <ele>123.2</ele>
        <time>2015-01-11T09:59:32.000Z</time>
      </trkpt>
      <trkpt lat="50.62851" lon="4.18635">
        <ele>123.3</ele>
        <time>2015-01-11T09:59:33.000Z</time>
      </trkpt>
      <trkpt lat="50.6285" lon="4.18634">
        <ele>123.4</ele>
        <time>2015-01-11T09:59:34.000Z</time>
      </trkpt>
      <trkpt lat="50.62849" lon="4.18634">
        <ele>123.5</ele>
        <time>2015-01-11T09:59:35.000Z</time>
      </trkpt>
      <trkpt lat="50.62847" lon="4.18633">
        <ele>123.7</ele>
        <time>2015-01-11T09:59:36.000Z</time>
      </trkpt>
      <trkpt lat="50.62846" lon="4.18632">
        <ele>123.8</ele>
        <time>2015-01-11T09:59:37.000Z</time>
      </trkpt>
      <trkpt lat="50.62845" lon="4.18631">
        <ele>124</ele>
        <time>2015-01-11T09:59:38.000Z</time>
      </trkpt>
      <trkpt lat="50.62843" lon="4.18631">
        <ele>124.1</ele>
        <time>2015-01-11T09:59:39.000Z</time>
      </trkpt>
      <trkpt lat="50.62842" lon="4.1863">
        <ele>124.3</ele>
        <time>2015-01-11T09:59:40.000Z</time>
      </trkpt>
      <trkpt lat="50.6284" lon="4.18629">
        <ele>124.5</ele>
        <time>2015-01-11T09:59:41.000Z</time>
      </trkpt>
      <trkpt lat="50.62839" lon="4.18628">
        <ele>124.7</ele>
        <time>2015-01-11T09:59:42.000Z</time>
      </trkpt>
      <trkpt lat="50.62837" lon="4.18627">
        <ele>124.9</ele>
        <time>2015-01-11T09:59:43.000Z</time>
      </trkpt>
      <trkpt lat="50.62836" lon="4.18627">
        <ele>125.2</ele>
        <time>2015-01-11T09:59:44.000Z</time>
      </trkpt>
      <trkpt lat="50.62834" lon="4.18626">
        <ele>125.4</ele>
        <time>2015-01-11T09:59:45.000Z</time>
      </trkpt>
      <trkpt lat="50.62833" lon="4.18626">
        <ele>125.6</ele>
        <time>2015-01-11T09:59:46.000Z</time>
      </trkpt>
      <trkpt lat="50.62831" lon="4.18626">
        <ele>125.7</ele>
        <time>2015-01-11T09:59:47.000Z</time>
      </trkpt>
      <trkpt lat="50.6283" lon="4.18626">
        <ele>125.7</ele>
        <time>2015-01-11T09:59:48.000Z</time>
      </trkpt>
      <trkpt lat="50.62828" lon="4.18626">
        <ele>125.8</ele>
        <time>2015-01-11T09:59:49.000Z</time>
      </trkpt>
      <trkpt lat="50.62827" lon="4.18625">
        <ele>125.9</ele>
        <time>2015-01-11T09:59:50.000Z</time>
      </trkpt>
      <trkpt lat="50.62825" lon="4.18625">
        <ele>126</ele>
        <time>2015-01-11T09:59:51.000Z</time>
      </trkpt>
      <trkpt lat="50.62823" lon="4.18625">
        <ele>126.1</ele>
        <time>2015-01-11T09:59:52.000Z</time>
      </trkpt>
      <trkpt lat="50.62821" lon="4.18625">
        <ele>126.2</ele>
        <time>2015-01-11T09:59:53.000Z</time>
      </trkpt>
      <trkpt lat="50.6282" lon="4.18625">
        <ele>126.3</ele>
        <time>2015-01-11T09:59:54.000Z</time>
      </trkpt>
      <trkpt lat="50.62818" lon="4.18625">
        <ele>126.4</ele>
        <time>2015-01-11T09:59:55.000Z</time>
      </trkpt>
      <trkpt lat="50.62816" lon="4.18625">
        <ele>126.5</ele>
        <time>2015-01-11T09:59:56.000Z</time>
      </trkpt>
      <trkpt lat="50.62814" lon="4.18625">
        <ele>126.6</ele>
        <time>2015-01-11T09:59:57.000Z</time>
      </trkpt>
      <trkpt lat="50.62807" lon="4.18625">
        <ele>126.9</ele>
        <time>2015-01-11T09:59:58.000Z</time>
      </trkpt>
      <trkpt lat="50.62807" lon="4.18625">
        <ele>126.9</ele>
        <time>2015-01-11T09:59:59.000Z</time>
      </trkpt>
      <trkpt lat="50.62804" lon="4.18624">
        <ele>126.9</ele>
        <time>2015-01-11T10:00:00.000Z</time>
      </trkpt>
      <trkpt lat="50.62804" lon="4.18623">
        <ele>126.9</ele>
        <time>2015-01-11T10:00:01.000Z</time>
      </trkpt>
      <trkpt lat="50.62804" lon="4.18623">
        <ele>126.9</ele>
        <time>2015-01-11T10:00:02.000Z</time>
      </trkpt>
      <trkpt lat="50.62803" lon="4.18623">
        <ele>126.9</ele>
        <time>2015-01-11T10:00:03.000Z</time>
      </trkpt>
      <trkpt lat="50.62802" lon="4.18623">
        <ele>126.9</ele>
        <time>2015-01-11T10:00:04.000Z</time>
      </trkpt>
      <trkpt lat="50.628" lon="4.18622">
        <ele>126.9</ele>
        <time>2015-01-11T10:00:05.000Z</time>
      </trkpt>
      <trkpt lat="50.62799" lon="4.18622">
        <ele>126.9</ele>
        <time>2015-01-11T10:00:06.000Z</time>
      </trkpt>
      <trkpt lat="50.62794" lon="4.18622">
        <ele>127.1</ele>
        <time>2015-01-11T10:00:07.000Z</time>
      </trkpt>
      <trkpt lat="50.62794" lon="4.18622">
        <ele>127.1</ele>
        <time>2015-01-11T10:00:08.000Z</time>
      </trkpt>
      <trkpt lat="50.62794" lon="4.18622">
        <ele>127.1</ele>
        <time>2015-01-11T10:00:09.000Z</time>
      </trkpt>
      <trkpt lat="50.62792" lon="4.18622">
        <ele>127.1</ele>
        <time>2015-01-11T10:00:10.000Z</time>
      </trkpt>
      <trkpt lat="50.62791" lon="4.18621">
        <ele>127.1</ele>
        <time>2015-01-11T10:00:11.000Z</time>
      </trkpt>
      <trkpt lat="50.62789" lon="4.18621">
        <ele>127.2</ele>
        <time>2015-01-11T10:00:12.000Z</time>
      </trkpt>
      <trkpt lat="50.62787" lon="4.18621">
        <ele>127.1</ele>
        <time>2015-01-11T10:00:13.000Z</time>
      </trkpt>
      <trkpt lat="50.62786" lon="4.1862">
        <ele>127.1</ele>
        <time>2015-01-11T10:00:14.000Z</time>
      </trkpt>
      <trkpt lat="50.62784" lon="4.1862">
        <ele>127.1</ele>
        <time>2015-01-11T10:00:15.000Z</time>
      </trkpt>
      <trkpt lat="50.62782" lon="4.18619">
        <ele>127.1</ele>
        <time>2015-01-11T10:00:16.000Z</time>
      </trkpt>
      <trkpt lat="50.62781" lon="4.18619">
        <ele>127.1</ele>
        <time>2015-01-11T10:00:17.000Z</time>
      </trkpt>
      <trkpt lat="50.62779" lon="4.18619">
        <ele>127.1</ele>
        <time>2015-01-11T10:00:18.000Z</time>
      </trkpt>
      <trkpt lat="50.62777" lon="4.18618">
        <ele>127.1</ele>
        <time>2015-01-11T10:00:19.000Z</time>
      </trkpt>
      <trkpt lat="50.62775" lon="4.18618">
        <ele>127.2</ele>
        <time>2015-01-11T10:00:20.000Z</time>
      </trkpt>
      <trkpt lat="50.62773" lon="4.18618">
        <ele>127.3</ele>
        <time>2015-01-11T10:00:21.000Z</time>
      </trkpt>
      <trkpt lat="50.62772" lon="4.18618">
        <ele>127.4</ele>
        <time>2015-01-11T10:00:22.000Z</time>
      </trkpt>
      <trkpt lat="50.6277" lon="4.18618">
        <ele>127.5</ele>
        <time>2015-01-11T10:00:23.000Z</time>
      </trkpt>
      <trkpt lat="50.62768" lon="4.18618">
        <ele>127.6</ele>
        <time>2015-01-11T10:00:24.000Z</time>
      </trkpt>
      <trkpt lat="50.62766" lon="4.18617">
        <ele>127.6</ele>
        <time>2015-01-11T10:00:25.000Z</time>
      </trkpt>
      <trkpt lat="50.6276" lon="4.18617">
        <ele>128</ele>
        <time>2015-01-11T10:00:26.000Z</time>
      </trkpt>
      <trkpt lat="50.6276" lon="4.18617">
        <ele>128</ele>
        <time>2015-01-11T10:00:27.000Z</time>
      </trkpt>
      <trkpt lat="50.62759" lon="4.18617">
        <ele>128</ele>
        <time>2015-01-11T10:00:28.000Z</time>
      </trkpt>
      <trkpt lat="50.62758" lon="4.18617">
        <ele>128.1</ele>
        <time>2015-01-11T10:00:29.000Z</time>
      </trkpt>
      <trkpt lat="50.62757" lon="4.18617">
        <ele>128.2</ele>
        <time>2015-01-11T10:00:30.000Z</time>
      </trkpt>
      <trkpt lat="50.62756" lon="4.18617">
        <ele>128.3</ele>
        <time>2015-01-11T10:00:31.000Z</time>
      </trkpt>
      <trkpt lat="50.62755" lon="4.18618">
        <ele>128.4</ele>
        <time>2015-01-11T10:00:32.000Z</time>
      </trkpt>
      <trkpt lat="50.62753" lon="4.18618">
        <ele>128.5</ele>
        <time>2015-01-11T10:00:33.000Z</time>
      </trkpt>
      <trkpt lat="50.62752" lon="4.18618">
        <ele>128.7</ele>
        <time>2015-01-11T10:00:34.000Z</time>
      </trkpt>
      <trkpt lat="50.6275" lon="4.18619">
        <ele>128.8</ele>
        <time>2015-01-11T10:00:35.000Z</time>
      </trkpt>
      <trkpt lat="50.62749" lon="4.18619">
        <ele>128.9</ele>
        <time>2015-01-11T10:00:36.000Z</time>
      </trkpt>
      <trkpt lat="50.62747" lon="4.18619">
        <ele>128.9</ele>
        <time>2015-01-11T10:00:37.000Z</time>
      </trkpt>
      <trkpt lat="50.62746" lon="4.1862">
        <ele>128.9</ele>
        <time>2015-01-11T10:00:38.000Z</time>
      </trkpt>
      <trkpt lat="50.62745" lon="4.1862">
        <ele>129</ele>
        <time>2015-01-11T10:00:39.000Z</time>
      </trkpt>
      <trkpt lat="50.62743" lon="4.18621">
        <ele>129</ele>
        <time>2015-01-11T10:00:40.000Z</time>
      </trkpt>
      <trkpt lat="50.62742" lon="4.18621">
        <ele>129.1</ele>
        <time>2015-01-11T10:00:41.000Z</time>
      </trkpt>
      <trkpt lat="50.6274" lon="4.18621">
        <ele>129.1</ele>
        <time>2015-01-11T10:00:42.000Z</time>
      </trkpt>
      <trkpt lat="50.62738" lon="4.18621">
        <ele>129.1</ele>
        <time>2015-01-11T10:00:43.000Z</time>
      </trkpt>
      <trkpt lat="50.62737" lon="4.18621">
        <ele>129.1</ele>
        <time>2015-01-11T10:00:44.000Z</time>
      </trkpt>
      <trkpt lat="50.62735" lon="4.18621">
        <ele>129.1</ele>
        <time>2015-01-11T10:00:45.000Z</time>
      </trkpt>
      <trkpt lat="50.62733" lon="4.18621">
        <ele>129</ele>
        <time>2015-01-11T10:00:46.000Z</time>
      </trkpt>
      <trkpt lat="50.62731" lon="4.18621">
        <ele>129</ele>
        <time>2015-01-11T10:00:47.000Z</time>
      </trkpt>
      <trkpt lat="50.62729" lon="4.18621">
        <ele>129</ele>
        <time>2015-01-11T10:00:48.000Z</time>
      </trkpt>
      <trkpt lat="50.62727" lon="4.1862">
        <ele>129</ele>
        <time>2015-01-11T10:00:49.000Z</time>
      </trkpt>
      <trkpt lat="50.62725" lon="4.1862">
        <ele>128.9</ele>
        <time>2015-01-11T10:00:50.000Z</time>
      </trkpt>
      <trkpt lat="50.62723" lon="4.18619">
        <ele>128.9</ele>
        <time>2015-01-11T10:00:51.000Z</time>
      </trkpt>
      <trkpt lat="50.62721" lon="4.18618">
        <ele>128.9</ele>
        <time>2015-01-11T10:00:52.000Z</time>
      </trkpt>
      <trkpt lat="50.62719" lon="4.18617">
        <ele>128.9</ele>
        <time>2015-01-11T10:00:53.000Z</time>
      </trkpt>
      <trkpt lat="50.62717" lon="4.18616">
        <ele>128.9</ele>
        <time>2015-01-11T10:00:54.000Z</time>
      </trkpt>
      <trkpt lat="50.62715" lon="4.18616">
        <ele>129</ele>
        <time>2015-01-11T10:00:55.000Z</time>
      </trkpt>
      <trkpt lat="50.62714" lon="4.18614">
        <ele>129</ele>
        <time>2015-01-11T10:00:56.000Z</time>
      </trkpt>
      <trkpt lat="50.62712" lon="4.18613">
        <ele>129</ele>
        <time>2015-01-11T10:00:57.000Z</time>
      </trkpt>
      <trkpt lat="50.6271" lon="4.18612">
        <ele>129</ele>
        <time>2015-01-11T10:00:58.000Z</time>
      </trkpt>
      <trkpt lat="50.62709" lon="4.18611">
        <ele>129</ele>
        <time>2015-01-11T10:00:59.000Z</time>
      </trkpt>
      <trkpt lat="50.62707" lon="4.1861">
        <ele>129</ele>
        <time>2015-01-11T10:01:00.000Z</time>
      </trkpt>
      <trkpt lat="50.62706" lon="4.18609">
        <ele>129</ele>
        <time>2015-01-11T10:01:01.000Z</time>
      </trkpt>
      <trkpt lat="50.62704" lon="4.18608">
        <ele>129</ele>
        <time>2015-01-11T10:01:02.000Z</time>
      </trkpt>
      <trkpt lat="50.62702" lon="4.18605">
        <ele>128.9</ele>
        <time>2015-01-11T10:01:03.000Z</time>
      </trkpt>
      <trkpt lat="50.627" lon="4.18603">
        <ele>128.9</ele>
        <time>2015-01-11T10:01:04.000Z</time>
      </trkpt>
      <trkpt lat="50.62698" lon="4.186">
        <ele>128.8</ele>
        <time>2015-01-11T10:01:05.000Z</time>
      </trkpt>
      <trkpt lat="50.62696" lon="4.18597">
        <ele>128.8</ele>
        <time>2015-01-11T10:01:06.000Z</time>
      </trkpt>
      <trkpt lat="50.62694" lon="4.18594">
        <ele>128.8</ele>
        <time>2015-01-11T10:01:07.000Z</time>
      </trkpt>
      <trkpt lat="50.62692" lon="4.1859">
        <ele>128.9</ele>
        <time>2015-01-11T10:01:08.000Z</time>
      </trkpt>
      <trkpt lat="50.6269" lon="4.18587">
        <ele>129.1</ele>
        <time>2015-01-11T10:01:09.000Z</time>
      </trkpt>
      <trkpt lat="50.62688" lon="4.18584">
        <ele>129.2</ele>
        <time>2015-01-11T10:01:10.000Z</time>
      </trkpt>
      <trkpt lat="50.62686" lon="4.18582">
        <ele>129.4</ele>
        <time>2015-01-11T10:01:11.000Z</time>
      </trkpt>
      <trkpt lat="50.62685" lon="4.18579">
        <ele>129.6</ele>
        <time>2015-01-11T10:01:12.000Z</time>
      </trkpt>
      <trkpt lat="50.62683" lon="4.18576">
        <ele>129.8</ele>
        <time>2015-01-11T10:01:13.000Z</time>
      </trkpt>
      <trkpt lat="50.62681" lon="4.18573">
        <ele>130</ele>
        <time>2015-01-11T10:01:14.000Z</time>
      </trkpt>
      <trkpt lat="50.6268" lon="4.1857">
        <ele>130.2</ele>
        <time>2015-01-11T10:01:15.000Z</time>
      </trkpt>
      <trkpt lat="50.62678" lon="4.18567">
        <ele>130.3</ele>
        <time>2015-01-11T10:01:16.000Z</time>
      </trkpt>
      <trkpt lat="50.62677" lon="4.18564">
        <ele>130.4</ele>
        <time>2015-01-11T10:01:17.000Z</time>
      </trkpt>
      <trkpt lat="50.62676" lon="4.18561">
        <ele>130.5</ele>
        <time>2015-01-11T10:01:18.000Z</time>
      </trkpt>
      <trkpt lat="50.62675" lon="4.18559">
        <ele>130.6</ele>
        <time>2015-01-11T10:01:19.000Z</time>
      </trkpt>
      <trkpt lat="50.62674" lon="4.18556">
        <ele>130.7</ele>
        <time>2015-01-11T10:01:20.000Z</time>
      </trkpt>
      <trkpt lat="50.62673" lon="4.18554">
        <ele>130.8</ele>
        <time>2015-01-11T10:01:21.000Z</time>
      </trkpt>
      <trkpt lat="50.62672" lon="4.18552">
        <ele>131</ele>
        <time>2015-01-11T10:01:22.000Z</time>
      </trkpt>
      <trkpt lat="50.62671" lon="4.18549">
        <ele>131.2</ele>
        <time>2015-01-11T10:01:23.000Z</time>
      </trkpt>
      <trkpt lat="50.6267" lon="4.18547">
        <ele>131.4</ele>
        <time>2015-01-11T10:01:24.000Z</time>
      </trkpt>
      <trkpt lat="50.6267" lon="4.18544">
        <ele>131.5</ele>
        <time>2015-01-11T10:01:25.000Z</time>
      </trkpt>
      <trkpt lat="50.62669" lon="4.18542">
        <ele>131.6</ele>
        <time>2015-01-11T10:01:26.000Z</time>
      </trkpt>
      <trkpt lat="50.62668" lon="4.18539">
        <ele>131.8</ele>
        <time>2015-01-11T10:01:27.000Z</time>
      </trkpt>
      <trkpt lat="50.62667" lon="4.18537">
        <ele>131.9</ele>
        <time>2015-01-11T10:01:28.000Z</time>
      </trkpt>
      <trkpt lat="50.62667" lon="4.18534">
        <ele>132</ele>
        <time>2015-01-11T10:01:29.000Z</time>
      </trkpt>
      <trkpt lat="50.62666" lon="4.18532">
        <ele>132</ele>
        <time>2015-01-11T10:01:30.000Z</time>
      </trkpt>
      <trkpt lat="50.62665" lon="4.1853">
        <ele>132.1</ele>
        <time>2015-01-11T10:01:31.000Z</time>
      </trkpt>
      <trkpt lat="50.62665" lon="4.18528">
        <ele>132.2</ele>
        <time>2015-01-11T10:01:32.000Z</time>
      </trkpt>
      <trkpt lat="50.62664" lon="4.18525">
        <ele>132.2</ele>
        <time>2015-01-11T10:01:33.000Z</time>
      </trkpt>
      <trkpt lat="50.62663" lon="4.18523">
        <ele>132.3</ele>
        <time>2015-01-11T10:01:34.000Z</time>
      </trkpt>
      <trkpt lat="50.62662" lon="4.18521">
        <ele>132.3</ele>
        <time>2015-01-11T10:01:35.000Z</time>
      </trkpt>
      <trkpt lat="50.62662" lon="4.18518">
        <ele>132.4</ele>
        <time>2015-01-11T10:01:36.000Z</time>
      </trkpt>
      <trkpt lat="50.62661" lon="4.18516">
        <ele>132.4</ele>
        <time>2015-01-11T10:01:37.000Z</time>
      </trkpt>
      <trkpt lat="50.6266" lon="4.18514">
        <ele>132.5</ele>
        <time>2015-01-11T10:01:38.000Z</time>
      </trkpt>
      <trkpt lat="50.62659" lon="4.18512">
        <ele>132.6</ele>
        <time>2015-01-11T10:01:39.000Z</time>
      </trkpt>
      <trkpt lat="50.62658" lon="4.1851">
        <ele>132.6</ele>
        <time>2015-01-11T10:01:40.000Z</time>
      </trkpt>
      <trkpt lat="50.62657" lon="4.18508">
        <ele>132.7</ele>
        <time>2015-01-11T10:01:41.000Z</time>
      </trkpt>
      <trkpt lat="50.62656" lon="4.18507">
        <ele>132.8</ele>
        <time>2015-01-11T10:01:42.000Z</time>
      </trkpt>
      <trkpt lat="50.62652" lon="4.18505">
        <ele>133</ele>
        <time>2015-01-11T10:01:43.000Z</time>
      </trkpt>
      <trkpt lat="50.62652" lon="4.18504">
        <ele>133</ele>
        <time>2015-01-11T10:01:44.000Z</time>
      </trkpt>
      <trkpt lat="50.62652" lon="4.18504">
        <ele>133.1</ele>
        <time>2015-01-11T10:01:45.000Z</time>
      </trkpt>
      <trkpt lat="50.62651" lon="4.18503">
        <ele>133.1</ele>
        <time>2015-01-11T10:01:46.000Z</time>
      </trkpt>
      <trkpt lat="50.6265" lon="4.18503">
        <ele>133.2</ele>
        <time>2015-01-11T10:01:47.000Z</time>
      </trkpt>
      <trkpt lat="50.62649" lon="4.18502">
        <ele>133.2</ele>
        <time>2015-01-11T10:01:48.000Z</time>
      </trkpt>
      <trkpt lat="50.62648" lon="4.18501">
        <ele>133.3</ele>
        <time>2015-01-11T10:01:49.000Z</time>
      </trkpt>
      <trkpt lat="50.62647" lon="4.18501">
        <ele>133.4</ele>
        <time>2015-01-11T10:01:50.000Z</time>
      </trkpt>
      <trkpt lat="50.62646" lon="4.18501">
        <ele>133.5</ele>
        <time>2015-01-11T10:01:51.000Z</time>
      </trkpt>
      <trkpt lat="50.62645" lon="4.185">
        <ele>133.6</ele>
        <time>2015-01-11T10:01:52.000Z</time>
      </trkpt>
      <trkpt lat="50.62643" lon="4.185">
        <ele>133.7</ele>
        <time>2015-01-11T10:01:53.000Z</time>
      </trkpt>
      <trkpt lat="50.62642" lon="4.185">
        <ele>133.8</ele>
        <time>2015-01-11T10:01:54.000Z</time>
      </trkpt>
      <trkpt lat="50.62641" lon="4.18501">
        <ele>133.9</ele>
        <time>2015-01-11T10:01:55.000Z</time>
      </trkpt>
      <trkpt lat="50.62639" lon="4.18501">
        <ele>134</ele>
        <time>2015-01-11T10:01:56.000Z</time>
      </trkpt>
      <trkpt lat="50.62638" lon="4.18501">
        <ele>134.1</ele>
        <time>2015-01-11T10:01:57.000Z</time>
      </trkpt>
      <trkpt lat="50.62637" lon="4.18502">
        <ele>134.1</ele>
        <time>2015-01-11T10:01:58.000Z</time>
      </trkpt>
      <trkpt lat="50.62636" lon="4.18503">
        <ele>134.2</ele>
        <time>2015-01-11T10:01:59.000Z</time>
      </trkpt>
      <trkpt lat="50.62634" lon="4.18503">
        <ele>134.3</ele>
        <time>2015-01-11T10:02:00.000Z</time>
      </trkpt>
      <trkpt lat="50.62633" lon="4.18504">
        <ele>134.4</ele>
        <time>2015-01-11T10:02:01.000Z</time>
      </trkpt>
      <trkpt lat="50.62632" lon="4.18505">
        <ele>134.5</ele>
        <time>2015-01-11T10:02:02.000Z</time>
      </trkpt>
      <trkpt lat="50.62631" lon="4.18506">
        <ele>134.6</ele>
        <time>2015-01-11T10:02:03.000Z</time>
      </trkpt>
      <trkpt lat="50.62629" lon="4.18507">
        <ele>134.7</ele>
        <time>2015-01-11T10:02:04.000Z</time>
      </trkpt>
      <trkpt lat="50.62628" lon="4.18508">
        <ele>134.8</ele>
        <time>2015-01-11T10:02:05.000Z</time>
      </trkpt>
      <trkpt lat="50.62626" lon="4.18509">
        <ele>134.9</ele>
        <time>2015-01-11T10:02:06.000Z</time>
      </trkpt>
      <trkpt lat="50.62625" lon="4.1851">
        <ele>135</ele>
        <time>2015-01-11T10:02:07.000Z</time>
      </trkpt>
      <trkpt lat="50.62623" lon="4.18511">
        <ele>135.1</ele>
        <time>2015-01-11T10:02:08.000Z</time>
      </trkpt>
      <trkpt lat="50.62622" lon="4.18512">
        <ele>135.2</ele>
        <time>2015-01-11T10:02:09.000Z</time>
      </trkpt>
      <trkpt lat="50.62621" lon="4.18513">
        <ele>135.3</ele>
        <time>2015-01-11T10:02:10.000Z</time>
      </trkpt>
      <trkpt lat="50.62619" lon="4.18514">
        <ele>135.4</ele>
        <time>2015-01-11T10:02:11.000Z</time>
      </trkpt>
      <trkpt lat="50.62618" lon="4.18515">
        <ele>135.5</ele>
        <time>2015-01-11T10:02:12.000Z</time>
      </trkpt>
      <trkpt lat="50.62617" lon="4.18516">
        <ele>135.6</ele>
        <time>2015-01-11T10:02:13.000Z</time>
      </trkpt>
      <trkpt lat="50.62616" lon="4.18518">
        <ele>135.6</ele>
        <time>2015-01-11T10:02:14.000Z</time>
      </trkpt>
      <trkpt lat="50.62615" lon="4.18519">
        <ele>135.7</ele>
        <time>2015-01-11T10:02:15.000Z</time>
      </trkpt>
      <trkpt lat="50.62614" lon="4.1852">
        <ele>135.8</ele>
        <time>2015-01-11T10:02:16.000Z</time>
      </trkpt>
      <trkpt lat="50.62613" lon="4.18522">
        <ele>135.9</ele>
        <time>2015-01-11T10:02:17.000Z</time>
      </trkpt>
      <trkpt lat="50.62612" lon="4.18523">
        <ele>135.9</ele>
        <time>2015-01-11T10:02:18.000Z</time>
      </trkpt>
      <trkpt lat="50.62611" lon="4.18525">
        <ele>136</ele>
        <time>2015-01-11T10:02:19.000Z</time>
      </trkpt>
      <trkpt lat="50.6261" lon="4.18526">
        <ele>136.1</ele>
        <time>2015-01-11T10:02:20.000Z</time>
      </trkpt>
      <trkpt lat="50.62609" lon="4.18528">
        <ele>136.3</ele>
        <time>2015-01-11T10:02:21.000Z</time>
      </trkpt>
      <trkpt lat="50.62608" lon="4.18529">
        <ele>136.4</ele>
        <time>2015-01-11T10:02:22.000Z</time>
      </trkpt>
      <trkpt lat="50.62607" lon="4.1853">
        <ele>136.5</ele>
        <time>2015-01-11T10:02:23.000Z</time>
      </trkpt>
      <trkpt lat="50.62606" lon="4.18531">
        <ele>136.7</ele>
        <time>2015-01-11T10:02:24.000Z</time>
      </trkpt>
      <trkpt lat="50.62605" lon="4.18532">
        <ele>136.8</ele>
        <time>2015-01-11T10:02:25.000Z</time>
      </trkpt>
      <trkpt lat="50.62604" lon="4.18533">
        <ele>137</ele>
        <time>2015-01-11T10:02:26.000Z</time>
      </trkpt>
      <trkpt lat="50.62603" lon="4.18534">
        <ele>137.2</ele>
        <time>2015-01-11T10:02:27.000Z</time>
      </trkpt>
      <trkpt lat="50.62602" lon="4.18536">
        <ele>137.4</ele>
        <time>2015-01-11T10:02:28.000Z</time>
      </trkpt>
      <trkpt lat="50.626" lon="4.18537">
        <ele>137.5</ele>
        <time>2015-01-11T10:02:29.000Z</time>
      </trkpt>
      <trkpt lat="50.62599" lon="4.18538">
        <ele>137.7</ele>
        <time>2015-01-11T10:02:30.000Z</time>
      </trkpt>
      <trkpt lat="50.62598" lon="4.1854">
        <ele>137.9</ele>
        <time>2015-01-11T10:02:31.000Z</time>
      </trkpt>
      <trkpt lat="50.62597" lon="4.18541">
        <ele>138.1</ele>
        <time>2015-01-11T10:02:32.000Z</time>
      </trkpt>
      <trkpt lat="50.62596" lon="4.18542">
        <ele>138.2</ele>
        <time>2015-01-11T10:02:33.000Z</time>
      </trkpt>
      <trkpt lat="50.62594" lon="4.18544">
        <ele>138.4</ele>
        <time>2015-01-11T10:02:34.000Z</time>
      </trkpt>
      <trkpt lat="50.62593" lon="4.18545">
        <ele>138.6</ele>
        <time>2015-01-11T10:02:35.000Z</time>
      </trkpt>
      <trkpt lat="50.62592" lon="4.18546">
        <ele>138.8</ele>
        <time>2015-01-11T10:02:36.000Z</time>
      </trkpt>
      <trkpt lat="50.62591" lon="4.18548">
        <ele>138.9</ele>
        <time>2015-01-11T10:02:37.000Z</time>
      </trkpt>
      <trkpt lat="50.6259" lon="4.18549">
        <ele>139.1</ele>
        <time>2015-01-11T10:02:38.000Z</time>
      </trkpt>
      <trkpt lat="50.62588" lon="4.18551">
        <ele>139.3</ele>
        <time>2015-01-11T10:02:39.000Z</time>
      </trkpt>
      <trkpt lat="50.62587" lon="4.18553">
        <ele>139.4</ele>
        <time>2015-01-11T10:02:40.000Z</time>
      </trkpt>
      <trkpt lat="50.62586" lon="4.18554">
        <ele>139.6</ele>
        <time>2015-01-11T10:02:41.000Z</time>
      </trkpt>
      <trkpt lat="50.62585" lon="4.18556">
        <ele>139.8</ele>
        <time>2015-01-11T10:02:42.000Z</time>
      </trkpt>
      <trkpt lat="50.62583" lon="4.18558">
        <ele>139.8</ele>
        <time>2015-01-11T10:02:43.000Z</time>
      </trkpt>
      <trkpt lat="50.62582" lon="4.18559">
        <ele>139.8</ele>
        <time>2015-01-11T10:02:44.000Z</time>
      </trkpt>
      <trkpt lat="50.62581" lon="4.18561">
        <ele>139.8</ele>
        <time>2015-01-11T10:02:45.000Z</time>
      </trkpt>
      <trkpt lat="50.6258" lon="4.18563">
        <ele>139.8</ele>
        <time>2015-01-11T10:02:46.000Z</time>
      </trkpt>
      <trkpt lat="50.62579" lon="4.18564">
        <ele>139.9</ele>
        <time>2015-01-11T10:02:47.000Z</time>
      </trkpt>
      <trkpt lat="50.62578" lon="4.18566">
        <ele>139.9</ele>
        <time>2015-01-11T10:02:48.000Z</time>
      </trkpt>
      <trkpt lat="50.62577" lon="4.18568">
        <ele>140</ele>
        <time>2015-01-11T10:02:49.000Z</time>
      </trkpt>
      <trkpt lat="50.62575" lon="4.18569">
        <ele>140.1</ele>
        <time>2015-01-11T10:02:50.000Z</time>
      </trkpt>
      <trkpt lat="50.62574" lon="4.18571">
        <ele>140.2</ele>
        <time>2015-01-11T10:02:51.000Z</time>
      </trkpt>
      <trkpt lat="50.62573" lon="4.18573">
        <ele>140.2</ele>
        <time>2015-01-11T10:02:52.000Z</time>
      </trkpt>
      <trkpt lat="50.62572" lon="4.18575">
        <ele>140.3</ele>
        <time>2015-01-11T10:02:53.000Z</time>
      </trkpt>
      <trkpt lat="50.62571" lon="4.18577">
        <ele>140.4</ele>
        <time>2015-01-11T10:02:54.000Z</time>
      </trkpt>
      <trkpt lat="50.6257" lon="4.18579">
        <ele>140.5</ele>
        <time>2015-01-11T10:02:55.000Z</time>
      </trkpt>
      <trkpt lat="50.6257" lon="4.18581">
        <ele>140.6</ele>
        <time>2015-01-11T10:02:56.000Z</time>
      </trkpt>
      <trkpt lat="50.62569" lon="4.18583">
        <ele>140.7</ele>
        <time>2015-01-11T10:02:57.000Z</time>
      </trkpt>
      <trkpt lat="50.62568" lon="4.18585">
        <ele>140.9</ele>
        <time>2015-01-11T10:02:58.000Z</time>
      </trkpt>
      <trkpt lat="50.62567" lon="4.18587">
        <ele>141.1</ele>
        <time>2015-01-11T10:02:59.000Z</time>
      </trkpt>
      <trkpt lat="50.62566" lon="4.18589">
        <ele>141.3</ele>
        <time>2015-01-11T10:03:00.000Z</time>
      </trkpt>
      <trkpt lat="50.62565" lon="4.18591">
        <ele>141.5</ele>
        <time>2015-01-11T10:03:01.000Z</time>
      </trkpt>
      <trkpt lat="50.62564" lon="4.18593">
        <ele>141.8</ele>
        <time>2015-01-11T10:03:02.000Z</time>
      </trkpt>
      <trkpt lat="50.62564" lon="4.18595">
        <ele>142</ele>
        <time>2015-01-11T10:03:03.000Z</time>
      </trkpt>
      <trkpt lat="50.62563" lon="4.18597">
        <ele>142.3</ele>
        <time>2015-01-11T10:03:04.000Z</time>
      </trkpt>
      <trkpt lat="50.62562" lon="4.18599">
        <ele>142.6</ele>
        <time>2015-01-11T10:03:05.000Z</time>
      </trkpt>
      <trkpt lat="50.62561" lon="4.18602">
        <ele>142.9</ele>
        <time>2015-01-11T10:03:06.000Z</time>
      </trkpt>
      <trkpt lat="50.6256" lon="4.18604">
        <ele>143.2</ele>
        <time>2015-01-11T10:03:07.000Z</time>
      </trkpt>
      <trkpt lat="50.62559" lon="4.18606">
        <ele>143.5</ele>
        <time>2015-01-11T10:03:08.000Z</time>
      </trkpt>
      <trkpt lat="50.62559" lon="4.18608">
        <ele>143.9</ele>
        <time>2015-01-11T10:03:09.000Z</time>
      </trkpt>
      <trkpt lat="50.62558" lon="4.1861">
        <ele>144.2</ele>
        <time>2015-01-11T10:03:10.000Z</time>
      </trkpt>
      <trkpt lat="50.62557" lon="4.18612">
        <ele>144.4</ele>
        <time>2015-01-11T10:03:11.000Z</time>
      </trkpt>
      <trkpt lat="50.62556" lon="4.18614">
        <ele>144.6</ele>
        <time>2015-01-11T10:03:12.000Z</time>
      </trkpt>
      <trkpt lat="50.62555" lon="4.18616">
        <ele>144.6</ele>
        <time>2015-01-11T10:03:13.000Z</time>
      </trkpt>
      <trkpt lat="50.62554" lon="4.18618">
        <ele>144.5</ele>
        <time>2015-01-11T10:03:14.000Z</time>
      </trkpt>
      <trkpt lat="50.62553" lon="4.1862">
        <ele>144.5</ele>
        <time>2015-01-11T10:03:15.000Z</time>
      </trkpt>
      <trkpt lat="50.62553" lon="4.18622">
        <ele>144.4</ele>
        <time>2015-01-11T10:03:16.000Z</time>
      </trkpt>
      <trkpt lat="50.62552" lon="4.18624">
        <ele>144.4</ele>
        <time>2015-01-11T10:03:17.000Z</time>
      </trkpt>
      <trkpt lat="50.62551" lon="4.18625">
        <ele>144.3</ele>
        <time>2015-01-11T10:03:18.000Z</time>
      </trkpt>
      <trkpt lat="50.62551" lon="4.18627">
        <ele>144.3</ele>
        <time>2015-01-11T10:03:19.000Z</time>
      </trkpt>
      <trkpt lat="50.6255" lon="4.18629">
        <ele>144.3</ele>
        <time>2015-01-11T10:03:20.000Z</time>
      </trkpt>
      <trkpt lat="50.6255" lon="4.18631">
        <ele>144.3</ele>
        <time>2015-01-11T10:03:21.000Z</time>
      </trkpt>
      <trkpt lat="50.62549" lon="4.18633">
        <ele>144.3</ele>
        <time>2015-01-11T10:03:22.000Z</time>
      </trkpt>
      <trkpt lat="50.62548" lon="4.18635">
        <ele>144.4</ele>
        <time>2015-01-11T10:03:23.000Z</time>
      </trkpt>
      <trkpt lat="50.62548" lon="4.18637">
        <ele>144.4</ele>
        <time>2015-01-11T10:03:24.000Z</time>
      </trkpt>
      <trkpt lat="50.62547" lon="4.1864">
        <ele>144.5</ele>
        <time>2015-01-11T10:03:25.000Z</time>
      </trkpt>
      <trkpt lat="50.62546" lon="4.18642">
        <ele>144.5</ele>
        <time>2015-01-11T10:03:26.000Z</time>
      </trkpt>
      <trkpt lat="50.62545" lon="4.18644">
        <ele>144.5</ele>
        <time>2015-01-11T10:03:27.000Z</time>
      </trkpt>
      <trkpt lat="50.62545" lon="4.18646">
        <ele>144.5</ele>
        <time>2015-01-11T10:03:28.000Z</time>
      </trkpt>
      <trkpt lat="50.62544" lon="4.18648">
        <ele>144.5</ele>
        <time>2015-01-11T10:03:29.000Z</time>
      </trkpt>
      <trkpt lat="50.62544" lon="4.18651">
        <ele>144.5</ele>
        <time>2015-01-11T10:03:30.000Z</time>
      </trkpt>
      <trkpt lat="50.62543" lon="4.18653">
        <ele>144.5</ele>
        <time>2015-01-11T10:03:31.000Z</time>
      </trkpt>
      <trkpt lat="50.62542" lon="4.18655">
        <ele>144.6</ele>
        <time>2015-01-11T10:03:32.000Z</time>
      </trkpt>
      <trkpt lat="50.62542" lon="4.18657">
        <ele>144.7</ele>
        <time>2015-01-11T10:03:33.000Z</time>
      </trkpt>
      <trkpt lat="50.62541" lon="4.1866">
        <ele>144.8</ele>
        <time>2015-01-11T10:03:34.000Z</time>
      </trkpt>
      <trkpt lat="50.6254" lon="4.18662">
        <ele>144.9</ele>
        <time>2015-01-11T10:03:35.000Z</time>
      </trkpt>
      <trkpt lat="50.62539" lon="4.18665">
        <ele>145.1</ele>
        <time>2015-01-11T10:03:36.000Z</time>
      </trkpt>
      <trkpt lat="50.62539" lon="4.18667">
        <ele>145.3</ele>
        <time>2015-01-11T10:03:37.000Z</time>
      </trkpt>
      <trkpt lat="50.62538" lon="4.1867">
        <ele>145.6</ele>
        <time>2015-01-11T10:03:38.000Z</time>
      </trkpt>
      <trkpt lat="50.62537" lon="4.18672">
        <ele>146</ele>
        <time>2015-01-11T10:03:39.000Z</time>
      </trkpt>
      <trkpt lat="50.62536" lon="4.18675">
        <ele>146.5</ele>
        <time>2015-01-11T10:03:40.000Z</time>
      </trkpt>
      <trkpt lat="50.62535" lon="4.18677">
        <ele>146.9</ele>
        <time>2015-01-11T10:03:41.000Z</time>
      </trkpt>
      <trkpt lat="50.62534" lon="4.1868">
        <ele>147.4</ele>
        <time>2015-01-11T10:03:42.000Z</time>
      </trkpt>
      <trkpt lat="50.62533" lon="4.18682">
        <ele>147.9</ele>
        <time>2015-01-11T10:03:43.000Z</time>
      </trkpt>
      <trkpt lat="50.62531" lon="4.18684">
        <ele>148.4</ele>
        <time>2015-01-11T10:03:44.000Z</time>
      </trkpt>
      <trkpt lat="50.6253" lon="4.18686">
        <ele>149</ele>
        <time>2015-01-11T10:03:45.000Z</time>
      </trkpt>
      <trkpt lat="50.62529" lon="4.18688">
        <ele>149.5</ele>
        <time>2015-01-11T10:03:46.000Z</time>
      </trkpt>
      <trkpt lat="50.62528" lon="4.1869">
        <ele>150</ele>
        <time>2015-01-11T10:03:47.000Z</time>
      </trkpt>
      <trkpt lat="50.62526" lon="4.18692">
        <ele>150</ele>
        <time>2015-01-11T10:03:48.000Z</time>
      </trkpt>
      <trkpt lat="50.62525" lon="4.18694">
        <ele>150.1</ele>
        <time>2015-01-11T10:03:49.000Z</time>
      </trkpt>
      <trkpt lat="50.62524" lon="4.18696">
        <ele>150.2</ele>
        <time>2015-01-11T10:03:50.000Z</time>
      </trkpt>
      <trkpt lat="50.62523" lon="4.18698">
        <ele>150.4</ele>
        <time>2015-01-11T10:03:51.000Z</time>
      </trkpt>
      <trkpt lat="50.62522" lon="4.187">
        <ele>150.6</ele>
        <time>2015-01-11T10:03:52.000Z</time>
      </trkpt>
      <trkpt lat="50.62521" lon="4.18701">
        <ele>150.7</ele>
        <time>2015-01-11T10:03:53.000Z</time>
      </trkpt>
      <trkpt lat="50.6252" lon="4.18703">
        <ele>150.8</ele>
        <time>2015-01-11T10:03:54.000Z</time>
      </trkpt>
      <trkpt lat="50.62519" lon="4.18705">
        <ele>150.9</ele>
        <time>2015-01-11T10:03:55.000Z</time>
      </trkpt>
      <trkpt lat="50.62517" lon="4.18706">
        <ele>151.1</ele>
        <time>2015-01-11T10:03:56.000Z</time>
      </trkpt>
      <trkpt lat="50.62516" lon="4.18708">
        <ele>151.2</ele>
        <time>2015-01-11T10:03:57.000Z</time>
      </trkpt>
      <trkpt lat="50.62515" lon="4.1871">
        <ele>151.3</ele>
        <time>2015-01-11T10:03:58.000Z</time>
      </trkpt>
      <trkpt lat="50.62513" lon="4.18711">
        <ele>151.4</ele>
        <time>2015-01-11T10:03:59.000Z</time>
      </trkpt>
      <trkpt lat="50.62512" lon="4.18712">
        <ele>151.5</ele>
        <time>2015-01-11T10:04:00.000Z</time>
      </trkpt>
      <trkpt lat="50.6251" lon="4.18713">
        <ele>151.6</ele>
        <time>2015-01-11T10:04:01.000Z</time>
      </trkpt>
      <trkpt lat="50.62509" lon="4.18714">
        <ele>151.6</ele>
        <time>2015-01-11T10:04:02.000Z</time>
      </trkpt>
      <trkpt lat="50.62506" lon="4.18715">
        <ele>151.7</ele>
        <time>2015-01-11T10:04:03.000Z</time>
      </trkpt>
      <trkpt lat="50.62506" lon="4.18716">
        <ele>151.7</ele>
        <time>2015-01-11T10:04:04.000Z</time>
      </trkpt>
      <trkpt lat="50.62505" lon="4.18716">
        <ele>151.7</ele>
        <time>2015-01-11T10:04:05.000Z</time>
      </trkpt>
      <trkpt lat="50.62505" lon="4.18716">
        <ele>151.7</ele>
        <time>2015-01-11T10:04:06.000Z</time>
      </trkpt>
      <trkpt lat="50.62505" lon="4.18716">
        <ele>151.7</ele>
        <time>2015-01-11T10:04:07.000Z</time>
      </trkpt>
      <trkpt lat="50.62505" lon="4.18716">
        <ele>151.7</ele>
        <time>2015-01-11T10:04:08.000Z</time>
      </trkpt>
      <trkpt lat="50.62505" lon="4.18716">
        <ele>151.7</ele>
        <time>2015-01-11T10:04:09.000Z</time>
      </trkpt>
      <trkpt lat="50.62505" lon="4.18717">
        <ele>151.8</ele>
        <time>2015-01-11T10:04:10.000Z</time>
      </trkpt>
      <trkpt lat="50.62505" lon="4.18717">
        <ele>151.8</ele>
        <time>2015-01-11T10:04:11.000Z</time>
      </trkpt>
      <trkpt lat="50.62505" lon="4.18717">
        <ele>151.8</ele>
        <time>2015-01-11T10:04:12.000Z</time>
      </trkpt>
      <trkpt lat="50.62505" lon="4.18717">
        <ele>151.8</ele>
        <time>2015-01-11T10:04:13.000Z</time>
      </trkpt>
      <trkpt lat="50.62505" lon="4.18717">
        <ele>151.8</ele>
        <time>2015-01-11T10:04:14.000Z</time>
      </trkpt>
      <trkpt lat="50.62505" lon="4.18717">
        <ele>151.8</ele>
        <time>2015-01-11T10:04:15.000Z</time>
      </trkpt>
      <trkpt lat="50.62505" lon="4.18717">
        <ele>151.8</ele>
        <time>2015-01-11T10:04:16.000Z</time>
      </trkpt>
      <trkpt lat="50.62505" lon="4.18717">
        <ele>151.8</ele>
        <time>2015-01-11T10:04:17.000Z</time>
      </trkpt>
      <trkpt lat="50.62505" lon="4.18717">
        <ele>151.8</ele>
        <time>2015-01-11T10:04:18.000Z</time>
      </trkpt>
      <trkpt lat="50.62505" lon="4.18717">
        <ele>151.8</ele>
        <time>2015-01-11T10:04:19.000Z</time>
      </trkpt>
      <trkpt lat="50.62505" lon="4.18717">
        <ele>151.8</ele>
        <time>2015-01-11T10:04:20.000Z</time>
      </trkpt>
      <trkpt lat="50.62505" lon="4.18717">
        <ele>151.8</ele>
        <time>2015-01-11T10:04:21.000Z</time>
      </trkpt>
      <trkpt lat="50.62505" lon="4.18717">
        <ele>151.8</ele>
        <time>2015-01-11T10:04:22.000Z</time>
      </trkpt>
      <trkpt lat="50.62505" lon="4.18717">
        <ele>151.8</ele>
        <time>2015-01-11T10:04:23.000Z</time>
      </trkpt>
      <trkpt lat="50.62505" lon="4.18717">
        <ele>151.8</ele>
        <time>2015-01-11T10:04:24.000Z</time>
      </trkpt>
      <trkpt lat="50.62505" lon="4.18717">
        <ele>151.8</ele>
        <time>2015-01-11T10:04:25.000Z</time>
      </trkpt>
      <trkpt lat="50.62505" lon="4.18717">
        <ele>151.8</ele>
        <time>2015-01-11T10:04:26.000Z</time>
      </trkpt>
      <trkpt lat="50.62505" lon="4.18717">
        <ele>151.8</ele>
        <time>2015-01-11T10:04:27.000Z</time>
      </trkpt>
      <trkpt lat="50.62505" lon="4.18717">
        <ele>151.8</ele>
        <time>2015-01-11T10:04:28.000Z</time>
      </trkpt>
      <trkpt lat="50.62505" lon="4.18717">
        <ele>151.8</ele>
        <time>2015-01-11T10:04:29.000Z</time>
      </trkpt>
      <trkpt lat="50.62505" lon="4.18717">
        <ele>151.8</ele>
        <time>2015-01-11T10:04:30.000Z</time>
      </trkpt>
      <trkpt lat="50.62505" lon="4.18717">
        <ele>151.8</ele>
        <time>2015-01-11T10:04:31.000Z</time>
      </trkpt>
      <trkpt lat="50.62505" lon="4.18717">
        <ele>151.8</ele>
        <time>2015-01-11T10:04:32.000Z</time>
      </trkpt>
      <trkpt lat="50.62505" lon="4.18717">
        <ele>151.8</ele>
        <time>2015-01-11T10:04:33.000Z</time>
      </trkpt>
      <trkpt lat="50.62505" lon="4.18717">
        <ele>151.8</ele>
        <time>2015-01-11T10:04:34.000Z</time>
      </trkpt>
      <trkpt lat="50.62505" lon="4.18717">
        <ele>151.8</ele>
        <time>2015-01-11T10:04:35.000Z</time>
      </trkpt>
      <trkpt lat="50.62505" lon="4.18717">
        <ele>151.8</ele>
        <time>2015-01-11T10:04:36.000Z</time>
      </trkpt>
      <trkpt lat="50.62505" lon="4.18717">
        <ele>151.8</ele>
        <time>2015-01-11T10:04:37.000Z</time>
      </trkpt>
      <trkpt lat="50.62505" lon="4.18717">
        <ele>151.8</ele>
        <time>2015-01-11T10:04:38.000Z</time>
      </trkpt>
      <trkpt lat="50.62505" lon="4.18717">
        <ele>151.8</ele>
        <time>2015-01-11T10:04:39.000Z</time>
      </trkpt>
      <trkpt lat="50.62505" lon="4.18717">
        <ele>151.8</ele>
        <time>2015-01-11T10:04:40.000Z</time>
      </trkpt>
      <trkpt lat="50.62505" lon="4.18717">
        <ele>151.8</ele>
        <time>2015-01-11T10:04:41.000Z</time>
      </trkpt>
      <trkpt lat="50.62505" lon="4.18717">
        <ele>151.8</ele>
        <time>2015-01-11T10:04:42.000Z</time>
      </trkpt>
      <trkpt lat="50.62505" lon="4.18716">
        <ele>151.7</ele>
        <time>2015-01-11T10:04:43.000Z</time>
      </trkpt>
      <trkpt lat="50.62505" lon="4.18716">
        <ele>151.7</ele>
        <time>2015-01-11T10:04:44.000Z</time>
      </trkpt>
      <trkpt lat="50.62505" lon="4.18716">
        <ele>151.7</ele>
        <time>2015-01-11T10:04:45.000Z</time>
      </trkpt>
      <trkpt lat="50.62504" lon="4.18716">
        <ele>151.7</ele>
        <time>2015-01-11T10:04:46.000Z</time>
      </trkpt>
      <trkpt lat="50.62504" lon="4.18716">
        <ele>151.7</ele>
        <time>2015-01-11T10:04:47.000Z</time>
      </trkpt>
      <trkpt lat="50.62503" lon="4.18716">
        <ele>151.7</ele>
        <time>2015-01-11T10:04:48.000Z</time>
      </trkpt>
      <trkpt lat="50.62503" lon="4.18715">
        <ele>151.7</ele>
        <time>2015-01-11T10:04:49.000Z</time>
      </trkpt>
      <trkpt lat="50.62502" lon="4.18715">
        <ele>151.7</ele>
        <time>2015-01-11T10:04:50.000Z</time>
      </trkpt>
      <trkpt lat="50.625" lon="4.18713">
        <ele>151.7</ele>
        <time>2015-01-11T10:04:51.000Z</time>
      </trkpt>
      <trkpt lat="50.625" lon="4.18713">
        <ele>151.7</ele>
        <time>2015-01-11T10:04:52.000Z</time>
      </trkpt>
      <trkpt lat="50.625" lon="4.18713">
        <ele>151.7</ele>
        <time>2015-01-11T10:04:53.000Z</time>
      </trkpt>
      <trkpt lat="50.62499" lon="4.18712">
        <ele>151.6</ele>
        <time>2015-01-11T10:04:54.000Z</time>
      </trkpt>
      <trkpt lat="50.62499" lon="4.18711">
        <ele>151.6</ele>
        <time>2015-01-11T10:04:55.000Z</time>
      </trkpt>
      <trkpt lat="50.62498" lon="4.18711">
        <ele>151.6</ele>
        <time>2015-01-11T10:04:56.000Z</time>
      </trkpt>
      <trkpt lat="50.62497" lon="4.18709">
        <ele>151.5</ele>
        <time>2015-01-11T10:04:57.000Z</time>
      </trkpt>
      <trkpt lat="50.62496" lon="4.18708">
        <ele>151.5</ele>
        <time>2015-01-11T10:04:58.000Z</time>
      </trkpt>
      <trkpt lat="50.62495" lon="4.18707">
        <ele>151.5</ele>
        <time>2015-01-11T10:04:59.000Z</time>
      </trkpt>
      <trkpt lat="50.62493" lon="4.18706">
        <ele>151.4</ele>
        <time>2015-01-11T10:05:00.000Z</time>
      </trkpt>
      <trkpt lat="50.62492" lon="4.18704">
        <ele>151.3</ele>
        <time>2015-01-11T10:05:01.000Z</time>
      </trkpt>
      <trkpt lat="50.62491" lon="4.18703">
        <ele>151.3</ele>
        <time>2015-01-11T10:05:02.000Z</time>
      </trkpt>
      <trkpt lat="50.6249" lon="4.18701">
        <ele>151.2</ele>
        <time>2015-01-11T10:05:03.000Z</time>
      </trkpt>
      <trkpt lat="50.62488" lon="4.187">
        <ele>151.2</ele>
        <time>2015-01-11T10:05:04.000Z</time>
      </trkpt>
      <trkpt lat="50.62487" lon="4.18698">
        <ele>151.1</ele>
        <time>2015-01-11T10:05:05.000Z</time>
      </trkpt>
      <trkpt lat="50.62486" lon="4.18697">
        <ele>151.1</ele>
        <time>2015-01-11T10:05:06.000Z</time>
      </trkpt>
      <trkpt lat="50.62485" lon="4.18696">
        <ele>151.1</ele>
        <time>2015-01-11T10:05:07.000Z</time>
      </trkpt>
      <trkpt lat="50.62484" lon="4.18695">
        <ele>151</ele>
        <time>2015-01-11T10:05:08.000Z</time>
      </trkpt>
      <trkpt lat="50.62483" lon="4.18694">
        <ele>151</ele>
        <time>2015-01-11T10:05:09.000Z</time>
      </trkpt>
      <trkpt lat="50.62481" lon="4.18693">
        <ele>151</ele>
        <time>2015-01-11T10:05:10.000Z</time>
      </trkpt>
      <trkpt lat="50.6248" lon="4.18691">
        <ele>151</ele>
        <time>2015-01-11T10:05:11.000Z</time>
      </trkpt>
      <trkpt lat="50.62479" lon="4.1869">
        <ele>151</ele>
        <time>2015-01-11T10:05:12.000Z</time>
      </trkpt>
      <trkpt lat="50.62477" lon="4.18688">
        <ele>151</ele>
        <time>2015-01-11T10:05:13.000Z</time>
      </trkpt>
      <trkpt lat="50.62476" lon="4.18686">
        <ele>151</ele>
        <time>2015-01-11T10:05:14.000Z</time>
      </trkpt>
      <trkpt lat="50.62474" lon="4.18685">
        <ele>151</ele>
        <time>2015-01-11T10:05:15.000Z</time>
      </trkpt>
      <trkpt lat="50.62473" lon="4.18683">
        <ele>151</ele>
        <time>2015-01-11T10:05:16.000Z</time>
      </trkpt>
      <trkpt lat="50.62471" lon="4.18681">
        <ele>151</ele>
        <time>2015-01-11T10:05:17.000Z</time>
      </trkpt>
      <trkpt lat="50.6247" lon="4.18679">
        <ele>151</ele>
        <time>2015-01-11T10:05:18.000Z</time>
      </trkpt>
      <trkpt lat="50.62468" lon="4.18678">
        <ele>151</ele>
        <time>2015-01-11T10:05:19.000Z</time>
      </trkpt>
      <trkpt lat="50.62467" lon="4.18676">
        <ele>151</ele>
        <time>2015-01-11T10:05:20.000Z</time>
      </trkpt>
      <trkpt lat="50.62465" lon="4.18674">
        <ele>151</ele>
        <time>2015-01-11T10:05:21.000Z</time>
      </trkpt>
      <trkpt lat="50.62464" lon="4.18672">
        <ele>151</ele>
        <time>2015-01-11T10:05:22.000Z</time>
      </trkpt>
      <trkpt lat="50.62462" lon="4.1867">
        <ele>151</ele>
        <time>2015-01-11T10:05:23.000Z</time>
      </trkpt>
      <trkpt lat="50.62461" lon="4.18668">
        <ele>151</ele>
        <time>2015-01-11T10:05:24.000Z</time>
      </trkpt>
      <trkpt lat="50.62459" lon="4.18666">
        <ele>151</ele>
        <time>2015-01-11T10:05:25.000Z</time>
      </trkpt>
      <trkpt lat="50.62458" lon="4.18664">
        <ele>150.9</ele>
        <time>2015-01-11T10:05:26.000Z</time>
      </trkpt>
      <trkpt lat="50.62456" lon="4.18662">
        <ele>150.8</ele>
        <time>2015-01-11T10:05:27.000Z</time>
      </trkpt>
      <trkpt lat="50.62454" lon="4.1866">
        <ele>150.8</ele>
        <time>2015-01-11T10:05:28.000Z</time>
      </trkpt>
      <trkpt lat="50.62452" lon="4.18658">
        <ele>150.7</ele>
        <time>2015-01-11T10:05:29.000Z</time>
      </trkpt>
      <trkpt lat="50.6245" lon="4.18657">
        <ele>150.6</ele>
        <time>2015-01-11T10:05:30.000Z</time>
      </trkpt>
      <trkpt lat="50.62449" lon="4.18655">
        <ele>150.6</ele>
        <time>2015-01-11T10:05:31.000Z</time>
      </trkpt>
      <trkpt lat="50.62447" lon="4.18653">
        <ele>150.5</ele>
        <time>2015-01-11T10:05:32.000Z</time>
      </trkpt>
      <trkpt lat="50.62446" lon="4.18651">
        <ele>150.4</ele>
        <time>2015-01-11T10:05:33.000Z</time>
      </trkpt>
      <trkpt lat="50.62444" lon="4.1865">
        <ele>150.4</ele>
        <time>2015-01-11T10:05:34.000Z</time>
      </trkpt>
      <trkpt lat="50.62443" lon="4.18648">
        <ele>150.3</ele>
        <time>2015-01-11T10:05:35.000Z</time>
      </trkpt>
      <trkpt lat="50.62441" lon="4.18647">
        <ele>150.2</ele>
        <time>2015-01-11T10:05:36.000Z</time>
      </trkpt>
      <trkpt lat="50.6244" lon="4.18645">
        <ele>150.2</ele>
        <time>2015-01-11T10:05:37.000Z</time>
      </trkpt>
      <trkpt lat="50.62439" lon="4.18643">
        <ele>150.1</ele>
        <time>2015-01-11T10:05:38.000Z</time>
      </trkpt>
      <trkpt lat="50.62437" lon="4.18641">
        <ele>150.1</ele>
        <time>2015-01-11T10:05:39.000Z</time>
      </trkpt>
      <trkpt lat="50.62436" lon="4.18639">
        <ele>150</ele>
        <time>2015-01-11T10:05:40.000Z</time>
      </trkpt>
      <trkpt lat="50.62434" lon="4.18637">
        <ele>149.9</ele>
        <time>2015-01-11T10:05:41.000Z</time>
      </trkpt>
      <trkpt lat="50.62432" lon="4.18635">
        <ele>149.8</ele>
        <time>2015-01-11T10:05:42.000Z</time>
      </trkpt>
      <trkpt lat="50.62431" lon="4.18632">
        <ele>149.8</ele>
        <time>2015-01-11T10:05:43.000Z</time>
      </trkpt>
      <trkpt lat="50.62429" lon="4.1863">
        <ele>149.7</ele>
        <time>2015-01-11T10:05:44.000Z</time>
      </trkpt>
      <trkpt lat="50.62428" lon="4.18628">
        <ele>149.7</ele>
        <time>2015-01-11T10:05:45.000Z</time>
      </trkpt>
      <trkpt lat="50.62426" lon="4.18626">
        <ele>149.7</ele>
        <time>2015-01-11T10:05:46.000Z</time>
      </trkpt>
      <trkpt lat="50.62424" lon="4.18624">
        <ele>149.7</ele>
        <time>2015-01-11T10:05:47.000Z</time>
      </trkpt>
      <trkpt lat="50.62422" lon="4.18621">
        <ele>149.7</ele>
        <time>2015-01-11T10:05:48.000Z</time>
      </trkpt>
      <trkpt lat="50.62421" lon="4.18619">
        <ele>149.8</ele>
        <time>2015-01-11T10:05:49.000Z</time>
      </trkpt>
      <trkpt lat="50.62418" lon="4.18617">
        <ele>149.9</ele>
        <time>2015-01-11T10:05:50.000Z</time>
      </trkpt>
      <trkpt lat="50.62415" lon="4.18614">
        <ele>150</ele>
        <time>2015-01-11T10:05:51.000Z</time>
      </trkpt>
      <trkpt lat="50.62413" lon="4.18612">
        <ele>150</ele>
        <time>2015-01-11T10:05:52.000Z</time>
      </trkpt>
      <trkpt lat="50.62411" lon="4.1861">
        <ele>150</ele>
        <time>2015-01-11T10:05:53.000Z</time>
      </trkpt>
      <trkpt lat="50.6241" lon="4.18609">
        <ele>149.9</ele>
        <time>2015-01-11T10:05:54.000Z</time>
      </trkpt>
      <trkpt lat="50.62408" lon="4.18607">
        <ele>149.8</ele>
        <time>2015-01-11T10:05:55.000Z</time>
      </trkpt>
      <trkpt lat="50.62406" lon="4.18605">
        <ele>149.8</ele>
        <time>2015-01-11T10:05:56.000Z</time>
      </trkpt>
      <trkpt lat="50.62404" lon="4.18603">
        <ele>149.7</ele>
        <time>2015-01-11T10:05:57.000Z</time>
      </trkpt>
      <trkpt lat="50.62402" lon="4.18601">
        <ele>149.6</ele>
        <time>2015-01-11T10:05:58.000Z</time>
      </trkpt>
      <trkpt lat="50.62401" lon="4.18599">
        <ele>149.6</ele>
        <time>2015-01-11T10:05:59.000Z</time>
      </trkpt>
      <trkpt lat="50.62399" lon="4.18597">
        <ele>149.5</ele>
        <time>2015-01-11T10:06:00.000Z</time>
      </trkpt>
      <trkpt lat="50.62397" lon="4.18595">
        <ele>149.4</ele>
        <time>2015-01-11T10:06:01.000Z</time>
      </trkpt>
      <trkpt lat="50.62395" lon="4.18593">
        <ele>149.4</ele>
        <time>2015-01-11T10:06:02.000Z</time>
      </trkpt>
      <trkpt lat="50.62393" lon="4.18591">
        <ele>149.3</ele>
        <time>2015-01-11T10:06:03.000Z</time>
      </trkpt>
      <trkpt lat="50.62392" lon="4.18589">
        <ele>149.2</ele>
        <time>2015-01-11T10:06:04.000Z</time>
      </trkpt>
      <trkpt lat="50.6239" lon="4.18586">
        <ele>149.1</ele>
        <time>2015-01-11T10:06:05.000Z</time>
      </trkpt>
      <trkpt lat="50.62388" lon="4.18585">
        <ele>149</ele>
        <time>2015-01-11T10:06:06.000Z</time>
      </trkpt>
      <trkpt lat="50.62387" lon="4.18583">
        <ele>149</ele>
        <time>2015-01-11T10:06:07.000Z</time>
      </trkpt>
      <trkpt lat="50.62385" lon="4.18581">
        <ele>149</ele>
        <time>2015-01-11T10:06:08.000Z</time>
      </trkpt>
      <trkpt lat="50.62383" lon="4.18579">
        <ele>149</ele>
        <time>2015-01-11T10:06:09.000Z</time>
      </trkpt>
      <trkpt lat="50.62382" lon="4.18576">
        <ele>149</ele>
        <time>2015-01-11T10:06:10.000Z</time>
      </trkpt>
      <trkpt lat="50.6238" lon="4.18574">
        <ele>149</ele>
        <time>2015-01-11T10:06:11.000Z</time>
      </trkpt>
      <trkpt lat="50.62378" lon="4.18572">
        <ele>149</ele>
        <time>2015-01-11T10:06:12.000Z</time>
      </trkpt>
      <trkpt lat="50.62376" lon="4.18569">
        <ele>149</ele>
        <time>2015-01-11T10:06:13.000Z</time>
      </trkpt>
      <trkpt lat="50.62374" lon="4.18566">
        <ele>149</ele>
        <time>2015-01-11T10:06:14.000Z</time>
      </trkpt>
      <trkpt lat="50.62373" lon="4.18564">
        <ele>149</ele>
        <time>2015-01-11T10:06:15.000Z</time>
      </trkpt>
      <trkpt lat="50.62371" lon="4.18561">
        <ele>149</ele>
        <time>2015-01-11T10:06:16.000Z</time>
      </trkpt>
      <trkpt lat="50.62369" lon="4.18558">
        <ele>149</ele>
        <time>2015-01-11T10:06:17.000Z</time>
      </trkpt>
      <trkpt lat="50.62367" lon="4.18556">
        <ele>149</ele>
        <time>2015-01-11T10:06:18.000Z</time>
      </trkpt>
      <trkpt lat="50.62365" lon="4.18553">
        <ele>148.9</ele>
        <time>2015-01-11T10:06:19.000Z</time>
      </trkpt>
      <trkpt lat="50.62363" lon="4.18551">
        <ele>148.8</ele>
        <time>2015-01-11T10:06:20.000Z</time>
      </trkpt>
      <trkpt lat="50.62361" lon="4.18549">
        <ele>148.8</ele>
        <time>2015-01-11T10:06:21.000Z</time>
      </trkpt>
      <trkpt lat="50.62358" lon="4.18547">
        <ele>148.7</ele>
        <time>2015-01-11T10:06:22.000Z</time>
      </trkpt>
      <trkpt lat="50.62356" lon="4.18544">
        <ele>148.6</ele>
        <time>2015-01-11T10:06:23.000Z</time>
      </trkpt>
      <trkpt lat="50.62354" lon="4.18542">
        <ele>148.5</ele>
        <time>2015-01-11T10:06:24.000Z</time>
      </trkpt>
      <trkpt lat="50.62352" lon="4.18539">
        <ele>148.4</ele>
        <time>2015-01-11T10:06:25.000Z</time>
      </trkpt>
      <trkpt lat="50.6235" lon="4.18536">
        <ele>148.3</ele>
        <time>2015-01-11T10:06:26.000Z</time>
      </trkpt>
      <trkpt lat="50.62347" lon="4.18533">
        <ele>148.2</ele>
        <time>2015-01-11T10:06:27.000Z</time>
      </trkpt>
      <trkpt lat="50.62345" lon="4.1853">
        <ele>148.1</ele>
        <time>2015-01-11T10:06:28.000Z</time>
      </trkpt>
      <trkpt lat="50.62343" lon="4.18527">
        <ele>148</ele>
        <time>2015-01-11T10:06:29.000Z</time>
      </trkpt>
      <trkpt lat="50.6234" lon="4.18524">
        <ele>147.9</ele>
        <time>2015-01-11T10:06:30.000Z</time>
      </trkpt>
      <trkpt lat="50.62338" lon="4.18521">
        <ele>147.8</ele>
        <time>2015-01-11T10:06:31.000Z</time>
      </trkpt>
      <trkpt lat="50.62336" lon="4.18519">
        <ele>147.7</ele>
        <time>2015-01-11T10:06:32.000Z</time>
      </trkpt>
      <trkpt lat="50.62334" lon="4.18516">
        <ele>147.6</ele>
        <time>2015-01-11T10:06:33.000Z</time>
      </trkpt>
      <trkpt lat="50.62331" lon="4.18514">
        <ele>147.5</ele>
        <time>2015-01-11T10:06:34.000Z</time>
      </trkpt>
      <trkpt lat="50.62329" lon="4.18512">
        <ele>147.4</ele>
        <time>2015-01-11T10:06:35.000Z</time>
      </trkpt>
      <trkpt lat="50.62328" lon="4.18509">
        <ele>147.3</ele>
        <time>2015-01-11T10:06:36.000Z</time>
      </trkpt>
      <trkpt lat="50.62325" lon="4.18507">
        <ele>147.2</ele>
        <time>2015-01-11T10:06:37.000Z</time>
      </trkpt>
      <trkpt lat="50.62323" lon="4.18503">
        <ele>147.1</ele>
        <time>2015-01-11T10:06:38.000Z</time>
      </trkpt>
      <trkpt lat="50.6232" lon="4.18501">
        <ele>147</ele>
        <time>2015-01-11T10:06:39.000Z</time>
      </trkpt>
      <trkpt lat="50.62318" lon="4.18498">
        <ele>147</ele>
        <time>2015-01-11T10:06:40.000Z</time>
      </trkpt>
      <trkpt lat="50.62316" lon="4.18496">
        <ele>147</ele>
        <time>2015-01-11T10:06:41.000Z</time>
      </trkpt>
      <trkpt lat="50.62315" lon="4.18494">
        <ele>147</ele>
        <time>2015-01-11T10:06:42.000Z</time>
      </trkpt>
      <trkpt lat="50.62313" lon="4.18491">
        <ele>147</ele>
        <time>2015-01-11T10:06:43.000Z</time>
      </trkpt>
      <trkpt lat="50.62311" lon="4.1849">
        <ele>147</ele>
        <time>2015-01-11T10:06:44.000Z</time>
      </trkpt>
      <trkpt lat="50.6231" lon="4.18487">
        <ele>147</ele>
        <time>2015-01-11T10:06:45.000Z</time>
      </trkpt>
      <trkpt lat="50.62308" lon="4.18485">
        <ele>147</ele>
        <time>2015-01-11T10:06:46.000Z</time>
      </trkpt>
      <trkpt lat="50.62307" lon="4.18483">
        <ele>147</ele>
        <time>2015-01-11T10:06:47.000Z</time>
      </trkpt>
      <trkpt lat="50.62305" lon="4.1848">
        <ele>147</ele>
        <time>2015-01-11T10:06:48.000Z</time>
      </trkpt>
      <trkpt lat="50.62303" lon="4.18479">
        <ele>146.9</ele>
        <time>2015-01-11T10:06:49.000Z</time>
      </trkpt>
      <trkpt lat="50.62302" lon="4.18476">
        <ele>146.9</ele>
        <time>2015-01-11T10:06:50.000Z</time>
      </trkpt>
      <trkpt lat="50.623" lon="4.18474">
        <ele>146.8</ele>
        <time>2015-01-11T10:06:51.000Z</time>
      </trkpt>
      <trkpt lat="50.62299" lon="4.18472">
        <ele>146.7</ele>
        <time>2015-01-11T10:06:52.000Z</time>
      </trkpt>
      <trkpt lat="50.62297" lon="4.1847">
        <ele>146.6</ele>
        <time>2015-01-11T10:06:53.000Z</time>
      </trkpt>
      <trkpt lat="50.62295" lon="4.18468">
        <ele>146.5</ele>
        <time>2015-01-11T10:06:54.000Z</time>
      </trkpt>
      <trkpt lat="50.62294" lon="4.18465">
        <ele>146.4</ele>
        <time>2015-01-11T10:06:55.000Z</time>
      </trkpt>
      <trkpt lat="50.62292" lon="4.18463">
        <ele>146.3</ele>
        <time>2015-01-11T10:06:56.000Z</time>
      </trkpt>
      <trkpt lat="50.6229" lon="4.1846">
        <ele>146.2</ele>
        <time>2015-01-11T10:06:57.000Z</time>
      </trkpt>
      <trkpt lat="50.62288" lon="4.18457">
        <ele>146.2</ele>
        <time>2015-01-11T10:06:58.000Z</time>
      </trkpt>
      <trkpt lat="50.62286" lon="4.18455">
        <ele>146.1</ele>
        <time>2015-01-11T10:06:59.000Z</time>
      </trkpt>
      <trkpt lat="50.62284" lon="4.18452">
        <ele>146.1</ele>
        <time>2015-01-11T10:07:00.000Z</time>
      </trkpt>
      <trkpt lat="50.62283" lon="4.18449">
        <ele>146</ele>
        <time>2015-01-11T10:07:01.000Z</time>
      </trkpt>
      <trkpt lat="50.62281" lon="4.18447">
        <ele>146</ele>
        <time>2015-01-11T10:07:02.000Z</time>
      </trkpt>
      <trkpt lat="50.62279" lon="4.18445">
        <ele>146</ele>
        <time>2015-01-11T10:07:03.000Z</time>
      </trkpt>
      <trkpt lat="50.62277" lon="4.18442">
        <ele>145.9</ele>
        <time>2015-01-11T10:07:04.000Z</time>
      </trkpt>
      <trkpt lat="50.62275" lon="4.1844">
        <ele>145.8</ele>
        <time>2015-01-11T10:07:05.000Z</time>
      </trkpt>
      <trkpt lat="50.62273" lon="4.18437">
        <ele>145.7</ele>
        <time>2015-01-11T10:07:06.000Z</time>
      </trkpt>
      <trkpt lat="50.6227" lon="4.18435">
        <ele>145.6</ele>
        <time>2015-01-11T10:07:07.000Z</time>
      </trkpt>
      <trkpt lat="50.62268" lon="4.18432">
        <ele>145.6</ele>
        <time>2015-01-11T10:07:08.000Z</time>
      </trkpt>
      <trkpt lat="50.62265" lon="4.1843">
        <ele>145.5</ele>
        <time>2015-01-11T10:07:09.000Z</time>
      </trkpt>
      <trkpt lat="50.62262" lon="4.18428">
        <ele>145.4</ele>
        <time>2015-01-11T10:07:10.000Z</time>
      </trkpt>
      <trkpt lat="50.6226" lon="4.18426">
        <ele>145.3</ele>
        <time>2015-01-11T10:07:11.000Z</time>
      </trkpt>
      <trkpt lat="50.62257" lon="4.18423">
        <ele>145.2</ele>
        <time>2015-01-11T10:07:12.000Z</time>
      </trkpt>
      <trkpt lat="50.62255" lon="4.18421">
        <ele>145.1</ele>
        <time>2015-01-11T10:07:13.000Z</time>
      </trkpt>
      <trkpt lat="50.62253" lon="4.18418">
        <ele>145.1</ele>
        <time>2015-01-11T10:07:14.000Z</time>
      </trkpt>
      <trkpt lat="50.6225" lon="4.18416">
        <ele>145</ele>
        <time>2015-01-11T10:07:15.000Z</time>
      </trkpt>
      <trkpt lat="50.62248" lon="4.18414">
        <ele>144.8</ele>
        <time>2015-01-11T10:07:16.000Z</time>
      </trkpt>
      <trkpt lat="50.62245" lon="4.18412">
        <ele>144.7</ele>
        <time>2015-01-11T10:07:17.000Z</time>
      </trkpt>
      <trkpt lat="50.62242" lon="4.1841">
        <ele>144.7</ele>
        <time>2015-01-11T10:07:18.000Z</time>
      </trkpt>
      <trkpt lat="50.6224" lon="4.18408">
        <ele>144.6</ele>
        <time>2015-01-11T10:07:19.000Z</time>
      </trkpt>
      <trkpt lat="50.62238" lon="4.18406">
        <ele>144.6</ele>
        <time>2015-01-11T10:07:20.000Z</time>
      </trkpt>
      <trkpt lat="50.62235" lon="4.18404">
        <ele>144.6</ele>
        <time>2015-01-11T10:07:21.000Z</time>
      </trkpt>
      <trkpt lat="50.62233" lon="4.18402">
        <ele>144.6</ele>
        <time>2015-01-11T10:07:22.000Z</time>
      </trkpt>
      <trkpt lat="50.6223" lon="4.184">
        <ele>144.7</ele>
        <time>2015-01-11T10:07:23.000Z</time>
      </trkpt>
      <trkpt lat="50.62228" lon="4.18398">
        <ele>144.7</ele>
        <time>2015-01-11T10:07:24.000Z</time>
      </trkpt>
      <trkpt lat="50.62225" lon="4.18396">
        <ele>144.8</ele>
        <time>2015-01-11T10:07:25.000Z</time>
      </trkpt>
      <trkpt lat="50.62223" lon="4.18394">
        <ele>145</ele>
        <time>2015-01-11T10:07:26.000Z</time>
      </trkpt>
      <trkpt lat="50.62221" lon="4.18392">
        <ele>145</ele>
        <time>2015-01-11T10:07:27.000Z</time>
      </trkpt>
      <trkpt lat="50.62219" lon="4.18389">
        <ele>145</ele>
        <time>2015-01-11T10:07:28.000Z</time>
      </trkpt>
      <trkpt lat="50.62217" lon="4.18387">
        <ele>144.9</ele>
        <time>2015-01-11T10:07:29.000Z</time>
      </trkpt>
      <trkpt lat="50.62215" lon="4.18385">
        <ele>144.9</ele>
        <time>2015-01-11T10:07:30.000Z</time>
      </trkpt>
      <trkpt lat="50.62213" lon="4.18383">
        <ele>144.8</ele>
        <time>2015-01-11T10:07:31.000Z</time>
      </trkpt>
      <trkpt lat="50.62211" lon="4.18381">
        <ele>144.7</ele>
        <time>2015-01-11T10:07:32.000Z</time>
      </trkpt>
      <trkpt lat="50.62209" lon="4.18379">
        <ele>144.6</ele>
        <time>2015-01-11T10:07:33.000Z</time>
      </trkpt>
      <trkpt lat="50.62208" lon="4.18376">
        <ele>144.5</ele>
        <time>2015-01-11T10:07:34.000Z</time>
      </trkpt>
      <trkpt lat="50.62206" lon="4.18374">
        <ele>144.5</ele>
        <time>2015-01-11T10:07:35.000Z</time>
      </trkpt>
      <trkpt lat="50.62204" lon="4.18372">
        <ele>144.4</ele>
        <time>2015-01-11T10:07:36.000Z</time>
      </trkpt>
      <trkpt lat="50.62202" lon="4.18369">
        <ele>144.3</ele>
        <time>2015-01-11T10:07:37.000Z</time>
      </trkpt>
      <trkpt lat="50.622" lon="4.18366">
        <ele>144.2</ele>
        <time>2015-01-11T10:07:38.000Z</time>
      </trkpt>
      <trkpt lat="50.62198" lon="4.18363">
        <ele>144.1</ele>
        <time>2015-01-11T10:07:39.000Z</time>
      </trkpt>
      <trkpt lat="50.62196" lon="4.1836">
        <ele>144</ele>
        <time>2015-01-11T10:07:40.000Z</time>
      </trkpt>
      <trkpt lat="50.62195" lon="4.18357">
        <ele>144.1</ele>
        <time>2015-01-11T10:07:41.000Z</time>
      </trkpt>
      <trkpt lat="50.62193" lon="4.18354">
        <ele>144.3</ele>
        <time>2015-01-11T10:07:42.000Z</time>
      </trkpt>
      <trkpt lat="50.62192" lon="4.18351">
        <ele>144.4</ele>
        <time>2015-01-11T10:07:43.000Z</time>
      </trkpt>
      <trkpt lat="50.62191" lon="4.18348">
        <ele>144.5</ele>
        <time>2015-01-11T10:07:44.000Z</time>
      </trkpt>
      <trkpt lat="50.62189" lon="4.18346">
        <ele>144.6</ele>
        <time>2015-01-11T10:07:45.000Z</time>
      </trkpt>
      <trkpt lat="50.62188" lon="4.18344">
        <ele>144.7</ele>
        <time>2015-01-11T10:07:46.000Z</time>
      </trkpt>
      <trkpt lat="50.62188" lon="4.18342">
        <ele>144.8</ele>
        <time>2015-01-11T10:07:47.000Z</time>
      </trkpt>
      <trkpt lat="50.62185" lon="4.18338">
        <ele>144.9</ele>
        <time>2015-01-11T10:07:48.000Z</time>
      </trkpt>
      <trkpt lat="50.62185" lon="4.18337">
        <ele>144.9</ele>
        <time>2015-01-11T10:07:49.000Z</time>
      </trkpt>
      <trkpt lat="50.62185" lon="4.18336">
        <ele>144.9</ele>
        <time>2015-01-11T10:07:50.000Z</time>
      </trkpt>
      <trkpt lat="50.62185" lon="4.18335">
        <ele>145</ele>
        <time>2015-01-11T10:07:51.000Z</time>
      </trkpt>
      <trkpt lat="50.62185" lon="4.18334">
        <ele>145</ele>
        <time>2015-01-11T10:07:52.000Z</time>
      </trkpt>
      <trkpt lat="50.62184" lon="4.18334">
        <ele>145</ele>
        <time>2015-01-11T10:07:53.000Z</time>
      </trkpt>
      <trkpt lat="50.62185" lon="4.18334">
        <ele>145</ele>
        <time>2015-01-11T10:07:54.000Z</time>
      </trkpt>
      <trkpt lat="50.62185" lon="4.18334">
        <ele>145</ele>
        <time>2015-01-11T10:07:55.000Z</time>
      </trkpt>
      <trkpt lat="50.62185" lon="4.18334">
        <ele>145</ele>
        <time>2015-01-11T10:07:56.000Z</time>
      </trkpt>
      <trkpt lat="50.62185" lon="4.18334">
        <ele>145</ele>
        <time>2015-01-11T10:07:57.000Z</time>
      </trkpt>
      <trkpt lat="50.62185" lon="4.18334">
        <ele>145</ele>
        <time>2015-01-11T10:07:58.000Z</time>
      </trkpt>
      <trkpt lat="50.62185" lon="4.18334">
        <ele>145</ele>
        <time>2015-01-11T10:07:59.000Z</time>
      </trkpt>
      <trkpt lat="50.62185" lon="4.18334">
        <ele>145</ele>
        <time>2015-01-11T10:08:00.000Z</time>
      </trkpt>
      <trkpt lat="50.62185" lon="4.18334">
        <ele>145</ele>
        <time>2015-01-11T10:08:01.000Z</time>
      </trkpt>
      <trkpt lat="50.62185" lon="4.18334">
        <ele>145</ele>
        <time>2015-01-11T10:08:02.000Z</time>
      </trkpt>
      <trkpt lat="50.62185" lon="4.18334">
        <ele>145</ele>
        <time>2015-01-11T10:08:03.000Z</time>
      </trkpt>
      <trkpt lat="50.62185" lon="4.18334">
        <ele>145</ele>
        <time>2015-01-11T10:08:04.000Z</time>
      </trkpt>
      <trkpt lat="50.62185" lon="4.18334">
        <ele>145</ele>
        <time>2015-01-11T10:08:05.000Z</time>
      </trkpt>
      <trkpt lat="50.62185" lon="4.18334">
        <ele>145</ele>
        <time>2015-01-11T10:08:06.000Z</time>
      </trkpt>
      <trkpt lat="50.62185" lon="4.18334">
        <ele>145</ele>
        <time>2015-01-11T10:08:07.000Z</time>
      </trkpt>
      <trkpt lat="50.62185" lon="4.18334">
        <ele>145</ele>
        <time>2015-01-11T10:08:08.000Z</time>
      </trkpt>
      <trkpt lat="50.62185" lon="4.18334">
        <ele>145</ele>
        <time>2015-01-11T10:08:09.000Z</time>
      </trkpt>
      <trkpt lat="50.62185" lon="4.18334">
        <ele>145</ele>
        <time>2015-01-11T10:08:10.000Z</time>
      </trkpt>
      <trkpt lat="50.62185" lon="4.18334">
        <ele>145</ele>
        <time>2015-01-11T10:08:11.000Z</time>
      </trkpt>
      <trkpt lat="50.62185" lon="4.18334">
        <ele>145</ele>
        <time>2015-01-11T10:08:12.000Z</time>
      </trkpt>
      <trkpt lat="50.62185" lon="4.18334">
        <ele>145</ele>
        <time>2015-01-11T10:08:13.000Z</time>
      </trkpt>
      <trkpt lat="50.62185" lon="4.18334">
        <ele>145</ele>
        <time>2015-01-11T10:08:14.000Z</time>
      </trkpt>
      <trkpt lat="50.62185" lon="4.18334">
        <ele>145</ele>
        <time>2015-01-11T10:08:15.000Z</time>
      </trkpt>
      <trkpt lat="50.62185" lon="4.18334">
        <ele>145</ele>
        <time>2015-01-11T10:08:16.000Z</time>
      </trkpt>
      <trkpt lat="50.62185" lon="4.18334">
        <ele>145</ele>
        <time>2015-01-11T10:08:17.000Z</time>
      </trkpt>
      <trkpt lat="50.62185" lon="4.18334">
        <ele>145</ele>
        <time>2015-01-11T10:08:18.000Z</time>
      </trkpt>
      <trkpt lat="50.62184" lon="4.18334">
        <ele>145</ele>
        <time>2015-01-11T10:08:19.000Z</time>
      </trkpt>
      <trkpt lat="50.62184" lon="4.18334">
        <ele>145</ele>
        <time>2015-01-11T10:08:20.000Z</time>
      </trkpt>
      <trkpt lat="50.62184" lon="4.18334">
        <ele>145</ele>
        <time>2015-01-11T10:08:21.000Z</time>
      </trkpt>
      <trkpt lat="50.62184" lon="4.18334">
        <ele>145</ele>
        <time>2015-01-11T10:08:22.000Z</time>
      </trkpt>
      <trkpt lat="50.62183" lon="4.18335">
        <ele>145</ele>
        <time>2015-01-11T10:08:23.000Z</time>
      </trkpt>
      <trkpt lat="50.62182" lon="4.18336">
        <ele>144.9</ele>
        <time>2015-01-11T10:08:24.000Z</time>
      </trkpt>
      <trkpt lat="50.62181" lon="4.18337">
        <ele>144.9</ele>
        <time>2015-01-11T10:08:25.000Z</time>
      </trkpt>
      <trkpt lat="50.62181" lon="4.18339">
        <ele>144.9</ele>
        <time>2015-01-11T10:08:26.000Z</time>
      </trkpt>
      <trkpt lat="50.6218" lon="4.18341">
        <ele>144.9</ele>
        <time>2015-01-11T10:08:27.000Z</time>
      </trkpt>
      <trkpt lat="50.6218" lon="4.18343">
        <ele>144.8</ele>
        <time>2015-01-11T10:08:28.000Z</time>
      </trkpt>
      <trkpt lat="50.62179" lon="4.18345">
        <ele>144.8</ele>
        <time>2015-01-11T10:08:29.000Z</time>
      </trkpt>
      <trkpt lat="50.62179" lon="4.18346">
        <ele>144.8</ele>
        <time>2015-01-11T10:08:30.000Z</time>
      </trkpt>
      <trkpt lat="50.62178" lon="4.18348">
        <ele>144.8</ele>
        <time>2015-01-11T10:08:31.000Z</time>
      </trkpt>
      <trkpt lat="50.62178" lon="4.1835">
        <ele>144.8</ele>
        <time>2015-01-11T10:08:32.000Z</time>
      </trkpt>
      <trkpt lat="50.62176" lon="4.18354">
        <ele>144.8</ele>
        <time>2015-01-11T10:08:33.000Z</time>
      </trkpt>
      <trkpt lat="50.62176" lon="4.18354">
        <ele>144.8</ele>
        <time>2015-01-11T10:08:34.000Z</time>
      </trkpt>
      <trkpt lat="50.62176" lon="4.18354">
        <ele>144.8</ele>
        <time>2015-01-11T10:08:35.000Z</time>
      </trkpt>
      <trkpt lat="50.62175" lon="4.18353">
        <ele>144.8</ele>
        <time>2015-01-11T10:08:36.000Z</time>
      </trkpt>
      <trkpt lat="50.62174" lon="4.18353">
        <ele>144.8</ele>
        <time>2015-01-11T10:08:37.000Z</time>
      </trkpt>
      <trkpt lat="50.62174" lon="4.18353">
        <ele>144.8</ele>
        <time>2015-01-11T10:08:38.000Z</time>
      </trkpt>
      <trkpt lat="50.62173" lon="4.18353">
        <ele>144.8</ele>
        <time>2015-01-11T10:08:39.000Z</time>
      </trkpt>
      <trkpt lat="50.62172" lon="4.18352">
        <ele>144.9</ele>
        <time>2015-01-11T10:08:40.000Z</time>
      </trkpt>
      <trkpt lat="50.62169" lon="4.18352">
        <ele>144.9</ele>
        <time>2015-01-11T10:08:41.000Z</time>
      </trkpt>
      <trkpt lat="50.62169" lon="4.18352">
        <ele>144.9</ele>
        <time>2015-01-11T10:08:42.000Z</time>
      </trkpt>
      <trkpt lat="50.62171" lon="4.18353">
        <ele>144.9</ele>
        <time>2015-01-11T10:08:43.000Z</time>
      </trkpt>
      <trkpt lat="50.62171" lon="4.18353">
        <ele>144.9</ele>
        <time>2015-01-11T10:08:44.000Z</time>
      </trkpt>
      <trkpt lat="50.62172" lon="4.18354">
        <ele>144.9</ele>
        <time>2015-01-11T10:08:45.000Z</time>
      </trkpt>
      <trkpt lat="50.62172" lon="4.18354">
        <ele>144.9</ele>
        <time>2015-01-11T10:08:46.000Z</time>
      </trkpt>
      <trkpt lat="50.62173" lon="4.18354">
        <ele>144.8</ele>
        <time>2015-01-11T10:08:47.000Z</time>
      </trkpt>
      <trkpt lat="50.62173" lon="4.18354">
        <ele>144.8</ele>
        <time>2015-01-11T10:08:48.000Z</time>
      </trkpt>
      <trkpt lat="50.62173" lon="4.18355">
        <ele>144.8</ele>
        <time>2015-01-11T10:08:49.000Z</time>
      </trkpt>
      <trkpt lat="50.62173" lon="4.18356">
        <ele>144.8</ele>
        <time>2015-01-11T10:08:50.000Z</time>
      </trkpt>
      <trkpt lat="50.62174" lon="4.18357">
        <ele>144.8</ele>
        <time>2015-01-11T10:08:51.000Z</time>
      </trkpt>
      <trkpt lat="50.62174" lon="4.18358">
        <ele>144.8</ele>
        <time>2015-01-11T10:08:52.000Z</time>
      </trkpt>
      <trkpt lat="50.62174" lon="4.18359">
        <ele>144.8</ele>
        <time>2015-01-11T10:08:53.000Z</time>
      </trkpt>
      <trkpt lat="50.62174" lon="4.18361">
        <ele>144.7</ele>
        <time>2015-01-11T10:08:54.000Z</time>
      </trkpt>
      <trkpt lat="50.62174" lon="4.18362">
        <ele>144.7</ele>
        <time>2015-01-11T10:08:55.000Z</time>
      </trkpt>
      <trkpt lat="50.62174" lon="4.18364">
        <ele>144.8</ele>
        <time>2015-01-11T10:08:56.000Z</time>
      </trkpt>
      <trkpt lat="50.62174" lon="4.18366">
        <ele>144.8</ele>
        <time>2015-01-11T10:08:57.000Z</time>
      </trkpt>
      <trkpt lat="50.62175" lon="4.18368">
        <ele>144.8</ele>
        <time>2015-01-11T10:08:58.000Z</time>
      </trkpt>
      <trkpt lat="50.62175" lon="4.1837">
        <ele>144.8</ele>
        <time>2015-01-11T10:08:59.000Z</time>
      </trkpt>
      <trkpt lat="50.62175" lon="4.18372">
        <ele>144.8</ele>
        <time>2015-01-11T10:09:00.000Z</time>
      </trkpt>
      <trkpt lat="50.62175" lon="4.18375">
        <ele>144.8</ele>
        <time>2015-01-11T10:09:01.000Z</time>
      </trkpt>
      <trkpt lat="50.62175" lon="4.18377">
        <ele>144.9</ele>
        <time>2015-01-11T10:09:02.000Z</time>
      </trkpt>
      <trkpt lat="50.62175" lon="4.1838">
        <ele>144.9</ele>
        <time>2015-01-11T10:09:03.000Z</time>
      </trkpt>
      <trkpt lat="50.62174" lon="4.18382">
        <ele>144.9</ele>
        <time>2015-01-11T10:09:04.000Z</time>
      </trkpt>
      <trkpt lat="50.62174" lon="4.18385">
        <ele>145</ele>
        <time>2015-01-11T10:09:05.000Z</time>
      </trkpt>
      <trkpt lat="50.62173" lon="4.18387">
        <ele>145</ele>
        <time>2015-01-11T10:09:06.000Z</time>
      </trkpt>
      <trkpt lat="50.62173" lon="4.1839">
        <ele>145</ele>
        <time>2015-01-11T10:09:07.000Z</time>
      </trkpt>
      <trkpt lat="50.62173" lon="4.18392">
        <ele>145</ele>
        <time>2015-01-11T10:09:08.000Z</time>
      </trkpt>
      <trkpt lat="50.62173" lon="4.18395">
        <ele>145</ele>
        <time>2015-01-11T10:09:09.000Z</time>
      </trkpt>
      <trkpt lat="50.62172" lon="4.18397">
        <ele>145</ele>
        <time>2015-01-11T10:09:10.000Z</time>
      </trkpt>
      <trkpt lat="50.62172" lon="4.184">
        <ele>145</ele>
        <time>2015-01-11T10:09:11.000Z</time>
      </trkpt>
      <trkpt lat="50.62172" lon="4.18403">
        <ele>145</ele>
        <time>2015-01-11T10:09:12.000Z</time>
      </trkpt>
      <trkpt lat="50.62172" lon="4.18405">
        <ele>145</ele>
        <time>2015-01-11T10:09:13.000Z</time>
      </trkpt>
      <trkpt lat="50.62172" lon="4.18407">
        <ele>145</ele>
        <time>2015-01-11T10:09:14.000Z</time>
      </trkpt>
      <trkpt lat="50.62171" lon="4.1841">
        <ele>145</ele>
        <time>2015-01-11T10:09:15.000Z</time>
      </trkpt>
      <trkpt lat="50.62171" lon="4.18412">
        <ele>145</ele>
        <time>2015-01-11T10:09:16.000Z</time>
      </trkpt>
      <trkpt lat="50.6217" lon="4.18415">
        <ele>145</ele>
        <time>2015-01-11T10:09:17.000Z</time>
      </trkpt>
      <trkpt lat="50.62169" lon="4.18417">
        <ele>145</ele>
        <time>2015-01-11T10:09:18.000Z</time>
      </trkpt>
      <trkpt lat="50.62169" lon="4.1842">
        <ele>145</ele>
        <time>2015-01-11T10:09:19.000Z</time>
      </trkpt>
      <trkpt lat="50.62168" lon="4.18423">
        <ele>145</ele>
        <time>2015-01-11T10:09:20.000Z</time>
      </trkpt>
      <trkpt lat="50.62168" lon="4.18426">
        <ele>145</ele>
        <time>2015-01-11T10:09:21.000Z</time>
      </trkpt>
      <trkpt lat="50.62167" lon="4.18428">
        <ele>145</ele>
        <time>2015-01-11T10:09:22.000Z</time>
      </trkpt>
      <trkpt lat="50.62167" lon="4.1843">
        <ele>145</ele>
        <time>2015-01-11T10:09:23.000Z</time>
      </trkpt>
      <trkpt lat="50.62166" lon="4.18433">
        <ele>145</ele>
        <time>2015-01-11T10:09:24.000Z</time>
      </trkpt>
      <trkpt lat="50.62166" lon="4.18436">
        <ele>145</ele>
        <time>2015-01-11T10:09:25.000Z</time>
      </trkpt>
      <trkpt lat="50.62165" lon="4.18438">
        <ele>144.9</ele>
        <time>2015-01-11T10:09:26.000Z</time>
      </trkpt>
      <trkpt lat="50.62164" lon="4.18441">
        <ele>144.9</ele>
        <time>2015-01-11T10:09:27.000Z</time>
      </trkpt>
      <trkpt lat="50.62164" lon="4.18444">
        <ele>144.9</ele>
        <time>2015-01-11T10:09:28.000Z</time>
      </trkpt>
      <trkpt lat="50.62164" lon="4.18447">
        <ele>144.9</ele>
        <time>2015-01-11T10:09:29.000Z</time>
      </trkpt>
      <trkpt lat="50.62163" lon="4.1845">
        <ele>144.9</ele>
        <time>2015-01-11T10:09:30.000Z</time>
      </trkpt>
      <trkpt lat="50.62163" lon="4.18452">
        <ele>144.9</ele>
        <time>2015-01-11T10:09:31.000Z</time>
      </trkpt>
      <trkpt lat="50.62163" lon="4.18455">
        <ele>144.9</ele>
        <time>2015-01-11T10:09:32.000Z</time>
      </trkpt>
      <trkpt lat="50.62163" lon="4.18458">
        <ele>144.9</ele>
        <time>2015-01-11T10:09:33.000Z</time>
      </trkpt>
      <trkpt lat="50.62162" lon="4.18461">
        <ele>144.9</ele>
        <time>2015-01-11T10:09:34.000Z</time>
      </trkpt>
      <trkpt lat="50.62162" lon="4.18464">
        <ele>145</ele>
        <time>2015-01-11T10:09:35.000Z</time>
      </trkpt>
      <trkpt lat="50.62162" lon="4.18467">
        <ele>145</ele>
        <time>2015-01-11T10:09:36.000Z</time>
      </trkpt>
      <trkpt lat="50.62162" lon="4.18471">
        <ele>145</ele>
        <time>2015-01-11T10:09:37.000Z</time>
      </trkpt>
      <trkpt lat="50.62161" lon="4.18474">
        <ele>145</ele>
        <time>2015-01-11T10:09:38.000Z</time>
      </trkpt>
      <trkpt lat="50.62161" lon="4.18477">
        <ele>145</ele>
        <time>2015-01-11T10:09:39.000Z</time>
      </trkpt>
      <trkpt lat="50.62161" lon="4.1848">
        <ele>145</ele>
        <time>2015-01-11T10:09:40.000Z</time>
      </trkpt>
      <trkpt lat="50.62161" lon="4.18483">
        <ele>145</ele>
        <time>2015-01-11T10:09:41.000Z</time>
      </trkpt>
      <trkpt lat="50.62161" lon="4.18486">
        <ele>145</ele>
        <time>2015-01-11T10:09:42.000Z</time>
      </trkpt>
      <trkpt lat="50.6216" lon="4.1849">
        <ele>145</ele>
        <time>2015-01-11T10:09:43.000Z</time>
      </trkpt>
      <trkpt lat="50.6216" lon="4.18493">
        <ele>145</ele>
        <time>2015-01-11T10:09:44.000Z</time>
      </trkpt>
      <trkpt lat="50.6216" lon="4.18496">
        <ele>145</ele>
        <time>2015-01-11T10:09:45.000Z</time>
      </trkpt>
      <trkpt lat="50.6216" lon="4.18499">
        <ele>145</ele>
        <time>2015-01-11T10:09:46.000Z</time>
      </trkpt>
      <trkpt lat="50.62159" lon="4.18502">
        <ele>145.1</ele>
        <time>2015-01-11T10:09:47.000Z</time>
      </trkpt>
      <trkpt lat="50.62159" lon="4.18505">
        <ele>145.1</ele>
        <time>2015-01-11T10:09:48.000Z</time>
      </trkpt>
      <trkpt lat="50.62158" lon="4.18508">
        <ele>145.2</ele>
        <time>2015-01-11T10:09:49.000Z</time>
      </trkpt>
      <trkpt lat="50.62157" lon="4.18511">
        <ele>145.3</ele>
        <time>2015-01-11T10:09:50.000Z</time>
      </trkpt>
      <trkpt lat="50.62157" lon="4.18514">
        <ele>145.3</ele>
        <time>2015-01-11T10:09:51.000Z</time>
      </trkpt>
      <trkpt lat="50.62156" lon="4.18518">
        <ele>145.4</ele>
        <time>2015-01-11T10:09:52.000Z</time>
      </trkpt>
      <trkpt lat="50.62155" lon="4.18521">
        <ele>145.4</ele>
        <time>2015-01-11T10:09:53.000Z</time>
      </trkpt>
      <trkpt lat="50.62154" lon="4.18524">
        <ele>145.5</ele>
        <time>2015-01-11T10:09:54.000Z</time>
      </trkpt>
      <trkpt lat="50.62153" lon="4.18528">
        <ele>145.5</ele>
        <time>2015-01-11T10:09:55.000Z</time>
      </trkpt>
      <trkpt lat="50.62152" lon="4.18531">
        <ele>145.5</ele>
        <time>2015-01-11T10:09:56.000Z</time>
      </trkpt>
      <trkpt lat="50.62151" lon="4.18534">
        <ele>145.4</ele>
        <time>2015-01-11T10:09:57.000Z</time>
      </trkpt>
      <trkpt lat="50.6215" lon="4.18537">
        <ele>145.4</ele>
        <time>2015-01-11T10:09:58.000Z</time>
      </trkpt>
      <trkpt lat="50.6215" lon="4.18541">
        <ele>145.4</ele>
        <time>2015-01-11T10:09:59.000Z</time>
      </trkpt>
      <trkpt lat="50.62149" lon="4.18543">
        <ele>145.3</ele>
        <time>2015-01-11T10:10:00.000Z</time>
      </trkpt>
      <trkpt lat="50.62147" lon="4.18548">
        <ele>145.3</ele>
        <time>2015-01-11T10:10:01.000Z</time>
      </trkpt>
      <trkpt lat="50.62146" lon="4.18551">
        <ele>145.2</ele>
        <time>2015-01-11T10:10:02.000Z</time>
      </trkpt>
      <trkpt lat="50.62145" lon="4.18554">
        <ele>145.2</ele>
        <time>2015-01-11T10:10:03.000Z</time>
      </trkpt>
      <trkpt lat="50.62143" lon="4.18557">
        <ele>145.2</ele>
        <time>2015-01-11T10:10:04.000Z</time>
      </trkpt>
      <trkpt lat="50.62142" lon="4.1856">
        <ele>145.1</ele>
        <time>2015-01-11T10:10:05.000Z</time>
      </trkpt>
      <trkpt lat="50.62142" lon="4.18563">
        <ele>145.1</ele>
        <time>2015-01-11T10:10:06.000Z</time>
      </trkpt>
      <trkpt lat="50.62141" lon="4.18566">
        <ele>145.1</ele>
        <time>2015-01-11T10:10:07.000Z</time>
      </trkpt>
      <trkpt lat="50.6214" lon="4.18569">
        <ele>145.1</ele>
        <time>2015-01-11T10:10:08.000Z</time>
      </trkpt>
      <trkpt lat="50.6214" lon="4.18571">
        <ele>145</ele>
        <time>2015-01-11T10:10:09.000Z</time>
      </trkpt>
      <trkpt lat="50.62139" lon="4.18574">
        <ele>145</ele>
        <time>2015-01-11T10:10:10.000Z</time>
      </trkpt>
      <trkpt lat="50.62139" lon="4.18577">
        <ele>145</ele>
        <time>2015-01-11T10:10:11.000Z</time>
      </trkpt>
      <trkpt lat="50.62139" lon="4.1858">
        <ele>145</ele>
        <time>2015-01-11T10:10:12.000Z</time>
      </trkpt>
      <trkpt lat="50.62139" lon="4.18584">
        <ele>145</ele>
        <time>2015-01-11T10:10:13.000Z</time>
      </trkpt>
      <trkpt lat="50.62138" lon="4.18587">
        <ele>145</ele>
        <time>2015-01-11T10:10:14.000Z</time>
      </trkpt>
      <trkpt lat="50.62138" lon="4.1859">
        <ele>145</ele>
        <time>2015-01-11T10:10:15.000Z</time>
      </trkpt>
      <trkpt lat="50.62138" lon="4.18593">
        <ele>145</ele>
        <time>2015-01-11T10:10:16.000Z</time>
      </trkpt>
      <trkpt lat="50.62138" lon="4.18596">
        <ele>145</ele>
        <time>2015-01-11T10:10:17.000Z</time>
      </trkpt>
      <trkpt lat="50.62138" lon="4.18599">
        <ele>145</ele>
        <time>2015-01-11T10:10:18.000Z</time>
      </trkpt>
      <trkpt lat="50.62138" lon="4.18602">
        <ele>145</ele>
        <time>2015-01-11T10:10:19.000Z</time>
      </trkpt>
      <trkpt lat="50.62138" lon="4.18605">
        <ele>145</ele>
        <time>2015-01-11T10:10:20.000Z</time>
      </trkpt>
      <trkpt lat="50.62138" lon="4.18608">
        <ele>145</ele>
        <time>2015-01-11T10:10:21.000Z</time>
      </trkpt>
      <trkpt lat="50.62138" lon="4.18611">
        <ele>145</ele>
        <time>2015-01-11T10:10:22.000Z</time>
      </trkpt>
      <trkpt lat="50.62138" lon="4.18614">
        <ele>145</ele>
        <time>2015-01-11T10:10:23.000Z</time>
      </trkpt>
      <trkpt lat="50.62138" lon="4.18616">
        <ele>145</ele>
        <time>2015-01-11T10:10:24.000Z</time>
      </trkpt>
      <trkpt lat="50.62138" lon="4.18618">
        <ele>145</ele>
        <time>2015-01-11T10:10:25.000Z</time>
      </trkpt>
      <trkpt lat="50.62138" lon="4.18621">
        <ele>145</ele>
        <time>2015-01-11T10:10:26.000Z</time>
      </trkpt>
      <trkpt lat="50.62138" lon="4.18624">
        <ele>145</ele>
        <time>2015-01-11T10:10:27.000Z</time>
      </trkpt>
      <trkpt lat="50.62138" lon="4.18627">
        <ele>145</ele>
        <time>2015-01-11T10:10:28.000Z</time>
      </trkpt>
      <trkpt lat="50.62137" lon="4.1863">
        <ele>144.9</ele>
        <time>2015-01-11T10:10:29.000Z</time>
      </trkpt>
      <trkpt lat="50.62137" lon="4.18633">
        <ele>144.9</ele>
        <time>2015-01-11T10:10:30.000Z</time>
      </trkpt>
      <trkpt lat="50.62136" lon="4.18637">
        <ele>144.9</ele>
        <time>2015-01-11T10:10:31.000Z</time>
      </trkpt>
      <trkpt lat="50.62135" lon="4.18641">
        <ele>144.8</ele>
        <time>2015-01-11T10:10:32.000Z</time>
      </trkpt>
      <trkpt lat="50.62134" lon="4.18645">
        <ele>144.6</ele>
        <time>2015-01-11T10:10:33.000Z</time>
      </trkpt>
      <trkpt lat="50.62133" lon="4.18649">
        <ele>144.5</ele>
        <time>2015-01-11T10:10:34.000Z</time>
      </trkpt>
      <trkpt lat="50.62133" lon="4.18652">
        <ele>144.4</ele>
        <time>2015-01-11T10:10:35.000Z</time>
      </trkpt>
      <trkpt lat="50.62132" lon="4.18655">
        <ele>144.3</ele>
        <time>2015-01-11T10:10:36.000Z</time>
      </trkpt>
      <trkpt lat="50.62131" lon="4.18658">
        <ele>144.2</ele>
        <time>2015-01-11T10:10:37.000Z</time>
      </trkpt>
      <trkpt lat="50.62131" lon="4.18661">
        <ele>144.1</ele>
        <time>2015-01-11T10:10:38.000Z</time>
      </trkpt>
      <trkpt lat="50.6213" lon="4.18664">
        <ele>144.1</ele>
        <time>2015-01-11T10:10:39.000Z</time>
      </trkpt>
      <trkpt lat="50.6213" lon="4.18667">
        <ele>144</ele>
        <time>2015-01-11T10:10:40.000Z</time>
      </trkpt>
      <trkpt lat="50.62129" lon="4.1867">
        <ele>144</ele>
        <time>2015-01-11T10:10:41.000Z</time>
      </trkpt>
      <trkpt lat="50.62129" lon="4.18673">
        <ele>144</ele>
        <time>2015-01-11T10:10:42.000Z</time>
      </trkpt>
      <trkpt lat="50.62128" lon="4.18676">
        <ele>144</ele>
        <time>2015-01-11T10:10:43.000Z</time>
      </trkpt>
      <trkpt lat="50.62128" lon="4.18678">
        <ele>144</ele>
        <time>2015-01-11T10:10:44.000Z</time>
      </trkpt>
      <trkpt lat="50.62128" lon="4.18681">
        <ele>144</ele>
        <time>2015-01-11T10:10:45.000Z</time>
      </trkpt>
      <trkpt lat="50.62127" lon="4.18684">
        <ele>144</ele>
        <time>2015-01-11T10:10:46.000Z</time>
      </trkpt>
      <trkpt lat="50.62127" lon="4.18686">
        <ele>144</ele>
        <time>2015-01-11T10:10:47.000Z</time>
      </trkpt>
      <trkpt lat="50.62127" lon="4.18689">
        <ele>144</ele>
        <time>2015-01-11T10:10:48.000Z</time>
      </trkpt>
      <trkpt lat="50.62126" lon="4.18692">
        <ele>144</ele>
        <time>2015-01-11T10:10:49.000Z</time>
      </trkpt>
      <trkpt lat="50.62126" lon="4.18694">
        <ele>144</ele>
        <time>2015-01-11T10:10:50.000Z</time>
      </trkpt>
      <trkpt lat="50.62125" lon="4.18697">
        <ele>144</ele>
        <time>2015-01-11T10:10:51.000Z</time>
      </trkpt>
      <trkpt lat="50.62125" lon="4.187">
        <ele>144</ele>
        <time>2015-01-11T10:10:52.000Z</time>
      </trkpt>
      <trkpt lat="50.62124" lon="4.18702">
        <ele>144</ele>
        <time>2015-01-11T10:10:53.000Z</time>
      </trkpt>
      <trkpt lat="50.62124" lon="4.18705">
        <ele>144</ele>
        <time>2015-01-11T10:10:54.000Z</time>
      </trkpt>
      <trkpt lat="50.62123" lon="4.18708">
        <ele>144</ele>
        <time>2015-01-11T10:10:55.000Z</time>
      </trkpt>
      <trkpt lat="50.62123" lon="4.18711">
        <ele>144</ele>
        <time>2015-01-11T10:10:56.000Z</time>
      </trkpt>
      <trkpt lat="50.62123" lon="4.18714">
        <ele>144</ele>
        <time>2015-01-11T10:10:57.000Z</time>
      </trkpt>
      <trkpt lat="50.62122" lon="4.18717">
        <ele>144</ele>
        <time>2015-01-11T10:10:58.000Z</time>
      </trkpt>
      <trkpt lat="50.62122" lon="4.18719">
        <ele>144</ele>
        <time>2015-01-11T10:10:59.000Z</time>
      </trkpt>
      <trkpt lat="50.62121" lon="4.18722">
        <ele>144</ele>
        <time>2015-01-11T10:11:00.000Z</time>
      </trkpt>
      <trkpt lat="50.62121" lon="4.18724">
        <ele>144</ele>
        <time>2015-01-11T10:11:01.000Z</time>
      </trkpt>
      <trkpt lat="50.6212" lon="4.18727">
        <ele>144</ele>
        <time>2015-01-11T10:11:02.000Z</time>
      </trkpt>
      <trkpt lat="50.6212" lon="4.1873">
        <ele>144</ele>
        <time>2015-01-11T10:11:03.000Z</time>
      </trkpt>
      <trkpt lat="50.6212" lon="4.18733">
        <ele>144</ele>
        <time>2015-01-11T10:11:04.000Z</time>
      </trkpt>
      <trkpt lat="50.62119" lon="4.18736">
        <ele>144</ele>
        <time>2015-01-11T10:11:05.000Z</time>
      </trkpt>
      <trkpt lat="50.62119" lon="4.18739">
        <ele>144</ele>
        <time>2015-01-11T10:11:06.000Z</time>
      </trkpt>
      <trkpt lat="50.62118" lon="4.18742">
        <ele>144</ele>
        <time>2015-01-11T10:11:07.000Z</time>
      </trkpt>
      <trkpt lat="50.62118" lon="4.18745">
        <ele>144</ele>
        <time>2015-01-11T10:11:08.000Z</time>
      </trkpt>
      <trkpt lat="50.62117" lon="4.18748">
        <ele>144</ele>
        <time>2015-01-11T10:11:09.000Z</time>
      </trkpt>
      <trkpt lat="50.62117" lon="4.18751">
        <ele>144</ele>
        <time>2015-01-11T10:11:10.000Z</time>
      </trkpt>
      <trkpt lat="50.62117" lon="4.18754">
        <ele>144</ele>
        <time>2015-01-11T10:11:11.000Z</time>
      </trkpt>
      <trkpt lat="50.62116" lon="4.18758">
        <ele>144</ele>
        <time>2015-01-11T10:11:12.000Z</time>
      </trkpt>
      <trkpt lat="50.62116" lon="4.18761">
        <ele>144</ele>
        <time>2015-01-11T10:11:13.000Z</time>
      </trkpt>
      <trkpt lat="50.62116" lon="4.18764">
        <ele>144</ele>
        <time>2015-01-11T10:11:14.000Z</time>
      </trkpt>
      <trkpt lat="50.62115" lon="4.18767">
        <ele>144</ele>
        <time>2015-01-11T10:11:15.000Z</time>
      </trkpt>
      <trkpt lat="50.62115" lon="4.1877">
        <ele>144</ele>
        <time>2015-01-11T10:11:16.000Z</time>
      </trkpt>
      <trkpt lat="50.62115" lon="4.18773">
        <ele>144</ele>
        <time>2015-01-11T10:11:17.000Z</time>
      </trkpt>
      <trkpt lat="50.62114" lon="4.18776">
        <ele>144</ele>
        <time>2015-01-11T10:11:18.000Z</time>
      </trkpt>
      <trkpt lat="50.62113" lon="4.1878">
        <ele>144</ele>
        <time>2015-01-11T10:11:19.000Z</time>
      </trkpt>
      <trkpt lat="50.62113" lon="4.18783">
        <ele>144</ele>
        <time>2015-01-11T10:11:20.000Z</time>
      </trkpt>
      <trkpt lat="50.62112" lon="4.18786">
        <ele>144</ele>
        <time>2015-01-11T10:11:21.000Z</time>
      </trkpt>
      <trkpt lat="50.62112" lon="4.18789">
        <ele>144</ele>
        <time>2015-01-11T10:11:22.000Z</time>
      </trkpt>
      <trkpt lat="50.62111" lon="4.18792">
        <ele>144</ele>
        <time>2015-01-11T10:11:23.000Z</time>
      </trkpt>
      <trkpt lat="50.6211" lon="4.18795">
        <ele>144</ele>
        <time>2015-01-11T10:11:24.000Z</time>
      </trkpt>
      <trkpt lat="50.62109" lon="4.18798">
        <ele>144.1</ele>
        <time>2015-01-11T10:11:25.000Z</time>
      </trkpt>
      <trkpt lat="50.62109" lon="4.18801">
        <ele>144.1</ele>
        <time>2015-01-11T10:11:26.000Z</time>
      </trkpt>
      <trkpt lat="50.62108" lon="4.18804">
        <ele>144.1</ele>
        <time>2015-01-11T10:11:27.000Z</time>
      </trkpt>
      <trkpt lat="50.62107" lon="4.18807">
        <ele>144.1</ele>
        <time>2015-01-11T10:11:28.000Z</time>
      </trkpt>
      <trkpt lat="50.62107" lon="4.1881">
        <ele>144.2</ele>
        <time>2015-01-11T10:11:29.000Z</time>
      </trkpt>
      <trkpt lat="50.62106" lon="4.18813">
        <ele>144.2</ele>
        <time>2015-01-11T10:11:30.000Z</time>
      </trkpt>
      <trkpt lat="50.62106" lon="4.18815">
        <ele>144.2</ele>
        <time>2015-01-11T10:11:31.000Z</time>
      </trkpt>
      <trkpt lat="50.62106" lon="4.18818">
        <ele>144.3</ele>
        <time>2015-01-11T10:11:32.000Z</time>
      </trkpt>
      <trkpt lat="50.62106" lon="4.1882">
        <ele>144.3</ele>
        <time>2015-01-11T10:11:33.000Z</time>
      </trkpt>
      <trkpt lat="50.62105" lon="4.18823">
        <ele>144.4</ele>
        <time>2015-01-11T10:11:34.000Z</time>
      </trkpt>
      <trkpt lat="50.62105" lon="4.18825">
        <ele>144.4</ele>
        <time>2015-01-11T10:11:35.000Z</time>
      </trkpt>
      <trkpt lat="50.62104" lon="4.18828">
        <ele>144.4</ele>
        <time>2015-01-11T10:11:36.000Z</time>
      </trkpt>
      <trkpt lat="50.62104" lon="4.1883">
        <ele>144.5</ele>
        <time>2015-01-11T10:11:37.000Z</time>
      </trkpt>
      <trkpt lat="50.62103" lon="4.18833">
        <ele>144.5</ele>
        <time>2015-01-11T10:11:38.000Z</time>
      </trkpt>
      <trkpt lat="50.62103" lon="4.18835">
        <ele>144.6</ele>
        <time>2015-01-11T10:11:39.000Z</time>
      </trkpt>
      <trkpt lat="50.62103" lon="4.18837">
        <ele>144.8</ele>
        <time>2015-01-11T10:11:40.000Z</time>
      </trkpt>
      <trkpt lat="50.62102" lon="4.1884">
        <ele>144.9</ele>
        <time>2015-01-11T10:11:41.000Z</time>
      </trkpt>
      <trkpt lat="50.62102" lon="4.18842">
        <ele>145</ele>
        <time>2015-01-11T10:11:42.000Z</time>
      </trkpt>
      <trkpt lat="50.62101" lon="4.18845">
        <ele>145.1</ele>
        <time>2015-01-11T10:11:43.000Z</time>
      </trkpt>
      <trkpt lat="50.62101" lon="4.18847">
        <ele>145.2</ele>
        <time>2015-01-11T10:11:44.000Z</time>
      </trkpt>
      <trkpt lat="50.62101" lon="4.1885">
        <ele>145.3</ele>
        <time>2015-01-11T10:11:45.000Z</time>
      </trkpt>
      <trkpt lat="50.621" lon="4.18852">
        <ele>145.5</ele>
        <time>2015-01-11T10:11:46.000Z</time>
      </trkpt>
      <trkpt lat="50.621" lon="4.18855">
        <ele>145.6</ele>
        <time>2015-01-11T10:11:47.000Z</time>
      </trkpt>
      <trkpt lat="50.621" lon="4.18856">
        <ele>145.6</ele>
        <time>2015-01-11T10:11:48.000Z</time>
      </trkpt>
      <trkpt lat="50.62099" lon="4.18858">
        <ele>145.7</ele>
        <time>2015-01-11T10:11:49.000Z</time>
      </trkpt>
      <trkpt lat="50.62099" lon="4.1886">
        <ele>145.8</ele>
        <time>2015-01-11T10:11:50.000Z</time>
      </trkpt>
      <trkpt lat="50.62099" lon="4.18862">
        <ele>145.9</ele>
        <time>2015-01-11T10:11:51.000Z</time>
      </trkpt>
      <trkpt lat="50.62098" lon="4.18864">
        <ele>146</ele>
        <time>2015-01-11T10:11:52.000Z</time>
      </trkpt>
      <trkpt lat="50.62098" lon="4.18866">
        <ele>146.2</ele>
        <time>2015-01-11T10:11:53.000Z</time>
      </trkpt>
      <trkpt lat="50.62097" lon="4.18868">
        <ele>146.3</ele>
        <time>2015-01-11T10:11:54.000Z</time>
      </trkpt>
      <trkpt lat="50.62096" lon="4.18871">
        <ele>146.4</ele>
        <time>2015-01-11T10:11:55.000Z</time>
      </trkpt>
      <trkpt lat="50.62096" lon="4.18873">
        <ele>146.5</ele>
        <time>2015-01-11T10:11:56.000Z</time>
      </trkpt>
      <trkpt lat="50.62096" lon="4.18876">
        <ele>146.6</ele>
        <time>2015-01-11T10:11:57.000Z</time>
      </trkpt>
      <trkpt lat="50.62095" lon="4.18878">
        <ele>146.8</ele>
        <time>2015-01-11T10:11:58.000Z</time>
      </trkpt>
      <trkpt lat="50.62095" lon="4.18881">
        <ele>146.9</ele>
        <time>2015-01-11T10:11:59.000Z</time>
      </trkpt>
      <trkpt lat="50.62094" lon="4.18883">
        <ele>147</ele>
        <time>2015-01-11T10:12:00.000Z</time>
      </trkpt>
      <trkpt lat="50.62094" lon="4.18885">
        <ele>147.1</ele>
        <time>2015-01-11T10:12:01.000Z</time>
      </trkpt>
      <trkpt lat="50.62093" lon="4.18887">
        <ele>147.2</ele>
        <time>2015-01-11T10:12:02.000Z</time>
      </trkpt>
      <trkpt lat="50.62093" lon="4.1889">
        <ele>147.3</ele>
        <time>2015-01-11T10:12:03.000Z</time>
      </trkpt>
      <trkpt lat="50.62092" lon="4.18892">
        <ele>147.4</ele>
        <time>2015-01-11T10:12:04.000Z</time>
      </trkpt>
      <trkpt lat="50.62092" lon="4.18895">
        <ele>147.4</ele>
        <time>2015-01-11T10:12:05.000Z</time>
      </trkpt>
      <trkpt lat="50.62091" lon="4.18897">
        <ele>147.5</ele>
        <time>2015-01-11T10:12:06.000Z</time>
      </trkpt>
      <trkpt lat="50.6209" lon="4.189">
        <ele>147.5</ele>
        <time>2015-01-11T10:12:07.000Z</time>
      </trkpt>
      <trkpt lat="50.6209" lon="4.18903">
        <ele>147.6</ele>
        <time>2015-01-11T10:12:08.000Z</time>
      </trkpt>
      <trkpt lat="50.62089" lon="4.18905">
        <ele>147.6</ele>
        <time>2015-01-11T10:12:09.000Z</time>
      </trkpt>
      <trkpt lat="50.62088" lon="4.18908">
        <ele>147.6</ele>
        <time>2015-01-11T10:12:10.000Z</time>
      </trkpt>
      <trkpt lat="50.62088" lon="4.1891">
        <ele>147.7</ele>
        <time>2015-01-11T10:12:11.000Z</time>
      </trkpt>
      <trkpt lat="50.62087" lon="4.18913">
        <ele>147.7</ele>
        <time>2015-01-11T10:12:12.000Z</time>
      </trkpt>
      <trkpt lat="50.62087" lon="4.18915">
        <ele>147.7</ele>
        <time>2015-01-11T10:12:13.000Z</time>
      </trkpt>
      <trkpt lat="50.62086" lon="4.18918">
        <ele>147.8</ele>
        <time>2015-01-11T10:12:14.000Z</time>
      </trkpt>
      <trkpt lat="50.62086" lon="4.18921">
        <ele>148</ele>
        <time>2015-01-11T10:12:15.000Z</time>
      </trkpt>
      <trkpt lat="50.62086" lon="4.18923">
        <ele>148.1</ele>
        <time>2015-01-11T10:12:16.000Z</time>
      </trkpt>
      <trkpt lat="50.62085" lon="4.18926">
        <ele>148.2</ele>
        <time>2015-01-11T10:12:17.000Z</time>
      </trkpt>
      <trkpt lat="50.62085" lon="4.18929">
        <ele>148.3</ele>
        <time>2015-01-11T10:12:18.000Z</time>
      </trkpt>
      <trkpt lat="50.62085" lon="4.18932">
        <ele>148.4</ele>
        <time>2015-01-11T10:12:19.000Z</time>
      </trkpt>
      <trkpt lat="50.62084" lon="4.18934">
        <ele>148.6</ele>
        <time>2015-01-11T10:12:20.000Z</time>
      </trkpt>
      <trkpt lat="50.62084" lon="4.18937">
        <ele>148.7</ele>
        <time>2015-01-11T10:12:21.000Z</time>
      </trkpt>
      <trkpt lat="50.62084" lon="4.1894">
        <ele>148.8</ele>
        <time>2015-01-11T10:12:22.000Z</time>
      </trkpt>
      <trkpt lat="50.62083" lon="4.18942">
        <ele>148.9</ele>
        <time>2015-01-11T10:12:23.000Z</time>
      </trkpt>
      <trkpt lat="50.62083" lon="4.18945">
        <ele>149</ele>
        <time>2015-01-11T10:12:24.000Z</time>
      </trkpt>
      <trkpt lat="50.62082" lon="4.18947">
        <ele>149</ele>
        <time>2015-01-11T10:12:25.000Z</time>
      </trkpt>
      <trkpt lat="50.62081" lon="4.18949">
        <ele>149.1</ele>
        <time>2015-01-11T10:12:26.000Z</time>
      </trkpt>
      <trkpt lat="50.62081" lon="4.18952">
        <ele>149.1</ele>
        <time>2015-01-11T10:12:27.000Z</time>
      </trkpt>
      <trkpt lat="50.6208" lon="4.18954">
        <ele>149.1</ele>
        <time>2015-01-11T10:12:28.000Z</time>
      </trkpt>
      <trkpt lat="50.62079" lon="4.18957">
        <ele>149.2</ele>
        <time>2015-01-11T10:12:29.000Z</time>
      </trkpt>
      <trkpt lat="50.62078" lon="4.1896">
        <ele>149.2</ele>
        <time>2015-01-11T10:12:30.000Z</time>
      </trkpt>
      <trkpt lat="50.62077" lon="4.18962">
        <ele>149.2</ele>
        <time>2015-01-11T10:12:31.000Z</time>
      </trkpt>
      <trkpt lat="50.62077" lon="4.18965">
        <ele>149.2</ele>
        <time>2015-01-11T10:12:32.000Z</time>
      </trkpt>
      <trkpt lat="50.62076" lon="4.18968">
        <ele>149.3</ele>
        <time>2015-01-11T10:12:33.000Z</time>
      </trkpt>
      <trkpt lat="50.62075" lon="4.18971">
        <ele>149.3</ele>
        <time>2015-01-11T10:12:34.000Z</time>
      </trkpt>
      <trkpt lat="50.62074" lon="4.18973">
        <ele>149.3</ele>
        <time>2015-01-11T10:12:35.000Z</time>
      </trkpt>
      <trkpt lat="50.62074" lon="4.18976">
        <ele>149.4</ele>
        <time>2015-01-11T10:12:36.000Z</time>
      </trkpt>
      <trkpt lat="50.62073" lon="4.18979">
        <ele>149.4</ele>
        <time>2015-01-11T10:12:37.000Z</time>
      </trkpt>
      <trkpt lat="50.62072" lon="4.18982">
        <ele>149.4</ele>
        <time>2015-01-11T10:12:38.000Z</time>
      </trkpt>
      <trkpt lat="50.62071" lon="4.18985">
        <ele>149.4</ele>
        <time>2015-01-11T10:12:39.000Z</time>
      </trkpt>
      <trkpt lat="50.62071" lon="4.18988">
        <ele>149.5</ele>
        <time>2015-01-11T10:12:40.000Z</time>
      </trkpt>
      <trkpt lat="50.6207" lon="4.18991">
        <ele>149.5</ele>
        <time>2015-01-11T10:12:41.000Z</time>
      </trkpt>
      <trkpt lat="50.6207" lon="4.18994">
        <ele>149.5</ele>
        <time>2015-01-11T10:12:42.000Z</time>
      </trkpt>
      <trkpt lat="50.6207" lon="4.18997">
        <ele>149.5</ele>
        <time>2015-01-11T10:12:43.000Z</time>
      </trkpt>
      <trkpt lat="50.62069" lon="4.19">
        <ele>149.5</ele>
        <time>2015-01-11T10:12:44.000Z</time>
      </trkpt>
      <trkpt lat="50.62069" lon="4.19003">
        <ele>149.5</ele>
        <time>2015-01-11T10:12:45.000Z</time>
      </trkpt>
      <trkpt lat="50.62069" lon="4.19005">
        <ele>149.4</ele>
        <time>2015-01-11T10:12:46.000Z</time>
      </trkpt>
      <trkpt lat="50.62069" lon="4.19008">
        <ele>149.4</ele>
        <time>2015-01-11T10:12:47.000Z</time>
      </trkpt>
      <trkpt lat="50.62069" lon="4.19011">
        <ele>149.3</ele>
        <time>2015-01-11T10:12:48.000Z</time>
      </trkpt>
      <trkpt lat="50.62069" lon="4.19014">
        <ele>149.3</ele>
        <time>2015-01-11T10:12:49.000Z</time>
      </trkpt>
      <trkpt lat="50.62068" lon="4.19017">
        <ele>149.2</ele>
        <time>2015-01-11T10:12:50.000Z</time>
      </trkpt>
      <trkpt lat="50.62068" lon="4.1902">
        <ele>149.2</ele>
        <time>2015-01-11T10:12:51.000Z</time>
      </trkpt>
      <trkpt lat="50.62067" lon="4.19024">
        <ele>149.1</ele>
        <time>2015-01-11T10:12:52.000Z</time>
      </trkpt>
      <trkpt lat="50.62067" lon="4.19027">
        <ele>149</ele>
        <time>2015-01-11T10:12:53.000Z</time>
      </trkpt>
      <trkpt lat="50.62066" lon="4.1903">
        <ele>149</ele>
        <time>2015-01-11T10:12:54.000Z</time>
      </trkpt>
      <trkpt lat="50.62065" lon="4.19034">
        <ele>149</ele>
        <time>2015-01-11T10:12:55.000Z</time>
      </trkpt>
      <trkpt lat="50.62065" lon="4.19039">
        <ele>149</ele>
        <time>2015-01-11T10:12:56.000Z</time>
      </trkpt>
      <trkpt lat="50.62064" lon="4.19042">
        <ele>149</ele>
        <time>2015-01-11T10:12:57.000Z</time>
      </trkpt>
      <trkpt lat="50.62063" lon="4.19046">
        <ele>149</ele>
        <time>2015-01-11T10:12:58.000Z</time>
      </trkpt>
      <trkpt lat="50.62063" lon="4.19049">
        <ele>149</ele>
        <time>2015-01-11T10:12:59.000Z</time>
      </trkpt>
      <trkpt lat="50.62063" lon="4.19052">
        <ele>149</ele>
        <time>2015-01-11T10:13:00.000Z</time>
      </trkpt>
      <trkpt lat="50.62062" lon="4.19054">
        <ele>149</ele>
        <time>2015-01-11T10:13:01.000Z</time>
      </trkpt>
      <trkpt lat="50.62062" lon="4.19057">
        <ele>149</ele>
        <time>2015-01-11T10:13:02.000Z</time>
      </trkpt>
      <trkpt lat="50.62062" lon="4.19059">
        <ele>149</ele>
        <time>2015-01-11T10:13:03.000Z</time>
      </trkpt>
      <trkpt lat="50.62062" lon="4.1906">
        <ele>149</ele>
        <time>2015-01-11T10:13:04.000Z</time>
      </trkpt>
      <trkpt lat="50.62062" lon="4.19062">
        <ele>148.9</ele>
        <time>2015-01-11T10:13:05.000Z</time>
      </trkpt>
      <trkpt lat="50.62062" lon="4.19064">
        <ele>148.9</ele>
        <time>2015-01-11T10:13:06.000Z</time>
      </trkpt>
      <trkpt lat="50.62062" lon="4.19066">
        <ele>148.9</ele>
        <time>2015-01-11T10:13:07.000Z</time>
      </trkpt>
      <trkpt lat="50.62062" lon="4.19068">
        <ele>148.9</ele>
        <time>2015-01-11T10:13:08.000Z</time>
      </trkpt>
      <trkpt lat="50.62062" lon="4.1907">
        <ele>148.9</ele>
        <time>2015-01-11T10:13:09.000Z</time>
      </trkpt>
      <trkpt lat="50.62061" lon="4.19073">
        <ele>148.9</ele>
        <time>2015-01-11T10:13:10.000Z</time>
      </trkpt>
      <trkpt lat="50.62061" lon="4.19075">
        <ele>148.9</ele>
        <time>2015-01-11T10:13:11.000Z</time>
      </trkpt>
      <trkpt lat="50.6206" lon="4.19077">
        <ele>148.9</ele>
        <time>2015-01-11T10:13:12.000Z</time>
      </trkpt>
      <trkpt lat="50.6206" lon="4.1908">
        <ele>148.9</ele>
        <time>2015-01-11T10:13:13.000Z</time>
      </trkpt>
      <trkpt lat="50.62059" lon="4.19083">
        <ele>148.9</ele>
        <time>2015-01-11T10:13:14.000Z</time>
      </trkpt>
      <trkpt lat="50.62058" lon="4.19086">
        <ele>148.9</ele>
        <time>2015-01-11T10:13:15.000Z</time>
      </trkpt>
      <trkpt lat="50.62058" lon="4.19089">
        <ele>148.9</ele>
        <time>2015-01-11T10:13:16.000Z</time>
      </trkpt>
      <trkpt lat="50.62057" lon="4.19092">
        <ele>148.9</ele>
        <time>2015-01-11T10:13:17.000Z</time>
      </trkpt>
      <trkpt lat="50.62057" lon="4.19095">
        <ele>149</ele>
        <time>2015-01-11T10:13:18.000Z</time>
      </trkpt>
      <trkpt lat="50.62056" lon="4.19098">
        <ele>149</ele>
        <time>2015-01-11T10:13:19.000Z</time>
      </trkpt>
      <trkpt lat="50.62056" lon="4.191">
        <ele>149</ele>
        <time>2015-01-11T10:13:20.000Z</time>
      </trkpt>
      <trkpt lat="50.62055" lon="4.19103">
        <ele>149</ele>
        <time>2015-01-11T10:13:21.000Z</time>
      </trkpt>
      <trkpt lat="50.62055" lon="4.19105">
        <ele>149</ele>
        <time>2015-01-11T10:13:22.000Z</time>
      </trkpt>
      <trkpt lat="50.62054" lon="4.19108">
        <ele>149</ele>
        <time>2015-01-11T10:13:23.000Z</time>
      </trkpt>
      <trkpt lat="50.62054" lon="4.1911">
        <ele>149</ele>
        <time>2015-01-11T10:13:24.000Z</time>
      </trkpt>
      <trkpt lat="50.62054" lon="4.19112">
        <ele>149</ele>
        <time>2015-01-11T10:13:25.000Z</time>
      </trkpt>
      <trkpt lat="50.62053" lon="4.19115">
        <ele>148.9</ele>
        <time>2015-01-11T10:13:26.000Z</time>
      </trkpt>
      <trkpt lat="50.62053" lon="4.19117">
        <ele>148.8</ele>
        <time>2015-01-11T10:13:27.000Z</time>
      </trkpt>
      <trkpt lat="50.62052" lon="4.1912">
        <ele>148.7</ele>
        <time>2015-01-11T10:13:28.000Z</time>
      </trkpt>
      <trkpt lat="50.62052" lon="4.19122">
        <ele>148.6</ele>
        <time>2015-01-11T10:13:29.000Z</time>
      </trkpt>
      <trkpt lat="50.62051" lon="4.19124">
        <ele>148.5</ele>
        <time>2015-01-11T10:13:30.000Z</time>
      </trkpt>
      <trkpt lat="50.62051" lon="4.19127">
        <ele>148.4</ele>
        <time>2015-01-11T10:13:31.000Z</time>
      </trkpt>
      <trkpt lat="50.6205" lon="4.19129">
        <ele>148.4</ele>
        <time>2015-01-11T10:13:32.000Z</time>
      </trkpt>
      <trkpt lat="50.6205" lon="4.19131">
        <ele>148.3</ele>
        <time>2015-01-11T10:13:33.000Z</time>
      </trkpt>
      <trkpt lat="50.62049" lon="4.19134">
        <ele>148.2</ele>
        <time>2015-01-11T10:13:34.000Z</time>
      </trkpt>
      <trkpt lat="50.62049" lon="4.19136">
        <ele>148.1</ele>
        <time>2015-01-11T10:13:35.000Z</time>
      </trkpt>
      <trkpt lat="50.62049" lon="4.19138">
        <ele>148</ele>
        <time>2015-01-11T10:13:36.000Z</time>
      </trkpt>
      <trkpt lat="50.62048" lon="4.1914">
        <ele>148</ele>
        <time>2015-01-11T10:13:37.000Z</time>
      </trkpt>
      <trkpt lat="50.62048" lon="4.19142">
        <ele>148</ele>
        <time>2015-01-11T10:13:38.000Z</time>
      </trkpt>
      <trkpt lat="50.62048" lon="4.19144">
        <ele>148</ele>
        <time>2015-01-11T10:13:39.000Z</time>
      </trkpt>
      <trkpt lat="50.62047" lon="4.19146">
        <ele>148</ele>
        <time>2015-01-11T10:13:40.000Z</time>
      </trkpt>
      <trkpt lat="50.62047" lon="4.19149">
        <ele>148</ele>
        <time>2015-01-11T10:13:41.000Z</time>
      </trkpt>
      <trkpt lat="50.62047" lon="4.19151">
        <ele>148</ele>
        <time>2015-01-11T10:13:42.000Z</time>
      </trkpt>
      <trkpt lat="50.62046" lon="4.19154">
        <ele>148</ele>
        <time>2015-01-11T10:13:43.000Z</time>
      </trkpt>
      <trkpt lat="50.62046" lon="4.19157">
        <ele>148</ele>
        <time>2015-01-11T10:13:44.000Z</time>
      </trkpt>
      <trkpt lat="50.62045" lon="4.19159">
        <ele>148</ele>
        <time>2015-01-11T10:13:45.000Z</time>
      </trkpt>
      <trkpt lat="50.62045" lon="4.19162">
        <ele>148</ele>
        <time>2015-01-11T10:13:46.000Z</time>
      </trkpt>
      <trkpt lat="50.62044" lon="4.19165">
        <ele>148</ele>
        <time>2015-01-11T10:13:47.000Z</time>
      </trkpt>
      <trkpt lat="50.62044" lon="4.19168">
        <ele>147.9</ele>
        <time>2015-01-11T10:13:48.000Z</time>
      </trkpt>
      <trkpt lat="50.62043" lon="4.19171">
        <ele>147.8</ele>
        <time>2015-01-11T10:13:49.000Z</time>
      </trkpt>
      <trkpt lat="50.62043" lon="4.19174">
        <ele>147.7</ele>
        <time>2015-01-11T10:13:50.000Z</time>
      </trkpt>
      <trkpt lat="50.62042" lon="4.19177">
        <ele>147.6</ele>
        <time>2015-01-11T10:13:51.000Z</time>
      </trkpt>
      <trkpt lat="50.62042" lon="4.1918">
        <ele>147.5</ele>
        <time>2015-01-11T10:13:52.000Z</time>
      </trkpt>
      <trkpt lat="50.62042" lon="4.19183">
        <ele>147.4</ele>
        <time>2015-01-11T10:13:53.000Z</time>
      </trkpt>
      <trkpt lat="50.62041" lon="4.19187">
        <ele>147.3</ele>
        <time>2015-01-11T10:13:54.000Z</time>
      </trkpt>
      <trkpt lat="50.62041" lon="4.1919">
        <ele>147.2</ele>
        <time>2015-01-11T10:13:55.000Z</time>
      </trkpt>
      <trkpt lat="50.62041" lon="4.19193">
        <ele>147</ele>
        <time>2015-01-11T10:13:56.000Z</time>
      </trkpt>
      <trkpt lat="50.6204" lon="4.19197">
        <ele>147</ele>
        <time>2015-01-11T10:13:57.000Z</time>
      </trkpt>
      <trkpt lat="50.6204" lon="4.192">
        <ele>146.9</ele>
        <time>2015-01-11T10:13:58.000Z</time>
      </trkpt>
      <trkpt lat="50.6204" lon="4.19203">
        <ele>146.9</ele>
        <time>2015-01-11T10:13:59.000Z</time>
      </trkpt>
      <trkpt lat="50.62039" lon="4.19207">
        <ele>146.8</ele>
        <time>2015-01-11T10:14:00.000Z</time>
      </trkpt>
      <trkpt lat="50.62039" lon="4.1921">
        <ele>146.8</ele>
        <time>2015-01-11T10:14:01.000Z</time>
      </trkpt>
      <trkpt lat="50.62038" lon="4.19214">
        <ele>146.7</ele>
        <time>2015-01-11T10:14:02.000Z</time>
      </trkpt>
      <trkpt lat="50.62038" lon="4.19218">
        <ele>146.7</ele>
        <time>2015-01-11T10:14:03.000Z</time>
      </trkpt>
      <trkpt lat="50.62038" lon="4.19221">
        <ele>146.7</ele>
        <time>2015-01-11T10:14:04.000Z</time>
      </trkpt>
      <trkpt lat="50.62037" lon="4.19225">
        <ele>146.6</ele>
        <time>2015-01-11T10:14:05.000Z</time>
      </trkpt>
      <trkpt lat="50.62037" lon="4.19229">
        <ele>146.5</ele>
        <time>2015-01-11T10:14:06.000Z</time>
      </trkpt>
      <trkpt lat="50.62036" lon="4.19233">
        <ele>146.4</ele>
        <time>2015-01-11T10:14:07.000Z</time>
      </trkpt>
      <trkpt lat="50.62036" lon="4.19236">
        <ele>146.4</ele>
        <time>2015-01-11T10:14:08.000Z</time>
      </trkpt>
      <trkpt lat="50.62035" lon="4.1924">
        <ele>146.3</ele>
        <time>2015-01-11T10:14:09.000Z</time>
      </trkpt>
      <trkpt lat="50.62034" lon="4.19243">
        <ele>146.2</ele>
        <time>2015-01-11T10:14:10.000Z</time>
      </trkpt>
      <trkpt lat="50.62033" lon="4.19247">
        <ele>146.1</ele>
        <time>2015-01-11T10:14:11.000Z</time>
      </trkpt>
      <trkpt lat="50.62033" lon="4.1925">
        <ele>146</ele>
        <time>2015-01-11T10:14:12.000Z</time>
      </trkpt>
      <trkpt lat="50.62032" lon="4.19254">
        <ele>146</ele>
        <time>2015-01-11T10:14:13.000Z</time>
      </trkpt>
      <trkpt lat="50.62031" lon="4.19257">
        <ele>146</ele>
        <time>2015-01-11T10:14:14.000Z</time>
      </trkpt>
      <trkpt lat="50.62031" lon="4.19261">
        <ele>146</ele>
        <time>2015-01-11T10:14:15.000Z</time>
      </trkpt>
      <trkpt lat="50.6203" lon="4.19264">
        <ele>146</ele>
        <time>2015-01-11T10:14:16.000Z</time>
      </trkpt>
      <trkpt lat="50.6203" lon="4.19268">
        <ele>145.9</ele>
        <time>2015-01-11T10:14:17.000Z</time>
      </trkpt>
      <trkpt lat="50.6203" lon="4.19271">
        <ele>145.9</ele>
        <time>2015-01-11T10:14:18.000Z</time>
      </trkpt>
      <trkpt lat="50.62029" lon="4.19274">
        <ele>145.9</ele>
        <time>2015-01-11T10:14:19.000Z</time>
      </trkpt>
      <trkpt lat="50.62029" lon="4.19277">
        <ele>146</ele>
        <time>2015-01-11T10:14:20.000Z</time>
      </trkpt>
      <trkpt lat="50.62029" lon="4.1928">
        <ele>145.8</ele>
        <time>2015-01-11T10:14:21.000Z</time>
      </trkpt>
      <trkpt lat="50.62028" lon="4.19284">
        <ele>145.6</ele>
        <time>2015-01-11T10:14:22.000Z</time>
      </trkpt>
      <trkpt lat="50.62028" lon="4.19287">
        <ele>145.3</ele>
        <time>2015-01-11T10:14:23.000Z</time>
      </trkpt>
      <trkpt lat="50.62028" lon="4.1929">
        <ele>145.1</ele>
        <time>2015-01-11T10:14:24.000Z</time>
      </trkpt>
      <trkpt lat="50.62028" lon="4.19294">
        <ele>144.9</ele>
        <time>2015-01-11T10:14:25.000Z</time>
      </trkpt>
      <trkpt lat="50.62028" lon="4.19297">
        <ele>144.7</ele>
        <time>2015-01-11T10:14:26.000Z</time>
      </trkpt>
      <trkpt lat="50.62027" lon="4.19299">
        <ele>144.5</ele>
        <time>2015-01-11T10:14:27.000Z</time>
      </trkpt>
      <trkpt lat="50.62027" lon="4.19302">
        <ele>144.3</ele>
        <time>2015-01-11T10:14:28.000Z</time>
      </trkpt>
      <trkpt lat="50.62026" lon="4.19305">
        <ele>144.1</ele>
        <time>2015-01-11T10:14:29.000Z</time>
      </trkpt>
      <trkpt lat="50.62026" lon="4.19307">
        <ele>144</ele>
        <time>2015-01-11T10:14:30.000Z</time>
      </trkpt>
      <trkpt lat="50.62025" lon="4.1931">
        <ele>143.9</ele>
        <time>2015-01-11T10:14:31.000Z</time>
      </trkpt>
      <trkpt lat="50.62025" lon="4.19313">
        <ele>143.9</ele>
        <time>2015-01-11T10:14:32.000Z</time>
      </trkpt>
      <trkpt lat="50.62024" lon="4.19316">
        <ele>143.8</ele>
        <time>2015-01-11T10:14:33.000Z</time>
      </trkpt>
      <trkpt lat="50.62024" lon="4.19319">
        <ele>143.7</ele>
        <time>2015-01-11T10:14:34.000Z</time>
      </trkpt>
      <trkpt lat="50.62023" lon="4.19322">
        <ele>143.7</ele>
        <time>2015-01-11T10:14:35.000Z</time>
      </trkpt>
      <trkpt lat="50.62022" lon="4.19325">
        <ele>143.6</ele>
        <time>2015-01-11T10:14:36.000Z</time>
      </trkpt>
      <trkpt lat="50.62022" lon="4.19328">
        <ele>143.6</ele>
        <time>2015-01-11T10:14:37.000Z</time>
      </trkpt>
      <trkpt lat="50.62021" lon="4.19331">
        <ele>143.5</ele>
        <time>2015-01-11T10:14:38.000Z</time>
      </trkpt>
      <trkpt lat="50.62021" lon="4.19333">
        <ele>143.5</ele>
        <time>2015-01-11T10:14:39.000Z</time>
      </trkpt>
      <trkpt lat="50.6202" lon="4.19336">
        <ele>143.6</ele>
        <time>2015-01-11T10:14:40.000Z</time>
      </trkpt>
      <trkpt lat="50.6202" lon="4.19339">
        <ele>143.6</ele>
        <time>2015-01-11T10:14:41.000Z</time>
      </trkpt>
      <trkpt lat="50.62019" lon="4.19341">
        <ele>143.6</ele>
        <time>2015-01-11T10:14:42.000Z</time>
      </trkpt>
      <trkpt lat="50.62018" lon="4.19344">
        <ele>143.7</ele>
        <time>2015-01-11T10:14:43.000Z</time>
      </trkpt>
      <trkpt lat="50.62018" lon="4.19346">
        <ele>143.7</ele>
        <time>2015-01-11T10:14:44.000Z</time>
      </trkpt>
      <trkpt lat="50.62017" lon="4.19349">
        <ele>143.8</ele>
        <time>2015-01-11T10:14:45.000Z</time>
      </trkpt>
      <trkpt lat="50.62017" lon="4.19351">
        <ele>143.8</ele>
        <time>2015-01-11T10:14:46.000Z</time>
      </trkpt>
      <trkpt lat="50.62016" lon="4.19353">
        <ele>143.8</ele>
        <time>2015-01-11T10:14:47.000Z</time>
      </trkpt>
      <trkpt lat="50.62016" lon="4.19356">
        <ele>143.9</ele>
        <time>2015-01-11T10:14:48.000Z</time>
      </trkpt>
      <trkpt lat="50.62015" lon="4.19358">
        <ele>143.9</ele>
        <time>2015-01-11T10:14:49.000Z</time>
      </trkpt>
      <trkpt lat="50.62015" lon="4.19361">
        <ele>143.9</ele>
        <time>2015-01-11T10:14:50.000Z</time>
      </trkpt>
      <trkpt lat="50.62015" lon="4.19362">
        <ele>144</ele>
        <time>2015-01-11T10:14:51.000Z</time>
      </trkpt>
      <trkpt lat="50.62014" lon="4.19364">
        <ele>144.1</ele>
        <time>2015-01-11T10:14:52.000Z</time>
      </trkpt>
      <trkpt lat="50.62014" lon="4.19366">
        <ele>144.2</ele>
        <time>2015-01-11T10:14:53.000Z</time>
      </trkpt>
      <trkpt lat="50.62013" lon="4.19368">
        <ele>144.3</ele>
        <time>2015-01-11T10:14:54.000Z</time>
      </trkpt>
      <trkpt lat="50.62012" lon="4.1937">
        <ele>144.4</ele>
        <time>2015-01-11T10:14:55.000Z</time>
      </trkpt>
      <trkpt lat="50.62012" lon="4.19373">
        <ele>144.6</ele>
        <time>2015-01-11T10:14:56.000Z</time>
      </trkpt>
      <trkpt lat="50.62011" lon="4.19375">
        <ele>144.7</ele>
        <time>2015-01-11T10:14:57.000Z</time>
      </trkpt>
      <trkpt lat="50.62011" lon="4.19377">
        <ele>144.8</ele>
        <time>2015-01-11T10:14:58.000Z</time>
      </trkpt>
      <trkpt lat="50.6201" lon="4.1938">
        <ele>144.9</ele>
        <time>2015-01-11T10:14:59.000Z</time>
      </trkpt>
      <trkpt lat="50.6201" lon="4.19382">
        <ele>145</ele>
        <time>2015-01-11T10:15:00.000Z</time>
      </trkpt>
      <trkpt lat="50.6201" lon="4.19385">
        <ele>145.1</ele>
        <time>2015-01-11T10:15:01.000Z</time>
      </trkpt>
      <trkpt lat="50.6201" lon="4.19388">
        <ele>145.2</ele>
        <time>2015-01-11T10:15:02.000Z</time>
      </trkpt>
      <trkpt lat="50.6201" lon="4.19391">
        <ele>145.3</ele>
        <time>2015-01-11T10:15:03.000Z</time>
      </trkpt>
      <trkpt lat="50.6201" lon="4.19394">
        <ele>145.4</ele>
        <time>2015-01-11T10:15:04.000Z</time>
      </trkpt>
      <trkpt lat="50.62009" lon="4.19397">
        <ele>145.4</ele>
        <time>2015-01-11T10:15:05.000Z</time>
      </trkpt>
      <trkpt lat="50.62009" lon="4.194">
        <ele>145.5</ele>
        <time>2015-01-11T10:15:06.000Z</time>
      </trkpt>
      <trkpt lat="50.62008" lon="4.19403">
        <ele>145.5</ele>
        <time>2015-01-11T10:15:07.000Z</time>
      </trkpt>
      <trkpt lat="50.62008" lon="4.19407">
        <ele>145.6</ele>
        <time>2015-01-11T10:15:08.000Z</time>
      </trkpt>
      <trkpt lat="50.62007" lon="4.1941">
        <ele>145.7</ele>
        <time>2015-01-11T10:15:09.000Z</time>
      </trkpt>
      <trkpt lat="50.62007" lon="4.19413">
        <ele>145.7</ele>
        <time>2015-01-11T10:15:10.000Z</time>
      </trkpt>
      <trkpt lat="50.62006" lon="4.19416">
        <ele>145.8</ele>
        <time>2015-01-11T10:15:11.000Z</time>
      </trkpt>
      <trkpt lat="50.62006" lon="4.19419">
        <ele>145.8</ele>
        <time>2015-01-11T10:15:12.000Z</time>
      </trkpt>
      <trkpt lat="50.62006" lon="4.19422">
        <ele>145.8</ele>
        <time>2015-01-11T10:15:13.000Z</time>
      </trkpt>
      <trkpt lat="50.62006" lon="4.19425">
        <ele>145.8</ele>
        <time>2015-01-11T10:15:14.000Z</time>
      </trkpt>
      <trkpt lat="50.62006" lon="4.19428">
        <ele>145.8</ele>
        <time>2015-01-11T10:15:15.000Z</time>
      </trkpt>
      <trkpt lat="50.62006" lon="4.19431">
        <ele>145.8</ele>
        <time>2015-01-11T10:15:16.000Z</time>
      </trkpt>
      <trkpt lat="50.62005" lon="4.19434">
        <ele>145.8</ele>
        <time>2015-01-11T10:15:17.000Z</time>
      </trkpt>
      <trkpt lat="50.62005" lon="4.19438">
        <ele>145.8</ele>
        <time>2015-01-11T10:15:18.000Z</time>
      </trkpt>
      <trkpt lat="50.62005" lon="4.19441">
        <ele>145.8</ele>
        <time>2015-01-11T10:15:19.000Z</time>
      </trkpt>
      <trkpt lat="50.62004" lon="4.19445">
        <ele>145.9</ele>
        <time>2015-01-11T10:15:20.000Z</time>
      </trkpt>
      <trkpt lat="50.62003" lon="4.19448">
        <ele>145.9</ele>
        <time>2015-01-11T10:15:21.000Z</time>
      </trkpt>
      <trkpt lat="50.62003" lon="4.19452">
        <ele>145.9</ele>
        <time>2015-01-11T10:15:22.000Z</time>
      </trkpt>
      <trkpt lat="50.62002" lon="4.19455">
        <ele>145.9</ele>
        <time>2015-01-11T10:15:23.000Z</time>
      </trkpt>
      <trkpt lat="50.62002" lon="4.19458">
        <ele>145.9</ele>
        <time>2015-01-11T10:15:24.000Z</time>
      </trkpt>
      <trkpt lat="50.62001" lon="4.19461">
        <ele>146</ele>
        <time>2015-01-11T10:15:25.000Z</time>
      </trkpt>
      <trkpt lat="50.62001" lon="4.19466">
        <ele>146</ele>
        <time>2015-01-11T10:15:26.000Z</time>
      </trkpt>
      <trkpt lat="50.62" lon="4.19469">
        <ele>146</ele>
        <time>2015-01-11T10:15:27.000Z</time>
      </trkpt>
      <trkpt lat="50.62" lon="4.19473">
        <ele>146</ele>
        <time>2015-01-11T10:15:28.000Z</time>
      </trkpt>
      <trkpt lat="50.61999" lon="4.19481">
        <ele>145.7</ele>
        <time>2015-01-11T10:15:29.000Z</time>
      </trkpt>
      <trkpt lat="50.61999" lon="4.19482">
        <ele>145.6</ele>
        <time>2015-01-11T10:15:30.000Z</time>
      </trkpt>
      <trkpt lat="50.61999" lon="4.19484">
        <ele>145.6</ele>
        <time>2015-01-11T10:15:31.000Z</time>
      </trkpt>
      <trkpt lat="50.61998" lon="4.19486">
        <ele>145.5</ele>
        <time>2015-01-11T10:15:32.000Z</time>
      </trkpt>
      <trkpt lat="50.61997" lon="4.19489">
        <ele>145.4</ele>
        <time>2015-01-11T10:15:33.000Z</time>
      </trkpt>
      <trkpt lat="50.61997" lon="4.19491">
        <ele>145.3</ele>
        <time>2015-01-11T10:15:34.000Z</time>
      </trkpt>
      <trkpt lat="50.61996" lon="4.19494">
        <ele>145.2</ele>
        <time>2015-01-11T10:15:35.000Z</time>
      </trkpt>
      <trkpt lat="50.61995" lon="4.19497">
        <ele>145.1</ele>
        <time>2015-01-11T10:15:36.000Z</time>
      </trkpt>
      <trkpt lat="50.61994" lon="4.195">
        <ele>145</ele>
        <time>2015-01-11T10:15:37.000Z</time>
      </trkpt>
      <trkpt lat="50.61993" lon="4.19503">
        <ele>145</ele>
        <time>2015-01-11T10:15:38.000Z</time>
      </trkpt>
      <trkpt lat="50.61992" lon="4.19506">
        <ele>144.9</ele>
        <time>2015-01-11T10:15:39.000Z</time>
      </trkpt>
      <trkpt lat="50.61991" lon="4.19509">
        <ele>144.9</ele>
        <time>2015-01-11T10:15:40.000Z</time>
      </trkpt>
      <trkpt lat="50.6199" lon="4.19513">
        <ele>144.8</ele>
        <time>2015-01-11T10:15:41.000Z</time>
      </trkpt>
      <trkpt lat="50.61989" lon="4.19516">
        <ele>144.8</ele>
        <time>2015-01-11T10:15:42.000Z</time>
      </trkpt>
      <trkpt lat="50.61987" lon="4.19519">
        <ele>144.7</ele>
        <time>2015-01-11T10:15:43.000Z</time>
      </trkpt>
      <trkpt lat="50.61985" lon="4.19521">
        <ele>144.6</ele>
        <time>2015-01-11T10:15:44.000Z</time>
      </trkpt>
      <trkpt lat="50.61983" lon="4.19524">
        <ele>144.5</ele>
        <time>2015-01-11T10:15:45.000Z</time>
      </trkpt>
      <trkpt lat="50.61982" lon="4.19526">
        <ele>144.4</ele>
        <time>2015-01-11T10:15:46.000Z</time>
      </trkpt>
      <trkpt lat="50.61981" lon="4.19527">
        <ele>144.3</ele>
        <time>2015-01-11T10:15:47.000Z</time>
      </trkpt>
      <trkpt lat="50.61981" lon="4.19528">
        <ele>144.3</ele>
        <time>2015-01-11T10:15:48.000Z</time>
      </trkpt>
      <trkpt lat="50.6198" lon="4.19529">
        <ele>144.2</ele>
        <time>2015-01-11T10:15:49.000Z</time>
      </trkpt>
      <trkpt lat="50.6198" lon="4.1953">
        <ele>144.2</ele>
        <time>2015-01-11T10:15:50.000Z</time>
      </trkpt>
      <trkpt lat="50.6198" lon="4.19531">
        <ele>144.2</ele>
        <time>2015-01-11T10:15:51.000Z</time>
      </trkpt>
      <trkpt lat="50.61979" lon="4.19531">
        <ele>144.1</ele>
        <time>2015-01-11T10:15:52.000Z</time>
      </trkpt>
      <trkpt lat="50.61979" lon="4.19532">
        <ele>144.1</ele>
        <time>2015-01-11T10:15:53.000Z</time>
      </trkpt>
      <trkpt lat="50.61979" lon="4.19534">
        <ele>144</ele>
        <time>2015-01-11T10:15:54.000Z</time>
      </trkpt>
      <trkpt lat="50.61979" lon="4.19534">
        <ele>144</ele>
        <time>2015-01-11T10:15:55.000Z</time>
      </trkpt>
      <trkpt lat="50.61979" lon="4.19534">
        <ele>144</ele>
        <time>2015-01-11T10:15:56.000Z</time>
      </trkpt>
      <trkpt lat="50.61979" lon="4.19534">
        <ele>144</ele>
        <time>2015-01-11T10:15:57.000Z</time>
      </trkpt>
      <trkpt lat="50.61979" lon="4.19534">
        <ele>144</ele>
        <time>2015-01-11T10:15:58.000Z</time>
      </trkpt>
      <trkpt lat="50.61979" lon="4.19534">
        <ele>144</ele>
        <time>2015-01-11T10:15:59.000Z</time>
      </trkpt>
      <trkpt lat="50.61979" lon="4.19535">
        <ele>144</ele>
        <time>2015-01-11T10:16:00.000Z</time>
      </trkpt>
      <trkpt lat="50.61979" lon="4.19535">
        <ele>144</ele>
        <time>2015-01-11T10:16:01.000Z</time>
      </trkpt>
      <trkpt lat="50.61979" lon="4.19535">
        <ele>144</ele>
        <time>2015-01-11T10:16:02.000Z</time>
      </trkpt>
      <trkpt lat="50.61979" lon="4.19536">
        <ele>143.9</ele>
        <time>2015-01-11T10:16:03.000Z</time>
      </trkpt>
      <trkpt lat="50.61979" lon="4.19537">
        <ele>143.9</ele>
        <time>2015-01-11T10:16:04.000Z</time>
      </trkpt>
      <trkpt lat="50.61978" lon="4.19539">
        <ele>143.8</ele>
        <time>2015-01-11T10:16:05.000Z</time>
      </trkpt>
      <trkpt lat="50.61978" lon="4.19539">
        <ele>143.8</ele>
        <time>2015-01-11T10:16:06.000Z</time>
      </trkpt>
      <trkpt lat="50.61978" lon="4.19539">
        <ele>143.8</ele>
        <time>2015-01-11T10:16:07.000Z</time>
      </trkpt>
      <trkpt lat="50.61978" lon="4.1954">
        <ele>143.8</ele>
        <time>2015-01-11T10:16:08.000Z</time>
      </trkpt>
      <trkpt lat="50.61978" lon="4.1954">
        <ele>143.8</ele>
        <time>2015-01-11T10:16:09.000Z</time>
      </trkpt>
      <trkpt lat="50.61978" lon="4.19541">
        <ele>143.7</ele>
        <time>2015-01-11T10:16:10.000Z</time>
      </trkpt>
      <trkpt lat="50.61978" lon="4.19541">
        <ele>143.7</ele>
        <time>2015-01-11T10:16:11.000Z</time>
      </trkpt>
      <trkpt lat="50.61978" lon="4.19542">
        <ele>143.7</ele>
        <time>2015-01-11T10:16:12.000Z</time>
      </trkpt>
      <trkpt lat="50.61977" lon="4.19543">
        <ele>143.6</ele>
        <time>2015-01-11T10:16:13.000Z</time>
      </trkpt>
      <trkpt lat="50.61977" lon="4.19543">
        <ele>143.6</ele>
        <time>2015-01-11T10:16:14.000Z</time>
      </trkpt>
      <trkpt lat="50.61977" lon="4.19543">
        <ele>143.6</ele>
        <time>2015-01-11T10:16:15.000Z</time>
      </trkpt>
      <trkpt lat="50.61977" lon="4.19543">
        <ele>143.6</ele>
        <time>2015-01-11T10:16:16.000Z</time>
      </trkpt>
      <trkpt lat="50.61976" lon="4.19544">
        <ele>143.6</ele>
        <time>2015-01-11T10:16:17.000Z</time>
      </trkpt>
      <trkpt lat="50.61976" lon="4.19544">
        <ele>143.6</ele>
        <time>2015-01-11T10:16:18.000Z</time>
      </trkpt>
      <trkpt lat="50.61976" lon="4.19544">
        <ele>143.6</ele>
        <time>2015-01-11T10:16:19.000Z</time>
      </trkpt>
      <trkpt lat="50.61976" lon="4.19545">
        <ele>143.5</ele>
        <time>2015-01-11T10:16:20.000Z</time>
      </trkpt>
      <trkpt lat="50.61976" lon="4.19546">
        <ele>143.5</ele>
        <time>2015-01-11T10:16:21.000Z</time>
      </trkpt>
      <trkpt lat="50.61976" lon="4.19546">
        <ele>143.5</ele>
        <time>2015-01-11T10:16:22.000Z</time>
      </trkpt>
      <trkpt lat="50.61976" lon="4.19546">
        <ele>143.5</ele>
        <time>2015-01-11T10:16:23.000Z</time>
      </trkpt>
      <trkpt lat="50.61976" lon="4.19546">
        <ele>143.5</ele>
        <time>2015-01-11T10:16:24.000Z</time>
      </trkpt>
      <trkpt lat="50.61976" lon="4.19546">
        <ele>143.5</ele>
        <time>2015-01-11T10:16:25.000Z</time>
      </trkpt>
      <trkpt lat="50.61976" lon="4.19546">
        <ele>143.5</ele>
        <time>2015-01-11T10:16:26.000Z</time>
      </trkpt>
      <trkpt lat="50.61976" lon="4.19546">
        <ele>143.5</ele>
        <time>2015-01-11T10:16:27.000Z</time>
      </trkpt>
      <trkpt lat="50.61975" lon="4.19547">
        <ele>143.4</ele>
        <time>2015-01-11T10:16:28.000Z</time>
      </trkpt>
      <trkpt lat="50.61975" lon="4.19547">
        <ele>143.4</ele>
        <time>2015-01-11T10:16:29.000Z</time>
      </trkpt>
      <trkpt lat="50.61974" lon="4.19547">
        <ele>143.4</ele>
        <time>2015-01-11T10:16:30.000Z</time>
      </trkpt>
      <trkpt lat="50.61974" lon="4.19547">
        <ele>143.3</ele>
        <time>2015-01-11T10:16:31.000Z</time>
      </trkpt>
      <trkpt lat="50.61972" lon="4.19547">
        <ele>143.3</ele>
        <time>2015-01-11T10:16:32.000Z</time>
      </trkpt>
      <trkpt lat="50.61971" lon="4.19546">
        <ele>143.3</ele>
        <time>2015-01-11T10:16:33.000Z</time>
      </trkpt>
      <trkpt lat="50.6197" lon="4.19545">
        <ele>143.4</ele>
        <time>2015-01-11T10:16:34.000Z</time>
      </trkpt>
      <trkpt lat="50.61968" lon="4.19544">
        <ele>143.4</ele>
        <time>2015-01-11T10:16:35.000Z</time>
      </trkpt>
      <trkpt lat="50.61967" lon="4.19542">
        <ele>143.5</ele>
        <time>2015-01-11T10:16:36.000Z</time>
      </trkpt>
      <trkpt lat="50.61965" lon="4.19541">
        <ele>143.5</ele>
        <time>2015-01-11T10:16:37.000Z</time>
      </trkpt>
      <trkpt lat="50.61964" lon="4.1954">
        <ele>143.6</ele>
        <time>2015-01-11T10:16:38.000Z</time>
      </trkpt>
      <trkpt lat="50.61959" lon="4.19536">
        <ele>143.7</ele>
        <time>2015-01-11T10:16:39.000Z</time>
      </trkpt>
      <trkpt lat="50.61959" lon="4.19536">
        <ele>143.7</ele>
        <time>2015-01-11T10:16:40.000Z</time>
      </trkpt>
      <trkpt lat="50.61958" lon="4.19535">
        <ele>143.7</ele>
        <time>2015-01-11T10:16:41.000Z</time>
      </trkpt>
      <trkpt lat="50.61957" lon="4.19535">
        <ele>143.7</ele>
        <time>2015-01-11T10:16:42.000Z</time>
      </trkpt>
      <trkpt lat="50.61956" lon="4.19534">
        <ele>143.8</ele>
        <time>2015-01-11T10:16:43.000Z</time>
      </trkpt>
      <trkpt lat="50.61955" lon="4.19533">
        <ele>143.8</ele>
        <time>2015-01-11T10:16:44.000Z</time>
      </trkpt>
      <trkpt lat="50.61954" lon="4.19531">
        <ele>143.9</ele>
        <time>2015-01-11T10:16:45.000Z</time>
      </trkpt>
      <trkpt lat="50.61952" lon="4.1953">
        <ele>143.9</ele>
        <time>2015-01-11T10:16:46.000Z</time>
      </trkpt>
      <trkpt lat="50.61951" lon="4.19528">
        <ele>144</ele>
        <time>2015-01-11T10:16:47.000Z</time>
      </trkpt>
      <trkpt lat="50.61949" lon="4.19525">
        <ele>144.1</ele>
        <time>2015-01-11T10:16:48.000Z</time>
      </trkpt>
      <trkpt lat="50.61948" lon="4.19523">
        <ele>144.2</ele>
        <time>2015-01-11T10:16:49.000Z</time>
      </trkpt>
      <trkpt lat="50.61946" lon="4.19521">
        <ele>144.2</ele>
        <time>2015-01-11T10:16:50.000Z</time>
      </trkpt>
      <trkpt lat="50.61945" lon="4.19519">
        <ele>144.3</ele>
        <time>2015-01-11T10:16:51.000Z</time>
      </trkpt>
      <trkpt lat="50.61943" lon="4.19517">
        <ele>144.4</ele>
        <time>2015-01-11T10:16:52.000Z</time>
      </trkpt>
      <trkpt lat="50.61942" lon="4.19515">
        <ele>144.4</ele>
        <time>2015-01-11T10:16:53.000Z</time>
      </trkpt>
      <trkpt lat="50.6194" lon="4.19513">
        <ele>144.4</ele>
        <time>2015-01-11T10:16:54.000Z</time>
      </trkpt>
      <trkpt lat="50.61938" lon="4.1951">
        <ele>144.4</ele>
        <time>2015-01-11T10:16:55.000Z</time>
      </trkpt>
      <trkpt lat="50.61936" lon="4.19508">
        <ele>144.4</ele>
        <time>2015-01-11T10:16:56.000Z</time>
      </trkpt>
      <trkpt lat="50.61934" lon="4.19506">
        <ele>144.4</ele>
        <time>2015-01-11T10:16:57.000Z</time>
      </trkpt>
      <trkpt lat="50.61933" lon="4.19505">
        <ele>144.4</ele>
        <time>2015-01-11T10:16:58.000Z</time>
      </trkpt>
      <trkpt lat="50.61931" lon="4.19503">
        <ele>144.4</ele>
        <time>2015-01-11T10:16:59.000Z</time>
      </trkpt>
      <trkpt lat="50.61929" lon="4.19501">
        <ele>144.4</ele>
        <time>2015-01-11T10:17:00.000Z</time>
      </trkpt>
      <trkpt lat="50.61926" lon="4.19498">
        <ele>144.4</ele>
        <time>2015-01-11T10:17:01.000Z</time>
      </trkpt>
      <trkpt lat="50.61924" lon="4.19497">
        <ele>144.3</ele>
        <time>2015-01-11T10:17:02.000Z</time>
      </trkpt>
      <trkpt lat="50.61923" lon="4.19495">
        <ele>144.2</ele>
        <time>2015-01-11T10:17:03.000Z</time>
      </trkpt>
      <trkpt lat="50.61921" lon="4.19493">
        <ele>144.2</ele>
        <time>2015-01-11T10:17:04.000Z</time>
      </trkpt>
      <trkpt lat="50.61919" lon="4.19491">
        <ele>144.1</ele>
        <time>2015-01-11T10:17:05.000Z</time>
      </trkpt>
      <trkpt lat="50.61918" lon="4.19489">
        <ele>144</ele>
        <time>2015-01-11T10:17:06.000Z</time>
      </trkpt>
      <trkpt lat="50.61917" lon="4.19488">
        <ele>144</ele>
        <time>2015-01-11T10:17:07.000Z</time>
      </trkpt>
      <trkpt lat="50.61915" lon="4.19486">
        <ele>143.9</ele>
        <time>2015-01-11T10:17:08.000Z</time>
      </trkpt>
      <trkpt lat="50.61913" lon="4.19484">
        <ele>143.8</ele>
        <time>2015-01-11T10:17:09.000Z</time>
      </trkpt>
      <trkpt lat="50.61912" lon="4.19483">
        <ele>143.8</ele>
        <time>2015-01-11T10:17:10.000Z</time>
      </trkpt>
      <trkpt lat="50.6191" lon="4.19481">
        <ele>143.7</ele>
        <time>2015-01-11T10:17:11.000Z</time>
      </trkpt>
      <trkpt lat="50.61908" lon="4.1948">
        <ele>143.6</ele>
        <time>2015-01-11T10:17:12.000Z</time>
      </trkpt>
      <trkpt lat="50.61906" lon="4.19478">
        <ele>143.6</ele>
        <time>2015-01-11T10:17:13.000Z</time>
      </trkpt>
      <trkpt lat="50.61905" lon="4.19476">
        <ele>143.5</ele>
        <time>2015-01-11T10:17:14.000Z</time>
      </trkpt>
      <trkpt lat="50.61903" lon="4.19474">
        <ele>143.5</ele>
        <time>2015-01-11T10:17:15.000Z</time>
      </trkpt>
      <trkpt lat="50.61901" lon="4.19472">
        <ele>143.4</ele>
        <time>2015-01-11T10:17:16.000Z</time>
      </trkpt>
      <trkpt lat="50.61898" lon="4.19469">
        <ele>143.5</ele>
        <time>2015-01-11T10:17:17.000Z</time>
      </trkpt>
      <trkpt lat="50.61896" lon="4.19467">
        <ele>143.5</ele>
        <time>2015-01-11T10:17:18.000Z</time>
      </trkpt>
      <trkpt lat="50.61894" lon="4.19464">
        <ele>143.5</ele>
        <time>2015-01-11T10:17:19.000Z</time>
      </trkpt>
      <trkpt lat="50.61892" lon="4.19462">
        <ele>143.5</ele>
        <time>2015-01-11T10:17:20.000Z</time>
      </trkpt>
      <trkpt lat="50.61891" lon="4.1946">
        <ele>143.5</ele>
        <time>2015-01-11T10:17:21.000Z</time>
      </trkpt>
      <trkpt lat="50.61889" lon="4.19458">
        <ele>143.5</ele>
        <time>2015-01-11T10:17:22.000Z</time>
      </trkpt>
      <trkpt lat="50.61887" lon="4.19455">
        <ele>143.5</ele>
        <time>2015-01-11T10:17:23.000Z</time>
      </trkpt>
      <trkpt lat="50.61886" lon="4.19453">
        <ele>143.5</ele>
        <time>2015-01-11T10:17:24.000Z</time>
      </trkpt>
      <trkpt lat="50.61884" lon="4.19451">
        <ele>143.4</ele>
        <time>2015-01-11T10:17:25.000Z</time>
      </trkpt>
      <trkpt lat="50.61883" lon="4.19449">
        <ele>143.4</ele>
        <time>2015-01-11T10:17:26.000Z</time>
      </trkpt>
      <trkpt lat="50.61882" lon="4.19447">
        <ele>143.4</ele>
        <time>2015-01-11T10:17:27.000Z</time>
      </trkpt>
      <trkpt lat="50.6188" lon="4.19446">
        <ele>143.3</ele>
        <time>2015-01-11T10:17:28.000Z</time>
      </trkpt>
      <trkpt lat="50.61879" lon="4.19443">
        <ele>143.3</ele>
        <time>2015-01-11T10:17:29.000Z</time>
      </trkpt>
      <trkpt lat="50.61877" lon="4.19441">
        <ele>143.3</ele>
        <time>2015-01-11T10:17:30.000Z</time>
      </trkpt>
      <trkpt lat="50.61875" lon="4.19439">
        <ele>143.3</ele>
        <time>2015-01-11T10:17:31.000Z</time>
      </trkpt>
      <trkpt lat="50.61874" lon="4.19437">
        <ele>143.3</ele>
        <time>2015-01-11T10:17:32.000Z</time>
      </trkpt>
      <trkpt lat="50.61872" lon="4.19435">
        <ele>143.3</ele>
        <time>2015-01-11T10:17:33.000Z</time>
      </trkpt>
      <trkpt lat="50.6187" lon="4.19433">
        <ele>143.3</ele>
        <time>2015-01-11T10:17:34.000Z</time>
      </trkpt>
      <trkpt lat="50.61868" lon="4.19432">
        <ele>143.3</ele>
        <time>2015-01-11T10:17:35.000Z</time>
      </trkpt>
      <trkpt lat="50.61866" lon="4.1943">
        <ele>143.3</ele>
        <time>2015-01-11T10:17:36.000Z</time>
      </trkpt>
      <trkpt lat="50.61864" lon="4.19428">
        <ele>143.4</ele>
        <time>2015-01-11T10:17:37.000Z</time>
      </trkpt>
      <trkpt lat="50.61863" lon="4.19426">
        <ele>143.4</ele>
        <time>2015-01-11T10:17:38.000Z</time>
      </trkpt>
      <trkpt lat="50.61861" lon="4.19425">
        <ele>143.4</ele>
        <time>2015-01-11T10:17:39.000Z</time>
      </trkpt>
      <trkpt lat="50.6186" lon="4.19423">
        <ele>143.4</ele>
        <time>2015-01-11T10:17:40.000Z</time>
      </trkpt>
      <trkpt lat="50.61858" lon="4.19422">
        <ele>143.4</ele>
        <time>2015-01-11T10:17:41.000Z</time>
      </trkpt>
      <trkpt lat="50.61857" lon="4.19421">
        <ele>143.4</ele>
        <time>2015-01-11T10:17:42.000Z</time>
      </trkpt>
      <trkpt lat="50.61855" lon="4.19419">
        <ele>143.4</ele>
        <time>2015-01-11T10:17:43.000Z</time>
      </trkpt>
      <trkpt lat="50.61854" lon="4.19418">
        <ele>143.4</ele>
        <time>2015-01-11T10:17:44.000Z</time>
      </trkpt>
      <trkpt lat="50.61852" lon="4.19416">
        <ele>143.4</ele>
        <time>2015-01-11T10:17:45.000Z</time>
      </trkpt>
      <trkpt lat="50.6185" lon="4.19415">
        <ele>143.3</ele>
        <time>2015-01-11T10:17:46.000Z</time>
      </trkpt>
      <trkpt lat="50.61849" lon="4.19413">
        <ele>143.2</ele>
        <time>2015-01-11T10:17:47.000Z</time>
      </trkpt>
      <trkpt lat="50.61847" lon="4.19411">
        <ele>143.2</ele>
        <time>2015-01-11T10:17:48.000Z</time>
      </trkpt>
      <trkpt lat="50.61846" lon="4.19409">
        <ele>143.1</ele>
        <time>2015-01-11T10:17:49.000Z</time>
      </trkpt>
      <trkpt lat="50.61844" lon="4.19408">
        <ele>143.1</ele>
        <time>2015-01-11T10:17:50.000Z</time>
      </trkpt>
      <trkpt lat="50.61843" lon="4.19406">
        <ele>143</ele>
        <time>2015-01-11T10:17:51.000Z</time>
      </trkpt>
      <trkpt lat="50.61841" lon="4.19405">
        <ele>143</ele>
        <time>2015-01-11T10:17:52.000Z</time>
      </trkpt>
      <trkpt lat="50.61839" lon="4.19403">
        <ele>142.9</ele>
        <time>2015-01-11T10:17:53.000Z</time>
      </trkpt>
      <trkpt lat="50.61838" lon="4.19401">
        <ele>142.9</ele>
        <time>2015-01-11T10:17:54.000Z</time>
      </trkpt>
      <trkpt lat="50.61836" lon="4.19399">
        <ele>142.8</ele>
        <time>2015-01-11T10:17:55.000Z</time>
      </trkpt>
      <trkpt lat="50.61834" lon="4.19398">
        <ele>142.7</ele>
        <time>2015-01-11T10:17:56.000Z</time>
      </trkpt>
      <trkpt lat="50.61832" lon="4.19397">
        <ele>142.7</ele>
        <time>2015-01-11T10:17:57.000Z</time>
      </trkpt>
      <trkpt lat="50.61831" lon="4.19395">
        <ele>142.7</ele>
        <time>2015-01-11T10:17:58.000Z</time>
      </trkpt>
      <trkpt lat="50.61829" lon="4.19394">
        <ele>142.6</ele>
        <time>2015-01-11T10:17:59.000Z</time>
      </trkpt>
      <trkpt lat="50.61828" lon="4.19392">
        <ele>142.6</ele>
        <time>2015-01-11T10:18:00.000Z</time>
      </trkpt>
      <trkpt lat="50.61826" lon="4.19391">
        <ele>142.7</ele>
        <time>2015-01-11T10:18:01.000Z</time>
      </trkpt>
      <trkpt lat="50.61825" lon="4.1939">
        <ele>142.7</ele>
        <time>2015-01-11T10:18:02.000Z</time>
      </trkpt>
      <trkpt lat="50.61824" lon="4.19388">
        <ele>142.7</ele>
        <time>2015-01-11T10:18:03.000Z</time>
      </trkpt>
      <trkpt lat="50.61822" lon="4.19386">
        <ele>142.8</ele>
        <time>2015-01-11T10:18:04.000Z</time>
      </trkpt>
      <trkpt lat="50.6182" lon="4.19384">
        <ele>142.8</ele>
        <time>2015-01-11T10:18:05.000Z</time>
      </trkpt>
      <trkpt lat="50.61819" lon="4.19382">
        <ele>142.8</ele>
        <time>2015-01-11T10:18:06.000Z</time>
      </trkpt>
      <trkpt lat="50.61818" lon="4.1938">
        <ele>142.9</ele>
        <time>2015-01-11T10:18:07.000Z</time>
      </trkpt>
      <trkpt lat="50.61817" lon="4.19377">
        <ele>143</ele>
        <time>2015-01-11T10:18:08.000Z</time>
      </trkpt>
      <trkpt lat="50.61815" lon="4.19375">
        <ele>143</ele>
        <time>2015-01-11T10:18:09.000Z</time>
      </trkpt>
      <trkpt lat="50.61814" lon="4.19373">
        <ele>143</ele>
        <time>2015-01-11T10:18:10.000Z</time>
      </trkpt>
      <trkpt lat="50.61812" lon="4.19371">
        <ele>143.1</ele>
        <time>2015-01-11T10:18:11.000Z</time>
      </trkpt>
      <trkpt lat="50.61811" lon="4.19369">
        <ele>143.1</ele>
        <time>2015-01-11T10:18:12.000Z</time>
      </trkpt>
      <trkpt lat="50.61809" lon="4.19367">
        <ele>143</ele>
        <time>2015-01-11T10:18:13.000Z</time>
      </trkpt>
      <trkpt lat="50.61808" lon="4.19366">
        <ele>143</ele>
        <time>2015-01-11T10:18:14.000Z</time>
      </trkpt>
      <trkpt lat="50.61807" lon="4.19364">
        <ele>143</ele>
        <time>2015-01-11T10:18:15.000Z</time>
      </trkpt>
      <trkpt lat="50.61805" lon="4.19363">
        <ele>142.9</ele>
        <time>2015-01-11T10:18:16.000Z</time>
      </trkpt>
      <trkpt lat="50.61804" lon="4.19362">
        <ele>142.9</ele>
        <time>2015-01-11T10:18:17.000Z</time>
      </trkpt>
      <trkpt lat="50.61803" lon="4.19361">
        <ele>142.8</ele>
        <time>2015-01-11T10:18:18.000Z</time>
      </trkpt>
      <trkpt lat="50.61802" lon="4.19359">
        <ele>142.8</ele>
        <time>2015-01-11T10:18:19.000Z</time>
      </trkpt>
      <trkpt lat="50.618" lon="4.19358">
        <ele>142.7</ele>
        <time>2015-01-11T10:18:20.000Z</time>
      </trkpt>
      <trkpt lat="50.61799" lon="4.19356">
        <ele>142.7</ele>
        <time>2015-01-11T10:18:21.000Z</time>
      </trkpt>
      <trkpt lat="50.61797" lon="4.19354">
        <ele>142.7</ele>
        <time>2015-01-11T10:18:22.000Z</time>
      </trkpt>
      <trkpt lat="50.61796" lon="4.19352">
        <ele>142.6</ele>
        <time>2015-01-11T10:18:23.000Z</time>
      </trkpt>
      <trkpt lat="50.61794" lon="4.1935">
        <ele>142.6</ele>
        <time>2015-01-11T10:18:24.000Z</time>
      </trkpt>
      <trkpt lat="50.61792" lon="4.19348">
        <ele>142.5</ele>
        <time>2015-01-11T10:18:25.000Z</time>
      </trkpt>
      <trkpt lat="50.6179" lon="4.19345">
        <ele>142.5</ele>
        <time>2015-01-11T10:18:26.000Z</time>
      </trkpt>
      <trkpt lat="50.61789" lon="4.19343">
        <ele>142.4</ele>
        <time>2015-01-11T10:18:27.000Z</time>
      </trkpt>
      <trkpt lat="50.61787" lon="4.19341">
        <ele>142.4</ele>
        <time>2015-01-11T10:18:28.000Z</time>
      </trkpt>
      <trkpt lat="50.61786" lon="4.19339">
        <ele>142.4</ele>
        <time>2015-01-11T10:18:29.000Z</time>
      </trkpt>
      <trkpt lat="50.61784" lon="4.19337">
        <ele>142.3</ele>
        <time>2015-01-11T10:18:30.000Z</time>
      </trkpt>
      <trkpt lat="50.61783" lon="4.19335">
        <ele>142.3</ele>
        <time>2015-01-11T10:18:31.000Z</time>
      </trkpt>
      <trkpt lat="50.61781" lon="4.19333">
        <ele>142.3</ele>
        <time>2015-01-11T10:18:32.000Z</time>
      </trkpt>
      <trkpt lat="50.6178" lon="4.19331">
        <ele>142.3</ele>
        <time>2015-01-11T10:18:33.000Z</time>
      </trkpt>
      <trkpt lat="50.61778" lon="4.19329">
        <ele>142.4</ele>
        <time>2015-01-11T10:18:34.000Z</time>
      </trkpt>
      <trkpt lat="50.61777" lon="4.19327">
        <ele>142.4</ele>
        <time>2015-01-11T10:18:35.000Z</time>
      </trkpt>
      <trkpt lat="50.61775" lon="4.19325">
        <ele>142.5</ele>
        <time>2015-01-11T10:18:36.000Z</time>
      </trkpt>
      <trkpt lat="50.61774" lon="4.19323">
        <ele>142.6</ele>
        <time>2015-01-11T10:18:37.000Z</time>
      </trkpt>
      <trkpt lat="50.61772" lon="4.19322">
        <ele>142.6</ele>
        <time>2015-01-11T10:18:38.000Z</time>
      </trkpt>
      <trkpt lat="50.61771" lon="4.1932">
        <ele>142.7</ele>
        <time>2015-01-11T10:18:39.000Z</time>
      </trkpt>
      <trkpt lat="50.61769" lon="4.19318">
        <ele>142.8</ele>
        <time>2015-01-11T10:18:40.000Z</time>
      </trkpt>
      <trkpt lat="50.61768" lon="4.19316">
        <ele>142.9</ele>
        <time>2015-01-11T10:18:41.000Z</time>
      </trkpt>
      <trkpt lat="50.61766" lon="4.19313">
        <ele>143</ele>
        <time>2015-01-11T10:18:42.000Z</time>
      </trkpt>
      <trkpt lat="50.61765" lon="4.19311">
        <ele>143.1</ele>
        <time>2015-01-11T10:18:43.000Z</time>
      </trkpt>
      <trkpt lat="50.61763" lon="4.1931">
        <ele>143.2</ele>
        <time>2015-01-11T10:18:44.000Z</time>
      </trkpt>
      <trkpt lat="50.61762" lon="4.19308">
        <ele>143.3</ele>
        <time>2015-01-11T10:18:45.000Z</time>
      </trkpt>
      <trkpt lat="50.6176" lon="4.19306">
        <ele>143.3</ele>
        <time>2015-01-11T10:18:46.000Z</time>
      </trkpt>
      <trkpt lat="50.61759" lon="4.19305">
        <ele>143.4</ele>
        <time>2015-01-11T10:18:47.000Z</time>
      </trkpt>
      <trkpt lat="50.61757" lon="4.19303">
        <ele>143.4</ele>
        <time>2015-01-11T10:18:48.000Z</time>
      </trkpt>
      <trkpt lat="50.61755" lon="4.19302">
        <ele>143.4</ele>
        <time>2015-01-11T10:18:49.000Z</time>
      </trkpt>
      <trkpt lat="50.61754" lon="4.19301">
        <ele>143.5</ele>
        <time>2015-01-11T10:18:50.000Z</time>
      </trkpt>
      <trkpt lat="50.61752" lon="4.19299">
        <ele>143.5</ele>
        <time>2015-01-11T10:18:51.000Z</time>
      </trkpt>
      <trkpt lat="50.6175" lon="4.19298">
        <ele>143.6</ele>
        <time>2015-01-11T10:18:52.000Z</time>
      </trkpt>
      <trkpt lat="50.61749" lon="4.19296">
        <ele>143.6</ele>
        <time>2015-01-11T10:18:53.000Z</time>
      </trkpt>
      <trkpt lat="50.61747" lon="4.19295">
        <ele>143.6</ele>
        <time>2015-01-11T10:18:54.000Z</time>
      </trkpt>
      <trkpt lat="50.61745" lon="4.19293">
        <ele>143.6</ele>
        <time>2015-01-11T10:18:55.000Z</time>
      </trkpt>
      <trkpt lat="50.61744" lon="4.19292">
        <ele>143.5</ele>
        <time>2015-01-11T10:18:56.000Z</time>
      </trkpt>
      <trkpt lat="50.61742" lon="4.1929">
        <ele>143.5</ele>
        <time>2015-01-11T10:18:57.000Z</time>
      </trkpt>
      <trkpt lat="50.61741" lon="4.19289">
        <ele>143.6</ele>
        <time>2015-01-11T10:18:58.000Z</time>
      </trkpt>
      <trkpt lat="50.61739" lon="4.19287">
        <ele>143.6</ele>
        <time>2015-01-11T10:18:59.000Z</time>
      </trkpt>
      <trkpt lat="50.61738" lon="4.19285">
        <ele>143.6</ele>
        <time>2015-01-11T10:19:00.000Z</time>
      </trkpt>
      <trkpt lat="50.61737" lon="4.19284">
        <ele>143.6</ele>
        <time>2015-01-11T10:19:01.000Z</time>
      </trkpt>
      <trkpt lat="50.61735" lon="4.19282">
        <ele>143.6</ele>
        <time>2015-01-11T10:19:02.000Z</time>
      </trkpt>
      <trkpt lat="50.61734" lon="4.1928">
        <ele>143.7</ele>
        <time>2015-01-11T10:19:03.000Z</time>
      </trkpt>
      <trkpt lat="50.61733" lon="4.19277">
        <ele>143.8</ele>
        <time>2015-01-11T10:19:04.000Z</time>
      </trkpt>
      <trkpt lat="50.61732" lon="4.19274">
        <ele>143.9</ele>
        <time>2015-01-11T10:19:05.000Z</time>
      </trkpt>
      <trkpt lat="50.61731" lon="4.19271">
        <ele>144</ele>
        <time>2015-01-11T10:19:06.000Z</time>
      </trkpt>
      <trkpt lat="50.6173" lon="4.19269">
        <ele>144.2</ele>
        <time>2015-01-11T10:19:07.000Z</time>
      </trkpt>
      <trkpt lat="50.6173" lon="4.19266">
        <ele>144.3</ele>
        <time>2015-01-11T10:19:08.000Z</time>
      </trkpt>
      <trkpt lat="50.61728" lon="4.19263">
        <ele>144.4</ele>
        <time>2015-01-11T10:19:09.000Z</time>
      </trkpt>
      <trkpt lat="50.61727" lon="4.1926">
        <ele>144.5</ele>
        <time>2015-01-11T10:19:10.000Z</time>
      </trkpt>
      <trkpt lat="50.61726" lon="4.19258">
        <ele>144.6</ele>
        <time>2015-01-11T10:19:11.000Z</time>
      </trkpt>
      <trkpt lat="50.61725" lon="4.19256">
        <ele>144.7</ele>
        <time>2015-01-11T10:19:12.000Z</time>
      </trkpt>
      <trkpt lat="50.61724" lon="4.19254">
        <ele>144.8</ele>
        <time>2015-01-11T10:19:13.000Z</time>
      </trkpt>
      <trkpt lat="50.61723" lon="4.19251">
        <ele>144.9</ele>
        <time>2015-01-11T10:19:14.000Z</time>
      </trkpt>
      <trkpt lat="50.61722" lon="4.19249">
        <ele>145</ele>
        <time>2015-01-11T10:19:15.000Z</time>
      </trkpt>
      <trkpt lat="50.61721" lon="4.19246">
        <ele>145</ele>
        <time>2015-01-11T10:19:16.000Z</time>
      </trkpt>
      <trkpt lat="50.6172" lon="4.19244">
        <ele>145.1</ele>
        <time>2015-01-11T10:19:17.000Z</time>
      </trkpt>
      <trkpt lat="50.61719" lon="4.19242">
        <ele>145.1</ele>
        <time>2015-01-11T10:19:18.000Z</time>
      </trkpt>
      <trkpt lat="50.61719" lon="4.1924">
        <ele>145.1</ele>
        <time>2015-01-11T10:19:19.000Z</time>
      </trkpt>
      <trkpt lat="50.61718" lon="4.19238">
        <ele>145.2</ele>
        <time>2015-01-11T10:19:20.000Z</time>
      </trkpt>
      <trkpt lat="50.61717" lon="4.19236">
        <ele>145.2</ele>
        <time>2015-01-11T10:19:21.000Z</time>
      </trkpt>
      <trkpt lat="50.61717" lon="4.19235">
        <ele>145.2</ele>
        <time>2015-01-11T10:19:22.000Z</time>
      </trkpt>
      <trkpt lat="50.61716" lon="4.19233">
        <ele>145.3</ele>
        <time>2015-01-11T10:19:23.000Z</time>
      </trkpt>
      <trkpt lat="50.61715" lon="4.19231">
        <ele>145.3</ele>
        <time>2015-01-11T10:19:24.000Z</time>
      </trkpt>
      <trkpt lat="50.61715" lon="4.19229">
        <ele>145.4</ele>
        <time>2015-01-11T10:19:25.000Z</time>
      </trkpt>
      <trkpt lat="50.61714" lon="4.19227">
        <ele>145.5</ele>
        <time>2015-01-11T10:19:26.000Z</time>
      </trkpt>
      <trkpt lat="50.61713" lon="4.19225">
        <ele>145.6</ele>
        <time>2015-01-11T10:19:27.000Z</time>
      </trkpt>
      <trkpt lat="50.61712" lon="4.19223">
        <ele>145.6</ele>
        <time>2015-01-11T10:19:28.000Z</time>
      </trkpt>
      <trkpt lat="50.61712" lon="4.19221">
        <ele>145.7</ele>
        <time>2015-01-11T10:19:29.000Z</time>
      </trkpt>
      <trkpt lat="50.61711" lon="4.19219">
        <ele>145.7</ele>
        <time>2015-01-11T10:19:30.000Z</time>
      </trkpt>
      <trkpt lat="50.6171" lon="4.19216">
        <ele>145.8</ele>
        <time>2015-01-11T10:19:31.000Z</time>
      </trkpt>
      <trkpt lat="50.61709" lon="4.19214">
        <ele>145.8</ele>
        <time>2015-01-11T10:19:32.000Z</time>
      </trkpt>
      <trkpt lat="50.61708" lon="4.19212">
        <ele>145.9</ele>
        <time>2015-01-11T10:19:33.000Z</time>
      </trkpt>
      <trkpt lat="50.61707" lon="4.1921">
        <ele>145.9</ele>
        <time>2015-01-11T10:19:34.000Z</time>
      </trkpt>
      <trkpt lat="50.61706" lon="4.19208">
        <ele>146</ele>
        <time>2015-01-11T10:19:35.000Z</time>
      </trkpt>
      <trkpt lat="50.61705" lon="4.19205">
        <ele>146</ele>
        <time>2015-01-11T10:19:36.000Z</time>
      </trkpt>
      <trkpt lat="50.61705" lon="4.19203">
        <ele>146</ele>
        <time>2015-01-11T10:19:37.000Z</time>
      </trkpt>
      <trkpt lat="50.61704" lon="4.19201">
        <ele>146.1</ele>
        <time>2015-01-11T10:19:38.000Z</time>
      </trkpt>
      <trkpt lat="50.61703" lon="4.19199">
        <ele>146.1</ele>
        <time>2015-01-11T10:19:39.000Z</time>
      </trkpt>
      <trkpt lat="50.61702" lon="4.19197">
        <ele>146.2</ele>
        <time>2015-01-11T10:19:40.000Z</time>
      </trkpt>
      <trkpt lat="50.61701" lon="4.19195">
        <ele>146.2</ele>
        <time>2015-01-11T10:19:41.000Z</time>
      </trkpt>
      <trkpt lat="50.617" lon="4.19193">
        <ele>146.3</ele>
        <time>2015-01-11T10:19:42.000Z</time>
      </trkpt>
      <trkpt lat="50.61699" lon="4.1919">
        <ele>146.5</ele>
        <time>2015-01-11T10:19:43.000Z</time>
      </trkpt>
      <trkpt lat="50.61697" lon="4.19188">
        <ele>146.6</ele>
        <time>2015-01-11T10:19:44.000Z</time>
      </trkpt>
      <trkpt lat="50.61696" lon="4.19185">
        <ele>146.7</ele>
        <time>2015-01-11T10:19:45.000Z</time>
      </trkpt>
      <trkpt lat="50.61695" lon="4.19183">
        <ele>146.9</ele>
        <time>2015-01-11T10:19:46.000Z</time>
      </trkpt>
      <trkpt lat="50.61694" lon="4.1918">
        <ele>147</ele>
        <time>2015-01-11T10:19:47.000Z</time>
      </trkpt>
      <trkpt lat="50.61693" lon="4.19178">
        <ele>147.1</ele>
        <time>2015-01-11T10:19:48.000Z</time>
      </trkpt>
      <trkpt lat="50.61692" lon="4.19176">
        <ele>147.2</ele>
        <time>2015-01-11T10:19:49.000Z</time>
      </trkpt>
      <trkpt lat="50.61691" lon="4.19174">
        <ele>147.2</ele>
        <time>2015-01-11T10:19:50.000Z</time>
      </trkpt>
      <trkpt lat="50.6169" lon="4.19172">
        <ele>147.3</ele>
        <time>2015-01-11T10:19:51.000Z</time>
      </trkpt>
      <trkpt lat="50.61689" lon="4.1917">
        <ele>147.4</ele>
        <time>2015-01-11T10:19:52.000Z</time>
      </trkpt>
      <trkpt lat="50.61689" lon="4.19168">
        <ele>147.5</ele>
        <time>2015-01-11T10:19:53.000Z</time>
      </trkpt>
      <trkpt lat="50.61688" lon="4.19166">
        <ele>147.6</ele>
        <time>2015-01-11T10:19:54.000Z</time>
      </trkpt>
      <trkpt lat="50.61687" lon="4.19163">
        <ele>147.6</ele>
        <time>2015-01-11T10:19:55.000Z</time>
      </trkpt>
      <trkpt lat="50.61686" lon="4.19161">
        <ele>147.6</ele>
        <time>2015-01-11T10:19:56.000Z</time>
      </trkpt>
      <trkpt lat="50.61685" lon="4.19159">
        <ele>147.7</ele>
        <time>2015-01-11T10:19:57.000Z</time>
      </trkpt>
      <trkpt lat="50.61684" lon="4.19157">
        <ele>147.7</ele>
        <time>2015-01-11T10:19:58.000Z</time>
      </trkpt>
      <trkpt lat="50.61683" lon="4.19155">
        <ele>147.8</ele>
        <time>2015-01-11T10:19:59.000Z</time>
      </trkpt>
      <trkpt lat="50.61682" lon="4.19153">
        <ele>147.8</ele>
        <time>2015-01-11T10:20:00.000Z</time>
      </trkpt>
      <trkpt lat="50.61681" lon="4.1915">
        <ele>147.9</ele>
        <time>2015-01-11T10:20:01.000Z</time>
      </trkpt>
      <trkpt lat="50.6168" lon="4.19148">
        <ele>148</ele>
        <time>2015-01-11T10:20:02.000Z</time>
      </trkpt>
      <trkpt lat="50.61679" lon="4.19146">
        <ele>148</ele>
        <time>2015-01-11T10:20:03.000Z</time>
      </trkpt>
      <trkpt lat="50.61678" lon="4.19144">
        <ele>148.1</ele>
        <time>2015-01-11T10:20:04.000Z</time>
      </trkpt>
      <trkpt lat="50.61677" lon="4.19142">
        <ele>148.2</ele>
        <time>2015-01-11T10:20:05.000Z</time>
      </trkpt>
      <trkpt lat="50.61676" lon="4.19139">
        <ele>148.3</ele>
        <time>2015-01-11T10:20:06.000Z</time>
      </trkpt>
      <trkpt lat="50.61676" lon="4.19137">
        <ele>148.4</ele>
        <time>2015-01-11T10:20:07.000Z</time>
      </trkpt>
      <trkpt lat="50.61675" lon="4.19135">
        <ele>148.4</ele>
        <time>2015-01-11T10:20:08.000Z</time>
      </trkpt>
      <trkpt lat="50.61675" lon="4.19133">
        <ele>148.5</ele>
        <time>2015-01-11T10:20:09.000Z</time>
      </trkpt>
      <trkpt lat="50.61674" lon="4.19131">
        <ele>148.6</ele>
        <time>2015-01-11T10:20:10.000Z</time>
      </trkpt>
      <trkpt lat="50.61673" lon="4.19129">
        <ele>148.6</ele>
        <time>2015-01-11T10:20:11.000Z</time>
      </trkpt>
      <trkpt lat="50.61673" lon="4.19127">
        <ele>148.7</ele>
        <time>2015-01-11T10:20:12.000Z</time>
      </trkpt>
      <trkpt lat="50.61672" lon="4.19125">
        <ele>148.7</ele>
        <time>2015-01-11T10:20:13.000Z</time>
      </trkpt>
      <trkpt lat="50.61671" lon="4.19123">
        <ele>148.7</ele>
        <time>2015-01-11T10:20:14.000Z</time>
      </trkpt>
      <trkpt lat="50.61671" lon="4.19121">
        <ele>148.8</ele>
        <time>2015-01-11T10:20:15.000Z</time>
      </trkpt>
      <trkpt lat="50.6167" lon="4.19119">
        <ele>148.8</ele>
        <time>2015-01-11T10:20:16.000Z</time>
      </trkpt>
      <trkpt lat="50.61669" lon="4.19117">
        <ele>148.9</ele>
        <time>2015-01-11T10:20:17.000Z</time>
      </trkpt>
      <trkpt lat="50.61668" lon="4.19115">
        <ele>148.9</ele>
        <time>2015-01-11T10:20:18.000Z</time>
      </trkpt>
      <trkpt lat="50.61667" lon="4.19113">
        <ele>149</ele>
        <time>2015-01-11T10:20:19.000Z</time>
      </trkpt>
      <trkpt lat="50.61666" lon="4.1911">
        <ele>149</ele>
        <time>2015-01-11T10:20:20.000Z</time>
      </trkpt>
      <trkpt lat="50.61665" lon="4.19108">
        <ele>149.1</ele>
        <time>2015-01-11T10:20:21.000Z</time>
      </trkpt>
      <trkpt lat="50.61664" lon="4.19105">
        <ele>149.1</ele>
        <time>2015-01-11T10:20:22.000Z</time>
      </trkpt>
      <trkpt lat="50.61663" lon="4.19103">
        <ele>149.1</ele>
        <time>2015-01-11T10:20:23.000Z</time>
      </trkpt>
      <trkpt lat="50.61661" lon="4.19101">
        <ele>149.2</ele>
        <time>2015-01-11T10:20:24.000Z</time>
      </trkpt>
      <trkpt lat="50.6166" lon="4.19098">
        <ele>149.2</ele>
        <time>2015-01-11T10:20:25.000Z</time>
      </trkpt>
      <trkpt lat="50.61659" lon="4.19096">
        <ele>149.3</ele>
        <time>2015-01-11T10:20:26.000Z</time>
      </trkpt>
      <trkpt lat="50.61658" lon="4.19093">
        <ele>149.4</ele>
        <time>2015-01-11T10:20:27.000Z</time>
      </trkpt>
      <trkpt lat="50.61657" lon="4.1909">
        <ele>149.4</ele>
        <time>2015-01-11T10:20:28.000Z</time>
      </trkpt>
      <trkpt lat="50.61656" lon="4.19088">
        <ele>149.5</ele>
        <time>2015-01-11T10:20:29.000Z</time>
      </trkpt>
      <trkpt lat="50.61655" lon="4.19085">
        <ele>149.5</ele>
        <time>2015-01-11T10:20:30.000Z</time>
      </trkpt>
      <trkpt lat="50.61654" lon="4.19083">
        <ele>149.6</ele>
        <time>2015-01-11T10:20:31.000Z</time>
      </trkpt>
      <trkpt lat="50.61653" lon="4.1908">
        <ele>149.6</ele>
        <time>2015-01-11T10:20:32.000Z</time>
      </trkpt>
      <trkpt lat="50.61652" lon="4.19078">
        <ele>149.7</ele>
        <time>2015-01-11T10:20:33.000Z</time>
      </trkpt>
      <trkpt lat="50.61651" lon="4.19075">
        <ele>149.7</ele>
        <time>2015-01-11T10:20:34.000Z</time>
      </trkpt>
      <trkpt lat="50.61651" lon="4.19073">
        <ele>149.8</ele>
        <time>2015-01-11T10:20:35.000Z</time>
      </trkpt>
      <trkpt lat="50.6165" lon="4.19071">
        <ele>149.8</ele>
        <time>2015-01-11T10:20:36.000Z</time>
      </trkpt>
      <trkpt lat="50.61649" lon="4.19069">
        <ele>149.9</ele>
        <time>2015-01-11T10:20:37.000Z</time>
      </trkpt>
      <trkpt lat="50.61648" lon="4.19067">
        <ele>149.9</ele>
        <time>2015-01-11T10:20:38.000Z</time>
      </trkpt>
      <trkpt lat="50.61648" lon="4.19065">
        <ele>150</ele>
        <time>2015-01-11T10:20:39.000Z</time>
      </trkpt>
      <trkpt lat="50.61647" lon="4.19063">
        <ele>150</ele>
        <time>2015-01-11T10:20:40.000Z</time>
      </trkpt>
      <trkpt lat="50.61646" lon="4.1906">
        <ele>150.1</ele>
        <time>2015-01-11T10:20:41.000Z</time>
      </trkpt>
      <trkpt lat="50.61645" lon="4.19058">
        <ele>150.1</ele>
        <time>2015-01-11T10:20:42.000Z</time>
      </trkpt>
      <trkpt lat="50.61645" lon="4.19056">
        <ele>150.2</ele>
        <time>2015-01-11T10:20:43.000Z</time>
      </trkpt>
      <trkpt lat="50.61644" lon="4.19054">
        <ele>150.2</ele>
        <time>2015-01-11T10:20:44.000Z</time>
      </trkpt>
      <trkpt lat="50.61643" lon="4.19052">
        <ele>150.3</ele>
        <time>2015-01-11T10:20:45.000Z</time>
      </trkpt>
      <trkpt lat="50.61642" lon="4.1905">
        <ele>150.3</ele>
        <time>2015-01-11T10:20:46.000Z</time>
      </trkpt>
      <trkpt lat="50.61641" lon="4.19048">
        <ele>150.3</ele>
        <time>2015-01-11T10:20:47.000Z</time>
      </trkpt>
      <trkpt lat="50.61641" lon="4.19046">
        <ele>150.4</ele>
        <time>2015-01-11T10:20:48.000Z</time>
      </trkpt>
      <trkpt lat="50.6164" lon="4.19044">
        <ele>150.4</ele>
        <time>2015-01-11T10:20:49.000Z</time>
      </trkpt>
      <trkpt lat="50.61639" lon="4.19042">
        <ele>150.5</ele>
        <time>2015-01-11T10:20:50.000Z</time>
      </trkpt>
      <trkpt lat="50.61639" lon="4.1904">
        <ele>150.5</ele>
        <time>2015-01-11T10:20:51.000Z</time>
      </trkpt>
      <trkpt lat="50.61638" lon="4.19038">
        <ele>150.6</ele>
        <time>2015-01-11T10:20:52.000Z</time>
      </trkpt>
      <trkpt lat="50.61638" lon="4.19037">
        <ele>150.6</ele>
        <time>2015-01-11T10:20:53.000Z</time>
      </trkpt>
      <trkpt lat="50.61637" lon="4.19035">
        <ele>150.7</ele>
        <time>2015-01-11T10:20:54.000Z</time>
      </trkpt>
      <trkpt lat="50.61636" lon="4.19033">
        <ele>150.7</ele>
        <time>2015-01-11T10:20:55.000Z</time>
      </trkpt>
      <trkpt lat="50.61636" lon="4.19032">
        <ele>150.8</ele>
        <time>2015-01-11T10:20:56.000Z</time>
      </trkpt>
      <trkpt lat="50.61635" lon="4.19029">
        <ele>150.8</ele>
        <time>2015-01-11T10:20:57.000Z</time>
      </trkpt>
      <trkpt lat="50.61635" lon="4.19027">
        <ele>150.9</ele>
        <time>2015-01-11T10:20:58.000Z</time>
      </trkpt>
      <trkpt lat="50.61634" lon="4.19025">
        <ele>150.9</ele>
        <time>2015-01-11T10:20:59.000Z</time>
      </trkpt>
      <trkpt lat="50.61633" lon="4.19022">
        <ele>151</ele>
        <time>2015-01-11T10:21:00.000Z</time>
      </trkpt>
      <trkpt lat="50.61633" lon="4.1902">
        <ele>151.1</ele>
        <time>2015-01-11T10:21:01.000Z</time>
      </trkpt>
      <trkpt lat="50.61632" lon="4.19018">
        <ele>151.1</ele>
        <time>2015-01-11T10:21:02.000Z</time>
      </trkpt>
      <trkpt lat="50.61631" lon="4.19015">
        <ele>151.2</ele>
        <time>2015-01-11T10:21:03.000Z</time>
      </trkpt>
      <trkpt lat="50.61631" lon="4.19013">
        <ele>151.2</ele>
        <time>2015-01-11T10:21:04.000Z</time>
      </trkpt>
      <trkpt lat="50.6163" lon="4.19011">
        <ele>151.3</ele>
        <time>2015-01-11T10:21:05.000Z</time>
      </trkpt>
      <trkpt lat="50.6163" lon="4.19009">
        <ele>151.4</ele>
        <time>2015-01-11T10:21:06.000Z</time>
      </trkpt>
      <trkpt lat="50.6163" lon="4.19007">
        <ele>151.4</ele>
        <time>2015-01-11T10:21:07.000Z</time>
      </trkpt>
      <trkpt lat="50.61629" lon="4.19005">
        <ele>151.5</ele>
        <time>2015-01-11T10:21:08.000Z</time>
      </trkpt>
      <trkpt lat="50.61629" lon="4.19003">
        <ele>151.5</ele>
        <time>2015-01-11T10:21:09.000Z</time>
      </trkpt>
      <trkpt lat="50.61628" lon="4.19002">
        <ele>151.5</ele>
        <time>2015-01-11T10:21:10.000Z</time>
      </trkpt>
      <trkpt lat="50.61627" lon="4.19">
        <ele>151.6</ele>
        <time>2015-01-11T10:21:11.000Z</time>
      </trkpt>
      <trkpt lat="50.61626" lon="4.18998">
        <ele>151.6</ele>
        <time>2015-01-11T10:21:12.000Z</time>
      </trkpt>
      <trkpt lat="50.61626" lon="4.18996">
        <ele>151.6</ele>
        <time>2015-01-11T10:21:13.000Z</time>
      </trkpt>
      <trkpt lat="50.61625" lon="4.18994">
        <ele>151.6</ele>
        <time>2015-01-11T10:21:14.000Z</time>
      </trkpt>
      <trkpt lat="50.61624" lon="4.18992">
        <ele>151.6</ele>
        <time>2015-01-11T10:21:15.000Z</time>
      </trkpt>
      <trkpt lat="50.61623" lon="4.18989">
        <ele>151.7</ele>
        <time>2015-01-11T10:21:16.000Z</time>
      </trkpt>
      <trkpt lat="50.61623" lon="4.18987">
        <ele>151.7</ele>
        <time>2015-01-11T10:21:17.000Z</time>
      </trkpt>
      <trkpt lat="50.61621" lon="4.18984">
        <ele>151.7</ele>
        <time>2015-01-11T10:21:18.000Z</time>
      </trkpt>
      <trkpt lat="50.6162" lon="4.18981">
        <ele>151.8</ele>
        <time>2015-01-11T10:21:19.000Z</time>
      </trkpt>
      <trkpt lat="50.61619" lon="4.18978">
        <ele>151.9</ele>
        <time>2015-01-11T10:21:20.000Z</time>
      </trkpt>
      <trkpt lat="50.61618" lon="4.18975">
        <ele>151.9</ele>
        <time>2015-01-11T10:21:21.000Z</time>
      </trkpt>
      <trkpt lat="50.61617" lon="4.18973">
        <ele>152</ele>
        <time>2015-01-11T10:21:22.000Z</time>
      </trkpt>
      <trkpt lat="50.61616" lon="4.1897">
        <ele>152</ele>
        <time>2015-01-11T10:21:23.000Z</time>
      </trkpt>
      <trkpt lat="50.61615" lon="4.18968">
        <ele>152</ele>
        <time>2015-01-11T10:21:24.000Z</time>
      </trkpt>
      <trkpt lat="50.61614" lon="4.18966">
        <ele>152</ele>
        <time>2015-01-11T10:21:25.000Z</time>
      </trkpt>
      <trkpt lat="50.61613" lon="4.18964">
        <ele>152</ele>
        <time>2015-01-11T10:21:26.000Z</time>
      </trkpt>
      <trkpt lat="50.61611" lon="4.18961">
        <ele>152</ele>
        <time>2015-01-11T10:21:27.000Z</time>
      </trkpt>
      <trkpt lat="50.61611" lon="4.18959">
        <ele>152</ele>
        <time>2015-01-11T10:21:28.000Z</time>
      </trkpt>
      <trkpt lat="50.6161" lon="4.18956">
        <ele>152</ele>
        <time>2015-01-11T10:21:29.000Z</time>
      </trkpt>
      <trkpt lat="50.61609" lon="4.18954">
        <ele>152</ele>
        <time>2015-01-11T10:21:30.000Z</time>
      </trkpt>
      <trkpt lat="50.61608" lon="4.18951">
        <ele>152</ele>
        <time>2015-01-11T10:21:31.000Z</time>
      </trkpt>
      <trkpt lat="50.61607" lon="4.18949">
        <ele>152</ele>
        <time>2015-01-11T10:21:32.000Z</time>
      </trkpt>
      <trkpt lat="50.61606" lon="4.18946">
        <ele>152</ele>
        <time>2015-01-11T10:21:33.000Z</time>
      </trkpt>
      <trkpt lat="50.61605" lon="4.18944">
        <ele>152</ele>
        <time>2015-01-11T10:21:34.000Z</time>
      </trkpt>
      <trkpt lat="50.61604" lon="4.18941">
        <ele>152.1</ele>
        <time>2015-01-11T10:21:35.000Z</time>
      </trkpt>
      <trkpt lat="50.61603" lon="4.18939">
        <ele>152.1</ele>
        <time>2015-01-11T10:21:36.000Z</time>
      </trkpt>
      <trkpt lat="50.61602" lon="4.18936">
        <ele>152.2</ele>
        <time>2015-01-11T10:21:37.000Z</time>
      </trkpt>
      <trkpt lat="50.61601" lon="4.18934">
        <ele>152.2</ele>
        <time>2015-01-11T10:21:38.000Z</time>
      </trkpt>
      <trkpt lat="50.616" lon="4.18931">
        <ele>152.3</ele>
        <time>2015-01-11T10:21:39.000Z</time>
      </trkpt>
      <trkpt lat="50.616" lon="4.18929">
        <ele>152.3</ele>
        <time>2015-01-11T10:21:40.000Z</time>
      </trkpt>
      <trkpt lat="50.61599" lon="4.18927">
        <ele>152.4</ele>
        <time>2015-01-11T10:21:41.000Z</time>
      </trkpt>
      <trkpt lat="50.61598" lon="4.18924">
        <ele>152.4</ele>
        <time>2015-01-11T10:21:42.000Z</time>
      </trkpt>
      <trkpt lat="50.61597" lon="4.18921">
        <ele>152.4</ele>
        <time>2015-01-11T10:21:43.000Z</time>
      </trkpt>
      <trkpt lat="50.61596" lon="4.18918">
        <ele>152.4</ele>
        <time>2015-01-11T10:21:44.000Z</time>
      </trkpt>
      <trkpt lat="50.61595" lon="4.18915">
        <ele>152.5</ele>
        <time>2015-01-11T10:21:45.000Z</time>
      </trkpt>
      <trkpt lat="50.61594" lon="4.18911">
        <ele>152.5</ele>
        <time>2015-01-11T10:21:46.000Z</time>
      </trkpt>
      <trkpt lat="50.61593" lon="4.18908">
        <ele>152.6</ele>
        <time>2015-01-11T10:21:47.000Z</time>
      </trkpt>
      <trkpt lat="50.61591" lon="4.18903">
        <ele>152.6</ele>
        <time>2015-01-11T10:21:48.000Z</time>
      </trkpt>
      <trkpt lat="50.6159" lon="4.18899">
        <ele>152.7</ele>
        <time>2015-01-11T10:21:49.000Z</time>
      </trkpt>
      <trkpt lat="50.61589" lon="4.18896">
        <ele>152.8</ele>
        <time>2015-01-11T10:21:50.000Z</time>
      </trkpt>
      <trkpt lat="50.61588" lon="4.18893">
        <ele>152.9</ele>
        <time>2015-01-11T10:21:51.000Z</time>
      </trkpt>
      <trkpt lat="50.61587" lon="4.18889">
        <ele>153</ele>
        <time>2015-01-11T10:21:52.000Z</time>
      </trkpt>
      <trkpt lat="50.61586" lon="4.18886">
        <ele>153</ele>
        <time>2015-01-11T10:21:53.000Z</time>
      </trkpt>
      <trkpt lat="50.61585" lon="4.18883">
        <ele>153</ele>
        <time>2015-01-11T10:21:54.000Z</time>
      </trkpt>
      <trkpt lat="50.61584" lon="4.1888">
        <ele>153</ele>
        <time>2015-01-11T10:21:55.000Z</time>
      </trkpt>
      <trkpt lat="50.61583" lon="4.18878">
        <ele>153</ele>
        <time>2015-01-11T10:21:56.000Z</time>
      </trkpt>
      <trkpt lat="50.61582" lon="4.18875">
        <ele>152.9</ele>
        <time>2015-01-11T10:21:57.000Z</time>
      </trkpt>
      <trkpt lat="50.61581" lon="4.18872">
        <ele>152.9</ele>
        <time>2015-01-11T10:21:58.000Z</time>
      </trkpt>
      <trkpt lat="50.6158" lon="4.1887">
        <ele>152.9</ele>
        <time>2015-01-11T10:21:59.000Z</time>
      </trkpt>
      <trkpt lat="50.61578" lon="4.18867">
        <ele>152.9</ele>
        <time>2015-01-11T10:22:00.000Z</time>
      </trkpt>
      <trkpt lat="50.61577" lon="4.18865">
        <ele>152.9</ele>
        <time>2015-01-11T10:22:01.000Z</time>
      </trkpt>
      <trkpt lat="50.61576" lon="4.18862">
        <ele>153</ele>
        <time>2015-01-11T10:22:02.000Z</time>
      </trkpt>
      <trkpt lat="50.61575" lon="4.1886">
        <ele>153</ele>
        <time>2015-01-11T10:22:03.000Z</time>
      </trkpt>
      <trkpt lat="50.61574" lon="4.18857">
        <ele>153.1</ele>
        <time>2015-01-11T10:22:04.000Z</time>
      </trkpt>
      <trkpt lat="50.61573" lon="4.18855">
        <ele>153.2</ele>
        <time>2015-01-11T10:22:05.000Z</time>
      </trkpt>
      <trkpt lat="50.61572" lon="4.18852">
        <ele>153.3</ele>
        <time>2015-01-11T10:22:06.000Z</time>
      </trkpt>
      <trkpt lat="50.61571" lon="4.1885">
        <ele>153.4</ele>
        <time>2015-01-11T10:22:07.000Z</time>
      </trkpt>
      <trkpt lat="50.6157" lon="4.18848">
        <ele>153.5</ele>
        <time>2015-01-11T10:22:08.000Z</time>
      </trkpt>
      <trkpt lat="50.61569" lon="4.18845">
        <ele>153.6</ele>
        <time>2015-01-11T10:22:09.000Z</time>
      </trkpt>
      <trkpt lat="50.61568" lon="4.18843">
        <ele>153.6</ele>
        <time>2015-01-11T10:22:10.000Z</time>
      </trkpt>
      <trkpt lat="50.61566" lon="4.18841">
        <ele>153.7</ele>
        <time>2015-01-11T10:22:11.000Z</time>
      </trkpt>
      <trkpt lat="50.61565" lon="4.18839">
        <ele>153.8</ele>
        <time>2015-01-11T10:22:12.000Z</time>
      </trkpt>
      <trkpt lat="50.61564" lon="4.18837">
        <ele>153.9</ele>
        <time>2015-01-11T10:22:13.000Z</time>
      </trkpt>
      <trkpt lat="50.61563" lon="4.18835">
        <ele>154</ele>
        <time>2015-01-11T10:22:14.000Z</time>
      </trkpt>
      <trkpt lat="50.61562" lon="4.18832">
        <ele>154</ele>
        <time>2015-01-11T10:22:15.000Z</time>
      </trkpt>
      <trkpt lat="50.61562" lon="4.1883">
        <ele>154</ele>
        <time>2015-01-11T10:22:16.000Z</time>
      </trkpt>
      <trkpt lat="50.61561" lon="4.18828">
        <ele>154</ele>
        <time>2015-01-11T10:22:17.000Z</time>
      </trkpt>
      <trkpt lat="50.6156" lon="4.18826">
        <ele>154</ele>
        <time>2015-01-11T10:22:18.000Z</time>
      </trkpt>
      <trkpt lat="50.61559" lon="4.18823">
        <ele>154</ele>
        <time>2015-01-11T10:22:19.000Z</time>
      </trkpt>
      <trkpt lat="50.61558" lon="4.18821">
        <ele>154</ele>
        <time>2015-01-11T10:22:20.000Z</time>
      </trkpt>
      <trkpt lat="50.61557" lon="4.18819">
        <ele>154</ele>
        <time>2015-01-11T10:22:21.000Z</time>
      </trkpt>
      <trkpt lat="50.61557" lon="4.18816">
        <ele>154</ele>
        <time>2015-01-11T10:22:22.000Z</time>
      </trkpt>
      <trkpt lat="50.61556" lon="4.18813">
        <ele>154</ele>
        <time>2015-01-11T10:22:23.000Z</time>
      </trkpt>
      <trkpt lat="50.61555" lon="4.1881">
        <ele>154</ele>
        <time>2015-01-11T10:22:24.000Z</time>
      </trkpt>
      <trkpt lat="50.61554" lon="4.18808">
        <ele>154</ele>
        <time>2015-01-11T10:22:25.000Z</time>
      </trkpt>
      <trkpt lat="50.61553" lon="4.18805">
        <ele>154</ele>
        <time>2015-01-11T10:22:26.000Z</time>
      </trkpt>
      <trkpt lat="50.61552" lon="4.18803">
        <ele>154</ele>
        <time>2015-01-11T10:22:27.000Z</time>
      </trkpt>
      <trkpt lat="50.61551" lon="4.18801">
        <ele>154</ele>
        <time>2015-01-11T10:22:28.000Z</time>
      </trkpt>
      <trkpt lat="50.6155" lon="4.18798">
        <ele>154.1</ele>
        <time>2015-01-11T10:22:29.000Z</time>
      </trkpt>
      <trkpt lat="50.61549" lon="4.18796">
        <ele>154.1</ele>
        <time>2015-01-11T10:22:30.000Z</time>
      </trkpt>
      <trkpt lat="50.61548" lon="4.18794">
        <ele>154.1</ele>
        <time>2015-01-11T10:22:31.000Z</time>
      </trkpt>
      <trkpt lat="50.61548" lon="4.18792">
        <ele>154.1</ele>
        <time>2015-01-11T10:22:32.000Z</time>
      </trkpt>
      <trkpt lat="50.61547" lon="4.18789">
        <ele>154.2</ele>
        <time>2015-01-11T10:22:33.000Z</time>
      </trkpt>
      <trkpt lat="50.61546" lon="4.18787">
        <ele>154.2</ele>
        <time>2015-01-11T10:22:34.000Z</time>
      </trkpt>
      <trkpt lat="50.61545" lon="4.18785">
        <ele>154.3</ele>
        <time>2015-01-11T10:22:35.000Z</time>
      </trkpt>
      <trkpt lat="50.61544" lon="4.18783">
        <ele>154.3</ele>
        <time>2015-01-11T10:22:36.000Z</time>
      </trkpt>
      <trkpt lat="50.61543" lon="4.1878">
        <ele>154.4</ele>
        <time>2015-01-11T10:22:37.000Z</time>
      </trkpt>
      <trkpt lat="50.61543" lon="4.18778">
        <ele>154.5</ele>
        <time>2015-01-11T10:22:38.000Z</time>
      </trkpt>
      <trkpt lat="50.61542" lon="4.18776">
        <ele>154.5</ele>
        <time>2015-01-11T10:22:39.000Z</time>
      </trkpt>
      <trkpt lat="50.61541" lon="4.18773">
        <ele>154.6</ele>
        <time>2015-01-11T10:22:40.000Z</time>
      </trkpt>
      <trkpt lat="50.6154" lon="4.18771">
        <ele>154.7</ele>
        <time>2015-01-11T10:22:41.000Z</time>
      </trkpt>
      <trkpt lat="50.6154" lon="4.18768">
        <ele>154.7</ele>
        <time>2015-01-11T10:22:42.000Z</time>
      </trkpt>
      <trkpt lat="50.61539" lon="4.18766">
        <ele>154.8</ele>
        <time>2015-01-11T10:22:43.000Z</time>
      </trkpt>
      <trkpt lat="50.61538" lon="4.18763">
        <ele>154.8</ele>
        <time>2015-01-11T10:22:44.000Z</time>
      </trkpt>
      <trkpt lat="50.61537" lon="4.18761">
        <ele>154.9</ele>
        <time>2015-01-11T10:22:45.000Z</time>
      </trkpt>
      <trkpt lat="50.61537" lon="4.18758">
        <ele>154.9</ele>
        <time>2015-01-11T10:22:46.000Z</time>
      </trkpt>
      <trkpt lat="50.61536" lon="4.18756">
        <ele>154.9</ele>
        <time>2015-01-11T10:22:47.000Z</time>
      </trkpt>
      <trkpt lat="50.61535" lon="4.18754">
        <ele>155</ele>
        <time>2015-01-11T10:22:48.000Z</time>
      </trkpt>
      <trkpt lat="50.61534" lon="4.18751">
        <ele>155</ele>
        <time>2015-01-11T10:22:49.000Z</time>
      </trkpt>
      <trkpt lat="50.61533" lon="4.18749">
        <ele>155</ele>
        <time>2015-01-11T10:22:50.000Z</time>
      </trkpt>
      <trkpt lat="50.61532" lon="4.18748">
        <ele>155</ele>
        <time>2015-01-11T10:22:51.000Z</time>
      </trkpt>
      <trkpt lat="50.61532" lon="4.18746">
        <ele>155</ele>
        <time>2015-01-11T10:22:52.000Z</time>
      </trkpt>
      <trkpt lat="50.61531" lon="4.18744">
        <ele>155</ele>
        <time>2015-01-11T10:22:53.000Z</time>
      </trkpt>
      <trkpt lat="50.6153" lon="4.18742">
        <ele>155</ele>
        <time>2015-01-11T10:22:54.000Z</time>
      </trkpt>
      <trkpt lat="50.61529" lon="4.1874">
        <ele>155</ele>
        <time>2015-01-11T10:22:55.000Z</time>
      </trkpt>
      <trkpt lat="50.61528" lon="4.18738">
        <ele>155</ele>
        <time>2015-01-11T10:22:56.000Z</time>
      </trkpt>
      <trkpt lat="50.61527" lon="4.18736">
        <ele>155</ele>
        <time>2015-01-11T10:22:57.000Z</time>
      </trkpt>
      <trkpt lat="50.61526" lon="4.18734">
        <ele>155</ele>
        <time>2015-01-11T10:22:58.000Z</time>
      </trkpt>
      <trkpt lat="50.61525" lon="4.18732">
        <ele>155</ele>
        <time>2015-01-11T10:22:59.000Z</time>
      </trkpt>
      <trkpt lat="50.61524" lon="4.1873">
        <ele>155</ele>
        <time>2015-01-11T10:23:00.000Z</time>
      </trkpt>
      <trkpt lat="50.61523" lon="4.18728">
        <ele>155</ele>
        <time>2015-01-11T10:23:01.000Z</time>
      </trkpt>
      <trkpt lat="50.61522" lon="4.18725">
        <ele>155</ele>
        <time>2015-01-11T10:23:02.000Z</time>
      </trkpt>
      <trkpt lat="50.61521" lon="4.18723">
        <ele>155</ele>
        <time>2015-01-11T10:23:03.000Z</time>
      </trkpt>
      <trkpt lat="50.6152" lon="4.18721">
        <ele>155</ele>
        <time>2015-01-11T10:23:04.000Z</time>
      </trkpt>
      <trkpt lat="50.61519" lon="4.18719">
        <ele>155</ele>
        <time>2015-01-11T10:23:05.000Z</time>
      </trkpt>
      <trkpt lat="50.61518" lon="4.18717">
        <ele>155</ele>
        <time>2015-01-11T10:23:06.000Z</time>
      </trkpt>
      <trkpt lat="50.61517" lon="4.18714">
        <ele>155</ele>
        <time>2015-01-11T10:23:07.000Z</time>
      </trkpt>
      <trkpt lat="50.61517" lon="4.18713">
        <ele>155</ele>
        <time>2015-01-11T10:23:08.000Z</time>
      </trkpt>
      <trkpt lat="50.61515" lon="4.18706">
        <ele>155</ele>
        <time>2015-01-11T10:23:09.000Z</time>
      </trkpt>
      <trkpt lat="50.61515" lon="4.18706">
        <ele>155</ele>
        <time>2015-01-11T10:23:10.000Z</time>
      </trkpt>
      <trkpt lat="50.61515" lon="4.18706">
        <ele>155</ele>
        <time>2015-01-11T10:23:11.000Z</time>
      </trkpt>
      <trkpt lat="50.61515" lon="4.18705">
        <ele>155</ele>
        <time>2015-01-11T10:23:12.000Z</time>
      </trkpt>
      <trkpt lat="50.61515" lon="4.18704">
        <ele>155</ele>
        <time>2015-01-11T10:23:13.000Z</time>
      </trkpt>
      <trkpt lat="50.61515" lon="4.18703">
        <ele>155</ele>
        <time>2015-01-11T10:23:14.000Z</time>
      </trkpt>
      <trkpt lat="50.61515" lon="4.18701">
        <ele>155</ele>
        <time>2015-01-11T10:23:15.000Z</time>
      </trkpt>
      <trkpt lat="50.61515" lon="4.187">
        <ele>155</ele>
        <time>2015-01-11T10:23:16.000Z</time>
      </trkpt>
      <trkpt lat="50.61515" lon="4.18698">
        <ele>155</ele>
        <time>2015-01-11T10:23:17.000Z</time>
      </trkpt>
      <trkpt lat="50.61514" lon="4.18696">
        <ele>155</ele>
        <time>2015-01-11T10:23:18.000Z</time>
      </trkpt>
      <trkpt lat="50.61514" lon="4.18694">
        <ele>155</ele>
        <time>2015-01-11T10:23:19.000Z</time>
      </trkpt>
      <trkpt lat="50.61513" lon="4.18692">
        <ele>155</ele>
        <time>2015-01-11T10:23:20.000Z</time>
      </trkpt>
      <trkpt lat="50.61513" lon="4.1869">
        <ele>155</ele>
        <time>2015-01-11T10:23:21.000Z</time>
      </trkpt>
      <trkpt lat="50.61512" lon="4.18688">
        <ele>155</ele>
        <time>2015-01-11T10:23:22.000Z</time>
      </trkpt>
      <trkpt lat="50.61512" lon="4.18685">
        <ele>155</ele>
        <time>2015-01-11T10:23:23.000Z</time>
      </trkpt>
      <trkpt lat="50.61511" lon="4.18683">
        <ele>155</ele>
        <time>2015-01-11T10:23:24.000Z</time>
      </trkpt>
      <trkpt lat="50.6151" lon="4.18681">
        <ele>155</ele>
        <time>2015-01-11T10:23:25.000Z</time>
      </trkpt>
      <trkpt lat="50.6151" lon="4.18679">
        <ele>155</ele>
        <time>2015-01-11T10:23:26.000Z</time>
      </trkpt>
      <trkpt lat="50.61509" lon="4.18677">
        <ele>155</ele>
        <time>2015-01-11T10:23:27.000Z</time>
      </trkpt>
      <trkpt lat="50.61509" lon="4.18675">
        <ele>155</ele>
        <time>2015-01-11T10:23:28.000Z</time>
      </trkpt>
      <trkpt lat="50.61508" lon="4.18673">
        <ele>155</ele>
        <time>2015-01-11T10:23:29.000Z</time>
      </trkpt>
      <trkpt lat="50.61508" lon="4.18672">
        <ele>155</ele>
        <time>2015-01-11T10:23:30.000Z</time>
      </trkpt>
      <trkpt lat="50.61508" lon="4.18671">
        <ele>155</ele>
        <time>2015-01-11T10:23:31.000Z</time>
      </trkpt>
      <trkpt lat="50.61509" lon="4.18669">
        <ele>155</ele>
        <time>2015-01-11T10:23:32.000Z</time>
      </trkpt>
      <trkpt lat="50.61509" lon="4.18669">
        <ele>155</ele>
        <time>2015-01-11T10:23:33.000Z</time>
      </trkpt>
      <trkpt lat="50.6151" lon="4.1867">
        <ele>155</ele>
        <time>2015-01-11T10:23:34.000Z</time>
      </trkpt>
      <trkpt lat="50.6151" lon="4.18671">
        <ele>155</ele>
        <time>2015-01-11T10:23:35.000Z</time>
      </trkpt>
      <trkpt lat="50.61511" lon="4.18672">
        <ele>155</ele>
        <time>2015-01-11T10:23:36.000Z</time>
      </trkpt>
      <trkpt lat="50.61512" lon="4.18674">
        <ele>155</ele>
        <time>2015-01-11T10:23:37.000Z</time>
      </trkpt>
      <trkpt lat="50.61512" lon="4.18674">
        <ele>155</ele>
        <time>2015-01-11T10:23:38.000Z</time>
      </trkpt>
      <trkpt lat="50.61512" lon="4.18674">
        <ele>155</ele>
        <time>2015-01-11T10:23:39.000Z</time>
      </trkpt>
      <trkpt lat="50.61512" lon="4.18674">
        <ele>155</ele>
        <time>2015-01-11T10:23:40.000Z</time>
      </trkpt>
      <trkpt lat="50.61511" lon="4.18673">
        <ele>155</ele>
        <time>2015-01-11T10:23:41.000Z</time>
      </trkpt>
      <trkpt lat="50.61511" lon="4.18672">
        <ele>155</ele>
        <time>2015-01-11T10:23:42.000Z</time>
      </trkpt>
      <trkpt lat="50.61511" lon="4.18671">
        <ele>155</ele>
        <time>2015-01-11T10:23:43.000Z</time>
      </trkpt>
      <trkpt lat="50.61511" lon="4.1867">
        <ele>155</ele>
        <time>2015-01-11T10:23:44.000Z</time>
      </trkpt>
      <trkpt lat="50.61511" lon="4.18669">
        <ele>155</ele>
        <time>2015-01-11T10:23:45.000Z</time>
      </trkpt>
      <trkpt lat="50.61511" lon="4.18668">
        <ele>155</ele>
        <time>2015-01-11T10:23:46.000Z</time>
      </trkpt>
      <trkpt lat="50.61511" lon="4.18668">
        <ele>155</ele>
        <time>2015-01-11T10:23:47.000Z</time>
      </trkpt>
      <trkpt lat="50.61511" lon="4.18668">
        <ele>155</ele>
        <time>2015-01-11T10:23:48.000Z</time>
      </trkpt>
      <trkpt lat="50.61511" lon="4.18668">
        <ele>155</ele>
        <time>2015-01-11T10:23:49.000Z</time>
      </trkpt>
      <trkpt lat="50.61511" lon="4.18668">
        <ele>155</ele>
        <time>2015-01-11T10:23:50.000Z</time>
      </trkpt>
      <trkpt lat="50.61511" lon="4.18668">
        <ele>155</ele>
        <time>2015-01-11T10:23:51.000Z</time>
      </trkpt>
      <trkpt lat="50.61511" lon="4.18669">
        <ele>155</ele>
        <time>2015-01-11T10:23:52.000Z</time>
      </trkpt>
      <trkpt lat="50.61511" lon="4.18669">
        <ele>155</ele>
        <time>2015-01-11T10:23:53.000Z</time>
      </trkpt>
      <trkpt lat="50.61511" lon="4.18669">
        <ele>155</ele>
        <time>2015-01-11T10:23:54.000Z</time>
      </trkpt>
      <trkpt lat="50.61511" lon="4.18669">
        <ele>155</ele>
        <time>2015-01-11T10:23:55.000Z</time>
      </trkpt>
      <trkpt lat="50.61511" lon="4.18669">
        <ele>155</ele>
        <time>2015-01-11T10:23:56.000Z</time>
      </trkpt>
      <trkpt lat="50.61511" lon="4.18669">
        <ele>155</ele>
        <time>2015-01-11T10:23:57.000Z</time>
      </trkpt>
      <trkpt lat="50.61511" lon="4.18669">
        <ele>155</ele>
        <time>2015-01-11T10:23:58.000Z</time>
      </trkpt>
      <trkpt lat="50.61511" lon="4.1867">
        <ele>155</ele>
        <time>2015-01-11T10:23:59.000Z</time>
      </trkpt>
      <trkpt lat="50.61511" lon="4.1867">
        <ele>155</ele>
        <time>2015-01-11T10:24:00.000Z</time>
      </trkpt>
      <trkpt lat="50.61511" lon="4.1867">
        <ele>155</ele>
        <time>2015-01-11T10:24:01.000Z</time>
      </trkpt>
      <trkpt lat="50.61511" lon="4.1867">
        <ele>155</ele>
        <time>2015-01-11T10:24:02.000Z</time>
      </trkpt>
      <trkpt lat="50.61512" lon="4.18671">
        <ele>155</ele>
        <time>2015-01-11T10:24:03.000Z</time>
      </trkpt>
      <trkpt lat="50.61511" lon="4.18671">
        <ele>155</ele>
        <time>2015-01-11T10:24:04.000Z</time>
      </trkpt>
      <trkpt lat="50.61511" lon="4.18671">
        <ele>155</ele>
        <time>2015-01-11T10:24:05.000Z</time>
      </trkpt>
      <trkpt lat="50.61511" lon="4.18671">
        <ele>155</ele>
        <time>2015-01-11T10:24:06.000Z</time>
      </trkpt>
      <trkpt lat="50.61511" lon="4.18671">
        <ele>155</ele>
        <time>2015-01-11T10:24:07.000Z</time>
      </trkpt>
      <trkpt lat="50.61511" lon="4.18671">
        <ele>155</ele>
        <time>2015-01-11T10:24:08.000Z</time>
      </trkpt>
      <trkpt lat="50.61511" lon="4.1867">
        <ele>155</ele>
        <time>2015-01-11T10:24:09.000Z</time>
      </trkpt>
      <trkpt lat="50.61511" lon="4.18669">
        <ele>155</ele>
        <time>2015-01-11T10:24:10.000Z</time>
      </trkpt>
      <trkpt lat="50.6151" lon="4.18668">
        <ele>155</ele>
        <time>2015-01-11T10:24:11.000Z</time>
      </trkpt>
      <trkpt lat="50.6151" lon="4.18667">
        <ele>155</ele>
        <time>2015-01-11T10:24:12.000Z</time>
      </trkpt>
      <trkpt lat="50.6151" lon="4.18666">
        <ele>155</ele>
        <time>2015-01-11T10:24:13.000Z</time>
      </trkpt>
      <trkpt lat="50.61509" lon="4.18665">
        <ele>154.9</ele>
        <time>2015-01-11T10:24:14.000Z</time>
      </trkpt>
      <trkpt lat="50.61509" lon="4.18663">
        <ele>154.9</ele>
        <time>2015-01-11T10:24:15.000Z</time>
      </trkpt>
      <trkpt lat="50.61508" lon="4.18662">
        <ele>154.8</ele>
        <time>2015-01-11T10:24:16.000Z</time>
      </trkpt>
      <trkpt lat="50.61508" lon="4.18661">
        <ele>154.8</ele>
        <time>2015-01-11T10:24:17.000Z</time>
      </trkpt>
      <trkpt lat="50.61507" lon="4.18659">
        <ele>154.7</ele>
        <time>2015-01-11T10:24:18.000Z</time>
      </trkpt>
      <trkpt lat="50.61506" lon="4.18658">
        <ele>154.7</ele>
        <time>2015-01-11T10:24:19.000Z</time>
      </trkpt>
      <trkpt lat="50.61506" lon="4.18657">
        <ele>154.6</ele>
        <time>2015-01-11T10:24:20.000Z</time>
      </trkpt>
      <trkpt lat="50.61505" lon="4.18655">
        <ele>154.6</ele>
        <time>2015-01-11T10:24:21.000Z</time>
      </trkpt>
      <trkpt lat="50.61504" lon="4.18654">
        <ele>154.5</ele>
        <time>2015-01-11T10:24:22.000Z</time>
      </trkpt>
      <trkpt lat="50.61504" lon="4.18652">
        <ele>154.5</ele>
        <time>2015-01-11T10:24:23.000Z</time>
      </trkpt>
      <trkpt lat="50.61503" lon="4.1865">
        <ele>154.4</ele>
        <time>2015-01-11T10:24:24.000Z</time>
      </trkpt>
      <trkpt lat="50.61502" lon="4.18649">
        <ele>154.4</ele>
        <time>2015-01-11T10:24:25.000Z</time>
      </trkpt>
      <trkpt lat="50.61502" lon="4.18647">
        <ele>154.3</ele>
        <time>2015-01-11T10:24:26.000Z</time>
      </trkpt>
      <trkpt lat="50.61501" lon="4.18646">
        <ele>154.3</ele>
        <time>2015-01-11T10:24:27.000Z</time>
      </trkpt>
      <trkpt lat="50.615" lon="4.18645">
        <ele>154.2</ele>
        <time>2015-01-11T10:24:28.000Z</time>
      </trkpt>
      <trkpt lat="50.61497" lon="4.18643">
        <ele>152.6</ele>
        <time>2015-01-11T10:24:29.000Z</time>
      </trkpt>
      <trkpt lat="50.61497" lon="4.18643">
        <ele>152.5</ele>
        <time>2015-01-11T10:24:30.000Z</time>
      </trkpt>
      <trkpt lat="50.61496" lon="4.18643">
        <ele>152.4</ele>
        <time>2015-01-11T10:24:31.000Z</time>
      </trkpt>
      <trkpt lat="50.61496" lon="4.18643">
        <ele>152.2</ele>
        <time>2015-01-11T10:24:32.000Z</time>
      </trkpt>
      <trkpt lat="50.61495" lon="4.18644">
        <ele>152</ele>
        <time>2015-01-11T10:24:33.000Z</time>
      </trkpt>
      <trkpt lat="50.61495" lon="4.18644">
        <ele>151.8</ele>
        <time>2015-01-11T10:24:34.000Z</time>
      </trkpt>
      <trkpt lat="50.61495" lon="4.18645">
        <ele>151.7</ele>
        <time>2015-01-11T10:24:35.000Z</time>
      </trkpt>
      <trkpt lat="50.61494" lon="4.18646">
        <ele>151.6</ele>
        <time>2015-01-11T10:24:36.000Z</time>
      </trkpt>
      <trkpt lat="50.61492" lon="4.18649">
        <ele>151</ele>
        <time>2015-01-11T10:24:37.000Z</time>
      </trkpt>
      <trkpt lat="50.61492" lon="4.18649">
        <ele>151</ele>
        <time>2015-01-11T10:24:38.000Z</time>
      </trkpt>
      <trkpt lat="50.61492" lon="4.18649">
        <ele>150.9</ele>
        <time>2015-01-11T10:24:39.000Z</time>
      </trkpt>
      <trkpt lat="50.61491" lon="4.1865">
        <ele>150.9</ele>
        <time>2015-01-11T10:24:40.000Z</time>
      </trkpt>
      <trkpt lat="50.61491" lon="4.1865">
        <ele>150.8</ele>
        <time>2015-01-11T10:24:41.000Z</time>
      </trkpt>
      <trkpt lat="50.61491" lon="4.18651">
        <ele>150.9</ele>
        <time>2015-01-11T10:24:42.000Z</time>
      </trkpt>
      <trkpt lat="50.61491" lon="4.18652">
        <ele>151</ele>
        <time>2015-01-11T10:24:43.000Z</time>
      </trkpt>
      <trkpt lat="50.61491" lon="4.18654">
        <ele>151.1</ele>
        <time>2015-01-11T10:24:44.000Z</time>
      </trkpt>
      <trkpt lat="50.6149" lon="4.18655">
        <ele>151.2</ele>
        <time>2015-01-11T10:24:45.000Z</time>
      </trkpt>
      <trkpt lat="50.6149" lon="4.18657">
        <ele>151.3</ele>
        <time>2015-01-11T10:24:46.000Z</time>
      </trkpt>
      <trkpt lat="50.61489" lon="4.18658">
        <ele>151.3</ele>
        <time>2015-01-11T10:24:47.000Z</time>
      </trkpt>
      <trkpt lat="50.61489" lon="4.18659">
        <ele>151.4</ele>
        <time>2015-01-11T10:24:48.000Z</time>
      </trkpt>
      <trkpt lat="50.61488" lon="4.1866">
        <ele>151.4</ele>
        <time>2015-01-11T10:24:49.000Z</time>
      </trkpt>
      <trkpt lat="50.61488" lon="4.18662">
        <ele>151.5</ele>
        <time>2015-01-11T10:24:50.000Z</time>
      </trkpt>
      <trkpt lat="50.61487" lon="4.18663">
        <ele>151.6</ele>
        <time>2015-01-11T10:24:51.000Z</time>
      </trkpt>
      <trkpt lat="50.61486" lon="4.18665">
        <ele>151.7</ele>
        <time>2015-01-11T10:24:52.000Z</time>
      </trkpt>
      <trkpt lat="50.61486" lon="4.18667">
        <ele>151.9</ele>
        <time>2015-01-11T10:24:53.000Z</time>
      </trkpt>
      <trkpt lat="50.61485" lon="4.18669">
        <ele>152</ele>
        <time>2015-01-11T10:24:54.000Z</time>
      </trkpt>
      <trkpt lat="50.61484" lon="4.18671">
        <ele>152.1</ele>
        <time>2015-01-11T10:24:55.000Z</time>
      </trkpt>
      <trkpt lat="50.61483" lon="4.18673">
        <ele>152.2</ele>
        <time>2015-01-11T10:24:56.000Z</time>
      </trkpt>
      <trkpt lat="50.61482" lon="4.18675">
        <ele>152.3</ele>
        <time>2015-01-11T10:24:57.000Z</time>
      </trkpt>
      <trkpt lat="50.61478" lon="4.18683">
        <ele>153</ele>
        <time>2015-01-11T10:24:58.000Z</time>
      </trkpt>
      <trkpt lat="50.61478" lon="4.18683">
        <ele>153.1</ele>
        <time>2015-01-11T10:24:59.000Z</time>
      </trkpt>
      <trkpt lat="50.61478" lon="4.18684">
        <ele>153.2</ele>
        <time>2015-01-11T10:25:00.000Z</time>
      </trkpt>
      <trkpt lat="50.61477" lon="4.18685">
        <ele>153.3</ele>
        <time>2015-01-11T10:25:01.000Z</time>
      </trkpt>
      <trkpt lat="50.61476" lon="4.18686">
        <ele>153.5</ele>
        <time>2015-01-11T10:25:02.000Z</time>
      </trkpt>
      <trkpt lat="50.61476" lon="4.18687">
        <ele>153.6</ele>
        <time>2015-01-11T10:25:03.000Z</time>
      </trkpt>
      <trkpt lat="50.61474" lon="4.18689">
        <ele>153.9</ele>
        <time>2015-01-11T10:25:04.000Z</time>
      </trkpt>
      <trkpt lat="50.61474" lon="4.1869">
        <ele>154.2</ele>
        <time>2015-01-11T10:25:05.000Z</time>
      </trkpt>
      <trkpt lat="50.61472" lon="4.18693">
        <ele>154.6</ele>
        <time>2015-01-11T10:25:06.000Z</time>
      </trkpt>
      <trkpt lat="50.61471" lon="4.18695">
        <ele>154.5</ele>
        <time>2015-01-11T10:25:07.000Z</time>
      </trkpt>
      <trkpt lat="50.6147" lon="4.18697">
        <ele>153.8</ele>
        <time>2015-01-11T10:25:08.000Z</time>
      </trkpt>
      <trkpt lat="50.61469" lon="4.18699">
        <ele>153.1</ele>
        <time>2015-01-11T10:25:09.000Z</time>
      </trkpt>
      <trkpt lat="50.61468" lon="4.18702">
        <ele>152.6</ele>
        <time>2015-01-11T10:25:10.000Z</time>
      </trkpt>
      <trkpt lat="50.61467" lon="4.18705">
        <ele>152.2</ele>
        <time>2015-01-11T10:25:11.000Z</time>
      </trkpt>
      <trkpt lat="50.61466" lon="4.18707">
        <ele>152</ele>
        <time>2015-01-11T10:25:12.000Z</time>
      </trkpt>
      <trkpt lat="50.61465" lon="4.1871">
        <ele>151.8</ele>
        <time>2015-01-11T10:25:13.000Z</time>
      </trkpt>
      <trkpt lat="50.61464" lon="4.18713">
        <ele>151.7</ele>
        <time>2015-01-11T10:25:14.000Z</time>
      </trkpt>
      <trkpt lat="50.61463" lon="4.18715">
        <ele>151.6</ele>
        <time>2015-01-11T10:25:15.000Z</time>
      </trkpt>
      <trkpt lat="50.61462" lon="4.18717">
        <ele>151.5</ele>
        <time>2015-01-11T10:25:16.000Z</time>
      </trkpt>
      <trkpt lat="50.61461" lon="4.1872">
        <ele>151.4</ele>
        <time>2015-01-11T10:25:17.000Z</time>
      </trkpt>
      <trkpt lat="50.6146" lon="4.18722">
        <ele>151.3</ele>
        <time>2015-01-11T10:25:18.000Z</time>
      </trkpt>
      <trkpt lat="50.61458" lon="4.18725">
        <ele>151.2</ele>
        <time>2015-01-11T10:25:19.000Z</time>
      </trkpt>
      <trkpt lat="50.61457" lon="4.18727">
        <ele>151.2</ele>
        <time>2015-01-11T10:25:20.000Z</time>
      </trkpt>
      <trkpt lat="50.61456" lon="4.1873">
        <ele>151.2</ele>
        <time>2015-01-11T10:25:21.000Z</time>
      </trkpt>
      <trkpt lat="50.61454" lon="4.18732">
        <ele>151.2</ele>
        <time>2015-01-11T10:25:22.000Z</time>
      </trkpt>
      <trkpt lat="50.61453" lon="4.18734">
        <ele>151.4</ele>
        <time>2015-01-11T10:25:23.000Z</time>
      </trkpt>
      <trkpt lat="50.61452" lon="4.18736">
        <ele>151.6</ele>
        <time>2015-01-11T10:25:24.000Z</time>
      </trkpt>
      <trkpt lat="50.61451" lon="4.18739">
        <ele>151.9</ele>
        <time>2015-01-11T10:25:25.000Z</time>
      </trkpt>
      <trkpt lat="50.6145" lon="4.18741">
        <ele>152.2</ele>
        <time>2015-01-11T10:25:26.000Z</time>
      </trkpt>
      <trkpt lat="50.61449" lon="4.18744">
        <ele>152.7</ele>
        <time>2015-01-11T10:25:27.000Z</time>
      </trkpt>
      <trkpt lat="50.61448" lon="4.18746">
        <ele>153.2</ele>
        <time>2015-01-11T10:25:28.000Z</time>
      </trkpt>
      <trkpt lat="50.61447" lon="4.18749">
        <ele>153.7</ele>
        <time>2015-01-11T10:25:29.000Z</time>
      </trkpt>
      <trkpt lat="50.61446" lon="4.18751">
        <ele>154</ele>
        <time>2015-01-11T10:25:30.000Z</time>
      </trkpt>
      <trkpt lat="50.61445" lon="4.18753">
        <ele>154</ele>
        <time>2015-01-11T10:25:31.000Z</time>
      </trkpt>
      <trkpt lat="50.61445" lon="4.18755">
        <ele>154</ele>
        <time>2015-01-11T10:25:32.000Z</time>
      </trkpt>
      <trkpt lat="50.61444" lon="4.18758">
        <ele>153.6</ele>
        <time>2015-01-11T10:25:33.000Z</time>
      </trkpt>
      <trkpt lat="50.61443" lon="4.1876">
        <ele>153.2</ele>
        <time>2015-01-11T10:25:34.000Z</time>
      </trkpt>
      <trkpt lat="50.61442" lon="4.18763">
        <ele>152.8</ele>
        <time>2015-01-11T10:25:35.000Z</time>
      </trkpt>
      <trkpt lat="50.61441" lon="4.18765">
        <ele>152.4</ele>
        <time>2015-01-11T10:25:36.000Z</time>
      </trkpt>
      <trkpt lat="50.61441" lon="4.18767">
        <ele>152.2</ele>
        <time>2015-01-11T10:25:37.000Z</time>
      </trkpt>
      <trkpt lat="50.6144" lon="4.1877">
        <ele>151.9</ele>
        <time>2015-01-11T10:25:38.000Z</time>
      </trkpt>
      <trkpt lat="50.61439" lon="4.18772">
        <ele>151.8</ele>
        <time>2015-01-11T10:25:39.000Z</time>
      </trkpt>
      <trkpt lat="50.61439" lon="4.18775">
        <ele>151.7</ele>
        <time>2015-01-11T10:25:40.000Z</time>
      </trkpt>
      <trkpt lat="50.61438" lon="4.18777">
        <ele>151.7</ele>
        <time>2015-01-11T10:25:41.000Z</time>
      </trkpt>
      <trkpt lat="50.61437" lon="4.18779">
        <ele>151.5</ele>
        <time>2015-01-11T10:25:42.000Z</time>
      </trkpt>
      <trkpt lat="50.61436" lon="4.18782">
        <ele>151.3</ele>
        <time>2015-01-11T10:25:43.000Z</time>
      </trkpt>
      <trkpt lat="50.61435" lon="4.18784">
        <ele>151.2</ele>
        <time>2015-01-11T10:25:44.000Z</time>
      </trkpt>
      <trkpt lat="50.61435" lon="4.18786">
        <ele>151.1</ele>
        <time>2015-01-11T10:25:45.000Z</time>
      </trkpt>
      <trkpt lat="50.61433" lon="4.18788">
        <ele>151</ele>
        <time>2015-01-11T10:25:46.000Z</time>
      </trkpt>
      <trkpt lat="50.61432" lon="4.18791">
        <ele>151</ele>
        <time>2015-01-11T10:25:47.000Z</time>
      </trkpt>
      <trkpt lat="50.61431" lon="4.18793">
        <ele>151</ele>
        <time>2015-01-11T10:25:48.000Z</time>
      </trkpt>
      <trkpt lat="50.6143" lon="4.18795">
        <ele>151.2</ele>
        <time>2015-01-11T10:25:49.000Z</time>
      </trkpt>
      <trkpt lat="50.61429" lon="4.18798">
        <ele>151.3</ele>
        <time>2015-01-11T10:25:50.000Z</time>
      </trkpt>
      <trkpt lat="50.61428" lon="4.188">
        <ele>151.5</ele>
        <time>2015-01-11T10:25:51.000Z</time>
      </trkpt>
      <trkpt lat="50.61427" lon="4.18802">
        <ele>151.8</ele>
        <time>2015-01-11T10:25:52.000Z</time>
      </trkpt>
      <trkpt lat="50.61426" lon="4.18804">
        <ele>152.1</ele>
        <time>2015-01-11T10:25:53.000Z</time>
      </trkpt>
      <trkpt lat="50.61425" lon="4.18807">
        <ele>152.3</ele>
        <time>2015-01-11T10:25:54.000Z</time>
      </trkpt>
      <trkpt lat="50.61424" lon="4.18809">
        <ele>152.4</ele>
        <time>2015-01-11T10:25:55.000Z</time>
      </trkpt>
      <trkpt lat="50.61423" lon="4.18812">
        <ele>152.4</ele>
        <time>2015-01-11T10:25:56.000Z</time>
      </trkpt>
      <trkpt lat="50.61422" lon="4.18814">
        <ele>152.4</ele>
        <time>2015-01-11T10:25:57.000Z</time>
      </trkpt>
      <trkpt lat="50.61421" lon="4.18816">
        <ele>152.5</ele>
        <time>2015-01-11T10:25:58.000Z</time>
      </trkpt>
      <trkpt lat="50.61419" lon="4.18819">
        <ele>152.5</ele>
        <time>2015-01-11T10:25:59.000Z</time>
      </trkpt>
      <trkpt lat="50.61418" lon="4.18821">
        <ele>152.6</ele>
        <time>2015-01-11T10:26:00.000Z</time>
      </trkpt>
      <trkpt lat="50.61417" lon="4.18823">
        <ele>152.6</ele>
        <time>2015-01-11T10:26:01.000Z</time>
      </trkpt>
      <trkpt lat="50.61416" lon="4.18825">
        <ele>152.5</ele>
        <time>2015-01-11T10:26:02.000Z</time>
      </trkpt>
      <trkpt lat="50.61415" lon="4.18828">
        <ele>152.2</ele>
        <time>2015-01-11T10:26:03.000Z</time>
      </trkpt>
      <trkpt lat="50.61413" lon="4.1883">
        <ele>152</ele>
        <time>2015-01-11T10:26:04.000Z</time>
      </trkpt>
      <trkpt lat="50.61412" lon="4.18832">
        <ele>151.8</ele>
        <time>2015-01-11T10:26:05.000Z</time>
      </trkpt>
      <trkpt lat="50.6141" lon="4.18834">
        <ele>151.6</ele>
        <time>2015-01-11T10:26:06.000Z</time>
      </trkpt>
      <trkpt lat="50.61409" lon="4.18836">
        <ele>151.4</ele>
        <time>2015-01-11T10:26:07.000Z</time>
      </trkpt>
      <trkpt lat="50.61406" lon="4.18842">
        <ele>151.1</ele>
        <time>2015-01-11T10:26:08.000Z</time>
      </trkpt>
      <trkpt lat="50.61406" lon="4.18843">
        <ele>151.1</ele>
        <time>2015-01-11T10:26:09.000Z</time>
      </trkpt>
      <trkpt lat="50.61406" lon="4.18843">
        <ele>151.1</ele>
        <time>2015-01-11T10:26:10.000Z</time>
      </trkpt>
      <trkpt lat="50.61406" lon="4.18844">
        <ele>151.1</ele>
        <time>2015-01-11T10:26:11.000Z</time>
      </trkpt>
      <trkpt lat="50.61405" lon="4.18845">
        <ele>151.1</ele>
        <time>2015-01-11T10:26:12.000Z</time>
      </trkpt>
      <trkpt lat="50.61405" lon="4.18846">
        <ele>151.1</ele>
        <time>2015-01-11T10:26:13.000Z</time>
      </trkpt>
      <trkpt lat="50.61404" lon="4.18847">
        <ele>151.1</ele>
        <time>2015-01-11T10:26:14.000Z</time>
      </trkpt>
      <trkpt lat="50.61403" lon="4.18848">
        <ele>151.1</ele>
        <time>2015-01-11T10:26:15.000Z</time>
      </trkpt>
      <trkpt lat="50.61401" lon="4.1885">
        <ele>151.1</ele>
        <time>2015-01-11T10:26:16.000Z</time>
      </trkpt>
      <trkpt lat="50.614" lon="4.18851">
        <ele>151.1</ele>
        <time>2015-01-11T10:26:17.000Z</time>
      </trkpt>
      <trkpt lat="50.61399" lon="4.18853">
        <ele>151.2</ele>
        <time>2015-01-11T10:26:18.000Z</time>
      </trkpt>
      <trkpt lat="50.61397" lon="4.18855">
        <ele>151.2</ele>
        <time>2015-01-11T10:26:19.000Z</time>
      </trkpt>
      <trkpt lat="50.61396" lon="4.18856">
        <ele>151.4</ele>
        <time>2015-01-11T10:26:20.000Z</time>
      </trkpt>
      <trkpt lat="50.61394" lon="4.18857">
        <ele>151.4</ele>
        <time>2015-01-11T10:26:21.000Z</time>
      </trkpt>
      <trkpt lat="50.61393" lon="4.18858">
        <ele>151.5</ele>
        <time>2015-01-11T10:26:22.000Z</time>
      </trkpt>
      <trkpt lat="50.61391" lon="4.18858">
        <ele>151.5</ele>
        <time>2015-01-11T10:26:23.000Z</time>
      </trkpt>
      <trkpt lat="50.6139" lon="4.18857">
        <ele>151.4</ele>
        <time>2015-01-11T10:26:24.000Z</time>
      </trkpt>
      <trkpt lat="50.61384" lon="4.18855">
        <ele>151.2</ele>
        <time>2015-01-11T10:26:25.000Z</time>
      </trkpt>
      <trkpt lat="50.61384" lon="4.18855">
        <ele>151.2</ele>
        <time>2015-01-11T10:26:26.000Z</time>
      </trkpt>
      <trkpt lat="50.61383" lon="4.18855">
        <ele>151.2</ele>
        <time>2015-01-11T10:26:27.000Z</time>
      </trkpt>
      <trkpt lat="50.61382" lon="4.18855">
        <ele>151.1</ele>
        <time>2015-01-11T10:26:28.000Z</time>
      </trkpt>
      <trkpt lat="50.61381" lon="4.18854">
        <ele>151.1</ele>
        <time>2015-01-11T10:26:29.000Z</time>
      </trkpt>
      <trkpt lat="50.6138" lon="4.18853">
        <ele>151.1</ele>
        <time>2015-01-11T10:26:30.000Z</time>
      </trkpt>
      <trkpt lat="50.61378" lon="4.18852">
        <ele>151</ele>
        <time>2015-01-11T10:26:31.000Z</time>
      </trkpt>
      <trkpt lat="50.61377" lon="4.18851">
        <ele>151</ele>
        <time>2015-01-11T10:26:32.000Z</time>
      </trkpt>
      <trkpt lat="50.61375" lon="4.1885">
        <ele>151</ele>
        <time>2015-01-11T10:26:33.000Z</time>
      </trkpt>
      <trkpt lat="50.61373" lon="4.18848">
        <ele>151</ele>
        <time>2015-01-11T10:26:34.000Z</time>
      </trkpt>
      <trkpt lat="50.61372" lon="4.18847">
        <ele>151</ele>
        <time>2015-01-11T10:26:35.000Z</time>
      </trkpt>
      <trkpt lat="50.61365" lon="4.18845">
        <ele>151.6</ele>
        <time>2015-01-11T10:26:36.000Z</time>
      </trkpt>
      <trkpt lat="50.61365" lon="4.18845">
        <ele>151.6</ele>
        <time>2015-01-11T10:26:37.000Z</time>
      </trkpt>
      <trkpt lat="50.61364" lon="4.18846">
        <ele>151.7</ele>
        <time>2015-01-11T10:26:38.000Z</time>
      </trkpt>
      <trkpt lat="50.61363" lon="4.18846">
        <ele>151.8</ele>
        <time>2015-01-11T10:26:39.000Z</time>
      </trkpt>
      <trkpt lat="50.61362" lon="4.18846">
        <ele>152</ele>
        <time>2015-01-11T10:26:40.000Z</time>
      </trkpt>
      <trkpt lat="50.6136" lon="4.18847">
        <ele>152</ele>
        <time>2015-01-11T10:26:41.000Z</time>
      </trkpt>
      <trkpt lat="50.61358" lon="4.18847">
        <ele>151.9</ele>
        <time>2015-01-11T10:26:42.000Z</time>
      </trkpt>
      <trkpt lat="50.61357" lon="4.18847">
        <ele>151.8</ele>
        <time>2015-01-11T10:26:43.000Z</time>
      </trkpt>
      <trkpt lat="50.61355" lon="4.18847">
        <ele>151.8</ele>
        <time>2015-01-11T10:26:44.000Z</time>
      </trkpt>
      <trkpt lat="50.61353" lon="4.18846">
        <ele>151.7</ele>
        <time>2015-01-11T10:26:45.000Z</time>
      </trkpt>
      <trkpt lat="50.61351" lon="4.18845">
        <ele>151.6</ele>
        <time>2015-01-11T10:26:46.000Z</time>
      </trkpt>
      <trkpt lat="50.61349" lon="4.18844">
        <ele>151.6</ele>
        <time>2015-01-11T10:26:47.000Z</time>
      </trkpt>
      <trkpt lat="50.61347" lon="4.18843">
        <ele>151.5</ele>
        <time>2015-01-11T10:26:48.000Z</time>
      </trkpt>
      <trkpt lat="50.61345" lon="4.18841">
        <ele>151.4</ele>
        <time>2015-01-11T10:26:49.000Z</time>
      </trkpt>
      <trkpt lat="50.61343" lon="4.1884">
        <ele>151.3</ele>
        <time>2015-01-11T10:26:50.000Z</time>
      </trkpt>
      <trkpt lat="50.61341" lon="4.18838">
        <ele>151.3</ele>
        <time>2015-01-11T10:26:51.000Z</time>
      </trkpt>
      <trkpt lat="50.61337" lon="4.18836">
        <ele>151.1</ele>
        <time>2015-01-11T10:26:52.000Z</time>
      </trkpt>
      <trkpt lat="50.61335" lon="4.18835">
        <ele>151.1</ele>
        <time>2015-01-11T10:26:53.000Z</time>
      </trkpt>
      <trkpt lat="50.61333" lon="4.18833">
        <ele>151</ele>
        <time>2015-01-11T10:26:54.000Z</time>
      </trkpt>
      <trkpt lat="50.61331" lon="4.18832">
        <ele>151</ele>
        <time>2015-01-11T10:26:55.000Z</time>
      </trkpt>
      <trkpt lat="50.61329" lon="4.18831">
        <ele>151.1</ele>
        <time>2015-01-11T10:26:56.000Z</time>
      </trkpt>
      <trkpt lat="50.61326" lon="4.1883">
        <ele>151.1</ele>
        <time>2015-01-11T10:26:57.000Z</time>
      </trkpt>
      <trkpt lat="50.61324" lon="4.18828">
        <ele>151.1</ele>
        <time>2015-01-11T10:26:58.000Z</time>
      </trkpt>
      <trkpt lat="50.61322" lon="4.18828">
        <ele>151.1</ele>
        <time>2015-01-11T10:26:59.000Z</time>
      </trkpt>
      <trkpt lat="50.6132" lon="4.18827">
        <ele>151.1</ele>
        <time>2015-01-11T10:27:00.000Z</time>
      </trkpt>
      <trkpt lat="50.61319" lon="4.18826">
        <ele>151.1</ele>
        <time>2015-01-11T10:27:01.000Z</time>
      </trkpt>
      <trkpt lat="50.61317" lon="4.18825">
        <ele>151.1</ele>
        <time>2015-01-11T10:27:02.000Z</time>
      </trkpt>
      <trkpt lat="50.61315" lon="4.18824">
        <ele>151.1</ele>
        <time>2015-01-11T10:27:03.000Z</time>
      </trkpt>
      <trkpt lat="50.61313" lon="4.18823">
        <ele>151.1</ele>
        <time>2015-01-11T10:27:04.000Z</time>
      </trkpt>
      <trkpt lat="50.61311" lon="4.18821">
        <ele>151.1</ele>
        <time>2015-01-11T10:27:05.000Z</time>
      </trkpt>
      <trkpt lat="50.61309" lon="4.1882">
        <ele>151.1</ele>
        <time>2015-01-11T10:27:06.000Z</time>
      </trkpt>
      <trkpt lat="50.61308" lon="4.18819">
        <ele>151</ele>
        <time>2015-01-11T10:27:07.000Z</time>
      </trkpt>
      <trkpt lat="50.61306" lon="4.18818">
        <ele>151</ele>
        <time>2015-01-11T10:27:08.000Z</time>
      </trkpt>
      <trkpt lat="50.61304" lon="4.18817">
        <ele>150.9</ele>
        <time>2015-01-11T10:27:09.000Z</time>
      </trkpt>
      <trkpt lat="50.61303" lon="4.18816">
        <ele>150.9</ele>
        <time>2015-01-11T10:27:10.000Z</time>
      </trkpt>
      <trkpt lat="50.61301" lon="4.18815">
        <ele>150.8</ele>
        <time>2015-01-11T10:27:11.000Z</time>
      </trkpt>
      <trkpt lat="50.61299" lon="4.18815">
        <ele>150.7</ele>
        <time>2015-01-11T10:27:12.000Z</time>
      </trkpt>
      <trkpt lat="50.61297" lon="4.18814">
        <ele>150.6</ele>
        <time>2015-01-11T10:27:13.000Z</time>
      </trkpt>
      <trkpt lat="50.61295" lon="4.18813">
        <ele>150.5</ele>
        <time>2015-01-11T10:27:14.000Z</time>
      </trkpt>
      <trkpt lat="50.61294" lon="4.18813">
        <ele>150.5</ele>
        <time>2015-01-11T10:27:15.000Z</time>
      </trkpt>
      <trkpt lat="50.61292" lon="4.18812">
        <ele>150.4</ele>
        <time>2015-01-11T10:27:16.000Z</time>
      </trkpt>
      <trkpt lat="50.6129" lon="4.1881">
        <ele>150.3</ele>
        <time>2015-01-11T10:27:17.000Z</time>
      </trkpt>
      <trkpt lat="50.61288" lon="4.18809">
        <ele>150.3</ele>
        <time>2015-01-11T10:27:18.000Z</time>
      </trkpt>
      <trkpt lat="50.61286" lon="4.18808">
        <ele>150.2</ele>
        <time>2015-01-11T10:27:19.000Z</time>
      </trkpt>
      <trkpt lat="50.61284" lon="4.18807">
        <ele>150.2</ele>
        <time>2015-01-11T10:27:20.000Z</time>
      </trkpt>
      <trkpt lat="50.61282" lon="4.18806">
        <ele>150.2</ele>
        <time>2015-01-11T10:27:21.000Z</time>
      </trkpt>
      <trkpt lat="50.6128" lon="4.18804">
        <ele>150.1</ele>
        <time>2015-01-11T10:27:22.000Z</time>
      </trkpt>
      <trkpt lat="50.61278" lon="4.18803">
        <ele>150.1</ele>
        <time>2015-01-11T10:27:23.000Z</time>
      </trkpt>
      <trkpt lat="50.61276" lon="4.18801">
        <ele>150.1</ele>
        <time>2015-01-11T10:27:24.000Z</time>
      </trkpt>
      <trkpt lat="50.61274" lon="4.188">
        <ele>150.1</ele>
        <time>2015-01-11T10:27:25.000Z</time>
      </trkpt>
      <trkpt lat="50.61272" lon="4.18798">
        <ele>150.1</ele>
        <time>2015-01-11T10:27:26.000Z</time>
      </trkpt>
      <trkpt lat="50.6127" lon="4.18797">
        <ele>150</ele>
        <time>2015-01-11T10:27:27.000Z</time>
      </trkpt>
      <trkpt lat="50.61268" lon="4.18795">
        <ele>150</ele>
        <time>2015-01-11T10:27:28.000Z</time>
      </trkpt>
      <trkpt lat="50.61267" lon="4.18794">
        <ele>150</ele>
        <time>2015-01-11T10:27:29.000Z</time>
      </trkpt>
      <trkpt lat="50.61265" lon="4.18793">
        <ele>150</ele>
        <time>2015-01-11T10:27:30.000Z</time>
      </trkpt>
      <trkpt lat="50.61263" lon="4.18792">
        <ele>150</ele>
        <time>2015-01-11T10:27:31.000Z</time>
      </trkpt>
      <trkpt lat="50.61261" lon="4.1879">
        <ele>150</ele>
        <time>2015-01-11T10:27:32.000Z</time>
      </trkpt>
      <trkpt lat="50.6126" lon="4.18789">
        <ele>150</ele>
        <time>2015-01-11T10:27:33.000Z</time>
      </trkpt>
      <trkpt lat="50.61259" lon="4.18788">
        <ele>150</ele>
        <time>2015-01-11T10:27:34.000Z</time>
      </trkpt>
      <trkpt lat="50.61257" lon="4.18786">
        <ele>150</ele>
        <time>2015-01-11T10:27:35.000Z</time>
      </trkpt>
      <trkpt lat="50.61255" lon="4.18784">
        <ele>150</ele>
        <time>2015-01-11T10:27:36.000Z</time>
      </trkpt>
      <trkpt lat="50.61253" lon="4.18783">
        <ele>149.9</ele>
        <time>2015-01-11T10:27:37.000Z</time>
      </trkpt>
      <trkpt lat="50.61252" lon="4.18782">
        <ele>149.9</ele>
        <time>2015-01-11T10:27:38.000Z</time>
      </trkpt>
      <trkpt lat="50.6125" lon="4.18781">
        <ele>149.9</ele>
        <time>2015-01-11T10:27:39.000Z</time>
      </trkpt>
      <trkpt lat="50.61249" lon="4.1878">
        <ele>149.9</ele>
        <time>2015-01-11T10:27:40.000Z</time>
      </trkpt>
      <trkpt lat="50.61247" lon="4.1878">
        <ele>149.8</ele>
        <time>2015-01-11T10:27:41.000Z</time>
      </trkpt>
      <trkpt lat="50.61246" lon="4.1878">
        <ele>149.8</ele>
        <time>2015-01-11T10:27:42.000Z</time>
      </trkpt>
      <trkpt lat="50.61245" lon="4.18779">
        <ele>149.8</ele>
        <time>2015-01-11T10:27:43.000Z</time>
      </trkpt>
      <trkpt lat="50.61243" lon="4.18779">
        <ele>149.7</ele>
        <time>2015-01-11T10:27:44.000Z</time>
      </trkpt>
      <trkpt lat="50.61242" lon="4.18779">
        <ele>149.7</ele>
        <time>2015-01-11T10:27:45.000Z</time>
      </trkpt>
      <trkpt lat="50.61241" lon="4.18779">
        <ele>149.6</ele>
        <time>2015-01-11T10:27:46.000Z</time>
      </trkpt>
      <trkpt lat="50.61239" lon="4.18779">
        <ele>149.5</ele>
        <time>2015-01-11T10:27:47.000Z</time>
      </trkpt>
      <trkpt lat="50.61238" lon="4.18779">
        <ele>149.5</ele>
        <time>2015-01-11T10:27:48.000Z</time>
      </trkpt>
      <trkpt lat="50.61236" lon="4.18779">
        <ele>149.5</ele>
        <time>2015-01-11T10:27:49.000Z</time>
      </trkpt>
      <trkpt lat="50.61235" lon="4.18779">
        <ele>149.4</ele>
        <time>2015-01-11T10:27:50.000Z</time>
      </trkpt>
      <trkpt lat="50.61233" lon="4.18778">
        <ele>149.4</ele>
        <time>2015-01-11T10:27:51.000Z</time>
      </trkpt>
      <trkpt lat="50.61232" lon="4.18777">
        <ele>149.4</ele>
        <time>2015-01-11T10:27:52.000Z</time>
      </trkpt>
      <trkpt lat="50.6123" lon="4.18775">
        <ele>149.4</ele>
        <time>2015-01-11T10:27:53.000Z</time>
      </trkpt>
      <trkpt lat="50.61229" lon="4.18773">
        <ele>149.4</ele>
        <time>2015-01-11T10:27:54.000Z</time>
      </trkpt>
      <trkpt lat="50.61227" lon="4.18771">
        <ele>149.4</ele>
        <time>2015-01-11T10:27:55.000Z</time>
      </trkpt>
      <trkpt lat="50.61227" lon="4.1877">
        <ele>149.5</ele>
        <time>2015-01-11T10:27:56.000Z</time>
      </trkpt>
      <trkpt lat="50.61226" lon="4.18767">
        <ele>149.5</ele>
        <time>2015-01-11T10:27:57.000Z</time>
      </trkpt>
      <trkpt lat="50.61224" lon="4.18765">
        <ele>149.5</ele>
        <time>2015-01-11T10:27:58.000Z</time>
      </trkpt>
      <trkpt lat="50.61223" lon="4.18763">
        <ele>149.6</ele>
        <time>2015-01-11T10:27:59.000Z</time>
      </trkpt>
      <trkpt lat="50.61222" lon="4.18761">
        <ele>149.6</ele>
        <time>2015-01-11T10:28:00.000Z</time>
      </trkpt>
      <trkpt lat="50.61221" lon="4.18759">
        <ele>149.6</ele>
        <time>2015-01-11T10:28:01.000Z</time>
      </trkpt>
      <trkpt lat="50.61219" lon="4.18757">
        <ele>149.6</ele>
        <time>2015-01-11T10:28:02.000Z</time>
      </trkpt>
      <trkpt lat="50.61218" lon="4.18755">
        <ele>149.6</ele>
        <time>2015-01-11T10:28:03.000Z</time>
      </trkpt>
      <trkpt lat="50.61217" lon="4.18754">
        <ele>149.6</ele>
        <time>2015-01-11T10:28:04.000Z</time>
      </trkpt>
      <trkpt lat="50.61216" lon="4.18753">
        <ele>149.7</ele>
        <time>2015-01-11T10:28:05.000Z</time>
      </trkpt>
      <trkpt lat="50.61215" lon="4.18752">
        <ele>149.7</ele>
        <time>2015-01-11T10:28:06.000Z</time>
      </trkpt>
      <trkpt lat="50.61213" lon="4.18751">
        <ele>149.6</ele>
        <time>2015-01-11T10:28:07.000Z</time>
      </trkpt>
      <trkpt lat="50.61212" lon="4.1875">
        <ele>149.6</ele>
        <time>2015-01-11T10:28:08.000Z</time>
      </trkpt>
      <trkpt lat="50.61211" lon="4.18749">
        <ele>149.7</ele>
        <time>2015-01-11T10:28:09.000Z</time>
      </trkpt>
      <trkpt lat="50.61209" lon="4.18747">
        <ele>149.7</ele>
        <time>2015-01-11T10:28:10.000Z</time>
      </trkpt>
      <trkpt lat="50.61205" lon="4.18743">
        <ele>149.8</ele>
        <time>2015-01-11T10:28:11.000Z</time>
      </trkpt>
      <trkpt lat="50.61205" lon="4.18743">
        <ele>149.8</ele>
        <time>2015-01-11T10:28:12.000Z</time>
      </trkpt>
      <trkpt lat="50.61204" lon="4.18743">
        <ele>149.8</ele>
        <time>2015-01-11T10:28:13.000Z</time>
      </trkpt>
      <trkpt lat="50.61199" lon="4.1874">
        <ele>149.8</ele>
        <time>2015-01-11T10:28:14.000Z</time>
      </trkpt>
      <trkpt lat="50.61199" lon="4.1874">
        <ele>149.8</ele>
        <time>2015-01-11T10:28:15.000Z</time>
      </trkpt>
      <trkpt lat="50.61198" lon="4.1874">
        <ele>149.8</ele>
        <time>2015-01-11T10:28:16.000Z</time>
      </trkpt>
      <trkpt lat="50.61197" lon="4.18739">
        <ele>149.8</ele>
        <time>2015-01-11T10:28:17.000Z</time>
      </trkpt>
      <trkpt lat="50.61196" lon="4.18739">
        <ele>149.8</ele>
        <time>2015-01-11T10:28:18.000Z</time>
      </trkpt>
      <trkpt lat="50.61194" lon="4.18738">
        <ele>149.9</ele>
        <time>2015-01-11T10:28:19.000Z</time>
      </trkpt>
      <trkpt lat="50.61193" lon="4.18736">
        <ele>150.1</ele>
        <time>2015-01-11T10:28:20.000Z</time>
      </trkpt>
      <trkpt lat="50.61191" lon="4.18735">
        <ele>150.3</ele>
        <time>2015-01-11T10:28:21.000Z</time>
      </trkpt>
      <trkpt lat="50.6119" lon="4.18734">
        <ele>150.4</ele>
        <time>2015-01-11T10:28:22.000Z</time>
      </trkpt>
      <trkpt lat="50.61188" lon="4.18733">
        <ele>150.6</ele>
        <time>2015-01-11T10:28:23.000Z</time>
      </trkpt>
      <trkpt lat="50.61187" lon="4.18732">
        <ele>150.7</ele>
        <time>2015-01-11T10:28:24.000Z</time>
      </trkpt>
      <trkpt lat="50.61186" lon="4.18731">
        <ele>150.8</ele>
        <time>2015-01-11T10:28:25.000Z</time>
      </trkpt>
      <trkpt lat="50.61185" lon="4.1873">
        <ele>150.9</ele>
        <time>2015-01-11T10:28:26.000Z</time>
      </trkpt>
      <trkpt lat="50.61184" lon="4.1873">
        <ele>150.9</ele>
        <time>2015-01-11T10:28:27.000Z</time>
      </trkpt>
      <trkpt lat="50.61183" lon="4.18729">
        <ele>151</ele>
        <time>2015-01-11T10:28:28.000Z</time>
      </trkpt>
      <trkpt lat="50.61183" lon="4.18728">
        <ele>151.1</ele>
        <time>2015-01-11T10:28:29.000Z</time>
      </trkpt>
      <trkpt lat="50.61182" lon="4.18728">
        <ele>151.1</ele>
        <time>2015-01-11T10:28:30.000Z</time>
      </trkpt>
      <trkpt lat="50.61182" lon="4.18728">
        <ele>151.2</ele>
        <time>2015-01-11T10:28:31.000Z</time>
      </trkpt>
      <trkpt lat="50.61181" lon="4.18727">
        <ele>151.2</ele>
        <time>2015-01-11T10:28:32.000Z</time>
      </trkpt>
      <trkpt lat="50.61179" lon="4.18726">
        <ele>151.3</ele>
        <time>2015-01-11T10:28:33.000Z</time>
      </trkpt>
      <trkpt lat="50.61179" lon="4.18726">
        <ele>151.3</ele>
        <time>2015-01-11T10:28:34.000Z</time>
      </trkpt>
      <trkpt lat="50.61179" lon="4.18726">
        <ele>151.3</ele>
        <time>2015-01-11T10:28:35.000Z</time>
      </trkpt>
      <trkpt lat="50.61179" lon="4.18726">
        <ele>151.3</ele>
        <time>2015-01-11T10:28:36.000Z</time>
      </trkpt>
      <trkpt lat="50.61179" lon="4.18726">
        <ele>151.3</ele>
        <time>2015-01-11T10:28:37.000Z</time>
      </trkpt>
      <trkpt lat="50.61179" lon="4.18726">
        <ele>151.3</ele>
        <time>2015-01-11T10:28:38.000Z</time>
      </trkpt>
      <trkpt lat="50.61179" lon="4.18726">
        <ele>151.3</ele>
        <time>2015-01-11T10:28:39.000Z</time>
      </trkpt>
      <trkpt lat="50.61179" lon="4.18726">
        <ele>151.3</ele>
        <time>2015-01-11T10:28:40.000Z</time>
      </trkpt>
      <trkpt lat="50.61179" lon="4.18726">
        <ele>151.3</ele>
        <time>2015-01-11T10:28:41.000Z</time>
      </trkpt>
      <trkpt lat="50.61179" lon="4.18725">
        <ele>151.4</ele>
        <time>2015-01-11T10:28:42.000Z</time>
      </trkpt>
      <trkpt lat="50.61179" lon="4.18725">
        <ele>151.4</ele>
        <time>2015-01-11T10:28:43.000Z</time>
      </trkpt>
      <trkpt lat="50.61179" lon="4.18725">
        <ele>151.4</ele>
        <time>2015-01-11T10:28:44.000Z</time>
      </trkpt>
      <trkpt lat="50.61178" lon="4.18723">
        <ele>151.6</ele>
        <time>2015-01-11T10:28:45.000Z</time>
      </trkpt>
      <trkpt lat="50.61178" lon="4.18723">
        <ele>151.6</ele>
        <time>2015-01-11T10:28:46.000Z</time>
      </trkpt>
      <trkpt lat="50.61178" lon="4.18722">
        <ele>151.6</ele>
        <time>2015-01-11T10:28:47.000Z</time>
      </trkpt>
      <trkpt lat="50.61177" lon="4.18722">
        <ele>151.6</ele>
        <time>2015-01-11T10:28:48.000Z</time>
      </trkpt>
      <trkpt lat="50.61177" lon="4.18722">
        <ele>151.7</ele>
        <time>2015-01-11T10:28:49.000Z</time>
      </trkpt>
      <trkpt lat="50.61176" lon="4.18721">
        <ele>151.7</ele>
        <time>2015-01-11T10:28:50.000Z</time>
      </trkpt>
      <trkpt lat="50.61175" lon="4.18721">
        <ele>151.7</ele>
        <time>2015-01-11T10:28:51.000Z</time>
      </trkpt>
      <trkpt lat="50.61175" lon="4.1872">
        <ele>151.8</ele>
        <time>2015-01-11T10:28:52.000Z</time>
      </trkpt>
      <trkpt lat="50.61174" lon="4.1872">
        <ele>151.8</ele>
        <time>2015-01-11T10:28:53.000Z</time>
      </trkpt>
      <trkpt lat="50.61173" lon="4.18719">
        <ele>151.9</ele>
        <time>2015-01-11T10:28:54.000Z</time>
      </trkpt>
      <trkpt lat="50.61173" lon="4.18718">
        <ele>151.9</ele>
        <time>2015-01-11T10:28:55.000Z</time>
      </trkpt>
      <trkpt lat="50.61172" lon="4.18718">
        <ele>152</ele>
        <time>2015-01-11T10:28:56.000Z</time>
      </trkpt>
      <trkpt lat="50.61171" lon="4.18717">
        <ele>152</ele>
        <time>2015-01-11T10:28:57.000Z</time>
      </trkpt>
      <trkpt lat="50.6117" lon="4.18717">
        <ele>152.1</ele>
        <time>2015-01-11T10:28:58.000Z</time>
      </trkpt>
      <trkpt lat="50.61169" lon="4.18716">
        <ele>152.1</ele>
        <time>2015-01-11T10:28:59.000Z</time>
      </trkpt>
      <trkpt lat="50.61169" lon="4.18715">
        <ele>152.2</ele>
        <time>2015-01-11T10:29:00.000Z</time>
      </trkpt>
      <trkpt lat="50.61168" lon="4.18715">
        <ele>152.2</ele>
        <time>2015-01-11T10:29:01.000Z</time>
      </trkpt>
      <trkpt lat="50.61166" lon="4.18714">
        <ele>152.3</ele>
        <time>2015-01-11T10:29:02.000Z</time>
      </trkpt>
      <trkpt lat="50.61165" lon="4.18713">
        <ele>152.3</ele>
        <time>2015-01-11T10:29:03.000Z</time>
      </trkpt>
      <trkpt lat="50.61164" lon="4.18712">
        <ele>152.4</ele>
        <time>2015-01-11T10:29:04.000Z</time>
      </trkpt>
      <trkpt lat="50.61162" lon="4.18712">
        <ele>152.4</ele>
        <time>2015-01-11T10:29:05.000Z</time>
      </trkpt>
      <trkpt lat="50.61161" lon="4.18711">
        <ele>152.4</ele>
        <time>2015-01-11T10:29:06.000Z</time>
      </trkpt>
      <trkpt lat="50.61159" lon="4.18711">
        <ele>152.4</ele>
        <time>2015-01-11T10:29:07.000Z</time>
      </trkpt>
      <trkpt lat="50.61158" lon="4.1871">
        <ele>152.4</ele>
        <time>2015-01-11T10:29:08.000Z</time>
      </trkpt>
      <trkpt lat="50.61156" lon="4.18709">
        <ele>152.5</ele>
        <time>2015-01-11T10:29:09.000Z</time>
      </trkpt>
      <trkpt lat="50.61155" lon="4.18709">
        <ele>152.5</ele>
        <time>2015-01-11T10:29:10.000Z</time>
      </trkpt>
      <trkpt lat="50.61153" lon="4.18708">
        <ele>152.5</ele>
        <time>2015-01-11T10:29:11.000Z</time>
      </trkpt>
      <trkpt lat="50.61152" lon="4.18707">
        <ele>152.5</ele>
        <time>2015-01-11T10:29:12.000Z</time>
      </trkpt>
      <trkpt lat="50.6115" lon="4.18706">
        <ele>152.6</ele>
        <time>2015-01-11T10:29:13.000Z</time>
      </trkpt>
      <trkpt lat="50.61148" lon="4.18706">
        <ele>152.6</ele>
        <time>2015-01-11T10:29:14.000Z</time>
      </trkpt>
      <trkpt lat="50.61146" lon="4.18705">
        <ele>152.6</ele>
        <time>2015-01-11T10:29:15.000Z</time>
      </trkpt>
      <trkpt lat="50.61144" lon="4.18704">
        <ele>152.6</ele>
        <time>2015-01-11T10:29:16.000Z</time>
      </trkpt>
      <trkpt lat="50.61143" lon="4.18703">
        <ele>152.7</ele>
        <time>2015-01-11T10:29:17.000Z</time>
      </trkpt>
      <trkpt lat="50.61141" lon="4.18703">
        <ele>152.7</ele>
        <time>2015-01-11T10:29:18.000Z</time>
      </trkpt>
      <trkpt lat="50.6114" lon="4.18702">
        <ele>152.7</ele>
        <time>2015-01-11T10:29:19.000Z</time>
      </trkpt>
      <trkpt lat="50.61138" lon="4.18701">
        <ele>152.7</ele>
        <time>2015-01-11T10:29:20.000Z</time>
      </trkpt>
      <trkpt lat="50.61132" lon="4.18698">
        <ele>152.6</ele>
        <time>2015-01-11T10:29:21.000Z</time>
      </trkpt>
      <trkpt lat="50.61131" lon="4.18698">
        <ele>152.6</ele>
        <time>2015-01-11T10:29:22.000Z</time>
      </trkpt>
      <trkpt lat="50.61131" lon="4.18697">
        <ele>152.6</ele>
        <time>2015-01-11T10:29:23.000Z</time>
      </trkpt>
      <trkpt lat="50.61129" lon="4.18697">
        <ele>152.6</ele>
        <time>2015-01-11T10:29:24.000Z</time>
      </trkpt>
      <trkpt lat="50.61128" lon="4.18696">
        <ele>152.5</ele>
        <time>2015-01-11T10:29:25.000Z</time>
      </trkpt>
      <trkpt lat="50.61126" lon="4.18696">
        <ele>152.5</ele>
        <time>2015-01-11T10:29:26.000Z</time>
      </trkpt>
      <trkpt lat="50.61124" lon="4.18695">
        <ele>152.5</ele>
        <time>2015-01-11T10:29:27.000Z</time>
      </trkpt>
      <trkpt lat="50.61122" lon="4.18694">
        <ele>152.4</ele>
        <time>2015-01-11T10:29:28.000Z</time>
      </trkpt>
      <trkpt lat="50.6112" lon="4.18693">
        <ele>152.4</ele>
        <time>2015-01-11T10:29:29.000Z</time>
      </trkpt>
      <trkpt lat="50.61118" lon="4.18692">
        <ele>152.4</ele>
        <time>2015-01-11T10:29:30.000Z</time>
      </trkpt>
      <trkpt lat="50.61116" lon="4.1869">
        <ele>152.3</ele>
        <time>2015-01-11T10:29:31.000Z</time>
      </trkpt>
      <trkpt lat="50.61114" lon="4.18688">
        <ele>152.3</ele>
        <time>2015-01-11T10:29:32.000Z</time>
      </trkpt>
      <trkpt lat="50.61112" lon="4.18687">
        <ele>152.3</ele>
        <time>2015-01-11T10:29:33.000Z</time>
      </trkpt>
      <trkpt lat="50.61111" lon="4.18685">
        <ele>152.3</ele>
        <time>2015-01-11T10:29:34.000Z</time>
      </trkpt>
      <trkpt lat="50.61109" lon="4.18683">
        <ele>152.4</ele>
        <time>2015-01-11T10:29:35.000Z</time>
      </trkpt>
      <trkpt lat="50.61107" lon="4.18682">
        <ele>152.4</ele>
        <time>2015-01-11T10:29:36.000Z</time>
      </trkpt>
      <trkpt lat="50.61106" lon="4.1868">
        <ele>152.5</ele>
        <time>2015-01-11T10:29:37.000Z</time>
      </trkpt>
      <trkpt lat="50.61105" lon="4.18678">
        <ele>152.5</ele>
        <time>2015-01-11T10:29:38.000Z</time>
      </trkpt>
      <trkpt lat="50.61104" lon="4.18675">
        <ele>152.6</ele>
        <time>2015-01-11T10:29:39.000Z</time>
      </trkpt>
      <trkpt lat="50.61103" lon="4.18673">
        <ele>152.7</ele>
        <time>2015-01-11T10:29:40.000Z</time>
      </trkpt>
      <trkpt lat="50.61102" lon="4.18671">
        <ele>152.8</ele>
        <time>2015-01-11T10:29:41.000Z</time>
      </trkpt>
      <trkpt lat="50.61101" lon="4.18669">
        <ele>152.9</ele>
        <time>2015-01-11T10:29:42.000Z</time>
      </trkpt>
      <trkpt lat="50.61099" lon="4.18667">
        <ele>153</ele>
        <time>2015-01-11T10:29:43.000Z</time>
      </trkpt>
      <trkpt lat="50.61098" lon="4.18666">
        <ele>153</ele>
        <time>2015-01-11T10:29:44.000Z</time>
      </trkpt>
      <trkpt lat="50.61097" lon="4.18664">
        <ele>153.1</ele>
        <time>2015-01-11T10:29:45.000Z</time>
      </trkpt>
      <trkpt lat="50.61095" lon="4.18662">
        <ele>153.2</ele>
        <time>2015-01-11T10:29:46.000Z</time>
      </trkpt>
      <trkpt lat="50.61094" lon="4.1866">
        <ele>153.2</ele>
        <time>2015-01-11T10:29:47.000Z</time>
      </trkpt>
      <trkpt lat="50.61092" lon="4.18659">
        <ele>153.3</ele>
        <time>2015-01-11T10:29:48.000Z</time>
      </trkpt>
      <trkpt lat="50.61091" lon="4.18657">
        <ele>153.3</ele>
        <time>2015-01-11T10:29:49.000Z</time>
      </trkpt>
      <trkpt lat="50.61089" lon="4.18656">
        <ele>153.4</ele>
        <time>2015-01-11T10:29:50.000Z</time>
      </trkpt>
      <trkpt lat="50.61088" lon="4.18655">
        <ele>153.4</ele>
        <time>2015-01-11T10:29:51.000Z</time>
      </trkpt>
      <trkpt lat="50.61086" lon="4.18654">
        <ele>153.5</ele>
        <time>2015-01-11T10:29:52.000Z</time>
      </trkpt>
      <trkpt lat="50.61084" lon="4.18653">
        <ele>153.5</ele>
        <time>2015-01-11T10:29:53.000Z</time>
      </trkpt>
      <trkpt lat="50.61082" lon="4.18652">
        <ele>153.5</ele>
        <time>2015-01-11T10:29:54.000Z</time>
      </trkpt>
      <trkpt lat="50.61081" lon="4.18651">
        <ele>153.5</ele>
        <time>2015-01-11T10:29:55.000Z</time>
      </trkpt>
      <trkpt lat="50.61079" lon="4.1865">
        <ele>153.4</ele>
        <time>2015-01-11T10:29:56.000Z</time>
      </trkpt>
      <trkpt lat="50.61077" lon="4.1865">
        <ele>153.4</ele>
        <time>2015-01-11T10:29:57.000Z</time>
      </trkpt>
      <trkpt lat="50.61076" lon="4.18648">
        <ele>153.4</ele>
        <time>2015-01-11T10:29:58.000Z</time>
      </trkpt>
      <trkpt lat="50.61074" lon="4.18647">
        <ele>153.4</ele>
        <time>2015-01-11T10:29:59.000Z</time>
      </trkpt>
      <trkpt lat="50.61073" lon="4.18646">
        <ele>153.4</ele>
        <time>2015-01-11T10:30:00.000Z</time>
      </trkpt>
      <trkpt lat="50.61071" lon="4.18644">
        <ele>153.4</ele>
        <time>2015-01-11T10:30:01.000Z</time>
      </trkpt>
      <trkpt lat="50.6107" lon="4.18643">
        <ele>153.4</ele>
        <time>2015-01-11T10:30:02.000Z</time>
      </trkpt>
      <trkpt lat="50.61069" lon="4.18641">
        <ele>153.4</ele>
        <time>2015-01-11T10:30:03.000Z</time>
      </trkpt>
      <trkpt lat="50.61067" lon="4.1864">
        <ele>153.4</ele>
        <time>2015-01-11T10:30:04.000Z</time>
      </trkpt>
      <trkpt lat="50.61066" lon="4.18638">
        <ele>153.4</ele>
        <time>2015-01-11T10:30:05.000Z</time>
      </trkpt>
      <trkpt lat="50.61064" lon="4.18637">
        <ele>153.4</ele>
        <time>2015-01-11T10:30:06.000Z</time>
      </trkpt>
      <trkpt lat="50.61063" lon="4.18635">
        <ele>153.4</ele>
        <time>2015-01-11T10:30:07.000Z</time>
      </trkpt>
      <trkpt lat="50.61061" lon="4.18634">
        <ele>153.4</ele>
        <time>2015-01-11T10:30:08.000Z</time>
      </trkpt>
      <trkpt lat="50.6106" lon="4.18633">
        <ele>153.4</ele>
        <time>2015-01-11T10:30:09.000Z</time>
      </trkpt>
      <trkpt lat="50.61059" lon="4.18631">
        <ele>153.4</ele>
        <time>2015-01-11T10:30:10.000Z</time>
      </trkpt>
      <trkpt lat="50.61057" lon="4.1863">
        <ele>153.4</ele>
        <time>2015-01-11T10:30:11.000Z</time>
      </trkpt>
      <trkpt lat="50.61055" lon="4.18629">
        <ele>153.4</ele>
        <time>2015-01-11T10:30:12.000Z</time>
      </trkpt>
      <trkpt lat="50.61054" lon="4.18628">
        <ele>153.3</ele>
        <time>2015-01-11T10:30:13.000Z</time>
      </trkpt>
      <trkpt lat="50.61052" lon="4.18627">
        <ele>153.3</ele>
        <time>2015-01-11T10:30:14.000Z</time>
      </trkpt>
      <trkpt lat="50.61051" lon="4.18626">
        <ele>153.3</ele>
        <time>2015-01-11T10:30:15.000Z</time>
      </trkpt>
      <trkpt lat="50.61049" lon="4.18624">
        <ele>153.3</ele>
        <time>2015-01-11T10:30:16.000Z</time>
      </trkpt>
      <trkpt lat="50.61047" lon="4.18623">
        <ele>153.3</ele>
        <time>2015-01-11T10:30:17.000Z</time>
      </trkpt>
      <trkpt lat="50.61046" lon="4.18622">
        <ele>153.3</ele>
        <time>2015-01-11T10:30:18.000Z</time>
      </trkpt>
      <trkpt lat="50.61044" lon="4.1862">
        <ele>153.3</ele>
        <time>2015-01-11T10:30:19.000Z</time>
      </trkpt>
      <trkpt lat="50.61042" lon="4.18619">
        <ele>153.2</ele>
        <time>2015-01-11T10:30:20.000Z</time>
      </trkpt>
      <trkpt lat="50.61041" lon="4.18618">
        <ele>153.2</ele>
        <time>2015-01-11T10:30:21.000Z</time>
      </trkpt>
      <trkpt lat="50.61039" lon="4.18616">
        <ele>153.2</ele>
        <time>2015-01-11T10:30:22.000Z</time>
      </trkpt>
      <trkpt lat="50.61037" lon="4.18615">
        <ele>153.2</ele>
        <time>2015-01-11T10:30:23.000Z</time>
      </trkpt>
      <trkpt lat="50.61036" lon="4.18614">
        <ele>153.2</ele>
        <time>2015-01-11T10:30:24.000Z</time>
      </trkpt>
      <trkpt lat="50.61034" lon="4.18613">
        <ele>153.2</ele>
        <time>2015-01-11T10:30:25.000Z</time>
      </trkpt>
      <trkpt lat="50.61032" lon="4.18611">
        <ele>153.2</ele>
        <time>2015-01-11T10:30:26.000Z</time>
      </trkpt>
      <trkpt lat="50.61031" lon="4.1861">
        <ele>153.2</ele>
        <time>2015-01-11T10:30:27.000Z</time>
      </trkpt>
      <trkpt lat="50.61029" lon="4.18609">
        <ele>153.2</ele>
        <time>2015-01-11T10:30:28.000Z</time>
      </trkpt>
      <trkpt lat="50.61028" lon="4.18608">
        <ele>153.2</ele>
        <time>2015-01-11T10:30:29.000Z</time>
      </trkpt>
      <trkpt lat="50.61026" lon="4.18607">
        <ele>153.3</ele>
        <time>2015-01-11T10:30:30.000Z</time>
      </trkpt>
      <trkpt lat="50.61024" lon="4.18606">
        <ele>153.4</ele>
        <time>2015-01-11T10:30:31.000Z</time>
      </trkpt>
      <trkpt lat="50.61023" lon="4.18605">
        <ele>153.4</ele>
        <time>2015-01-11T10:30:32.000Z</time>
      </trkpt>
      <trkpt lat="50.61021" lon="4.18604">
        <ele>153.5</ele>
        <time>2015-01-11T10:30:33.000Z</time>
      </trkpt>
      <trkpt lat="50.61019" lon="4.18602">
        <ele>153.5</ele>
        <time>2015-01-11T10:30:34.000Z</time>
      </trkpt>
      <trkpt lat="50.61017" lon="4.18601">
        <ele>153.6</ele>
        <time>2015-01-11T10:30:35.000Z</time>
      </trkpt>
      <trkpt lat="50.61016" lon="4.186">
        <ele>153.6</ele>
        <time>2015-01-11T10:30:36.000Z</time>
      </trkpt>
      <trkpt lat="50.61014" lon="4.18599">
        <ele>153.7</ele>
        <time>2015-01-11T10:30:37.000Z</time>
      </trkpt>
      <trkpt lat="50.61012" lon="4.18598">
        <ele>153.7</ele>
        <time>2015-01-11T10:30:38.000Z</time>
      </trkpt>
      <trkpt lat="50.61009" lon="4.18596">
        <ele>153.7</ele>
        <time>2015-01-11T10:30:39.000Z</time>
      </trkpt>
      <trkpt lat="50.61007" lon="4.18595">
        <ele>153.7</ele>
        <time>2015-01-11T10:30:40.000Z</time>
      </trkpt>
      <trkpt lat="50.61005" lon="4.18594">
        <ele>153.7</ele>
        <time>2015-01-11T10:30:41.000Z</time>
      </trkpt>
      <trkpt lat="50.61002" lon="4.18592">
        <ele>153.7</ele>
        <time>2015-01-11T10:30:42.000Z</time>
      </trkpt>
      <trkpt lat="50.60999" lon="4.18591">
        <ele>153.7</ele>
        <time>2015-01-11T10:30:43.000Z</time>
      </trkpt>
      <trkpt lat="50.60997" lon="4.1859">
        <ele>153.7</ele>
        <time>2015-01-11T10:30:44.000Z</time>
      </trkpt>
      <trkpt lat="50.60995" lon="4.18589">
        <ele>153.6</ele>
        <time>2015-01-11T10:30:45.000Z</time>
      </trkpt>
      <trkpt lat="50.60993" lon="4.18588">
        <ele>153.6</ele>
        <time>2015-01-11T10:30:46.000Z</time>
      </trkpt>
      <trkpt lat="50.60987" lon="4.18584">
        <ele>153.5</ele>
        <time>2015-01-11T10:30:47.000Z</time>
      </trkpt>
      <trkpt lat="50.60987" lon="4.18583">
        <ele>153.5</ele>
        <time>2015-01-11T10:30:48.000Z</time>
      </trkpt>
      <trkpt lat="50.60986" lon="4.18582">
        <ele>153.5</ele>
        <time>2015-01-11T10:30:49.000Z</time>
      </trkpt>
      <trkpt lat="50.60985" lon="4.18581">
        <ele>153.5</ele>
        <time>2015-01-11T10:30:50.000Z</time>
      </trkpt>
      <trkpt lat="50.60983" lon="4.1858">
        <ele>153.5</ele>
        <time>2015-01-11T10:30:51.000Z</time>
      </trkpt>
      <trkpt lat="50.60982" lon="4.18578">
        <ele>153.5</ele>
        <time>2015-01-11T10:30:52.000Z</time>
      </trkpt>
      <trkpt lat="50.6098" lon="4.18577">
        <ele>153.5</ele>
        <time>2015-01-11T10:30:53.000Z</time>
      </trkpt>
      <trkpt lat="50.60978" lon="4.18575">
        <ele>153.5</ele>
        <time>2015-01-11T10:30:54.000Z</time>
      </trkpt>
      <trkpt lat="50.60976" lon="4.18574">
        <ele>153.5</ele>
        <time>2015-01-11T10:30:55.000Z</time>
      </trkpt>
      <trkpt lat="50.60974" lon="4.18572">
        <ele>153.5</ele>
        <time>2015-01-11T10:30:56.000Z</time>
      </trkpt>
      <trkpt lat="50.60973" lon="4.18571">
        <ele>153.5</ele>
        <time>2015-01-11T10:30:57.000Z</time>
      </trkpt>
      <trkpt lat="50.60971" lon="4.1857">
        <ele>153.5</ele>
        <time>2015-01-11T10:30:58.000Z</time>
      </trkpt>
      <trkpt lat="50.60968" lon="4.18566">
        <ele>153.6</ele>
        <time>2015-01-11T10:30:59.000Z</time>
      </trkpt>
      <trkpt lat="50.60968" lon="4.18566">
        <ele>153.6</ele>
        <time>2015-01-11T10:31:00.000Z</time>
      </trkpt>
      <trkpt lat="50.60967" lon="4.18566">
        <ele>153.6</ele>
        <time>2015-01-11T10:31:01.000Z</time>
      </trkpt>
      <trkpt lat="50.60966" lon="4.18565">
        <ele>153.6</ele>
        <time>2015-01-11T10:31:02.000Z</time>
      </trkpt>
      <trkpt lat="50.60965" lon="4.18565">
        <ele>153.6</ele>
        <time>2015-01-11T10:31:03.000Z</time>
      </trkpt>
      <trkpt lat="50.60964" lon="4.18564">
        <ele>153.6</ele>
        <time>2015-01-11T10:31:04.000Z</time>
      </trkpt>
      <trkpt lat="50.60963" lon="4.18563">
        <ele>153.6</ele>
        <time>2015-01-11T10:31:05.000Z</time>
      </trkpt>
      <trkpt lat="50.60961" lon="4.18562">
        <ele>153.7</ele>
        <time>2015-01-11T10:31:06.000Z</time>
      </trkpt>
      <trkpt lat="50.6096" lon="4.1856">
        <ele>153.7</ele>
        <time>2015-01-11T10:31:07.000Z</time>
      </trkpt>
      <trkpt lat="50.60959" lon="4.18559">
        <ele>153.8</ele>
        <time>2015-01-11T10:31:08.000Z</time>
      </trkpt>
      <trkpt lat="50.60958" lon="4.18558">
        <ele>153.8</ele>
        <time>2015-01-11T10:31:09.000Z</time>
      </trkpt>
      <trkpt lat="50.60957" lon="4.18557">
        <ele>153.9</ele>
        <time>2015-01-11T10:31:10.000Z</time>
      </trkpt>
      <trkpt lat="50.60956" lon="4.18556">
        <ele>154</ele>
        <time>2015-01-11T10:31:11.000Z</time>
      </trkpt>
      <trkpt lat="50.60955" lon="4.18555">
        <ele>154</ele>
        <time>2015-01-11T10:31:12.000Z</time>
      </trkpt>
      <trkpt lat="50.60953" lon="4.18554">
        <ele>154</ele>
        <time>2015-01-11T10:31:13.000Z</time>
      </trkpt>
      <trkpt lat="50.60952" lon="4.18552">
        <ele>154</ele>
        <time>2015-01-11T10:31:14.000Z</time>
      </trkpt>
      <trkpt lat="50.60951" lon="4.18551">
        <ele>154</ele>
        <time>2015-01-11T10:31:15.000Z</time>
      </trkpt>
      <trkpt lat="50.6095" lon="4.1855">
        <ele>154</ele>
        <time>2015-01-11T10:31:16.000Z</time>
      </trkpt>
      <trkpt lat="50.60947" lon="4.18548">
        <ele>154</ele>
        <time>2015-01-11T10:31:17.000Z</time>
      </trkpt>
      <trkpt lat="50.60947" lon="4.18548">
        <ele>154</ele>
        <time>2015-01-11T10:31:18.000Z</time>
      </trkpt>
      <trkpt lat="50.60947" lon="4.18548">
        <ele>154</ele>
        <time>2015-01-11T10:31:19.000Z</time>
      </trkpt>
      <trkpt lat="50.60947" lon="4.18547">
        <ele>154</ele>
        <time>2015-01-11T10:31:20.000Z</time>
      </trkpt>
      <trkpt lat="50.60946" lon="4.18547">
        <ele>154</ele>
        <time>2015-01-11T10:31:21.000Z</time>
      </trkpt>
      <trkpt lat="50.60945" lon="4.18546">
        <ele>154</ele>
        <time>2015-01-11T10:31:22.000Z</time>
      </trkpt>
      <trkpt lat="50.60944" lon="4.18545">
        <ele>154</ele>
        <time>2015-01-11T10:31:23.000Z</time>
      </trkpt>
      <trkpt lat="50.60943" lon="4.18544">
        <ele>154</ele>
        <time>2015-01-11T10:31:24.000Z</time>
      </trkpt>
      <trkpt lat="50.60942" lon="4.18543">
        <ele>154</ele>
        <time>2015-01-11T10:31:25.000Z</time>
      </trkpt>
      <trkpt lat="50.60941" lon="4.18542">
        <ele>153.9</ele>
        <time>2015-01-11T10:31:26.000Z</time>
      </trkpt>
      <trkpt lat="50.6094" lon="4.18541">
        <ele>153.9</ele>
        <time>2015-01-11T10:31:27.000Z</time>
      </trkpt>
      <trkpt lat="50.6094" lon="4.1854">
        <ele>153.9</ele>
        <time>2015-01-11T10:31:28.000Z</time>
      </trkpt>
      <trkpt lat="50.60939" lon="4.18539">
        <ele>153.9</ele>
        <time>2015-01-11T10:31:29.000Z</time>
      </trkpt>
      <trkpt lat="50.60938" lon="4.18538">
        <ele>153.9</ele>
        <time>2015-01-11T10:31:30.000Z</time>
      </trkpt>
      <trkpt lat="50.60937" lon="4.18537">
        <ele>153.9</ele>
        <time>2015-01-11T10:31:31.000Z</time>
      </trkpt>
      <trkpt lat="50.60935" lon="4.18535">
        <ele>153.9</ele>
        <time>2015-01-11T10:31:32.000Z</time>
      </trkpt>
      <trkpt lat="50.60934" lon="4.18534">
        <ele>153.9</ele>
        <time>2015-01-11T10:31:33.000Z</time>
      </trkpt>
      <trkpt lat="50.60933" lon="4.18533">
        <ele>153.9</ele>
        <time>2015-01-11T10:31:34.000Z</time>
      </trkpt>
      <trkpt lat="50.60932" lon="4.18531">
        <ele>153.9</ele>
        <time>2015-01-11T10:31:35.000Z</time>
      </trkpt>
      <trkpt lat="50.6093" lon="4.1853">
        <ele>154</ele>
        <time>2015-01-11T10:31:36.000Z</time>
      </trkpt>
      <trkpt lat="50.60929" lon="4.18528">
        <ele>154</ele>
        <time>2015-01-11T10:31:37.000Z</time>
      </trkpt>
      <trkpt lat="50.60927" lon="4.18527">
        <ele>154</ele>
        <time>2015-01-11T10:31:38.000Z</time>
      </trkpt>
      <trkpt lat="50.60926" lon="4.18525">
        <ele>154.1</ele>
        <time>2015-01-11T10:31:39.000Z</time>
      </trkpt>
      <trkpt lat="50.60924" lon="4.18524">
        <ele>154.2</ele>
        <time>2015-01-11T10:31:40.000Z</time>
      </trkpt>
      <trkpt lat="50.60922" lon="4.18522">
        <ele>154.2</ele>
        <time>2015-01-11T10:31:41.000Z</time>
      </trkpt>
      <trkpt lat="50.60921" lon="4.18521">
        <ele>154.3</ele>
        <time>2015-01-11T10:31:42.000Z</time>
      </trkpt>
      <trkpt lat="50.60919" lon="4.1852">
        <ele>154.3</ele>
        <time>2015-01-11T10:31:43.000Z</time>
      </trkpt>
      <trkpt lat="50.60917" lon="4.18519">
        <ele>154.3</ele>
        <time>2015-01-11T10:31:44.000Z</time>
      </trkpt>
      <trkpt lat="50.60916" lon="4.18517">
        <ele>154.3</ele>
        <time>2015-01-11T10:31:45.000Z</time>
      </trkpt>
      <trkpt lat="50.60914" lon="4.18516">
        <ele>154.3</ele>
        <time>2015-01-11T10:31:46.000Z</time>
      </trkpt>
      <trkpt lat="50.60912" lon="4.18515">
        <ele>154.3</ele>
        <time>2015-01-11T10:31:47.000Z</time>
      </trkpt>
      <trkpt lat="50.6091" lon="4.18513">
        <ele>154.3</ele>
        <time>2015-01-11T10:31:48.000Z</time>
      </trkpt>
      <trkpt lat="50.60908" lon="4.18512">
        <ele>154.2</ele>
        <time>2015-01-11T10:31:49.000Z</time>
      </trkpt>
      <trkpt lat="50.60905" lon="4.18511">
        <ele>154.2</ele>
        <time>2015-01-11T10:31:50.000Z</time>
      </trkpt>
      <trkpt lat="50.60904" lon="4.18509">
        <ele>154.2</ele>
        <time>2015-01-11T10:31:51.000Z</time>
      </trkpt>
      <trkpt lat="50.60902" lon="4.18508">
        <ele>154.2</ele>
        <time>2015-01-11T10:31:52.000Z</time>
      </trkpt>
      <trkpt lat="50.609" lon="4.18507">
        <ele>154.1</ele>
        <time>2015-01-11T10:31:53.000Z</time>
      </trkpt>
      <trkpt lat="50.60898" lon="4.18506">
        <ele>154.1</ele>
        <time>2015-01-11T10:31:54.000Z</time>
      </trkpt>
      <trkpt lat="50.60896" lon="4.18505">
        <ele>154.1</ele>
        <time>2015-01-11T10:31:55.000Z</time>
      </trkpt>
      <trkpt lat="50.60895" lon="4.18504">
        <ele>154.1</ele>
        <time>2015-01-11T10:31:56.000Z</time>
      </trkpt>
      <trkpt lat="50.60893" lon="4.18503">
        <ele>154</ele>
        <time>2015-01-11T10:31:57.000Z</time>
      </trkpt>
      <trkpt lat="50.60886" lon="4.18499">
        <ele>154</ele>
        <time>2015-01-11T10:31:58.000Z</time>
      </trkpt>
      <trkpt lat="50.60886" lon="4.18499">
        <ele>154</ele>
        <time>2015-01-11T10:31:59.000Z</time>
      </trkpt>
      <trkpt lat="50.60885" lon="4.18499">
        <ele>154</ele>
        <time>2015-01-11T10:32:00.000Z</time>
      </trkpt>
      <trkpt lat="50.60884" lon="4.18498">
        <ele>154.1</ele>
        <time>2015-01-11T10:32:01.000Z</time>
      </trkpt>
      <trkpt lat="50.60883" lon="4.18497">
        <ele>154.1</ele>
        <time>2015-01-11T10:32:02.000Z</time>
      </trkpt>
      <trkpt lat="50.60882" lon="4.18497">
        <ele>154.1</ele>
        <time>2015-01-11T10:32:03.000Z</time>
      </trkpt>
      <trkpt lat="50.60881" lon="4.18496">
        <ele>154.1</ele>
        <time>2015-01-11T10:32:04.000Z</time>
      </trkpt>
      <trkpt lat="50.60879" lon="4.18495">
        <ele>154.1</ele>
        <time>2015-01-11T10:32:05.000Z</time>
      </trkpt>
      <trkpt lat="50.60878" lon="4.18494">
        <ele>154.1</ele>
        <time>2015-01-11T10:32:06.000Z</time>
      </trkpt>
      <trkpt lat="50.60876" lon="4.18493">
        <ele>154.1</ele>
        <time>2015-01-11T10:32:07.000Z</time>
      </trkpt>
      <trkpt lat="50.60875" lon="4.18492">
        <ele>154.1</ele>
        <time>2015-01-11T10:32:08.000Z</time>
      </trkpt>
      <trkpt lat="50.60873" lon="4.18491">
        <ele>154.1</ele>
        <time>2015-01-11T10:32:09.000Z</time>
      </trkpt>
      <trkpt lat="50.60871" lon="4.1849">
        <ele>154.1</ele>
        <time>2015-01-11T10:32:10.000Z</time>
      </trkpt>
      <trkpt lat="50.60869" lon="4.18489">
        <ele>154.1</ele>
        <time>2015-01-11T10:32:11.000Z</time>
      </trkpt>
      <trkpt lat="50.60866" lon="4.18487">
        <ele>154.1</ele>
        <time>2015-01-11T10:32:12.000Z</time>
      </trkpt>
      <trkpt lat="50.60864" lon="4.18486">
        <ele>154</ele>
        <time>2015-01-11T10:32:13.000Z</time>
      </trkpt>
      <trkpt lat="50.60861" lon="4.18484">
        <ele>154</ele>
        <time>2015-01-11T10:32:14.000Z</time>
      </trkpt>
      <trkpt lat="50.60859" lon="4.18483">
        <ele>153.9</ele>
        <time>2015-01-11T10:32:15.000Z</time>
      </trkpt>
      <trkpt lat="50.60857" lon="4.18481">
        <ele>153.8</ele>
        <time>2015-01-11T10:32:16.000Z</time>
      </trkpt>
      <trkpt lat="50.60855" lon="4.1848">
        <ele>153.7</ele>
        <time>2015-01-11T10:32:17.000Z</time>
      </trkpt>
      <trkpt lat="50.60853" lon="4.18478">
        <ele>153.6</ele>
        <time>2015-01-11T10:32:18.000Z</time>
      </trkpt>
      <trkpt lat="50.60851" lon="4.18476">
        <ele>153.6</ele>
        <time>2015-01-11T10:32:19.000Z</time>
      </trkpt>
      <trkpt lat="50.60849" lon="4.18475">
        <ele>153.5</ele>
        <time>2015-01-11T10:32:20.000Z</time>
      </trkpt>
      <trkpt lat="50.60848" lon="4.18474">
        <ele>153.5</ele>
        <time>2015-01-11T10:32:21.000Z</time>
      </trkpt>
      <trkpt lat="50.60846" lon="4.18472">
        <ele>153.5</ele>
        <time>2015-01-11T10:32:22.000Z</time>
      </trkpt>
      <trkpt lat="50.60844" lon="4.18471">
        <ele>153.4</ele>
        <time>2015-01-11T10:32:23.000Z</time>
      </trkpt>
      <trkpt lat="50.60841" lon="4.18469">
        <ele>153.4</ele>
        <time>2015-01-11T10:32:24.000Z</time>
      </trkpt>
      <trkpt lat="50.60839" lon="4.18467">
        <ele>153.4</ele>
        <time>2015-01-11T10:32:25.000Z</time>
      </trkpt>
      <trkpt lat="50.60837" lon="4.18465">
        <ele>153.4</ele>
        <time>2015-01-11T10:32:26.000Z</time>
      </trkpt>
      <trkpt lat="50.60835" lon="4.18463">
        <ele>153.4</ele>
        <time>2015-01-11T10:32:27.000Z</time>
      </trkpt>
      <trkpt lat="50.60833" lon="4.18462">
        <ele>153.4</ele>
        <time>2015-01-11T10:32:28.000Z</time>
      </trkpt>
      <trkpt lat="50.60831" lon="4.1846">
        <ele>153.4</ele>
        <time>2015-01-11T10:32:29.000Z</time>
      </trkpt>
      <trkpt lat="50.60829" lon="4.18459">
        <ele>153.5</ele>
        <time>2015-01-11T10:32:30.000Z</time>
      </trkpt>
      <trkpt lat="50.60827" lon="4.18458">
        <ele>153.5</ele>
        <time>2015-01-11T10:32:31.000Z</time>
      </trkpt>
      <trkpt lat="50.60825" lon="4.18457">
        <ele>153.6</ele>
        <time>2015-01-11T10:32:32.000Z</time>
      </trkpt>
      <trkpt lat="50.60823" lon="4.18455">
        <ele>153.6</ele>
        <time>2015-01-11T10:32:33.000Z</time>
      </trkpt>
      <trkpt lat="50.60821" lon="4.18454">
        <ele>153.7</ele>
        <time>2015-01-11T10:32:34.000Z</time>
      </trkpt>
      <trkpt lat="50.60819" lon="4.18452">
        <ele>153.7</ele>
        <time>2015-01-11T10:32:35.000Z</time>
      </trkpt>
      <trkpt lat="50.60817" lon="4.18451">
        <ele>153.8</ele>
        <time>2015-01-11T10:32:36.000Z</time>
      </trkpt>
      <trkpt lat="50.60815" lon="4.1845">
        <ele>153.8</ele>
        <time>2015-01-11T10:32:37.000Z</time>
      </trkpt>
      <trkpt lat="50.60814" lon="4.18449">
        <ele>153.8</ele>
        <time>2015-01-11T10:32:38.000Z</time>
      </trkpt>
      <trkpt lat="50.60812" lon="4.18448">
        <ele>153.9</ele>
        <time>2015-01-11T10:32:39.000Z</time>
      </trkpt>
      <trkpt lat="50.6081" lon="4.18447">
        <ele>153.9</ele>
        <time>2015-01-11T10:32:40.000Z</time>
      </trkpt>
      <trkpt lat="50.60809" lon="4.18446">
        <ele>153.9</ele>
        <time>2015-01-11T10:32:41.000Z</time>
      </trkpt>
      <trkpt lat="50.60807" lon="4.18445">
        <ele>154</ele>
        <time>2015-01-11T10:32:42.000Z</time>
      </trkpt>
      <trkpt lat="50.60806" lon="4.18445">
        <ele>154</ele>
        <time>2015-01-11T10:32:43.000Z</time>
      </trkpt>
      <trkpt lat="50.60804" lon="4.18444">
        <ele>154</ele>
        <time>2015-01-11T10:32:44.000Z</time>
      </trkpt>
      <trkpt lat="50.60802" lon="4.18443">
        <ele>153.9</ele>
        <time>2015-01-11T10:32:45.000Z</time>
      </trkpt>
      <trkpt lat="50.608" lon="4.18441">
        <ele>153.9</ele>
        <time>2015-01-11T10:32:46.000Z</time>
      </trkpt>
      <trkpt lat="50.60799" lon="4.1844">
        <ele>153.9</ele>
        <time>2015-01-11T10:32:47.000Z</time>
      </trkpt>
      <trkpt lat="50.60797" lon="4.18438">
        <ele>153.9</ele>
        <time>2015-01-11T10:32:48.000Z</time>
      </trkpt>
      <trkpt lat="50.60795" lon="4.18437">
        <ele>153.9</ele>
        <time>2015-01-11T10:32:49.000Z</time>
      </trkpt>
      <trkpt lat="50.60794" lon="4.18435">
        <ele>153.9</ele>
        <time>2015-01-11T10:32:50.000Z</time>
      </trkpt>
      <trkpt lat="50.60792" lon="4.18433">
        <ele>153.9</ele>
        <time>2015-01-11T10:32:51.000Z</time>
      </trkpt>
      <trkpt lat="50.6079" lon="4.18432">
        <ele>153.9</ele>
        <time>2015-01-11T10:32:52.000Z</time>
      </trkpt>
      <trkpt lat="50.60788" lon="4.1843">
        <ele>153.9</ele>
        <time>2015-01-11T10:32:53.000Z</time>
      </trkpt>
      <trkpt lat="50.60787" lon="4.18428">
        <ele>153.9</ele>
        <time>2015-01-11T10:32:54.000Z</time>
      </trkpt>
      <trkpt lat="50.60785" lon="4.18427">
        <ele>153.9</ele>
        <time>2015-01-11T10:32:55.000Z</time>
      </trkpt>
      <trkpt lat="50.60783" lon="4.18425">
        <ele>153.9</ele>
        <time>2015-01-11T10:32:56.000Z</time>
      </trkpt>
      <trkpt lat="50.60781" lon="4.18424">
        <ele>153.9</ele>
        <time>2015-01-11T10:32:57.000Z</time>
      </trkpt>
      <trkpt lat="50.60779" lon="4.18422">
        <ele>153.9</ele>
        <time>2015-01-11T10:32:58.000Z</time>
      </trkpt>
      <trkpt lat="50.60777" lon="4.18421">
        <ele>153.8</ele>
        <time>2015-01-11T10:32:59.000Z</time>
      </trkpt>
      <trkpt lat="50.60775" lon="4.1842">
        <ele>153.7</ele>
        <time>2015-01-11T10:33:00.000Z</time>
      </trkpt>
      <trkpt lat="50.60773" lon="4.18418">
        <ele>153.6</ele>
        <time>2015-01-11T10:33:01.000Z</time>
      </trkpt>
      <trkpt lat="50.60771" lon="4.18417">
        <ele>153.5</ele>
        <time>2015-01-11T10:33:02.000Z</time>
      </trkpt>
      <trkpt lat="50.60769" lon="4.18415">
        <ele>153.4</ele>
        <time>2015-01-11T10:33:03.000Z</time>
      </trkpt>
      <trkpt lat="50.60767" lon="4.18414">
        <ele>153.3</ele>
        <time>2015-01-11T10:33:04.000Z</time>
      </trkpt>
      <trkpt lat="50.60765" lon="4.18412">
        <ele>153.3</ele>
        <time>2015-01-11T10:33:05.000Z</time>
      </trkpt>
      <trkpt lat="50.60763" lon="4.18411">
        <ele>153.2</ele>
        <time>2015-01-11T10:33:06.000Z</time>
      </trkpt>
      <trkpt lat="50.60761" lon="4.1841">
        <ele>153.1</ele>
        <time>2015-01-11T10:33:07.000Z</time>
      </trkpt>
      <trkpt lat="50.60759" lon="4.18408">
        <ele>153</ele>
        <time>2015-01-11T10:33:08.000Z</time>
      </trkpt>
      <trkpt lat="50.60758" lon="4.18406">
        <ele>152.9</ele>
        <time>2015-01-11T10:33:09.000Z</time>
      </trkpt>
      <trkpt lat="50.60756" lon="4.18404">
        <ele>152.9</ele>
        <time>2015-01-11T10:33:10.000Z</time>
      </trkpt>
      <trkpt lat="50.60754" lon="4.18402">
        <ele>152.8</ele>
        <time>2015-01-11T10:33:11.000Z</time>
      </trkpt>
      <trkpt lat="50.60752" lon="4.184">
        <ele>152.7</ele>
        <time>2015-01-11T10:33:12.000Z</time>
      </trkpt>
      <trkpt lat="50.6075" lon="4.18399">
        <ele>152.7</ele>
        <time>2015-01-11T10:33:13.000Z</time>
      </trkpt>
      <trkpt lat="50.60749" lon="4.18397">
        <ele>152.6</ele>
        <time>2015-01-11T10:33:14.000Z</time>
      </trkpt>
      <trkpt lat="50.60747" lon="4.18396">
        <ele>152.6</ele>
        <time>2015-01-11T10:33:15.000Z</time>
      </trkpt>
      <trkpt lat="50.60745" lon="4.18395">
        <ele>152.6</ele>
        <time>2015-01-11T10:33:16.000Z</time>
      </trkpt>
      <trkpt lat="50.60743" lon="4.18394">
        <ele>152.6</ele>
        <time>2015-01-11T10:33:17.000Z</time>
      </trkpt>
      <trkpt lat="50.60741" lon="4.18393">
        <ele>152.5</ele>
        <time>2015-01-11T10:33:18.000Z</time>
      </trkpt>
      <trkpt lat="50.60739" lon="4.18392">
        <ele>152.5</ele>
        <time>2015-01-11T10:33:19.000Z</time>
      </trkpt>
      <trkpt lat="50.60738" lon="4.18392">
        <ele>152.4</ele>
        <time>2015-01-11T10:33:20.000Z</time>
      </trkpt>
      <trkpt lat="50.60736" lon="4.18391">
        <ele>152.4</ele>
        <time>2015-01-11T10:33:21.000Z</time>
      </trkpt>
      <trkpt lat="50.60734" lon="4.1839">
        <ele>152.4</ele>
        <time>2015-01-11T10:33:22.000Z</time>
      </trkpt>
      <trkpt lat="50.60732" lon="4.1839">
        <ele>152.3</ele>
        <time>2015-01-11T10:33:23.000Z</time>
      </trkpt>
      <trkpt lat="50.60731" lon="4.18389">
        <ele>152.3</ele>
        <time>2015-01-11T10:33:24.000Z</time>
      </trkpt>
      <trkpt lat="50.60729" lon="4.18389">
        <ele>152.3</ele>
        <time>2015-01-11T10:33:25.000Z</time>
      </trkpt>
      <trkpt lat="50.60727" lon="4.18388">
        <ele>152.2</ele>
        <time>2015-01-11T10:33:26.000Z</time>
      </trkpt>
      <trkpt lat="50.60725" lon="4.18387">
        <ele>152.3</ele>
        <time>2015-01-11T10:33:27.000Z</time>
      </trkpt>
      <trkpt lat="50.60724" lon="4.18386">
        <ele>152.3</ele>
        <time>2015-01-11T10:33:28.000Z</time>
      </trkpt>
      <trkpt lat="50.60722" lon="4.18385">
        <ele>152.3</ele>
        <time>2015-01-11T10:33:29.000Z</time>
      </trkpt>
      <trkpt lat="50.6072" lon="4.18383">
        <ele>152.4</ele>
        <time>2015-01-11T10:33:30.000Z</time>
      </trkpt>
      <trkpt lat="50.60718" lon="4.18383">
        <ele>152.5</ele>
        <time>2015-01-11T10:33:31.000Z</time>
      </trkpt>
      <trkpt lat="50.60713" lon="4.18379">
        <ele>152.7</ele>
        <time>2015-01-11T10:33:32.000Z</time>
      </trkpt>
      <trkpt lat="50.60713" lon="4.18379">
        <ele>152.7</ele>
        <time>2015-01-11T10:33:33.000Z</time>
      </trkpt>
      <trkpt lat="50.60712" lon="4.18378">
        <ele>152.8</ele>
        <time>2015-01-11T10:33:34.000Z</time>
      </trkpt>
      <trkpt lat="50.60711" lon="4.18378">
        <ele>152.8</ele>
        <time>2015-01-11T10:33:35.000Z</time>
      </trkpt>
      <trkpt lat="50.6071" lon="4.18377">
        <ele>152.8</ele>
        <time>2015-01-11T10:33:36.000Z</time>
      </trkpt>
      <trkpt lat="50.60708" lon="4.18377">
        <ele>152.9</ele>
        <time>2015-01-11T10:33:37.000Z</time>
      </trkpt>
      <trkpt lat="50.60705" lon="4.18375">
        <ele>153</ele>
        <time>2015-01-11T10:33:38.000Z</time>
      </trkpt>
      <trkpt lat="50.60704" lon="4.18375">
        <ele>153</ele>
        <time>2015-01-11T10:33:39.000Z</time>
      </trkpt>
      <trkpt lat="50.60703" lon="4.18374">
        <ele>153.1</ele>
        <time>2015-01-11T10:33:40.000Z</time>
      </trkpt>
      <trkpt lat="50.60702" lon="4.18373">
        <ele>153.2</ele>
        <time>2015-01-11T10:33:41.000Z</time>
      </trkpt>
      <trkpt lat="50.60701" lon="4.18372">
        <ele>153.2</ele>
        <time>2015-01-11T10:33:42.000Z</time>
      </trkpt>
      <trkpt lat="50.60699" lon="4.18371">
        <ele>153.3</ele>
        <time>2015-01-11T10:33:43.000Z</time>
      </trkpt>
      <trkpt lat="50.60697" lon="4.1837">
        <ele>153.4</ele>
        <time>2015-01-11T10:33:44.000Z</time>
      </trkpt>
      <trkpt lat="50.60695" lon="4.18368">
        <ele>153.5</ele>
        <time>2015-01-11T10:33:45.000Z</time>
      </trkpt>
      <trkpt lat="50.60694" lon="4.18367">
        <ele>153.6</ele>
        <time>2015-01-11T10:33:46.000Z</time>
      </trkpt>
      <trkpt lat="50.60692" lon="4.18366">
        <ele>153.6</ele>
        <time>2015-01-11T10:33:47.000Z</time>
      </trkpt>
      <trkpt lat="50.6069" lon="4.18365">
        <ele>153.6</ele>
        <time>2015-01-11T10:33:48.000Z</time>
      </trkpt>
      <trkpt lat="50.60689" lon="4.18364">
        <ele>153.6</ele>
        <time>2015-01-11T10:33:49.000Z</time>
      </trkpt>
      <trkpt lat="50.60687" lon="4.18363">
        <ele>153.6</ele>
        <time>2015-01-11T10:33:50.000Z</time>
      </trkpt>
      <trkpt lat="50.60685" lon="4.18362">
        <ele>153.6</ele>
        <time>2015-01-11T10:33:51.000Z</time>
      </trkpt>
      <trkpt lat="50.60683" lon="4.1836">
        <ele>153.6</ele>
        <time>2015-01-11T10:33:52.000Z</time>
      </trkpt>
      <trkpt lat="50.60681" lon="4.18359">
        <ele>153.6</ele>
        <time>2015-01-11T10:33:53.000Z</time>
      </trkpt>
      <trkpt lat="50.60679" lon="4.18358">
        <ele>153.6</ele>
        <time>2015-01-11T10:33:54.000Z</time>
      </trkpt>
      <trkpt lat="50.60678" lon="4.18358">
        <ele>153.5</ele>
        <time>2015-01-11T10:33:55.000Z</time>
      </trkpt>
      <trkpt lat="50.60676" lon="4.18357">
        <ele>153.5</ele>
        <time>2015-01-11T10:33:56.000Z</time>
      </trkpt>
      <trkpt lat="50.60674" lon="4.18356">
        <ele>153.4</ele>
        <time>2015-01-11T10:33:57.000Z</time>
      </trkpt>
      <trkpt lat="50.60672" lon="4.18356">
        <ele>153.4</ele>
        <time>2015-01-11T10:33:58.000Z</time>
      </trkpt>
      <trkpt lat="50.6067" lon="4.18355">
        <ele>153.4</ele>
        <time>2015-01-11T10:33:59.000Z</time>
      </trkpt>
      <trkpt lat="50.60669" lon="4.18353">
        <ele>153.3</ele>
        <time>2015-01-11T10:34:00.000Z</time>
      </trkpt>
      <trkpt lat="50.60667" lon="4.18352">
        <ele>153.3</ele>
        <time>2015-01-11T10:34:01.000Z</time>
      </trkpt>
      <trkpt lat="50.60665" lon="4.1835">
        <ele>153.3</ele>
        <time>2015-01-11T10:34:02.000Z</time>
      </trkpt>
      <trkpt lat="50.60664" lon="4.18349">
        <ele>153.3</ele>
        <time>2015-01-11T10:34:03.000Z</time>
      </trkpt>
      <trkpt lat="50.60663" lon="4.18347">
        <ele>153.3</ele>
        <time>2015-01-11T10:34:04.000Z</time>
      </trkpt>
      <trkpt lat="50.60662" lon="4.18346">
        <ele>153.4</ele>
        <time>2015-01-11T10:34:05.000Z</time>
      </trkpt>
      <trkpt lat="50.60661" lon="4.18345">
        <ele>153.4</ele>
        <time>2015-01-11T10:34:06.000Z</time>
      </trkpt>
      <trkpt lat="50.60661" lon="4.18345">
        <ele>153.4</ele>
        <time>2015-01-11T10:34:07.000Z</time>
      </trkpt>
      <trkpt lat="50.6066" lon="4.18343">
        <ele>153.4</ele>
        <time>2015-01-11T10:34:08.000Z</time>
      </trkpt>
      <trkpt lat="50.6066" lon="4.18343">
        <ele>153.4</ele>
        <time>2015-01-11T10:34:09.000Z</time>
      </trkpt>
      <trkpt lat="50.6066" lon="4.18343">
        <ele>153.4</ele>
        <time>2015-01-11T10:34:10.000Z</time>
      </trkpt>
      <trkpt lat="50.60662" lon="4.18344">
        <ele>153.4</ele>
        <time>2015-01-11T10:34:11.000Z</time>
      </trkpt>
      <trkpt lat="50.60662" lon="4.18344">
        <ele>153.5</ele>
        <time>2015-01-11T10:34:12.000Z</time>
      </trkpt>
      <trkpt lat="50.60662" lon="4.18343">
        <ele>153.5</ele>
        <time>2015-01-11T10:34:13.000Z</time>
      </trkpt>
      <trkpt lat="50.60663" lon="4.18343">
        <ele>153.5</ele>
        <time>2015-01-11T10:34:14.000Z</time>
      </trkpt>
      <trkpt lat="50.60663" lon="4.18343">
        <ele>153.5</ele>
        <time>2015-01-11T10:34:15.000Z</time>
      </trkpt>
      <trkpt lat="50.60664" lon="4.18343">
        <ele>153.5</ele>
        <time>2015-01-11T10:34:16.000Z</time>
      </trkpt>
      <trkpt lat="50.60665" lon="4.18343">
        <ele>153.6</ele>
        <time>2015-01-11T10:34:17.000Z</time>
      </trkpt>
      <trkpt lat="50.60665" lon="4.18343">
        <ele>153.6</ele>
        <time>2015-01-11T10:34:18.000Z</time>
      </trkpt>
      <trkpt lat="50.60665" lon="4.18343">
        <ele>153.6</ele>
        <time>2015-01-11T10:34:19.000Z</time>
      </trkpt>
      <trkpt lat="50.60666" lon="4.18343">
        <ele>153.6</ele>
        <time>2015-01-11T10:34:20.000Z</time>
      </trkpt>
      <trkpt lat="50.60666" lon="4.18344">
        <ele>153.6</ele>
        <time>2015-01-11T10:34:21.000Z</time>
      </trkpt>
      <trkpt lat="50.60667" lon="4.18344">
        <ele>153.6</ele>
        <time>2015-01-11T10:34:22.000Z</time>
      </trkpt>
      <trkpt lat="50.6067" lon="4.18344">
        <ele>153.7</ele>
        <time>2015-01-11T10:34:23.000Z</time>
      </trkpt>
      <trkpt lat="50.6067" lon="4.18344">
        <ele>153.7</ele>
        <time>2015-01-11T10:34:24.000Z</time>
      </trkpt>
      <trkpt lat="50.6067" lon="4.18344">
        <ele>153.7</ele>
        <time>2015-01-11T10:34:25.000Z</time>
      </trkpt>
      <trkpt lat="50.6067" lon="4.18343">
        <ele>153.8</ele>
        <time>2015-01-11T10:34:26.000Z</time>
      </trkpt>
      <trkpt lat="50.6067" lon="4.18343">
        <ele>153.8</ele>
        <time>2015-01-11T10:34:27.000Z</time>
      </trkpt>
      <trkpt lat="50.6067" lon="4.18342">
        <ele>153.8</ele>
        <time>2015-01-11T10:34:28.000Z</time>
      </trkpt>
      <trkpt lat="50.60669" lon="4.18341">
        <ele>153.8</ele>
        <time>2015-01-11T10:34:29.000Z</time>
      </trkpt>
      <trkpt lat="50.60669" lon="4.1834">
        <ele>153.8</ele>
        <time>2015-01-11T10:34:30.000Z</time>
      </trkpt>
      <trkpt lat="50.60668" lon="4.18339">
        <ele>153.8</ele>
        <time>2015-01-11T10:34:31.000Z</time>
      </trkpt>
      <trkpt lat="50.60668" lon="4.18339">
        <ele>153.8</ele>
        <time>2015-01-11T10:34:32.000Z</time>
      </trkpt>
      <trkpt lat="50.60667" lon="4.18338">
        <ele>153.9</ele>
        <time>2015-01-11T10:34:33.000Z</time>
      </trkpt>
      <trkpt lat="50.60667" lon="4.18338">
        <ele>153.9</ele>
        <time>2015-01-11T10:34:34.000Z</time>
      </trkpt>
      <trkpt lat="50.60666" lon="4.18337">
        <ele>153.9</ele>
        <time>2015-01-11T10:34:35.000Z</time>
      </trkpt>
      <trkpt lat="50.60666" lon="4.18336">
        <ele>153.9</ele>
        <time>2015-01-11T10:34:36.000Z</time>
      </trkpt>
      <trkpt lat="50.60665" lon="4.18336">
        <ele>153.8</ele>
        <time>2015-01-11T10:34:37.000Z</time>
      </trkpt>
      <trkpt lat="50.60664" lon="4.18335">
        <ele>153.8</ele>
        <time>2015-01-11T10:34:38.000Z</time>
      </trkpt>
      <trkpt lat="50.60663" lon="4.18334">
        <ele>153.8</ele>
        <time>2015-01-11T10:34:39.000Z</time>
      </trkpt>
      <trkpt lat="50.60662" lon="4.18333">
        <ele>153.8</ele>
        <time>2015-01-11T10:34:40.000Z</time>
      </trkpt>
      <trkpt lat="50.60661" lon="4.18332">
        <ele>153.8</ele>
        <time>2015-01-11T10:34:41.000Z</time>
      </trkpt>
      <trkpt lat="50.6066" lon="4.18331">
        <ele>153.8</ele>
        <time>2015-01-11T10:34:42.000Z</time>
      </trkpt>
      <trkpt lat="50.60659" lon="4.1833">
        <ele>153.8</ele>
        <time>2015-01-11T10:34:43.000Z</time>
      </trkpt>
      <trkpt lat="50.60657" lon="4.18329">
        <ele>153.8</ele>
        <time>2015-01-11T10:34:44.000Z</time>
      </trkpt>
      <trkpt lat="50.60656" lon="4.18329">
        <ele>153.8</ele>
        <time>2015-01-11T10:34:45.000Z</time>
      </trkpt>
      <trkpt lat="50.60655" lon="4.18328">
        <ele>153.8</ele>
        <time>2015-01-11T10:34:46.000Z</time>
      </trkpt>
      <trkpt lat="50.60654" lon="4.18327">
        <ele>153.7</ele>
        <time>2015-01-11T10:34:47.000Z</time>
      </trkpt>
      <trkpt lat="50.60652" lon="4.18327">
        <ele>153.7</ele>
        <time>2015-01-11T10:34:48.000Z</time>
      </trkpt>
      <trkpt lat="50.60651" lon="4.18326">
        <ele>153.7</ele>
        <time>2015-01-11T10:34:49.000Z</time>
      </trkpt>
      <trkpt lat="50.6065" lon="4.18325">
        <ele>153.7</ele>
        <time>2015-01-11T10:34:50.000Z</time>
      </trkpt>
      <trkpt lat="50.60649" lon="4.18324">
        <ele>153.7</ele>
        <time>2015-01-11T10:34:51.000Z</time>
      </trkpt>
      <trkpt lat="50.60649" lon="4.18323">
        <ele>153.7</ele>
        <time>2015-01-11T10:34:52.000Z</time>
      </trkpt>
      <trkpt lat="50.60648" lon="4.18322">
        <ele>153.7</ele>
        <time>2015-01-11T10:34:53.000Z</time>
      </trkpt>
      <trkpt lat="50.60647" lon="4.18321">
        <ele>153.7</ele>
        <time>2015-01-11T10:34:54.000Z</time>
      </trkpt>
      <trkpt lat="50.60646" lon="4.1832">
        <ele>153.7</ele>
        <time>2015-01-11T10:34:55.000Z</time>
      </trkpt>
      <trkpt lat="50.60645" lon="4.18319">
        <ele>153.7</ele>
        <time>2015-01-11T10:34:56.000Z</time>
      </trkpt>
      <trkpt lat="50.60644" lon="4.18318">
        <ele>153.7</ele>
        <time>2015-01-11T10:34:57.000Z</time>
      </trkpt>
      <trkpt lat="50.60643" lon="4.18317">
        <ele>153.7</ele>
        <time>2015-01-11T10:34:58.000Z</time>
      </trkpt>
      <trkpt lat="50.60641" lon="4.18316">
        <ele>153.7</ele>
        <time>2015-01-11T10:34:59.000Z</time>
      </trkpt>
      <trkpt lat="50.6064" lon="4.18315">
        <ele>153.7</ele>
        <time>2015-01-11T10:35:00.000Z</time>
      </trkpt>
      <trkpt lat="50.60639" lon="4.18314">
        <ele>153.7</ele>
        <time>2015-01-11T10:35:01.000Z</time>
      </trkpt>
      <trkpt lat="50.60637" lon="4.18313">
        <ele>153.7</ele>
        <time>2015-01-11T10:35:02.000Z</time>
      </trkpt>
      <trkpt lat="50.60636" lon="4.18312">
        <ele>153.7</ele>
        <time>2015-01-11T10:35:03.000Z</time>
      </trkpt>
      <trkpt lat="50.60634" lon="4.18311">
        <ele>153.6</ele>
        <time>2015-01-11T10:35:04.000Z</time>
      </trkpt>
      <trkpt lat="50.60633" lon="4.18311">
        <ele>153.6</ele>
        <time>2015-01-11T10:35:05.000Z</time>
      </trkpt>
      <trkpt lat="50.60631" lon="4.1831">
        <ele>153.6</ele>
        <time>2015-01-11T10:35:06.000Z</time>
      </trkpt>
      <trkpt lat="50.60629" lon="4.18309">
        <ele>153.5</ele>
        <time>2015-01-11T10:35:07.000Z</time>
      </trkpt>
      <trkpt lat="50.60628" lon="4.18309">
        <ele>153.5</ele>
        <time>2015-01-11T10:35:08.000Z</time>
      </trkpt>
      <trkpt lat="50.60626" lon="4.18308">
        <ele>153.4</ele>
        <time>2015-01-11T10:35:09.000Z</time>
      </trkpt>
      <trkpt lat="50.60624" lon="4.18307">
        <ele>153.4</ele>
        <time>2015-01-11T10:35:10.000Z</time>
      </trkpt>
      <trkpt lat="50.60622" lon="4.18306">
        <ele>153.4</ele>
        <time>2015-01-11T10:35:11.000Z</time>
      </trkpt>
      <trkpt lat="50.60618" lon="4.18304">
        <ele>153.3</ele>
        <time>2015-01-11T10:35:12.000Z</time>
      </trkpt>
      <trkpt lat="50.60618" lon="4.18304">
        <ele>153.3</ele>
        <time>2015-01-11T10:35:13.000Z</time>
      </trkpt>
      <trkpt lat="50.60618" lon="4.18304">
        <ele>153.3</ele>
        <time>2015-01-11T10:35:14.000Z</time>
      </trkpt>
      <trkpt lat="50.60618" lon="4.18304">
        <ele>153.3</ele>
        <time>2015-01-11T10:35:15.000Z</time>
      </trkpt>
      <trkpt lat="50.60618" lon="4.18303">
        <ele>153.3</ele>
        <time>2015-01-11T10:35:16.000Z</time>
      </trkpt>
      <trkpt lat="50.60618" lon="4.18303">
        <ele>153.4</ele>
        <time>2015-01-11T10:35:17.000Z</time>
      </trkpt>
      <trkpt lat="50.60619" lon="4.18302">
        <ele>153.4</ele>
        <time>2015-01-11T10:35:18.000Z</time>
      </trkpt>
      <trkpt lat="50.60619" lon="4.18302">
        <ele>153.4</ele>
        <time>2015-01-11T10:35:19.000Z</time>
      </trkpt>
      <trkpt lat="50.60619" lon="4.18301">
        <ele>153.5</ele>
        <time>2015-01-11T10:35:20.000Z</time>
      </trkpt>
      <trkpt lat="50.6062" lon="4.183">
        <ele>153.5</ele>
        <time>2015-01-11T10:35:21.000Z</time>
      </trkpt>
      <trkpt lat="50.6062" lon="4.18299">
        <ele>153.6</ele>
        <time>2015-01-11T10:35:22.000Z</time>
      </trkpt>
      <trkpt lat="50.60623" lon="4.18295">
        <ele>153.8</ele>
        <time>2015-01-11T10:35:23.000Z</time>
      </trkpt>
      <trkpt lat="50.60623" lon="4.18295">
        <ele>153.8</ele>
        <time>2015-01-11T10:35:24.000Z</time>
      </trkpt>
      <trkpt lat="50.60624" lon="4.18295">
        <ele>153.8</ele>
        <time>2015-01-11T10:35:25.000Z</time>
      </trkpt>
      <trkpt lat="50.60625" lon="4.18295">
        <ele>153.9</ele>
        <time>2015-01-11T10:35:26.000Z</time>
      </trkpt>
      <trkpt lat="50.60625" lon="4.18294">
        <ele>153.9</ele>
        <time>2015-01-11T10:35:27.000Z</time>
      </trkpt>
      <trkpt lat="50.60626" lon="4.18294">
        <ele>154</ele>
        <time>2015-01-11T10:35:28.000Z</time>
      </trkpt>
      <trkpt lat="50.60627" lon="4.18293">
        <ele>154</ele>
        <time>2015-01-11T10:35:29.000Z</time>
      </trkpt>
      <trkpt lat="50.60628" lon="4.18292">
        <ele>154.1</ele>
        <time>2015-01-11T10:35:30.000Z</time>
      </trkpt>
      <trkpt lat="50.60629" lon="4.18291">
        <ele>154.2</ele>
        <time>2015-01-11T10:35:31.000Z</time>
      </trkpt>
      <trkpt lat="50.60631" lon="4.18291">
        <ele>154.2</ele>
        <time>2015-01-11T10:35:32.000Z</time>
      </trkpt>
      <trkpt lat="50.60632" lon="4.1829">
        <ele>154.3</ele>
        <time>2015-01-11T10:35:33.000Z</time>
      </trkpt>
      <trkpt lat="50.60633" lon="4.18289">
        <ele>154.4</ele>
        <time>2015-01-11T10:35:34.000Z</time>
      </trkpt>
      <trkpt lat="50.60635" lon="4.18288">
        <ele>154.5</ele>
        <time>2015-01-11T10:35:35.000Z</time>
      </trkpt>
      <trkpt lat="50.60637" lon="4.18287">
        <ele>154.6</ele>
        <time>2015-01-11T10:35:36.000Z</time>
      </trkpt>
      <trkpt lat="50.60639" lon="4.18286">
        <ele>154.7</ele>
        <time>2015-01-11T10:35:37.000Z</time>
      </trkpt>
      <trkpt lat="50.6064" lon="4.18285">
        <ele>154.8</ele>
        <time>2015-01-11T10:35:38.000Z</time>
      </trkpt>
      <trkpt lat="50.60642" lon="4.18284">
        <ele>154.9</ele>
        <time>2015-01-11T10:35:39.000Z</time>
      </trkpt>
      <trkpt lat="50.60643" lon="4.18283">
        <ele>155</ele>
        <time>2015-01-11T10:35:40.000Z</time>
      </trkpt>
      <trkpt lat="50.60645" lon="4.18282">
        <ele>155.1</ele>
        <time>2015-01-11T10:35:41.000Z</time>
      </trkpt>
      <trkpt lat="50.60646" lon="4.18281">
        <ele>155.1</ele>
        <time>2015-01-11T10:35:42.000Z</time>
      </trkpt>
      <trkpt lat="50.60648" lon="4.1828">
        <ele>155.2</ele>
        <time>2015-01-11T10:35:43.000Z</time>
      </trkpt>
      <trkpt lat="50.60649" lon="4.1828">
        <ele>155.3</ele>
        <time>2015-01-11T10:35:44.000Z</time>
      </trkpt>
      <trkpt lat="50.60651" lon="4.18279">
        <ele>155.4</ele>
        <time>2015-01-11T10:35:45.000Z</time>
      </trkpt>
      <trkpt lat="50.60653" lon="4.18278">
        <ele>155.5</ele>
        <time>2015-01-11T10:35:46.000Z</time>
      </trkpt>
      <trkpt lat="50.60655" lon="4.18277">
        <ele>155.6</ele>
        <time>2015-01-11T10:35:47.000Z</time>
      </trkpt>
      <trkpt lat="50.60656" lon="4.18276">
        <ele>155.7</ele>
        <time>2015-01-11T10:35:48.000Z</time>
      </trkpt>
      <trkpt lat="50.60658" lon="4.18275">
        <ele>155.7</ele>
        <time>2015-01-11T10:35:49.000Z</time>
      </trkpt>
      <trkpt lat="50.6066" lon="4.18274">
        <ele>155.8</ele>
        <time>2015-01-11T10:35:50.000Z</time>
      </trkpt>
      <trkpt lat="50.60662" lon="4.18274">
        <ele>155.8</ele>
        <time>2015-01-11T10:35:51.000Z</time>
      </trkpt>
      <trkpt lat="50.60663" lon="4.18273">
        <ele>155.9</ele>
        <time>2015-01-11T10:35:52.000Z</time>
      </trkpt>
      <trkpt lat="50.60665" lon="4.18272">
        <ele>155.9</ele>
        <time>2015-01-11T10:35:53.000Z</time>
      </trkpt>
      <trkpt lat="50.60666" lon="4.18271">
        <ele>156</ele>
        <time>2015-01-11T10:35:54.000Z</time>
      </trkpt>
      <trkpt lat="50.60668" lon="4.18271">
        <ele>156</ele>
        <time>2015-01-11T10:35:55.000Z</time>
      </trkpt>
      <trkpt lat="50.60669" lon="4.1827">
        <ele>156.1</ele>
        <time>2015-01-11T10:35:56.000Z</time>
      </trkpt>
      <trkpt lat="50.60671" lon="4.18269">
        <ele>156.1</ele>
        <time>2015-01-11T10:35:57.000Z</time>
      </trkpt>
      <trkpt lat="50.60672" lon="4.18269">
        <ele>156.2</ele>
        <time>2015-01-11T10:35:58.000Z</time>
      </trkpt>
      <trkpt lat="50.60674" lon="4.18268">
        <ele>156.3</ele>
        <time>2015-01-11T10:35:59.000Z</time>
      </trkpt>
      <trkpt lat="50.60675" lon="4.18268">
        <ele>156.3</ele>
        <time>2015-01-11T10:36:00.000Z</time>
      </trkpt>
      <trkpt lat="50.60677" lon="4.18267">
        <ele>156.4</ele>
        <time>2015-01-11T10:36:01.000Z</time>
      </trkpt>
      <trkpt lat="50.60683" lon="4.18265">
        <ele>156.6</ele>
        <time>2015-01-11T10:36:02.000Z</time>
      </trkpt>
      <trkpt lat="50.60683" lon="4.18265">
        <ele>156.6</ele>
        <time>2015-01-11T10:36:03.000Z</time>
      </trkpt>
      <trkpt lat="50.60683" lon="4.18265">
        <ele>156.6</ele>
        <time>2015-01-11T10:36:04.000Z</time>
      </trkpt>
      <trkpt lat="50.60684" lon="4.18265">
        <ele>156.6</ele>
        <time>2015-01-11T10:36:05.000Z</time>
      </trkpt>
      <trkpt lat="50.60685" lon="4.18265">
        <ele>156.7</ele>
        <time>2015-01-11T10:36:06.000Z</time>
      </trkpt>
      <trkpt lat="50.60686" lon="4.18265">
        <ele>156.7</ele>
        <time>2015-01-11T10:36:07.000Z</time>
      </trkpt>
      <trkpt lat="50.60688" lon="4.18264">
        <ele>156.8</ele>
        <time>2015-01-11T10:36:08.000Z</time>
      </trkpt>
      <trkpt lat="50.60689" lon="4.18264">
        <ele>156.8</ele>
        <time>2015-01-11T10:36:09.000Z</time>
      </trkpt>
      <trkpt lat="50.60691" lon="4.18264">
        <ele>156.9</ele>
        <time>2015-01-11T10:36:10.000Z</time>
      </trkpt>
      <trkpt lat="50.60692" lon="4.18264">
        <ele>156.9</ele>
        <time>2015-01-11T10:36:11.000Z</time>
      </trkpt>
      <trkpt lat="50.60694" lon="4.18264">
        <ele>157</ele>
        <time>2015-01-11T10:36:12.000Z</time>
      </trkpt>
      <trkpt lat="50.60695" lon="4.18264">
        <ele>157</ele>
        <time>2015-01-11T10:36:13.000Z</time>
      </trkpt>
      <trkpt lat="50.60697" lon="4.18264">
        <ele>157</ele>
        <time>2015-01-11T10:36:14.000Z</time>
      </trkpt>
      <trkpt lat="50.60698" lon="4.18263">
        <ele>157</ele>
        <time>2015-01-11T10:36:15.000Z</time>
      </trkpt>
      <trkpt lat="50.60699" lon="4.18263">
        <ele>157</ele>
        <time>2015-01-11T10:36:16.000Z</time>
      </trkpt>
      <trkpt lat="50.60701" lon="4.18263">
        <ele>157</ele>
        <time>2015-01-11T10:36:17.000Z</time>
      </trkpt>
      <trkpt lat="50.60703" lon="4.18262">
        <ele>157</ele>
        <time>2015-01-11T10:36:18.000Z</time>
      </trkpt>
      <trkpt lat="50.60705" lon="4.18262">
        <ele>157</ele>
        <time>2015-01-11T10:36:19.000Z</time>
      </trkpt>
      <trkpt lat="50.60707" lon="4.18261">
        <ele>157</ele>
        <time>2015-01-11T10:36:20.000Z</time>
      </trkpt>
      <trkpt lat="50.60709" lon="4.1826">
        <ele>157</ele>
        <time>2015-01-11T10:36:21.000Z</time>
      </trkpt>
      <trkpt lat="50.60711" lon="4.1826">
        <ele>157</ele>
        <time>2015-01-11T10:36:22.000Z</time>
      </trkpt>
      <trkpt lat="50.60713" lon="4.18259">
        <ele>157</ele>
        <time>2015-01-11T10:36:23.000Z</time>
      </trkpt>
      <trkpt lat="50.60714" lon="4.18259">
        <ele>157</ele>
        <time>2015-01-11T10:36:24.000Z</time>
      </trkpt>
      <trkpt lat="50.60716" lon="4.18258">
        <ele>157</ele>
        <time>2015-01-11T10:36:25.000Z</time>
      </trkpt>
      <trkpt lat="50.60718" lon="4.18258">
        <ele>157</ele>
        <time>2015-01-11T10:36:26.000Z</time>
      </trkpt>
      <trkpt lat="50.6072" lon="4.18257">
        <ele>157</ele>
        <time>2015-01-11T10:36:27.000Z</time>
      </trkpt>
      <trkpt lat="50.60722" lon="4.18257">
        <ele>157</ele>
        <time>2015-01-11T10:36:28.000Z</time>
      </trkpt>
      <trkpt lat="50.60723" lon="4.18257">
        <ele>157</ele>
        <time>2015-01-11T10:36:29.000Z</time>
      </trkpt>
      <trkpt lat="50.60725" lon="4.18257">
        <ele>157.1</ele>
        <time>2015-01-11T10:36:30.000Z</time>
      </trkpt>
      <trkpt lat="50.60727" lon="4.18256">
        <ele>157.1</ele>
        <time>2015-01-11T10:36:31.000Z</time>
      </trkpt>
      <trkpt lat="50.60728" lon="4.18256">
        <ele>157.2</ele>
        <time>2015-01-11T10:36:32.000Z</time>
      </trkpt>
      <trkpt lat="50.6073" lon="4.18256">
        <ele>157.2</ele>
        <time>2015-01-11T10:36:33.000Z</time>
      </trkpt>
      <trkpt lat="50.60732" lon="4.18256">
        <ele>157.3</ele>
        <time>2015-01-11T10:36:34.000Z</time>
      </trkpt>
      <trkpt lat="50.60733" lon="4.18256">
        <ele>157.3</ele>
        <time>2015-01-11T10:36:35.000Z</time>
      </trkpt>
      <trkpt lat="50.60735" lon="4.18257">
        <ele>157.4</ele>
        <time>2015-01-11T10:36:36.000Z</time>
      </trkpt>
      <trkpt lat="50.60737" lon="4.18257">
        <ele>157.4</ele>
        <time>2015-01-11T10:36:37.000Z</time>
      </trkpt>
      <trkpt lat="50.6074" lon="4.18257">
        <ele>157.5</ele>
        <time>2015-01-11T10:36:38.000Z</time>
      </trkpt>
      <trkpt lat="50.60742" lon="4.18257">
        <ele>157.5</ele>
        <time>2015-01-11T10:36:39.000Z</time>
      </trkpt>
      <trkpt lat="50.60744" lon="4.18257">
        <ele>157.6</ele>
        <time>2015-01-11T10:36:40.000Z</time>
      </trkpt>
      <trkpt lat="50.60746" lon="4.18257">
        <ele>157.6</ele>
        <time>2015-01-11T10:36:41.000Z</time>
      </trkpt>
      <trkpt lat="50.60748" lon="4.18257">
        <ele>157.7</ele>
        <time>2015-01-11T10:36:42.000Z</time>
      </trkpt>
      <trkpt lat="50.6075" lon="4.18257">
        <ele>157.7</ele>
        <time>2015-01-11T10:36:43.000Z</time>
      </trkpt>
      <trkpt lat="50.60752" lon="4.18257">
        <ele>157.7</ele>
        <time>2015-01-11T10:36:44.000Z</time>
      </trkpt>
      <trkpt lat="50.60753" lon="4.18257">
        <ele>157.7</ele>
        <time>2015-01-11T10:36:45.000Z</time>
      </trkpt>
      <trkpt lat="50.60754" lon="4.18257">
        <ele>157.7</ele>
        <time>2015-01-11T10:36:46.000Z</time>
      </trkpt>
      <trkpt lat="50.60755" lon="4.18257">
        <ele>157.7</ele>
        <time>2015-01-11T10:36:47.000Z</time>
      </trkpt>
      <trkpt lat="50.6076" lon="4.18257">
        <ele>157.8</ele>
        <time>2015-01-11T10:36:48.000Z</time>
      </trkpt>
      <trkpt lat="50.6076" lon="4.18257">
        <ele>157.8</ele>
        <time>2015-01-11T10:36:49.000Z</time>
      </trkpt>
      <trkpt lat="50.6076" lon="4.18257">
        <ele>157.8</ele>
        <time>2015-01-11T10:36:50.000Z</time>
      </trkpt>
      <trkpt lat="50.60761" lon="4.18257">
        <ele>157.7</ele>
        <time>2015-01-11T10:36:51.000Z</time>
      </trkpt>
      <trkpt lat="50.60761" lon="4.18257">
        <ele>157.8</ele>
        <time>2015-01-11T10:36:52.000Z</time>
      </trkpt>
      <trkpt lat="50.60761" lon="4.18257">
        <ele>157.8</ele>
        <time>2015-01-11T10:36:53.000Z</time>
      </trkpt>
      <trkpt lat="50.60761" lon="4.18257">
        <ele>157.8</ele>
        <time>2015-01-11T10:36:54.000Z</time>
      </trkpt>
      <trkpt lat="50.60762" lon="4.18256">
        <ele>157.8</ele>
        <time>2015-01-11T10:36:55.000Z</time>
      </trkpt>
      <trkpt lat="50.60762" lon="4.18256">
        <ele>157.8</ele>
        <time>2015-01-11T10:36:56.000Z</time>
      </trkpt>
      <trkpt lat="50.60763" lon="4.18256">
        <ele>157.8</ele>
        <time>2015-01-11T10:36:57.000Z</time>
      </trkpt>
      <trkpt lat="50.60763" lon="4.18256">
        <ele>157.8</ele>
        <time>2015-01-11T10:36:58.000Z</time>
      </trkpt>
      <trkpt lat="50.60764" lon="4.18255">
        <ele>157.8</ele>
        <time>2015-01-11T10:36:59.000Z</time>
      </trkpt>
      <trkpt lat="50.60765" lon="4.18255">
        <ele>157.8</ele>
        <time>2015-01-11T10:37:00.000Z</time>
      </trkpt>
      <trkpt lat="50.60766" lon="4.18255">
        <ele>157.8</ele>
        <time>2015-01-11T10:37:01.000Z</time>
      </trkpt>
      <trkpt lat="50.60766" lon="4.18255">
        <ele>157.8</ele>
        <time>2015-01-11T10:37:02.000Z</time>
      </trkpt>
      <trkpt lat="50.60767" lon="4.18255">
        <ele>157.8</ele>
        <time>2015-01-11T10:37:03.000Z</time>
      </trkpt>
      <trkpt lat="50.60768" lon="4.18254">
        <ele>157.8</ele>
        <time>2015-01-11T10:37:04.000Z</time>
      </trkpt>
      <trkpt lat="50.60769" lon="4.18254">
        <ele>157.8</ele>
        <time>2015-01-11T10:37:05.000Z</time>
      </trkpt>
      <trkpt lat="50.6077" lon="4.18254">
        <ele>157.9</ele>
        <time>2015-01-11T10:37:06.000Z</time>
      </trkpt>
      <trkpt lat="50.60771" lon="4.18254">
        <ele>157.9</ele>
        <time>2015-01-11T10:37:07.000Z</time>
      </trkpt>
      <trkpt lat="50.60773" lon="4.18254">
        <ele>157.9</ele>
        <time>2015-01-11T10:37:08.000Z</time>
      </trkpt>
      <trkpt lat="50.60774" lon="4.18253">
        <ele>157.9</ele>
        <time>2015-01-11T10:37:09.000Z</time>
      </trkpt>
      <trkpt lat="50.60775" lon="4.18253">
        <ele>157.9</ele>
        <time>2015-01-11T10:37:10.000Z</time>
      </trkpt>
      <trkpt lat="50.60776" lon="4.18253">
        <ele>157.9</ele>
        <time>2015-01-11T10:37:11.000Z</time>
      </trkpt>
      <trkpt lat="50.60777" lon="4.18253">
        <ele>157.9</ele>
        <time>2015-01-11T10:37:12.000Z</time>
      </trkpt>
      <trkpt lat="50.60779" lon="4.18253">
        <ele>157.9</ele>
        <time>2015-01-11T10:37:13.000Z</time>
      </trkpt>
      <trkpt lat="50.6078" lon="4.18253">
        <ele>157.9</ele>
        <time>2015-01-11T10:37:14.000Z</time>
      </trkpt>
      <trkpt lat="50.60781" lon="4.18253">
        <ele>157.9</ele>
        <time>2015-01-11T10:37:15.000Z</time>
      </trkpt>
      <trkpt lat="50.60782" lon="4.18253">
        <ele>157.9</ele>
        <time>2015-01-11T10:37:16.000Z</time>
      </trkpt>
      <trkpt lat="50.60784" lon="4.18252">
        <ele>157.9</ele>
        <time>2015-01-11T10:37:17.000Z</time>
      </trkpt>
      <trkpt lat="50.60785" lon="4.18252">
        <ele>157.9</ele>
        <time>2015-01-11T10:37:18.000Z</time>
      </trkpt>
      <trkpt lat="50.60787" lon="4.18252">
        <ele>158</ele>
        <time>2015-01-11T10:37:19.000Z</time>
      </trkpt>
      <trkpt lat="50.60788" lon="4.18252">
        <ele>158</ele>
        <time>2015-01-11T10:37:20.000Z</time>
      </trkpt>
      <trkpt lat="50.60789" lon="4.18252">
        <ele>158</ele>
        <time>2015-01-11T10:37:21.000Z</time>
      </trkpt>
      <trkpt lat="50.6079" lon="4.18252">
        <ele>158</ele>
        <time>2015-01-11T10:37:22.000Z</time>
      </trkpt>
      <trkpt lat="50.60792" lon="4.18251">
        <ele>158</ele>
        <time>2015-01-11T10:37:23.000Z</time>
      </trkpt>
      <trkpt lat="50.60793" lon="4.18251">
        <ele>158</ele>
        <time>2015-01-11T10:37:24.000Z</time>
      </trkpt>
      <trkpt lat="50.60794" lon="4.18251">
        <ele>158</ele>
        <time>2015-01-11T10:37:25.000Z</time>
      </trkpt>
      <trkpt lat="50.60795" lon="4.18251">
        <ele>158</ele>
        <time>2015-01-11T10:37:26.000Z</time>
      </trkpt>
      <trkpt lat="50.60797" lon="4.1825">
        <ele>158</ele>
        <time>2015-01-11T10:37:27.000Z</time>
      </trkpt>
      <trkpt lat="50.60798" lon="4.1825">
        <ele>158</ele>
        <time>2015-01-11T10:37:28.000Z</time>
      </trkpt>
      <trkpt lat="50.608" lon="4.18249">
        <ele>158</ele>
        <time>2015-01-11T10:37:29.000Z</time>
      </trkpt>
      <trkpt lat="50.60801" lon="4.18248">
        <ele>158.1</ele>
        <time>2015-01-11T10:37:30.000Z</time>
      </trkpt>
      <trkpt lat="50.60803" lon="4.18248">
        <ele>158.1</ele>
        <time>2015-01-11T10:37:31.000Z</time>
      </trkpt>
      <trkpt lat="50.60804" lon="4.18247">
        <ele>158.1</ele>
        <time>2015-01-11T10:37:32.000Z</time>
      </trkpt>
      <trkpt lat="50.60806" lon="4.18247">
        <ele>158.1</ele>
        <time>2015-01-11T10:37:33.000Z</time>
      </trkpt>
      <trkpt lat="50.60808" lon="4.18246">
        <ele>158.1</ele>
        <time>2015-01-11T10:37:34.000Z</time>
      </trkpt>
      <trkpt lat="50.60809" lon="4.18246">
        <ele>158.1</ele>
        <time>2015-01-11T10:37:35.000Z</time>
      </trkpt>
      <trkpt lat="50.60811" lon="4.18246">
        <ele>158.1</ele>
        <time>2015-01-11T10:37:36.000Z</time>
      </trkpt>
      <trkpt lat="50.60812" lon="4.18246">
        <ele>158.1</ele>
        <time>2015-01-11T10:37:37.000Z</time>
      </trkpt>
      <trkpt lat="50.60814" lon="4.18246">
        <ele>158.2</ele>
        <time>2015-01-11T10:37:38.000Z</time>
      </trkpt>
      <trkpt lat="50.60816" lon="4.18245">
        <ele>158.2</ele>
        <time>2015-01-11T10:37:39.000Z</time>
      </trkpt>
      <trkpt lat="50.60818" lon="4.18245">
        <ele>158.2</ele>
        <time>2015-01-11T10:37:40.000Z</time>
      </trkpt>
      <trkpt lat="50.6082" lon="4.18245">
        <ele>158.2</ele>
        <time>2015-01-11T10:37:41.000Z</time>
      </trkpt>
      <trkpt lat="50.60822" lon="4.18244">
        <ele>158.2</ele>
        <time>2015-01-11T10:37:42.000Z</time>
      </trkpt>
      <trkpt lat="50.60824" lon="4.18244">
        <ele>158.2</ele>
        <time>2015-01-11T10:37:43.000Z</time>
      </trkpt>
      <trkpt lat="50.60826" lon="4.18244">
        <ele>158.2</ele>
        <time>2015-01-11T10:37:44.000Z</time>
      </trkpt>
      <trkpt lat="50.60828" lon="4.18244">
        <ele>158.2</ele>
        <time>2015-01-11T10:37:45.000Z</time>
      </trkpt>
      <trkpt lat="50.60829" lon="4.18243">
        <ele>158.2</ele>
        <time>2015-01-11T10:37:46.000Z</time>
      </trkpt>
      <trkpt lat="50.60831" lon="4.18243">
        <ele>158.2</ele>
        <time>2015-01-11T10:37:47.000Z</time>
      </trkpt>
      <trkpt lat="50.60833" lon="4.18243">
        <ele>158.3</ele>
        <time>2015-01-11T10:37:48.000Z</time>
      </trkpt>
      <trkpt lat="50.60834" lon="4.18242">
        <ele>158.3</ele>
        <time>2015-01-11T10:37:49.000Z</time>
      </trkpt>
      <trkpt lat="50.60836" lon="4.18242">
        <ele>158.4</ele>
        <time>2015-01-11T10:37:50.000Z</time>
      </trkpt>
      <trkpt lat="50.60842" lon="4.18241">
        <ele>158.5</ele>
        <time>2015-01-11T10:37:51.000Z</time>
      </trkpt>
      <trkpt lat="50.60842" lon="4.18241">
        <ele>158.5</ele>
        <time>2015-01-11T10:37:52.000Z</time>
      </trkpt>
      <trkpt lat="50.60843" lon="4.18241">
        <ele>158.5</ele>
        <time>2015-01-11T10:37:53.000Z</time>
      </trkpt>
      <trkpt lat="50.60844" lon="4.18242">
        <ele>158.6</ele>
        <time>2015-01-11T10:37:54.000Z</time>
      </trkpt>
      <trkpt lat="50.60845" lon="4.18242">
        <ele>158.6</ele>
        <time>2015-01-11T10:37:55.000Z</time>
      </trkpt>
      <trkpt lat="50.60846" lon="4.18242">
        <ele>158.6</ele>
        <time>2015-01-11T10:37:56.000Z</time>
      </trkpt>
      <trkpt lat="50.60847" lon="4.18243">
        <ele>158.6</ele>
        <time>2015-01-11T10:37:57.000Z</time>
      </trkpt>
      <trkpt lat="50.60849" lon="4.18244">
        <ele>158.7</ele>
        <time>2015-01-11T10:37:58.000Z</time>
      </trkpt>
      <trkpt lat="50.6085" lon="4.18244">
        <ele>158.7</ele>
        <time>2015-01-11T10:37:59.000Z</time>
      </trkpt>
      <trkpt lat="50.60852" lon="4.18245">
        <ele>158.7</ele>
        <time>2015-01-11T10:38:00.000Z</time>
      </trkpt>
      <trkpt lat="50.60854" lon="4.18246">
        <ele>158.8</ele>
        <time>2015-01-11T10:38:01.000Z</time>
      </trkpt>
      <trkpt lat="50.60855" lon="4.18247">
        <ele>158.8</ele>
        <time>2015-01-11T10:38:02.000Z</time>
      </trkpt>
      <trkpt lat="50.60857" lon="4.18248">
        <ele>158.9</ele>
        <time>2015-01-11T10:38:03.000Z</time>
      </trkpt>
      <trkpt lat="50.60859" lon="4.18249">
        <ele>158.9</ele>
        <time>2015-01-11T10:38:04.000Z</time>
      </trkpt>
      <trkpt lat="50.6086" lon="4.1825">
        <ele>159</ele>
        <time>2015-01-11T10:38:05.000Z</time>
      </trkpt>
      <trkpt lat="50.60862" lon="4.18251">
        <ele>158.9</ele>
        <time>2015-01-11T10:38:06.000Z</time>
      </trkpt>
      <trkpt lat="50.60863" lon="4.18253">
        <ele>158.9</ele>
        <time>2015-01-11T10:38:07.000Z</time>
      </trkpt>
      <trkpt lat="50.60865" lon="4.18254">
        <ele>158.9</ele>
        <time>2015-01-11T10:38:08.000Z</time>
      </trkpt>
      <trkpt lat="50.60866" lon="4.18256">
        <ele>158.8</ele>
        <time>2015-01-11T10:38:09.000Z</time>
      </trkpt>
      <trkpt lat="50.60867" lon="4.18257">
        <ele>158.8</ele>
        <time>2015-01-11T10:38:10.000Z</time>
      </trkpt>
      <trkpt lat="50.60869" lon="4.18259">
        <ele>158.8</ele>
        <time>2015-01-11T10:38:11.000Z</time>
      </trkpt>
      <trkpt lat="50.6087" lon="4.1826">
        <ele>158.8</ele>
        <time>2015-01-11T10:38:12.000Z</time>
      </trkpt>
      <trkpt lat="50.60871" lon="4.18262">
        <ele>158.7</ele>
        <time>2015-01-11T10:38:13.000Z</time>
      </trkpt>
      <trkpt lat="50.60873" lon="4.18263">
        <ele>158.7</ele>
        <time>2015-01-11T10:38:14.000Z</time>
      </trkpt>
      <trkpt lat="50.60874" lon="4.18265">
        <ele>158.7</ele>
        <time>2015-01-11T10:38:15.000Z</time>
      </trkpt>
      <trkpt lat="50.60876" lon="4.18266">
        <ele>158.7</ele>
        <time>2015-01-11T10:38:16.000Z</time>
      </trkpt>
      <trkpt lat="50.60877" lon="4.18268">
        <ele>158.7</ele>
        <time>2015-01-11T10:38:17.000Z</time>
      </trkpt>
      <trkpt lat="50.60879" lon="4.1827">
        <ele>158.7</ele>
        <time>2015-01-11T10:38:18.000Z</time>
      </trkpt>
      <trkpt lat="50.60881" lon="4.18272">
        <ele>158.8</ele>
        <time>2015-01-11T10:38:19.000Z</time>
      </trkpt>
      <trkpt lat="50.60883" lon="4.18274">
        <ele>158.8</ele>
        <time>2015-01-11T10:38:20.000Z</time>
      </trkpt>
      <trkpt lat="50.60884" lon="4.18276">
        <ele>158.8</ele>
        <time>2015-01-11T10:38:21.000Z</time>
      </trkpt>
      <trkpt lat="50.60886" lon="4.18278">
        <ele>158.9</ele>
        <time>2015-01-11T10:38:22.000Z</time>
      </trkpt>
      <trkpt lat="50.60887" lon="4.1828">
        <ele>158.9</ele>
        <time>2015-01-11T10:38:23.000Z</time>
      </trkpt>
      <trkpt lat="50.60889" lon="4.18282">
        <ele>158.8</ele>
        <time>2015-01-11T10:38:24.000Z</time>
      </trkpt>
      <trkpt lat="50.6089" lon="4.18284">
        <ele>158.8</ele>
        <time>2015-01-11T10:38:25.000Z</time>
      </trkpt>
      <trkpt lat="50.60892" lon="4.18286">
        <ele>158.8</ele>
        <time>2015-01-11T10:38:26.000Z</time>
      </trkpt>
      <trkpt lat="50.60894" lon="4.18288">
        <ele>158.8</ele>
        <time>2015-01-11T10:38:27.000Z</time>
      </trkpt>
      <trkpt lat="50.60895" lon="4.18289">
        <ele>158.8</ele>
        <time>2015-01-11T10:38:28.000Z</time>
      </trkpt>
      <trkpt lat="50.60897" lon="4.18291">
        <ele>158.8</ele>
        <time>2015-01-11T10:38:29.000Z</time>
      </trkpt>
      <trkpt lat="50.60899" lon="4.18293">
        <ele>158.8</ele>
        <time>2015-01-11T10:38:30.000Z</time>
      </trkpt>
      <trkpt lat="50.60901" lon="4.18294">
        <ele>158.9</ele>
        <time>2015-01-11T10:38:31.000Z</time>
      </trkpt>
      <trkpt lat="50.60902" lon="4.18296">
        <ele>159</ele>
        <time>2015-01-11T10:38:32.000Z</time>
      </trkpt>
      <trkpt lat="50.60904" lon="4.18298">
        <ele>159.1</ele>
        <time>2015-01-11T10:38:33.000Z</time>
      </trkpt>
      <trkpt lat="50.60906" lon="4.183">
        <ele>159.2</ele>
        <time>2015-01-11T10:38:34.000Z</time>
      </trkpt>
      <trkpt lat="50.60907" lon="4.18302">
        <ele>159.3</ele>
        <time>2015-01-11T10:38:35.000Z</time>
      </trkpt>
      <trkpt lat="50.60908" lon="4.18304">
        <ele>159.4</ele>
        <time>2015-01-11T10:38:36.000Z</time>
      </trkpt>
      <trkpt lat="50.6091" lon="4.18305">
        <ele>159.5</ele>
        <time>2015-01-11T10:38:37.000Z</time>
      </trkpt>
      <trkpt lat="50.60911" lon="4.18307">
        <ele>159.6</ele>
        <time>2015-01-11T10:38:38.000Z</time>
      </trkpt>
      <trkpt lat="50.60913" lon="4.18309">
        <ele>159.6</ele>
        <time>2015-01-11T10:38:39.000Z</time>
      </trkpt>
      <trkpt lat="50.60914" lon="4.18311">
        <ele>159.7</ele>
        <time>2015-01-11T10:38:40.000Z</time>
      </trkpt>
      <trkpt lat="50.60916" lon="4.18313">
        <ele>159.7</ele>
        <time>2015-01-11T10:38:41.000Z</time>
      </trkpt>
      <trkpt lat="50.60918" lon="4.18314">
        <ele>159.7</ele>
        <time>2015-01-11T10:38:42.000Z</time>
      </trkpt>
      <trkpt lat="50.60919" lon="4.18316">
        <ele>159.6</ele>
        <time>2015-01-11T10:38:43.000Z</time>
      </trkpt>
      <trkpt lat="50.60921" lon="4.18318">
        <ele>159.5</ele>
        <time>2015-01-11T10:38:44.000Z</time>
      </trkpt>
      <trkpt lat="50.60922" lon="4.18319">
        <ele>159.4</ele>
        <time>2015-01-11T10:38:45.000Z</time>
      </trkpt>
      <trkpt lat="50.60924" lon="4.18321">
        <ele>159.3</ele>
        <time>2015-01-11T10:38:46.000Z</time>
      </trkpt>
      <trkpt lat="50.60926" lon="4.18322">
        <ele>159.3</ele>
        <time>2015-01-11T10:38:47.000Z</time>
      </trkpt>
      <trkpt lat="50.60927" lon="4.18323">
        <ele>159.2</ele>
        <time>2015-01-11T10:38:48.000Z</time>
      </trkpt>
      <trkpt lat="50.60929" lon="4.18324">
        <ele>159.2</ele>
        <time>2015-01-11T10:38:49.000Z</time>
      </trkpt>
      <trkpt lat="50.60935" lon="4.18325">
        <ele>159.1</ele>
        <time>2015-01-11T10:38:50.000Z</time>
      </trkpt>
      <trkpt lat="50.60935" lon="4.18324">
        <ele>159.1</ele>
        <time>2015-01-11T10:38:51.000Z</time>
      </trkpt>
      <trkpt lat="50.60936" lon="4.18324">
        <ele>159.1</ele>
        <time>2015-01-11T10:38:52.000Z</time>
      </trkpt>
      <trkpt lat="50.60937" lon="4.18323">
        <ele>159.1</ele>
        <time>2015-01-11T10:38:53.000Z</time>
      </trkpt>
      <trkpt lat="50.60937" lon="4.18321">
        <ele>159.1</ele>
        <time>2015-01-11T10:38:54.000Z</time>
      </trkpt>
      <trkpt lat="50.60938" lon="4.1832">
        <ele>159.1</ele>
        <time>2015-01-11T10:38:55.000Z</time>
      </trkpt>
      <trkpt lat="50.60938" lon="4.18318">
        <ele>159.1</ele>
        <time>2015-01-11T10:38:56.000Z</time>
      </trkpt>
      <trkpt lat="50.60938" lon="4.18316">
        <ele>159.1</ele>
        <time>2015-01-11T10:38:57.000Z</time>
      </trkpt>
      <trkpt lat="50.60939" lon="4.18314">
        <ele>159.1</ele>
        <time>2015-01-11T10:38:58.000Z</time>
      </trkpt>
      <trkpt lat="50.60939" lon="4.18313">
        <ele>159.2</ele>
        <time>2015-01-11T10:38:59.000Z</time>
      </trkpt>
      <trkpt lat="50.60939" lon="4.18311">
        <ele>159.2</ele>
        <time>2015-01-11T10:39:00.000Z</time>
      </trkpt>
      <trkpt lat="50.60939" lon="4.18309">
        <ele>159.2</ele>
        <time>2015-01-11T10:39:01.000Z</time>
      </trkpt>
      <trkpt lat="50.60939" lon="4.18307">
        <ele>159.2</ele>
        <time>2015-01-11T10:39:02.000Z</time>
      </trkpt>
      <trkpt lat="50.60939" lon="4.18304">
        <ele>159.2</ele>
        <time>2015-01-11T10:39:03.000Z</time>
      </trkpt>
      <trkpt lat="50.60939" lon="4.18302">
        <ele>159.1</ele>
        <time>2015-01-11T10:39:04.000Z</time>
      </trkpt>
      <trkpt lat="50.60938" lon="4.18299">
        <ele>159</ele>
        <time>2015-01-11T10:39:05.000Z</time>
      </trkpt>
      <trkpt lat="50.60938" lon="4.18297">
        <ele>158.9</ele>
        <time>2015-01-11T10:39:06.000Z</time>
      </trkpt>
      <trkpt lat="50.60937" lon="4.18294">
        <ele>158.9</ele>
        <time>2015-01-11T10:39:07.000Z</time>
      </trkpt>
      <trkpt lat="50.60937" lon="4.18292">
        <ele>158.8</ele>
        <time>2015-01-11T10:39:08.000Z</time>
      </trkpt>
      <trkpt lat="50.60936" lon="4.18289">
        <ele>158.7</ele>
        <time>2015-01-11T10:39:09.000Z</time>
      </trkpt>
      <trkpt lat="50.60936" lon="4.18287">
        <ele>158.6</ele>
        <time>2015-01-11T10:39:10.000Z</time>
      </trkpt>
      <trkpt lat="50.60936" lon="4.18285">
        <ele>158.6</ele>
        <time>2015-01-11T10:39:11.000Z</time>
      </trkpt>
      <trkpt lat="50.60936" lon="4.18283">
        <ele>158.5</ele>
        <time>2015-01-11T10:39:12.000Z</time>
      </trkpt>
      <trkpt lat="50.60936" lon="4.1828">
        <ele>158.4</ele>
        <time>2015-01-11T10:39:13.000Z</time>
      </trkpt>
      <trkpt lat="50.60935" lon="4.18278">
        <ele>158.3</ele>
        <time>2015-01-11T10:39:14.000Z</time>
      </trkpt>
      <trkpt lat="50.60935" lon="4.18276">
        <ele>158.3</ele>
        <time>2015-01-11T10:39:15.000Z</time>
      </trkpt>
      <trkpt lat="50.60935" lon="4.18273">
        <ele>158.2</ele>
        <time>2015-01-11T10:39:16.000Z</time>
      </trkpt>
      <trkpt lat="50.60934" lon="4.18271">
        <ele>158.1</ele>
        <time>2015-01-11T10:39:17.000Z</time>
      </trkpt>
      <trkpt lat="50.60934" lon="4.18269">
        <ele>158.1</ele>
        <time>2015-01-11T10:39:18.000Z</time>
      </trkpt>
      <trkpt lat="50.60933" lon="4.18266">
        <ele>158</ele>
        <time>2015-01-11T10:39:19.000Z</time>
      </trkpt>
      <trkpt lat="50.60932" lon="4.18264">
        <ele>158</ele>
        <time>2015-01-11T10:39:20.000Z</time>
      </trkpt>
      <trkpt lat="50.60932" lon="4.18262">
        <ele>157.9</ele>
        <time>2015-01-11T10:39:21.000Z</time>
      </trkpt>
      <trkpt lat="50.60931" lon="4.1826">
        <ele>157.8</ele>
        <time>2015-01-11T10:39:22.000Z</time>
      </trkpt>
      <trkpt lat="50.6093" lon="4.18258">
        <ele>157.8</ele>
        <time>2015-01-11T10:39:23.000Z</time>
      </trkpt>
      <trkpt lat="50.60929" lon="4.18256">
        <ele>157.7</ele>
        <time>2015-01-11T10:39:24.000Z</time>
      </trkpt>
      <trkpt lat="50.60929" lon="4.18253">
        <ele>157.7</ele>
        <time>2015-01-11T10:39:25.000Z</time>
      </trkpt>
      <trkpt lat="50.60929" lon="4.18251">
        <ele>157.6</ele>
        <time>2015-01-11T10:39:26.000Z</time>
      </trkpt>
      <trkpt lat="50.60928" lon="4.18249">
        <ele>157.6</ele>
        <time>2015-01-11T10:39:27.000Z</time>
      </trkpt>
      <trkpt lat="50.60927" lon="4.18246">
        <ele>157.6</ele>
        <time>2015-01-11T10:39:28.000Z</time>
      </trkpt>
      <trkpt lat="50.60927" lon="4.18244">
        <ele>157.6</ele>
        <time>2015-01-11T10:39:29.000Z</time>
      </trkpt>
      <trkpt lat="50.60927" lon="4.18242">
        <ele>157.5</ele>
        <time>2015-01-11T10:39:30.000Z</time>
      </trkpt>
      <trkpt lat="50.60926" lon="4.18239">
        <ele>157.5</ele>
        <time>2015-01-11T10:39:31.000Z</time>
      </trkpt>
      <trkpt lat="50.60926" lon="4.18237">
        <ele>157.5</ele>
        <time>2015-01-11T10:39:32.000Z</time>
      </trkpt>
      <trkpt lat="50.60926" lon="4.18234">
        <ele>157.5</ele>
        <time>2015-01-11T10:39:33.000Z</time>
      </trkpt>
      <trkpt lat="50.60925" lon="4.18232">
        <ele>157.5</ele>
        <time>2015-01-11T10:39:34.000Z</time>
      </trkpt>
      <trkpt lat="50.60925" lon="4.18229">
        <ele>157.5</ele>
        <time>2015-01-11T10:39:35.000Z</time>
      </trkpt>
      <trkpt lat="50.60924" lon="4.18226">
        <ele>157.5</ele>
        <time>2015-01-11T10:39:36.000Z</time>
      </trkpt>
      <trkpt lat="50.60924" lon="4.18223">
        <ele>157.5</ele>
        <time>2015-01-11T10:39:37.000Z</time>
      </trkpt>
      <trkpt lat="50.60924" lon="4.1822">
        <ele>157.4</ele>
        <time>2015-01-11T10:39:38.000Z</time>
      </trkpt>
      <trkpt lat="50.60923" lon="4.18217">
        <ele>157.2</ele>
        <time>2015-01-11T10:39:39.000Z</time>
      </trkpt>
      <trkpt lat="50.60923" lon="4.18214">
        <ele>157</ele>
        <time>2015-01-11T10:39:40.000Z</time>
      </trkpt>
      <trkpt lat="50.60923" lon="4.18211">
        <ele>156.9</ele>
        <time>2015-01-11T10:39:41.000Z</time>
      </trkpt>
      <trkpt lat="50.60922" lon="4.18208">
        <ele>156.7</ele>
        <time>2015-01-11T10:39:42.000Z</time>
      </trkpt>
      <trkpt lat="50.60922" lon="4.18205">
        <ele>156.5</ele>
        <time>2015-01-11T10:39:43.000Z</time>
      </trkpt>
      <trkpt lat="50.60922" lon="4.18202">
        <ele>156.3</ele>
        <time>2015-01-11T10:39:44.000Z</time>
      </trkpt>
      <trkpt lat="50.60922" lon="4.18199">
        <ele>156.1</ele>
        <time>2015-01-11T10:39:45.000Z</time>
      </trkpt>
      <trkpt lat="50.60922" lon="4.18197">
        <ele>156</ele>
        <time>2015-01-11T10:39:46.000Z</time>
      </trkpt>
      <trkpt lat="50.60921" lon="4.18194">
        <ele>155.8</ele>
        <time>2015-01-11T10:39:47.000Z</time>
      </trkpt>
      <trkpt lat="50.60921" lon="4.18191">
        <ele>155.8</ele>
        <time>2015-01-11T10:39:48.000Z</time>
      </trkpt>
      <trkpt lat="50.6092" lon="4.18189">
        <ele>155.9</ele>
        <time>2015-01-11T10:39:49.000Z</time>
      </trkpt>
      <trkpt lat="50.6092" lon="4.18186">
        <ele>155.9</ele>
        <time>2015-01-11T10:39:50.000Z</time>
      </trkpt>
      <trkpt lat="50.60919" lon="4.18183">
        <ele>155.9</ele>
        <time>2015-01-11T10:39:51.000Z</time>
      </trkpt>
      <trkpt lat="50.60919" lon="4.1818">
        <ele>155.9</ele>
        <time>2015-01-11T10:39:52.000Z</time>
      </trkpt>
      <trkpt lat="50.60918" lon="4.18178">
        <ele>156</ele>
        <time>2015-01-11T10:39:53.000Z</time>
      </trkpt>
      <trkpt lat="50.60917" lon="4.18175">
        <ele>156</ele>
        <time>2015-01-11T10:39:54.000Z</time>
      </trkpt>
      <trkpt lat="50.60917" lon="4.18173">
        <ele>156</ele>
        <time>2015-01-11T10:39:55.000Z</time>
      </trkpt>
      <trkpt lat="50.60916" lon="4.1817">
        <ele>156</ele>
        <time>2015-01-11T10:39:56.000Z</time>
      </trkpt>
      <trkpt lat="50.60916" lon="4.18168">
        <ele>156.1</ele>
        <time>2015-01-11T10:39:57.000Z</time>
      </trkpt>
      <trkpt lat="50.60916" lon="4.18165">
        <ele>156</ele>
        <time>2015-01-11T10:39:58.000Z</time>
      </trkpt>
      <trkpt lat="50.60915" lon="4.18162">
        <ele>155.9</ele>
        <time>2015-01-11T10:39:59.000Z</time>
      </trkpt>
      <trkpt lat="50.60915" lon="4.1816">
        <ele>155.8</ele>
        <time>2015-01-11T10:40:00.000Z</time>
      </trkpt>
      <trkpt lat="50.60915" lon="4.18157">
        <ele>155.7</ele>
        <time>2015-01-11T10:40:01.000Z</time>
      </trkpt>
      <trkpt lat="50.60914" lon="4.18154">
        <ele>155.6</ele>
        <time>2015-01-11T10:40:02.000Z</time>
      </trkpt>
      <trkpt lat="50.60914" lon="4.18151">
        <ele>155.5</ele>
        <time>2015-01-11T10:40:03.000Z</time>
      </trkpt>
      <trkpt lat="50.60913" lon="4.18148">
        <ele>155.3</ele>
        <time>2015-01-11T10:40:04.000Z</time>
      </trkpt>
      <trkpt lat="50.60913" lon="4.18146">
        <ele>155.2</ele>
        <time>2015-01-11T10:40:05.000Z</time>
      </trkpt>
      <trkpt lat="50.60912" lon="4.18143">
        <ele>155.1</ele>
        <time>2015-01-11T10:40:06.000Z</time>
      </trkpt>
      <trkpt lat="50.60912" lon="4.1814">
        <ele>154.9</ele>
        <time>2015-01-11T10:40:07.000Z</time>
      </trkpt>
      <trkpt lat="50.60912" lon="4.18137">
        <ele>154.8</ele>
        <time>2015-01-11T10:40:08.000Z</time>
      </trkpt>
      <trkpt lat="50.60911" lon="4.18134">
        <ele>154.6</ele>
        <time>2015-01-11T10:40:09.000Z</time>
      </trkpt>
      <trkpt lat="50.60911" lon="4.18131">
        <ele>154.5</ele>
        <time>2015-01-11T10:40:10.000Z</time>
      </trkpt>
      <trkpt lat="50.60911" lon="4.18128">
        <ele>154.4</ele>
        <time>2015-01-11T10:40:11.000Z</time>
      </trkpt>
      <trkpt lat="50.60911" lon="4.18125">
        <ele>154.3</ele>
        <time>2015-01-11T10:40:12.000Z</time>
      </trkpt>
      <trkpt lat="50.6091" lon="4.18123">
        <ele>154.2</ele>
        <time>2015-01-11T10:40:13.000Z</time>
      </trkpt>
      <trkpt lat="50.6091" lon="4.1812">
        <ele>154.1</ele>
        <time>2015-01-11T10:40:14.000Z</time>
      </trkpt>
      <trkpt lat="50.6091" lon="4.18117">
        <ele>154</ele>
        <time>2015-01-11T10:40:15.000Z</time>
      </trkpt>
      <trkpt lat="50.60909" lon="4.18114">
        <ele>153.8</ele>
        <time>2015-01-11T10:40:16.000Z</time>
      </trkpt>
      <trkpt lat="50.60909" lon="4.18112">
        <ele>153.7</ele>
        <time>2015-01-11T10:40:17.000Z</time>
      </trkpt>
      <trkpt lat="50.60908" lon="4.18109">
        <ele>153.7</ele>
        <time>2015-01-11T10:40:18.000Z</time>
      </trkpt>
      <trkpt lat="50.60908" lon="4.18106">
        <ele>153.7</ele>
        <time>2015-01-11T10:40:19.000Z</time>
      </trkpt>
      <trkpt lat="50.60907" lon="4.18104">
        <ele>153.7</ele>
        <time>2015-01-11T10:40:20.000Z</time>
      </trkpt>
      <trkpt lat="50.60907" lon="4.18101">
        <ele>153.7</ele>
        <time>2015-01-11T10:40:21.000Z</time>
      </trkpt>
      <trkpt lat="50.60907" lon="4.18098">
        <ele>153.6</ele>
        <time>2015-01-11T10:40:22.000Z</time>
      </trkpt>
      <trkpt lat="50.60906" lon="4.18095">
        <ele>153.6</ele>
        <time>2015-01-11T10:40:23.000Z</time>
      </trkpt>
      <trkpt lat="50.60905" lon="4.18092">
        <ele>153.6</ele>
        <time>2015-01-11T10:40:24.000Z</time>
      </trkpt>
      <trkpt lat="50.60905" lon="4.18089">
        <ele>153.6</ele>
        <time>2015-01-11T10:40:25.000Z</time>
      </trkpt>
      <trkpt lat="50.60904" lon="4.18086">
        <ele>153.5</ele>
        <time>2015-01-11T10:40:26.000Z</time>
      </trkpt>
      <trkpt lat="50.60904" lon="4.18083">
        <ele>153.5</ele>
        <time>2015-01-11T10:40:27.000Z</time>
      </trkpt>
      <trkpt lat="50.60903" lon="4.1808">
        <ele>153.5</ele>
        <time>2015-01-11T10:40:28.000Z</time>
      </trkpt>
      <trkpt lat="50.60903" lon="4.18077">
        <ele>153.5</ele>
        <time>2015-01-11T10:40:29.000Z</time>
      </trkpt>
      <trkpt lat="50.60903" lon="4.18075">
        <ele>153.5</ele>
        <time>2015-01-11T10:40:30.000Z</time>
      </trkpt>
      <trkpt lat="50.60902" lon="4.18072">
        <ele>153.5</ele>
        <time>2015-01-11T10:40:31.000Z</time>
      </trkpt>
      <trkpt lat="50.60902" lon="4.18069">
        <ele>153.5</ele>
        <time>2015-01-11T10:40:32.000Z</time>
      </trkpt>
      <trkpt lat="50.60901" lon="4.18066">
        <ele>153.5</ele>
        <time>2015-01-11T10:40:33.000Z</time>
      </trkpt>
      <trkpt lat="50.60901" lon="4.18063">
        <ele>153.4</ele>
        <time>2015-01-11T10:40:34.000Z</time>
      </trkpt>
      <trkpt lat="50.60901" lon="4.1806">
        <ele>153.4</ele>
        <time>2015-01-11T10:40:35.000Z</time>
      </trkpt>
      <trkpt lat="50.609" lon="4.18057">
        <ele>153.4</ele>
        <time>2015-01-11T10:40:36.000Z</time>
      </trkpt>
      <trkpt lat="50.609" lon="4.18054">
        <ele>153.4</ele>
        <time>2015-01-11T10:40:37.000Z</time>
      </trkpt>
      <trkpt lat="50.60899" lon="4.18051">
        <ele>153.4</ele>
        <time>2015-01-11T10:40:38.000Z</time>
      </trkpt>
      <trkpt lat="50.60899" lon="4.18048">
        <ele>153.4</ele>
        <time>2015-01-11T10:40:39.000Z</time>
      </trkpt>
      <trkpt lat="50.60899" lon="4.18045">
        <ele>153.3</ele>
        <time>2015-01-11T10:40:40.000Z</time>
      </trkpt>
      <trkpt lat="50.60898" lon="4.18042">
        <ele>153.3</ele>
        <time>2015-01-11T10:40:41.000Z</time>
      </trkpt>
      <trkpt lat="50.60897" lon="4.18039">
        <ele>153.3</ele>
        <time>2015-01-11T10:40:42.000Z</time>
      </trkpt>
      <trkpt lat="50.60896" lon="4.18033">
        <ele>153.3</ele>
        <time>2015-01-11T10:40:43.000Z</time>
      </trkpt>
      <trkpt lat="50.60896" lon="4.18029">
        <ele>153.2</ele>
        <time>2015-01-11T10:40:44.000Z</time>
      </trkpt>
      <trkpt lat="50.60895" lon="4.18025">
        <ele>153.2</ele>
        <time>2015-01-11T10:40:45.000Z</time>
      </trkpt>
      <trkpt lat="50.60895" lon="4.18022">
        <ele>153</ele>
        <time>2015-01-11T10:40:46.000Z</time>
      </trkpt>
      <trkpt lat="50.60894" lon="4.18018">
        <ele>152.9</ele>
        <time>2015-01-11T10:40:47.000Z</time>
      </trkpt>
      <trkpt lat="50.60894" lon="4.18014">
        <ele>152.8</ele>
        <time>2015-01-11T10:40:48.000Z</time>
      </trkpt>
      <trkpt lat="50.60894" lon="4.1801">
        <ele>152.7</ele>
        <time>2015-01-11T10:40:49.000Z</time>
      </trkpt>
      <trkpt lat="50.60894" lon="4.18006">
        <ele>152.5</ele>
        <time>2015-01-11T10:40:50.000Z</time>
      </trkpt>
      <trkpt lat="50.60893" lon="4.18002">
        <ele>152.4</ele>
        <time>2015-01-11T10:40:51.000Z</time>
      </trkpt>
      <trkpt lat="50.60893" lon="4.17998">
        <ele>152.2</ele>
        <time>2015-01-11T10:40:52.000Z</time>
      </trkpt>
      <trkpt lat="50.60893" lon="4.17995">
        <ele>152.1</ele>
        <time>2015-01-11T10:40:53.000Z</time>
      </trkpt>
      <trkpt lat="50.60893" lon="4.17991">
        <ele>152</ele>
        <time>2015-01-11T10:40:54.000Z</time>
      </trkpt>
      <trkpt lat="50.60892" lon="4.17988">
        <ele>151.9</ele>
        <time>2015-01-11T10:40:55.000Z</time>
      </trkpt>
      <trkpt lat="50.60892" lon="4.17985">
        <ele>151.8</ele>
        <time>2015-01-11T10:40:56.000Z</time>
      </trkpt>
      <trkpt lat="50.60892" lon="4.17982">
        <ele>151.7</ele>
        <time>2015-01-11T10:40:57.000Z</time>
      </trkpt>
      <trkpt lat="50.60892" lon="4.1798">
        <ele>151.6</ele>
        <time>2015-01-11T10:40:58.000Z</time>
      </trkpt>
      <trkpt lat="50.60892" lon="4.17977">
        <ele>151.5</ele>
        <time>2015-01-11T10:40:59.000Z</time>
      </trkpt>
      <trkpt lat="50.60892" lon="4.17974">
        <ele>151.4</ele>
        <time>2015-01-11T10:41:00.000Z</time>
      </trkpt>
      <trkpt lat="50.60892" lon="4.17971">
        <ele>151.4</ele>
        <time>2015-01-11T10:41:01.000Z</time>
      </trkpt>
      <trkpt lat="50.60892" lon="4.17968">
        <ele>151.4</ele>
        <time>2015-01-11T10:41:02.000Z</time>
      </trkpt>
      <trkpt lat="50.60893" lon="4.17965">
        <ele>151.4</ele>
        <time>2015-01-11T10:41:03.000Z</time>
      </trkpt>
      <trkpt lat="50.60893" lon="4.17962">
        <ele>151.4</ele>
        <time>2015-01-11T10:41:04.000Z</time>
      </trkpt>
      <trkpt lat="50.60893" lon="4.17959">
        <ele>151.4</ele>
        <time>2015-01-11T10:41:05.000Z</time>
      </trkpt>
      <trkpt lat="50.60893" lon="4.17956">
        <ele>151.4</ele>
        <time>2015-01-11T10:41:06.000Z</time>
      </trkpt>
      <trkpt lat="50.60893" lon="4.17952">
        <ele>151.4</ele>
        <time>2015-01-11T10:41:07.000Z</time>
      </trkpt>
      <trkpt lat="50.60893" lon="4.1795">
        <ele>151.4</ele>
        <time>2015-01-11T10:41:08.000Z</time>
      </trkpt>
      <trkpt lat="50.60893" lon="4.17947">
        <ele>151.4</ele>
        <time>2015-01-11T10:41:09.000Z</time>
      </trkpt>
      <trkpt lat="50.60893" lon="4.17944">
        <ele>151.4</ele>
        <time>2015-01-11T10:41:10.000Z</time>
      </trkpt>
      <trkpt lat="50.60893" lon="4.17942">
        <ele>151.3</ele>
        <time>2015-01-11T10:41:11.000Z</time>
      </trkpt>
      <trkpt lat="50.60893" lon="4.17939">
        <ele>151.1</ele>
        <time>2015-01-11T10:41:12.000Z</time>
      </trkpt>
      <trkpt lat="50.60893" lon="4.17937">
        <ele>151</ele>
        <time>2015-01-11T10:41:13.000Z</time>
      </trkpt>
      <trkpt lat="50.60893" lon="4.17934">
        <ele>150.8</ele>
        <time>2015-01-11T10:41:14.000Z</time>
      </trkpt>
      <trkpt lat="50.60894" lon="4.17932">
        <ele>150.7</ele>
        <time>2015-01-11T10:41:15.000Z</time>
      </trkpt>
      <trkpt lat="50.60894" lon="4.17929">
        <ele>150.7</ele>
        <time>2015-01-11T10:41:16.000Z</time>
      </trkpt>
      <trkpt lat="50.60895" lon="4.17926">
        <ele>150.7</ele>
        <time>2015-01-11T10:41:17.000Z</time>
      </trkpt>
      <trkpt lat="50.60896" lon="4.17923">
        <ele>150.6</ele>
        <time>2015-01-11T10:41:18.000Z</time>
      </trkpt>
      <trkpt lat="50.60896" lon="4.1792">
        <ele>150.5</ele>
        <time>2015-01-11T10:41:19.000Z</time>
      </trkpt>
      <trkpt lat="50.60896" lon="4.17917">
        <ele>150.3</ele>
        <time>2015-01-11T10:41:20.000Z</time>
      </trkpt>
      <trkpt lat="50.60896" lon="4.17913">
        <ele>150.1</ele>
        <time>2015-01-11T10:41:21.000Z</time>
      </trkpt>
      <trkpt lat="50.60896" lon="4.1791">
        <ele>149.9</ele>
        <time>2015-01-11T10:41:22.000Z</time>
      </trkpt>
      <trkpt lat="50.60896" lon="4.17906">
        <ele>149.6</ele>
        <time>2015-01-11T10:41:23.000Z</time>
      </trkpt>
      <trkpt lat="50.60896" lon="4.17903">
        <ele>149.4</ele>
        <time>2015-01-11T10:41:24.000Z</time>
      </trkpt>
      <trkpt lat="50.60896" lon="4.17899">
        <ele>149.2</ele>
        <time>2015-01-11T10:41:25.000Z</time>
      </trkpt>
      <trkpt lat="50.60896" lon="4.17895">
        <ele>149</ele>
        <time>2015-01-11T10:41:26.000Z</time>
      </trkpt>
      <trkpt lat="50.60897" lon="4.17891">
        <ele>148.9</ele>
        <time>2015-01-11T10:41:27.000Z</time>
      </trkpt>
      <trkpt lat="50.60897" lon="4.17887">
        <ele>148.8</ele>
        <time>2015-01-11T10:41:28.000Z</time>
      </trkpt>
      <trkpt lat="50.60898" lon="4.17884">
        <ele>148.9</ele>
        <time>2015-01-11T10:41:29.000Z</time>
      </trkpt>
      <trkpt lat="50.60898" lon="4.1788">
        <ele>149.1</ele>
        <time>2015-01-11T10:41:30.000Z</time>
      </trkpt>
      <trkpt lat="50.60898" lon="4.17876">
        <ele>149.2</ele>
        <time>2015-01-11T10:41:31.000Z</time>
      </trkpt>
      <trkpt lat="50.60898" lon="4.17872">
        <ele>149.3</ele>
        <time>2015-01-11T10:41:32.000Z</time>
      </trkpt>
      <trkpt lat="50.60899" lon="4.17868">
        <ele>149.3</ele>
        <time>2015-01-11T10:41:33.000Z</time>
      </trkpt>
      <trkpt lat="50.60899" lon="4.17865">
        <ele>149.4</ele>
        <time>2015-01-11T10:41:34.000Z</time>
      </trkpt>
      <trkpt lat="50.60899" lon="4.17861">
        <ele>149.5</ele>
        <time>2015-01-11T10:41:35.000Z</time>
      </trkpt>
      <trkpt lat="50.60899" lon="4.17858">
        <ele>149.2</ele>
        <time>2015-01-11T10:41:36.000Z</time>
      </trkpt>
      <trkpt lat="50.609" lon="4.17855">
        <ele>148.9</ele>
        <time>2015-01-11T10:41:37.000Z</time>
      </trkpt>
      <trkpt lat="50.609" lon="4.17851">
        <ele>148.6</ele>
        <time>2015-01-11T10:41:38.000Z</time>
      </trkpt>
      <trkpt lat="50.609" lon="4.17848">
        <ele>148.3</ele>
        <time>2015-01-11T10:41:39.000Z</time>
      </trkpt>
      <trkpt lat="50.60899" lon="4.17844">
        <ele>147.9</ele>
        <time>2015-01-11T10:41:40.000Z</time>
      </trkpt>
      <trkpt lat="50.60899" lon="4.1784">
        <ele>147.6</ele>
        <time>2015-01-11T10:41:41.000Z</time>
      </trkpt>
      <trkpt lat="50.60899" lon="4.17837">
        <ele>147.2</ele>
        <time>2015-01-11T10:41:42.000Z</time>
      </trkpt>
      <trkpt lat="50.60899" lon="4.17833">
        <ele>146.9</ele>
        <time>2015-01-11T10:41:43.000Z</time>
      </trkpt>
      <trkpt lat="50.60899" lon="4.17829">
        <ele>146.7</ele>
        <time>2015-01-11T10:41:44.000Z</time>
      </trkpt>
      <trkpt lat="50.60899" lon="4.17826">
        <ele>146.5</ele>
        <time>2015-01-11T10:41:45.000Z</time>
      </trkpt>
      <trkpt lat="50.609" lon="4.17822">
        <ele>146.3</ele>
        <time>2015-01-11T10:41:46.000Z</time>
      </trkpt>
      <trkpt lat="50.609" lon="4.17819">
        <ele>146.1</ele>
        <time>2015-01-11T10:41:47.000Z</time>
      </trkpt>
      <trkpt lat="50.609" lon="4.17815">
        <ele>145.9</ele>
        <time>2015-01-11T10:41:48.000Z</time>
      </trkpt>
      <trkpt lat="50.609" lon="4.17812">
        <ele>145.8</ele>
        <time>2015-01-11T10:41:49.000Z</time>
      </trkpt>
      <trkpt lat="50.609" lon="4.17809">
        <ele>145.6</ele>
        <time>2015-01-11T10:41:50.000Z</time>
      </trkpt>
      <trkpt lat="50.609" lon="4.17805">
        <ele>145.4</ele>
        <time>2015-01-11T10:41:51.000Z</time>
      </trkpt>
      <trkpt lat="50.609" lon="4.17802">
        <ele>145.3</ele>
        <time>2015-01-11T10:41:52.000Z</time>
      </trkpt>
      <trkpt lat="50.609" lon="4.17799">
        <ele>145.2</ele>
        <time>2015-01-11T10:41:53.000Z</time>
      </trkpt>
      <trkpt lat="50.609" lon="4.17796">
        <ele>145.1</ele>
        <time>2015-01-11T10:41:54.000Z</time>
      </trkpt>
      <trkpt lat="50.60901" lon="4.17792">
        <ele>145</ele>
        <time>2015-01-11T10:41:55.000Z</time>
      </trkpt>
      <trkpt lat="50.60901" lon="4.17789">
        <ele>144.9</ele>
        <time>2015-01-11T10:41:56.000Z</time>
      </trkpt>
      <trkpt lat="50.60901" lon="4.17786">
        <ele>144.8</ele>
        <time>2015-01-11T10:41:57.000Z</time>
      </trkpt>
      <trkpt lat="50.60901" lon="4.17783">
        <ele>144.7</ele>
        <time>2015-01-11T10:41:58.000Z</time>
      </trkpt>
      <trkpt lat="50.60901" lon="4.1778">
        <ele>144.6</ele>
        <time>2015-01-11T10:41:59.000Z</time>
      </trkpt>
      <trkpt lat="50.60901" lon="4.17777">
        <ele>144.5</ele>
        <time>2015-01-11T10:42:00.000Z</time>
      </trkpt>
      <trkpt lat="50.60902" lon="4.17774">
        <ele>144.2</ele>
        <time>2015-01-11T10:42:01.000Z</time>
      </trkpt>
      <trkpt lat="50.60902" lon="4.17771">
        <ele>143.8</ele>
        <time>2015-01-11T10:42:02.000Z</time>
      </trkpt>
      <trkpt lat="50.60902" lon="4.17768">
        <ele>143.4</ele>
        <time>2015-01-11T10:42:03.000Z</time>
      </trkpt>
      <trkpt lat="50.60903" lon="4.17765">
        <ele>143.1</ele>
        <time>2015-01-11T10:42:04.000Z</time>
      </trkpt>
      <trkpt lat="50.60903" lon="4.17762">
        <ele>142.7</ele>
        <time>2015-01-11T10:42:05.000Z</time>
      </trkpt>
      <trkpt lat="50.60904" lon="4.17758">
        <ele>142.3</ele>
        <time>2015-01-11T10:42:06.000Z</time>
      </trkpt>
      <trkpt lat="50.60904" lon="4.17755">
        <ele>141.9</ele>
        <time>2015-01-11T10:42:07.000Z</time>
      </trkpt>
      <trkpt lat="50.60904" lon="4.17752">
        <ele>141.6</ele>
        <time>2015-01-11T10:42:08.000Z</time>
      </trkpt>
      <trkpt lat="50.60904" lon="4.17749">
        <ele>141.4</ele>
        <time>2015-01-11T10:42:09.000Z</time>
      </trkpt>
      <trkpt lat="50.60903" lon="4.17746">
        <ele>141.3</ele>
        <time>2015-01-11T10:42:10.000Z</time>
      </trkpt>
      <trkpt lat="50.60903" lon="4.17743">
        <ele>141.1</ele>
        <time>2015-01-11T10:42:11.000Z</time>
      </trkpt>
      <trkpt lat="50.60903" lon="4.1774">
        <ele>140.9</ele>
        <time>2015-01-11T10:42:12.000Z</time>
      </trkpt>
      <trkpt lat="50.60903" lon="4.17737">
        <ele>140.8</ele>
        <time>2015-01-11T10:42:13.000Z</time>
      </trkpt>
      <trkpt lat="50.60903" lon="4.17734">
        <ele>140.6</ele>
        <time>2015-01-11T10:42:14.000Z</time>
      </trkpt>
      <trkpt lat="50.60903" lon="4.17731">
        <ele>140.5</ele>
        <time>2015-01-11T10:42:15.000Z</time>
      </trkpt>
      <trkpt lat="50.60903" lon="4.17728">
        <ele>140.3</ele>
        <time>2015-01-11T10:42:16.000Z</time>
      </trkpt>
      <trkpt lat="50.60903" lon="4.17725">
        <ele>140.2</ele>
        <time>2015-01-11T10:42:17.000Z</time>
      </trkpt>
      <trkpt lat="50.60903" lon="4.17722">
        <ele>140</ele>
        <time>2015-01-11T10:42:18.000Z</time>
      </trkpt>
      <trkpt lat="50.60904" lon="4.1772">
        <ele>140</ele>
        <time>2015-01-11T10:42:19.000Z</time>
      </trkpt>
      <trkpt lat="50.60904" lon="4.17717">
        <ele>140.1</ele>
        <time>2015-01-11T10:42:20.000Z</time>
      </trkpt>
      <trkpt lat="50.60904" lon="4.17714">
        <ele>140.2</ele>
        <time>2015-01-11T10:42:21.000Z</time>
      </trkpt>
      <trkpt lat="50.60904" lon="4.1771">
        <ele>140.3</ele>
        <time>2015-01-11T10:42:22.000Z</time>
      </trkpt>
      <trkpt lat="50.60905" lon="4.17707">
        <ele>140.3</ele>
        <time>2015-01-11T10:42:23.000Z</time>
      </trkpt>
      <trkpt lat="50.60905" lon="4.17704">
        <ele>140.4</ele>
        <time>2015-01-11T10:42:24.000Z</time>
      </trkpt>
      <trkpt lat="50.60906" lon="4.17701">
        <ele>140.4</ele>
        <time>2015-01-11T10:42:25.000Z</time>
      </trkpt>
      <trkpt lat="50.60907" lon="4.17698">
        <ele>140.4</ele>
        <time>2015-01-11T10:42:26.000Z</time>
      </trkpt>
      <trkpt lat="50.60907" lon="4.17695">
        <ele>140.4</ele>
        <time>2015-01-11T10:42:27.000Z</time>
      </trkpt>
      <trkpt lat="50.60907" lon="4.17692">
        <ele>140.5</ele>
        <time>2015-01-11T10:42:28.000Z</time>
      </trkpt>
      <trkpt lat="50.60908" lon="4.17689">
        <ele>140.6</ele>
        <time>2015-01-11T10:42:29.000Z</time>
      </trkpt>
      <trkpt lat="50.60908" lon="4.17685">
        <ele>140.6</ele>
        <time>2015-01-11T10:42:30.000Z</time>
      </trkpt>
      <trkpt lat="50.60908" lon="4.17682">
        <ele>140.7</ele>
        <time>2015-01-11T10:42:31.000Z</time>
      </trkpt>
      <trkpt lat="50.60908" lon="4.17679">
        <ele>140.8</ele>
        <time>2015-01-11T10:42:32.000Z</time>
      </trkpt>
      <trkpt lat="50.60908" lon="4.17675">
        <ele>141</ele>
        <time>2015-01-11T10:42:33.000Z</time>
      </trkpt>
      <trkpt lat="50.60908" lon="4.17671">
        <ele>141.3</ele>
        <time>2015-01-11T10:42:34.000Z</time>
      </trkpt>
      <trkpt lat="50.60908" lon="4.17667">
        <ele>141.5</ele>
        <time>2015-01-11T10:42:35.000Z</time>
      </trkpt>
      <trkpt lat="50.60908" lon="4.17664">
        <ele>141.4</ele>
        <time>2015-01-11T10:42:36.000Z</time>
      </trkpt>
      <trkpt lat="50.60907" lon="4.1766">
        <ele>141.3</ele>
        <time>2015-01-11T10:42:37.000Z</time>
      </trkpt>
      <trkpt lat="50.60907" lon="4.17656">
        <ele>141.2</ele>
        <time>2015-01-11T10:42:38.000Z</time>
      </trkpt>
      <trkpt lat="50.60907" lon="4.17653">
        <ele>141.1</ele>
        <time>2015-01-11T10:42:39.000Z</time>
      </trkpt>
      <trkpt lat="50.60906" lon="4.17649">
        <ele>141</ele>
        <time>2015-01-11T10:42:40.000Z</time>
      </trkpt>
      <trkpt lat="50.60906" lon="4.17646">
        <ele>140.9</ele>
        <time>2015-01-11T10:42:41.000Z</time>
      </trkpt>
      <trkpt lat="50.60906" lon="4.17642">
        <ele>140.8</ele>
        <time>2015-01-11T10:42:42.000Z</time>
      </trkpt>
      <trkpt lat="50.60905" lon="4.17639">
        <ele>140.7</ele>
        <time>2015-01-11T10:42:43.000Z</time>
      </trkpt>
      <trkpt lat="50.60905" lon="4.17635">
        <ele>140.5</ele>
        <time>2015-01-11T10:42:44.000Z</time>
      </trkpt>
      <trkpt lat="50.60904" lon="4.17632">
        <ele>140.3</ele>
        <time>2015-01-11T10:42:45.000Z</time>
      </trkpt>
      <trkpt lat="50.60904" lon="4.17629">
        <ele>140</ele>
        <time>2015-01-11T10:42:46.000Z</time>
      </trkpt>
      <trkpt lat="50.60905" lon="4.17626">
        <ele>139.6</ele>
        <time>2015-01-11T10:42:47.000Z</time>
      </trkpt>
      <trkpt lat="50.60905" lon="4.17622">
        <ele>139.2</ele>
        <time>2015-01-11T10:42:48.000Z</time>
      </trkpt>
      <trkpt lat="50.60905" lon="4.17619">
        <ele>138.9</ele>
        <time>2015-01-11T10:42:49.000Z</time>
      </trkpt>
      <trkpt lat="50.60905" lon="4.17616">
        <ele>138.5</ele>
        <time>2015-01-11T10:42:50.000Z</time>
      </trkpt>
      <trkpt lat="50.60906" lon="4.17613">
        <ele>138.2</ele>
        <time>2015-01-11T10:42:51.000Z</time>
      </trkpt>
      <trkpt lat="50.60906" lon="4.1761">
        <ele>137.8</ele>
        <time>2015-01-11T10:42:52.000Z</time>
      </trkpt>
      <trkpt lat="50.60906" lon="4.17607">
        <ele>137.5</ele>
        <time>2015-01-11T10:42:53.000Z</time>
      </trkpt>
      <trkpt lat="50.60906" lon="4.17604">
        <ele>137.3</ele>
        <time>2015-01-11T10:42:54.000Z</time>
      </trkpt>
      <trkpt lat="50.60906" lon="4.17601">
        <ele>137</ele>
        <time>2015-01-11T10:42:55.000Z</time>
      </trkpt>
      <trkpt lat="50.60906" lon="4.17597">
        <ele>136.7</ele>
        <time>2015-01-11T10:42:56.000Z</time>
      </trkpt>
      <trkpt lat="50.60906" lon="4.17594">
        <ele>136.4</ele>
        <time>2015-01-11T10:42:57.000Z</time>
      </trkpt>
      <trkpt lat="50.60906" lon="4.17591">
        <ele>136.2</ele>
        <time>2015-01-11T10:42:58.000Z</time>
      </trkpt>
      <trkpt lat="50.60906" lon="4.17587">
        <ele>135.9</ele>
        <time>2015-01-11T10:42:59.000Z</time>
      </trkpt>
      <trkpt lat="50.60905" lon="4.17584">
        <ele>135.7</ele>
        <time>2015-01-11T10:43:00.000Z</time>
      </trkpt>
      <trkpt lat="50.60905" lon="4.17581">
        <ele>135.6</ele>
        <time>2015-01-11T10:43:01.000Z</time>
      </trkpt>
      <trkpt lat="50.60904" lon="4.17577">
        <ele>135.5</ele>
        <time>2015-01-11T10:43:02.000Z</time>
      </trkpt>
      <trkpt lat="50.60904" lon="4.17574">
        <ele>135.4</ele>
        <time>2015-01-11T10:43:03.000Z</time>
      </trkpt>
      <trkpt lat="50.60903" lon="4.17571">
        <ele>135.3</ele>
        <time>2015-01-11T10:43:04.000Z</time>
      </trkpt>
      <trkpt lat="50.60903" lon="4.17567">
        <ele>135.1</ele>
        <time>2015-01-11T10:43:05.000Z</time>
      </trkpt>
      <trkpt lat="50.60902" lon="4.17564">
        <ele>135</ele>
        <time>2015-01-11T10:43:06.000Z</time>
      </trkpt>
      <trkpt lat="50.60902" lon="4.1756">
        <ele>134.8</ele>
        <time>2015-01-11T10:43:07.000Z</time>
      </trkpt>
      <trkpt lat="50.60902" lon="4.17557">
        <ele>134.7</ele>
        <time>2015-01-11T10:43:08.000Z</time>
      </trkpt>
      <trkpt lat="50.60901" lon="4.17554">
        <ele>134.5</ele>
        <time>2015-01-11T10:43:09.000Z</time>
      </trkpt>
      <trkpt lat="50.60901" lon="4.17551">
        <ele>134.3</ele>
        <time>2015-01-11T10:43:10.000Z</time>
      </trkpt>
      <trkpt lat="50.60901" lon="4.17547">
        <ele>134.1</ele>
        <time>2015-01-11T10:43:11.000Z</time>
      </trkpt>
      <trkpt lat="50.60901" lon="4.17544">
        <ele>133.9</ele>
        <time>2015-01-11T10:43:12.000Z</time>
      </trkpt>
      <trkpt lat="50.609" lon="4.17541">
        <ele>133.7</ele>
        <time>2015-01-11T10:43:13.000Z</time>
      </trkpt>
      <trkpt lat="50.609" lon="4.17537">
        <ele>133.5</ele>
        <time>2015-01-11T10:43:14.000Z</time>
      </trkpt>
      <trkpt lat="50.609" lon="4.17534">
        <ele>133.3</ele>
        <time>2015-01-11T10:43:15.000Z</time>
      </trkpt>
      <trkpt lat="50.609" lon="4.17531">
        <ele>133</ele>
        <time>2015-01-11T10:43:16.000Z</time>
      </trkpt>
      <trkpt lat="50.609" lon="4.17528">
        <ele>132.8</ele>
        <time>2015-01-11T10:43:17.000Z</time>
      </trkpt>
      <trkpt lat="50.609" lon="4.17524">
        <ele>132.7</ele>
        <time>2015-01-11T10:43:18.000Z</time>
      </trkpt>
      <trkpt lat="50.609" lon="4.17521">
        <ele>132.6</ele>
        <time>2015-01-11T10:43:19.000Z</time>
      </trkpt>
      <trkpt lat="50.609" lon="4.17518">
        <ele>132.5</ele>
        <time>2015-01-11T10:43:20.000Z</time>
      </trkpt>
      <trkpt lat="50.609" lon="4.17515">
        <ele>132.3</ele>
        <time>2015-01-11T10:43:21.000Z</time>
      </trkpt>
      <trkpt lat="50.609" lon="4.17512">
        <ele>132.2</ele>
        <time>2015-01-11T10:43:22.000Z</time>
      </trkpt>
      <trkpt lat="50.609" lon="4.17508">
        <ele>132.1</ele>
        <time>2015-01-11T10:43:23.000Z</time>
      </trkpt>
      <trkpt lat="50.609" lon="4.17505">
        <ele>132</ele>
        <time>2015-01-11T10:43:24.000Z</time>
      </trkpt>
      <trkpt lat="50.609" lon="4.17502">
        <ele>131.9</ele>
        <time>2015-01-11T10:43:25.000Z</time>
      </trkpt>
      <trkpt lat="50.609" lon="4.17499">
        <ele>131.7</ele>
        <time>2015-01-11T10:43:26.000Z</time>
      </trkpt>
      <trkpt lat="50.609" lon="4.17496">
        <ele>131.5</ele>
        <time>2015-01-11T10:43:27.000Z</time>
      </trkpt>
      <trkpt lat="50.609" lon="4.17493">
        <ele>131.2</ele>
        <time>2015-01-11T10:43:28.000Z</time>
      </trkpt>
      <trkpt lat="50.609" lon="4.17489">
        <ele>131</ele>
        <time>2015-01-11T10:43:29.000Z</time>
      </trkpt>
      <trkpt lat="50.609" lon="4.17486">
        <ele>130.8</ele>
        <time>2015-01-11T10:43:30.000Z</time>
      </trkpt>
      <trkpt lat="50.609" lon="4.17483">
        <ele>130.6</ele>
        <time>2015-01-11T10:43:31.000Z</time>
      </trkpt>
      <trkpt lat="50.609" lon="4.17479">
        <ele>130.4</ele>
        <time>2015-01-11T10:43:32.000Z</time>
      </trkpt>
      <trkpt lat="50.60899" lon="4.17476">
        <ele>130.1</ele>
        <time>2015-01-11T10:43:33.000Z</time>
      </trkpt>
      <trkpt lat="50.60899" lon="4.17473">
        <ele>129.9</ele>
        <time>2015-01-11T10:43:34.000Z</time>
      </trkpt>
      <trkpt lat="50.60899" lon="4.1747">
        <ele>129.8</ele>
        <time>2015-01-11T10:43:35.000Z</time>
      </trkpt>
      <trkpt lat="50.60899" lon="4.17467">
        <ele>129.8</ele>
        <time>2015-01-11T10:43:36.000Z</time>
      </trkpt>
      <trkpt lat="50.60898" lon="4.17465">
        <ele>129.8</ele>
        <time>2015-01-11T10:43:37.000Z</time>
      </trkpt>
      <trkpt lat="50.60897" lon="4.17463">
        <ele>129.8</ele>
        <time>2015-01-11T10:43:38.000Z</time>
      </trkpt>
      <trkpt lat="50.60896" lon="4.17462">
        <ele>129.9</ele>
        <time>2015-01-11T10:43:39.000Z</time>
      </trkpt>
      <trkpt lat="50.60894" lon="4.1746">
        <ele>130</ele>
        <time>2015-01-11T10:43:40.000Z</time>
      </trkpt>
      <trkpt lat="50.60893" lon="4.17459">
        <ele>130.1</ele>
        <time>2015-01-11T10:43:41.000Z</time>
      </trkpt>
      <trkpt lat="50.60891" lon="4.17457">
        <ele>130.2</ele>
        <time>2015-01-11T10:43:42.000Z</time>
      </trkpt>
      <trkpt lat="50.6089" lon="4.17455">
        <ele>130.3</ele>
        <time>2015-01-11T10:43:43.000Z</time>
      </trkpt>
      <trkpt lat="50.60889" lon="4.17453">
        <ele>130.3</ele>
        <time>2015-01-11T10:43:44.000Z</time>
      </trkpt>
      <trkpt lat="50.60888" lon="4.17452">
        <ele>130.4</ele>
        <time>2015-01-11T10:43:45.000Z</time>
      </trkpt>
      <trkpt lat="50.60887" lon="4.1745">
        <ele>130.4</ele>
        <time>2015-01-11T10:43:46.000Z</time>
      </trkpt>
      <trkpt lat="50.60886" lon="4.17449">
        <ele>130.4</ele>
        <time>2015-01-11T10:43:47.000Z</time>
      </trkpt>
      <trkpt lat="50.60885" lon="4.17447">
        <ele>130.4</ele>
        <time>2015-01-11T10:43:48.000Z</time>
      </trkpt>
      <trkpt lat="50.60884" lon="4.17445">
        <ele>130.3</ele>
        <time>2015-01-11T10:43:49.000Z</time>
      </trkpt>
      <trkpt lat="50.60884" lon="4.17444">
        <ele>130.3</ele>
        <time>2015-01-11T10:43:50.000Z</time>
      </trkpt>
      <trkpt lat="50.60883" lon="4.17442">
        <ele>130.3</ele>
        <time>2015-01-11T10:43:51.000Z</time>
      </trkpt>
      <trkpt lat="50.60883" lon="4.1744">
        <ele>130.3</ele>
        <time>2015-01-11T10:43:52.000Z</time>
      </trkpt>
      <trkpt lat="50.60883" lon="4.17438">
        <ele>130.2</ele>
        <time>2015-01-11T10:43:53.000Z</time>
      </trkpt>
      <trkpt lat="50.60883" lon="4.17436">
        <ele>130.2</ele>
        <time>2015-01-11T10:43:54.000Z</time>
      </trkpt>
      <trkpt lat="50.60882" lon="4.17435">
        <ele>130.1</ele>
        <time>2015-01-11T10:43:55.000Z</time>
      </trkpt>
      <trkpt lat="50.60882" lon="4.17433">
        <ele>130.1</ele>
        <time>2015-01-11T10:43:56.000Z</time>
      </trkpt>
    </trkseg>
  </trk>
</gpx>